<?xml version="1.0" encoding="UTF-8" standalone="no" ?>
<gpx xmlns="http://www.topografix.com/GPX/1/1" xmlns:xsi="http://www.w3.org/2001/XMLSchema-instance" xsi:schemaLocation="http://www.topografix.com/GPX/1/1 http://www.topografix.com/GPX/1/1/gpx.xsd" version="1.1" creator="VisuGPX - https://www.visugpx.com">
  <metadata>
    <name>BN200 inverse</name>
  </metadata>
  <trk>
    <name><![CDATA[BN200 inverse]]></name>
    <trkseg>
      <trkpt lat="47.20261" lon="-1.75455">
        <ele>7.047834</ele>
        <time>2022-06-26T17:01:58.302Z</time>
      </trkpt>
      <trkpt lat="47.20268" lon="-1.75481">
        <ele>7.047834</ele>
        <time>2022-06-26T17:02:03.216Z</time>
      </trkpt>
      <trkpt lat="47.20273" lon="-1.75499">
        <ele>7.047834</ele>
        <time>2022-06-26T17:02:06.634Z</time>
      </trkpt>
      <trkpt lat="47.20288" lon="-1.7549">
        <ele>7.047834</ele>
        <time>2022-06-26T17:02:10.824Z</time>
      </trkpt>
      <trkpt lat="47.20292" lon="-1.75504">
        <ele>7.047834</ele>
        <time>2022-06-26T17:02:13.492Z</time>
      </trkpt>
      <trkpt lat="47.20302" lon="-1.75497">
        <ele>7.047834</ele>
        <time>2022-06-26T17:02:16.357Z</time>
      </trkpt>
      <trkpt lat="47.20317" lon="-1.75516">
        <ele>7.047834</ele>
        <time>2022-06-26T17:02:21.438Z</time>
      </trkpt>
      <trkpt lat="47.20345" lon="-1.75574">
        <ele>5.93283</ele>
        <time>2022-06-26T17:02:33.277Z</time>
      </trkpt>
      <trkpt lat="47.20379" lon="-1.75642">
        <ele>4.6096</ele>
        <time>2022-06-26T17:02:41.205Z</time>
      </trkpt>
      <trkpt lat="47.20399" lon="-1.75661">
        <ele>4.052472</ele>
        <time>2022-06-26T17:02:44.558Z</time>
      </trkpt>
      <trkpt lat="47.20427" lon="-1.75668">
        <ele>3.401375</ele>
        <time>2022-06-26T17:02:48.461Z</time>
      </trkpt>
      <trkpt lat="47.2044" lon="-1.75665">
        <ele>3.078049</ele>
        <time>2022-06-26T17:02:50.387Z</time>
      </trkpt>
      <trkpt lat="47.20454" lon="-1.75659">
        <ele>2.84143</ele>
        <time>2022-06-26T17:02:52.346Z</time>
      </trkpt>
      <trkpt lat="47.20469" lon="-1.75642">
        <ele>2.72055</ele>
        <time>2022-06-26T17:02:54.959Z</time>
      </trkpt>
      <trkpt lat="47.20481" lon="-1.75618">
        <ele>2.58981</ele>
        <time>2022-06-26T17:02:57.782Z</time>
      </trkpt>
      <trkpt lat="47.20502" lon="-1.75553">
        <ele>2.272701</ele>
        <time>2022-06-26T17:03:04.624Z</time>
      </trkpt>
      <trkpt lat="47.20564" lon="-1.75259">
        <ele>1.984858</ele>
        <time>2022-06-26T17:03:33.694Z</time>
      </trkpt>
      <trkpt lat="47.20576" lon="-1.75193">
        <ele>2.084647</ele>
        <time>2022-06-26T17:03:48.816Z</time>
      </trkpt>
      <trkpt lat="47.2059" lon="-1.75193">
        <ele>2.135998</ele>
        <time>2022-06-26T17:03:52.707Z</time>
      </trkpt>
      <trkpt lat="47.20602" lon="-1.75177">
        <ele>2.27294</ele>
        <time>2022-06-26T17:03:57.073Z</time>
      </trkpt>
      <trkpt lat="47.2061" lon="-1.75154">
        <ele>2.419959</ele>
        <time>2022-06-26T17:04:01.939Z</time>
      </trkpt>
      <trkpt lat="47.20659" lon="-1.75002">
        <ele>3.388297</ele>
        <time>2022-06-26T17:04:33.313Z</time>
      </trkpt>
      <trkpt lat="47.20673" lon="-1.74978">
        <ele>3.573443</ele>
        <time>2022-06-26T17:04:38.905Z</time>
      </trkpt>
      <trkpt lat="47.20695" lon="-1.74968">
        <ele>3.651557</ele>
        <time>2022-06-26T17:04:44.560Z</time>
      </trkpt>
      <trkpt lat="47.20722" lon="-1.74956">
        <ele>3.687943</ele>
        <time>2022-06-26T17:04:51.113Z</time>
      </trkpt>
      <trkpt lat="47.20845" lon="-1.74909">
        <ele>3.849643</ele>
        <time>2022-06-26T17:05:19.218Z</time>
      </trkpt>
      <trkpt lat="47.20899" lon="-1.7489">
        <ele>3.978715</ele>
        <time>2022-06-26T17:05:31.497Z</time>
      </trkpt>
      <trkpt lat="47.20918" lon="-1.74882">
        <ele>4.026509</ele>
        <time>2022-06-26T17:05:35.791Z</time>
      </trkpt>
      <trkpt lat="47.20939" lon="-1.74861">
        <ele>4.090701</ele>
        <time>2022-06-26T17:05:41.495Z</time>
      </trkpt>
      <trkpt lat="47.20947" lon="-1.7489">
        <ele>4.142528</ele>
        <time>2022-06-26T17:05:46.513Z</time>
      </trkpt>
      <trkpt lat="47.20946" lon="-1.74938">
        <ele>4.223676</ele>
        <time>2022-06-26T17:05:54.731Z</time>
      </trkpt>
      <trkpt lat="47.2094" lon="-1.75019">
        <ele>4.451095</ele>
        <time>2022-06-26T17:06:09.951Z</time>
      </trkpt>
      <trkpt lat="47.20929" lon="-1.75082">
        <ele>4.741058</ele>
        <time>2022-06-26T17:06:22.272Z</time>
      </trkpt>
      <trkpt lat="47.20931" lon="-1.75104">
        <ele>4.84051</ele>
        <time>2022-06-26T17:06:26.468Z</time>
      </trkpt>
      <trkpt lat="47.20973" lon="-1.75157">
        <ele>5.200915</ele>
        <time>2022-06-26T17:06:40.615Z</time>
      </trkpt>
      <trkpt lat="47.20998" lon="-1.75194">
        <ele>5.436102</ele>
        <time>2022-06-26T17:06:54.712Z</time>
      </trkpt>
      <trkpt lat="47.21019" lon="-1.75234">
        <ele>5.557517</ele>
        <time>2022-06-26T17:07:08.262Z</time>
      </trkpt>
      <trkpt lat="47.21033" lon="-1.7525">
        <ele>5.602532</ele>
        <time>2022-06-26T17:07:15.330Z</time>
      </trkpt>
      <trkpt lat="47.21064" lon="-1.75255">
        <ele>5.682831</ele>
        <time>2022-06-26T17:07:27.412Z</time>
      </trkpt>
      <trkpt lat="47.21114" lon="-1.75304">
        <ele>5.836832</ele>
        <time>2022-06-26T17:07:49.995Z</time>
      </trkpt>
      <trkpt lat="47.21142" lon="-1.75369">
        <ele>5.974338</ele>
        <time>2022-06-26T17:08:09.295Z</time>
      </trkpt>
      <trkpt lat="47.21157" lon="-1.75388">
        <ele>6.034744</ele>
        <time>2022-06-26T17:08:16.888Z</time>
      </trkpt>
      <trkpt lat="47.21184" lon="-1.75421">
        <ele>6.14325</ele>
        <time>2022-06-26T17:08:25.966Z</time>
      </trkpt>
      <trkpt lat="47.2122" lon="-1.75492">
        <ele>6.328076</ele>
        <time>2022-06-26T17:08:41.253Z</time>
      </trkpt>
      <trkpt lat="47.21237" lon="-1.75504">
        <ele>6.386486</ele>
        <time>2022-06-26T17:08:45.820Z</time>
      </trkpt>
      <trkpt lat="47.21253" lon="-1.75446">
        <ele>6.500542</ele>
        <time>2022-06-26T17:08:56.485Z</time>
      </trkpt>
      <trkpt lat="47.21285" lon="-1.75415">
        <ele>6.471546</ele>
        <time>2022-06-26T17:09:05.567Z</time>
      </trkpt>
      <trkpt lat="47.21321" lon="-1.7534">
        <ele>6.424516</ele>
        <time>2022-06-26T17:09:20.163Z</time>
      </trkpt>
      <trkpt lat="47.21359" lon="-1.75307">
        <ele>6.391057</ele>
        <time>2022-06-26T17:09:30.444Z</time>
      </trkpt>
      <trkpt lat="47.21359" lon="-1.75307">
        <ele>6.390981</ele>
        <time>2022-06-26T17:09:30.455Z</time>
      </trkpt>
      <trkpt lat="47.2138" lon="-1.75274">
        <ele>6.368136</ele>
        <time>2022-06-26T17:09:37.098Z</time>
      </trkpt>
      <trkpt lat="47.21389" lon="-1.75252">
        <ele>6.364643</ele>
        <time>2022-06-26T17:09:40.744Z</time>
      </trkpt>
      <trkpt lat="47.21406" lon="-1.75169">
        <ele>6.35272</ele>
        <time>2022-06-26T17:09:53.634Z</time>
      </trkpt>
      <trkpt lat="47.21442" lon="-1.75036">
        <ele>6.332964</ele>
        <time>2022-06-26T17:10:16.900Z</time>
      </trkpt>
      <trkpt lat="47.21442" lon="-1.75">
        <ele>6.602321</ele>
        <time>2022-06-26T17:10:23.396Z</time>
      </trkpt>
      <trkpt lat="47.21431" lon="-1.74941">
        <ele>7.204961</ele>
        <time>2022-06-26T17:10:35.196Z</time>
      </trkpt>
      <trkpt lat="47.21538" lon="-1.74827">
        <ele>9.121441</ele>
        <time>2022-06-26T17:11:17.871Z</time>
      </trkpt>
      <trkpt lat="47.21536" lon="-1.74824">
        <ele>9.161494</ele>
        <time>2022-06-26T17:11:18.681Z</time>
      </trkpt>
      <trkpt lat="47.21561" lon="-1.74802">
        <ele>9.596715</ele>
        <time>2022-06-26T17:11:32.701Z</time>
      </trkpt>
      <trkpt lat="47.21665" lon="-1.7465">
        <ele>11.620706</ele>
        <time>2022-06-26T17:12:37.896Z</time>
      </trkpt>
      <trkpt lat="47.21664" lon="-1.7464">
        <ele>11.62023</ele>
        <time>2022-06-26T17:12:40.516Z</time>
      </trkpt>
      <trkpt lat="47.21686" lon="-1.74585">
        <ele>11.617185</ele>
        <time>2022-06-26T17:12:56.701Z</time>
      </trkpt>
      <trkpt lat="47.21697" lon="-1.74573">
        <ele>11.616194</ele>
        <time>2022-06-26T17:13:01.912Z</time>
      </trkpt>
      <trkpt lat="47.21701" lon="-1.74566">
        <ele>11.615773</ele>
        <time>2022-06-26T17:13:04.152Z</time>
      </trkpt>
      <trkpt lat="47.21725" lon="-1.74513">
        <ele>11.612708</ele>
        <time>2022-06-26T17:13:19.833Z</time>
      </trkpt>
      <trkpt lat="47.21755" lon="-1.74477">
        <ele>11.609978</ele>
        <time>2022-06-26T17:13:33.428Z</time>
      </trkpt>
      <trkpt lat="47.21755" lon="-1.74477">
        <ele>11.609978</ele>
        <time>2022-06-26T17:13:33.437Z</time>
      </trkpt>
      <trkpt lat="47.21863" lon="-1.74397">
        <ele>11.200614</ele>
        <time>2022-06-26T17:14:16.202Z</time>
      </trkpt>
      <trkpt lat="47.21877" lon="-1.74369">
        <ele>11.10591</ele>
        <time>2022-06-26T17:14:24.800Z</time>
      </trkpt>
      <trkpt lat="47.21881" lon="-1.74351">
        <ele>11.055348</ele>
        <time>2022-06-26T17:14:29.534Z</time>
      </trkpt>
      <trkpt lat="47.21889" lon="-1.74341">
        <ele>11.016045</ele>
        <time>2022-06-26T17:14:33.149Z</time>
      </trkpt>
      <trkpt lat="47.21966" lon="-1.74294">
        <ele>10.915521</ele>
        <time>2022-06-26T17:14:52.667Z</time>
      </trkpt>
      <trkpt lat="47.22017" lon="-1.74242">
        <ele>10.937506</ele>
        <time>2022-06-26T17:15:07.614Z</time>
      </trkpt>
      <trkpt lat="47.22058" lon="-1.74229">
        <ele>10.952136</ele>
        <time>2022-06-26T17:15:17.469Z</time>
      </trkpt>
      <trkpt lat="47.22086" lon="-1.74244">
        <ele>10.948651</ele>
        <time>2022-06-26T17:15:24.412Z</time>
      </trkpt>
      <trkpt lat="47.22238" lon="-1.74207">
        <ele>10.708001</ele>
        <time>2022-06-26T17:15:59.219Z</time>
      </trkpt>
      <trkpt lat="47.22263" lon="-1.74259">
        <ele>10.646769</ele>
        <time>2022-06-26T17:16:09.073Z</time>
      </trkpt>
      <trkpt lat="47.22279" lon="-1.74269">
        <ele>10.624154</ele>
        <time>2022-06-26T17:16:13.020Z</time>
      </trkpt>
      <trkpt lat="47.22338" lon="-1.74282">
        <ele>10.545457</ele>
        <time>2022-06-26T17:16:26.662Z</time>
      </trkpt>
      <trkpt lat="47.22385" lon="-1.74288">
        <ele>10.482642</ele>
        <time>2022-06-26T17:16:37.527Z</time>
      </trkpt>
      <trkpt lat="47.22491" lon="-1.74282">
        <ele>10.303103</ele>
        <time>2022-06-26T17:17:01.332Z</time>
      </trkpt>
      <trkpt lat="47.22539" lon="-1.7432">
        <ele>10.202794</ele>
        <time>2022-06-26T17:17:13.333Z</time>
      </trkpt>
      <trkpt lat="47.22586" lon="-1.74338">
        <ele>10.113062</ele>
        <time>2022-06-26T17:17:24.239Z</time>
      </trkpt>
      <trkpt lat="47.22701" lon="-1.74277">
        <ele>10.390599</ele>
        <time>2022-06-26T17:17:54.292Z</time>
      </trkpt>
      <trkpt lat="47.22748" lon="-1.74242">
        <ele>10.512625</ele>
        <time>2022-06-26T17:18:07.529Z</time>
      </trkpt>
      <trkpt lat="47.22789" lon="-1.7421">
        <ele>10.585484</ele>
        <time>2022-06-26T17:18:18.965Z</time>
      </trkpt>
      <trkpt lat="47.22871" lon="-1.74174">
        <ele>10.707971</ele>
        <time>2022-06-26T17:18:39.996Z</time>
      </trkpt>
      <trkpt lat="47.22923" lon="-1.74189">
        <ele>10.783772</ele>
        <time>2022-06-26T17:18:52.060Z</time>
      </trkpt>
      <trkpt lat="47.23098" lon="-1.74206">
        <ele>10.424452</ele>
        <time>2022-06-26T17:19:31.673Z</time>
      </trkpt>
      <trkpt lat="47.23222" lon="-1.74241">
        <ele>9.755125</ele>
        <time>2022-06-26T17:19:59.479Z</time>
      </trkpt>
      <trkpt lat="47.23255" lon="-1.74245">
        <ele>9.578067</ele>
        <time>2022-06-26T17:20:06.435Z</time>
      </trkpt>
      <trkpt lat="47.23255" lon="-1.74228">
        <ele>9.51232</ele>
        <time>2022-06-26T17:20:10.642Z</time>
      </trkpt>
      <trkpt lat="47.23354" lon="-1.74068">
        <ele>8.315013</ele>
        <time>2022-06-26T17:21:01.507Z</time>
      </trkpt>
      <trkpt lat="47.23378" lon="-1.73987">
        <ele>7.858704</ele>
        <time>2022-06-26T17:21:22.319Z</time>
      </trkpt>
      <trkpt lat="47.23395" lon="-1.73959">
        <ele>7.757653</ele>
        <time>2022-06-26T17:21:31.285Z</time>
      </trkpt>
      <trkpt lat="47.23399" lon="-1.7394">
        <ele>7.703902</ele>
        <time>2022-06-26T17:21:35.991Z</time>
      </trkpt>
      <trkpt lat="47.23399" lon="-1.73873">
        <ele>7.524915</ele>
        <time>2022-06-26T17:21:48.312Z</time>
      </trkpt>
      <trkpt lat="47.23415" lon="-1.73853">
        <ele>7.442408</ele>
        <time>2022-06-26T17:21:54.019Z</time>
      </trkpt>
      <trkpt lat="47.2342" lon="-1.73843">
        <ele>7.407329</ele>
        <time>2022-06-26T17:21:56.456Z</time>
      </trkpt>
      <trkpt lat="47.23425" lon="-1.73846">
        <ele>7.386394</ele>
        <time>2022-06-26T17:21:57.591Z</time>
      </trkpt>
      <trkpt lat="47.23521" lon="-1.73702">
        <ele>8.484622</ele>
        <time>2022-06-26T17:22:52.605Z</time>
      </trkpt>
      <trkpt lat="47.23513" lon="-1.73685">
        <ele>8.683092</ele>
        <time>2022-06-26T17:22:57.852Z</time>
      </trkpt>
      <trkpt lat="47.23493" lon="-1.7364">
        <ele>9.220816</ele>
        <time>2022-06-26T17:23:12.580Z</time>
      </trkpt>
      <trkpt lat="47.2349" lon="-1.73642">
        <ele>9.266362</ele>
        <time>2022-06-26T17:23:13.644Z</time>
      </trkpt>
      <trkpt lat="47.23493" lon="-1.73565">
        <ele>10.218701</ele>
        <time>2022-06-26T17:23:39.832Z</time>
      </trkpt>
      <trkpt lat="47.23485" lon="-1.73475">
        <ele>11.865378</ele>
        <time>2022-06-26T17:24:11.834Z</time>
      </trkpt>
      <trkpt lat="47.23483" lon="-1.73313">
        <ele>14.694064</ele>
        <time>2022-06-26T17:25:08.166Z</time>
      </trkpt>
      <trkpt lat="47.23472" lon="-1.73266">
        <ele>14.958807</ele>
        <time>2022-06-26T17:25:24.034Z</time>
      </trkpt>
      <trkpt lat="47.23454" lon="-1.7322">
        <ele>15.233293</ele>
        <time>2022-06-26T17:25:38.932Z</time>
      </trkpt>
      <trkpt lat="47.23445" lon="-1.73141">
        <ele>15.658689</ele>
        <time>2022-06-26T17:26:00.379Z</time>
      </trkpt>
      <trkpt lat="47.2343" lon="-1.73067">
        <ele>16.017799</ele>
        <time>2022-06-26T17:26:19.472Z</time>
      </trkpt>
      <trkpt lat="47.2337" lon="-1.72901">
        <ele>15.115895</ele>
        <time>2022-06-26T17:27:03.890Z</time>
      </trkpt>
      <trkpt lat="47.23309" lon="-1.72638">
        <ele>14.200288</ele>
        <time>2022-06-26T17:28:10.294Z</time>
      </trkpt>
      <trkpt lat="47.23542" lon="-1.72502">
        <ele>14.697134</ele>
        <time>2022-06-26T17:29:10.913Z</time>
      </trkpt>
      <trkpt lat="47.23526" lon="-1.72442">
        <ele>14.778934</ele>
        <time>2022-06-26T17:29:21.305Z</time>
      </trkpt>
      <trkpt lat="47.23464" lon="-1.72277">
        <ele>15.105595</ele>
        <time>2022-06-26T17:29:51.849Z</time>
      </trkpt>
      <trkpt lat="47.23438" lon="-1.7222">
        <ele>15.382352</ele>
        <time>2022-06-26T17:30:03.085Z</time>
      </trkpt>
      <trkpt lat="47.23427" lon="-1.7219">
        <ele>15.518474</ele>
        <time>2022-06-26T17:30:08.997Z</time>
      </trkpt>
      <trkpt lat="47.2341" lon="-1.72105">
        <ele>15.874411</ele>
        <time>2022-06-26T17:30:24.905Z</time>
      </trkpt>
      <trkpt lat="47.23444" lon="-1.72124">
        <ele>16.186911</ele>
        <time>2022-06-26T17:30:35.612Z</time>
      </trkpt>
      <trkpt lat="47.23512" lon="-1.72094">
        <ele>17.475481</ele>
        <time>2022-06-26T17:30:58.648Z</time>
      </trkpt>
      <trkpt lat="47.23584" lon="-1.72078">
        <ele>18.795335</ele>
        <time>2022-06-26T17:31:23.826Z</time>
      </trkpt>
      <trkpt lat="47.2365" lon="-1.72014">
        <ele>20.423673</ele>
        <time>2022-06-26T17:31:53.775Z</time>
      </trkpt>
      <trkpt lat="47.23722" lon="-1.71842">
        <ele>23.355342</ele>
        <time>2022-06-26T17:32:42.641Z</time>
      </trkpt>
      <trkpt lat="47.23758" lon="-1.71805">
        <ele>23.915405</ele>
        <time>2022-06-26T17:32:56.570Z</time>
      </trkpt>
      <trkpt lat="47.23811" lon="-1.71653">
        <ele>25.400225</ele>
        <time>2022-06-26T17:33:31.048Z</time>
      </trkpt>
      <trkpt lat="47.23851" lon="-1.71412">
        <ele>27.682778</ele>
        <time>2022-06-26T17:34:24.153Z</time>
      </trkpt>
      <trkpt lat="47.23863" lon="-1.71318">
        <ele>28.174039</ele>
        <time>2022-06-26T17:34:45.231Z</time>
      </trkpt>
      <trkpt lat="47.23872" lon="-1.71302">
        <ele>28.232179</ele>
        <time>2022-06-26T17:34:49.090Z</time>
      </trkpt>
      <trkpt lat="47.23887" lon="-1.71294">
        <ele>28.296942</ele>
        <time>2022-06-26T17:34:53.795Z</time>
      </trkpt>
      <trkpt lat="47.23911" lon="-1.71238">
        <ele>28.482121</ele>
        <time>2022-06-26T17:35:05.052Z</time>
      </trkpt>
      <trkpt lat="47.23931" lon="-1.71152">
        <ele>28.73577</ele>
        <time>2022-06-26T17:35:20.110Z</time>
      </trkpt>
      <trkpt lat="47.23955" lon="-1.7109">
        <ele>28.609413</ele>
        <time>2022-06-26T17:35:31.379Z</time>
      </trkpt>
      <trkpt lat="47.23958" lon="-1.71079">
        <ele>28.587925</ele>
        <time>2022-06-26T17:35:33.100Z</time>
      </trkpt>
      <trkpt lat="47.23966" lon="-1.71074">
        <ele>28.562586</ele>
        <time>2022-06-26T17:35:35.065Z</time>
      </trkpt>
      <trkpt lat="47.23988" lon="-1.71054">
        <ele>28.491388</ele>
        <time>2022-06-26T17:35:40.512Z</time>
      </trkpt>
      <trkpt lat="47.24036" lon="-1.70979">
        <ele>28.293865</ele>
        <time>2022-06-26T17:35:56.099Z</time>
      </trkpt>
      <trkpt lat="47.24063" lon="-1.7095">
        <ele>28.411464</ele>
        <time>2022-06-26T17:36:04.100Z</time>
      </trkpt>
      <trkpt lat="47.24067" lon="-1.70946">
        <ele>28.480208</ele>
        <time>2022-06-26T17:36:05.355Z</time>
      </trkpt>
      <trkpt lat="47.24126" lon="-1.70894">
        <ele>29.41168</ele>
        <time>2022-06-26T17:36:24.367Z</time>
      </trkpt>
      <trkpt lat="47.24159" lon="-1.70891">
        <ele>29.869753</ele>
        <time>2022-06-26T17:36:34.671Z</time>
      </trkpt>
      <trkpt lat="47.2418" lon="-1.70881">
        <ele>30.165967</ele>
        <time>2022-06-26T17:36:41.943Z</time>
      </trkpt>
      <trkpt lat="47.24252" lon="-1.70818">
        <ele>32.087098</ele>
        <time>2022-06-26T17:37:11.584Z</time>
      </trkpt>
      <trkpt lat="47.24439" lon="-1.70758">
        <ele>37.914614</ele>
        <time>2022-06-26T17:38:27.867Z</time>
      </trkpt>
      <trkpt lat="47.24448" lon="-1.70755">
        <ele>38.193029</ele>
        <time>2022-06-26T17:38:31.589Z</time>
      </trkpt>
      <trkpt lat="47.24504" lon="-1.70729">
        <ele>39.950571</ele>
        <time>2022-06-26T17:38:54.471Z</time>
      </trkpt>
      <trkpt lat="47.24621" lon="-1.70658">
        <ele>43.05791</ele>
        <time>2022-06-26T17:39:39.270Z</time>
      </trkpt>
      <trkpt lat="47.24688" lon="-1.70604">
        <ele>44.595509</ele>
        <time>2022-06-26T17:40:03.551Z</time>
      </trkpt>
      <trkpt lat="47.24709" lon="-1.70599">
        <ele>45.02688</ele>
        <time>2022-06-26T17:40:10.226Z</time>
      </trkpt>
      <trkpt lat="47.24727" lon="-1.706">
        <ele>45.393573</ele>
        <time>2022-06-26T17:40:15.843Z</time>
      </trkpt>
      <trkpt lat="47.24774" lon="-1.70617">
        <ele>46.435509</ele>
        <time>2022-06-26T17:40:31.031Z</time>
      </trkpt>
      <trkpt lat="47.25036" lon="-1.70725">
        <ele>53.026105</ele>
        <time>2022-06-26T17:42:06.472Z</time>
      </trkpt>
      <trkpt lat="47.25178" lon="-1.70787">
        <ele>57.60699</ele>
        <time>2022-06-26T17:43:07.587Z</time>
      </trkpt>
      <trkpt lat="47.25201" lon="-1.7079">
        <ele>58.334763</ele>
        <time>2022-06-26T17:43:16.586Z</time>
      </trkpt>
      <trkpt lat="47.25269" lon="-1.70752">
        <ele>60.132324</ele>
        <time>2022-06-26T17:43:43.169Z</time>
      </trkpt>
      <trkpt lat="47.25298" lon="-1.70745">
        <ele>60.577578</ele>
        <time>2022-06-26T17:43:52.754Z</time>
      </trkpt>
      <trkpt lat="47.25417" lon="-1.70734">
        <ele>62.365848</ele>
        <time>2022-06-26T17:44:26.889Z</time>
      </trkpt>
      <trkpt lat="47.25555" lon="-1.70742">
        <ele>63.103886</ele>
        <time>2022-06-26T17:45:02.493Z</time>
      </trkpt>
      <trkpt lat="47.25595" lon="-1.70744">
        <ele>63.314556</ele>
        <time>2022-06-26T17:45:12.405Z</time>
      </trkpt>
      <trkpt lat="47.2565" lon="-1.70747">
        <ele>63.265379</ele>
        <time>2022-06-26T17:45:25.962Z</time>
      </trkpt>
      <trkpt lat="47.25755" lon="-1.70759">
        <ele>63.155579</ele>
        <time>2022-06-26T17:45:50.157Z</time>
      </trkpt>
      <trkpt lat="47.25777" lon="-1.70754">
        <ele>63.10758</ele>
        <time>2022-06-26T17:45:55.047Z</time>
      </trkpt>
      <trkpt lat="47.25904" lon="-1.70645">
        <ele>61.064094</ele>
        <time>2022-06-26T17:46:24.890Z</time>
      </trkpt>
      <trkpt lat="47.25971" lon="-1.70566">
        <ele>59.639392</ele>
        <time>2022-06-26T17:46:40.862Z</time>
      </trkpt>
      <trkpt lat="47.26034" lon="-1.70511">
        <ele>58.301654</ele>
        <time>2022-06-26T17:46:54.798Z</time>
      </trkpt>
      <trkpt lat="47.26063" lon="-1.70487">
        <ele>57.702664</ele>
        <time>2022-06-26T17:47:01.189Z</time>
      </trkpt>
      <trkpt lat="47.26072" lon="-1.70479">
        <ele>57.508335</ele>
        <time>2022-06-26T17:47:03.283Z</time>
      </trkpt>
      <trkpt lat="47.2621" lon="-1.70365">
        <ele>57.939137</ele>
        <time>2022-06-26T17:47:42.645Z</time>
      </trkpt>
      <trkpt lat="47.26222" lon="-1.70355">
        <ele>57.992491</ele>
        <time>2022-06-26T17:47:47.086Z</time>
      </trkpt>
      <trkpt lat="47.26271" lon="-1.70318">
        <ele>58.477845</ele>
        <time>2022-06-26T17:48:03.899Z</time>
      </trkpt>
      <trkpt lat="47.26283" lon="-1.7031">
        <ele>58.620961</ele>
        <time>2022-06-26T17:48:07.843Z</time>
      </trkpt>
      <trkpt lat="47.26324" lon="-1.70275">
        <ele>59.134375</ele>
        <time>2022-06-26T17:48:21.571Z</time>
      </trkpt>
      <trkpt lat="47.26339" lon="-1.70262">
        <ele>59.328465</ele>
        <time>2022-06-26T17:48:26.953Z</time>
      </trkpt>
      <trkpt lat="47.26324" lon="-1.70275">
        <ele>59.522554</ele>
        <time>2022-06-26T17:48:31.967Z</time>
      </trkpt>
      <trkpt lat="47.26327" lon="-1.70289">
        <ele>59.632659</ele>
        <time>2022-06-26T17:48:36.392Z</time>
      </trkpt>
      <trkpt lat="47.26283" lon="-1.7033">
        <ele>60.111253</ele>
        <time>2022-06-26T17:48:58.020Z</time>
      </trkpt>
      <trkpt lat="47.26282" lon="-1.70343">
        <ele>60.161792</ele>
        <time>2022-06-26T17:49:01.261Z</time>
      </trkpt>
      <trkpt lat="47.26358" lon="-1.70481">
        <ele>60.864848</ele>
        <time>2022-06-26T17:49:47.463Z</time>
      </trkpt>
      <trkpt lat="47.26366" lon="-1.70482">
        <ele>60.910464</ele>
        <time>2022-06-26T17:49:50.914Z</time>
      </trkpt>
      <trkpt lat="47.26623" lon="-1.70373">
        <ele>63.880439</ele>
        <time>2022-06-26T17:51:45.260Z</time>
      </trkpt>
      <trkpt lat="47.26623" lon="-1.70373">
        <ele>63.883107</ele>
        <time>2022-06-26T17:51:45.704Z</time>
      </trkpt>
      <trkpt lat="47.26903" lon="-1.70309">
        <ele>67.18159</ele>
        <time>2022-06-26T17:53:48.006Z</time>
      </trkpt>
      <trkpt lat="47.26908" lon="-1.70252">
        <ele>67.205876</ele>
        <time>2022-06-26T17:54:03.709Z</time>
      </trkpt>
      <trkpt lat="47.26927" lon="-1.70038">
        <ele>66.54357</ele>
        <time>2022-06-26T17:54:55.356Z</time>
      </trkpt>
      <trkpt lat="47.26957" lon="-1.6984">
        <ele>65.024063</ele>
        <time>2022-06-26T17:55:41.309Z</time>
      </trkpt>
      <trkpt lat="47.26961" lon="-1.69745">
        <ele>64.489089</ele>
        <time>2022-06-26T17:56:03.769Z</time>
      </trkpt>
      <trkpt lat="47.2697" lon="-1.69738">
        <ele>64.522225</ele>
        <time>2022-06-26T17:56:06.082Z</time>
      </trkpt>
      <trkpt lat="47.26976" lon="-1.69734">
        <ele>64.544441</ele>
        <time>2022-06-26T17:56:07.630Z</time>
      </trkpt>
      <trkpt lat="47.27002" lon="-1.69805">
        <ele>64.719154</ele>
        <time>2022-06-26T17:56:20.194Z</time>
      </trkpt>
      <trkpt lat="47.27076" lon="-1.69766">
        <ele>64.970915</ele>
        <time>2022-06-26T17:56:53.038Z</time>
      </trkpt>
      <trkpt lat="47.27335" lon="-1.69632">
        <ele>67.031054</ele>
        <time>2022-06-26T17:58:45.964Z</time>
      </trkpt>
      <trkpt lat="47.27314" lon="-1.69615">
        <ele>67.179778</ele>
        <time>2022-06-26T17:58:52.355Z</time>
      </trkpt>
      <trkpt lat="47.27302" lon="-1.69596">
        <ele>67.288358</ele>
        <time>2022-06-26T17:58:56.927Z</time>
      </trkpt>
      <trkpt lat="47.27222" lon="-1.69367">
        <ele>67.646246</ele>
        <time>2022-06-26T17:59:39.886Z</time>
      </trkpt>
      <trkpt lat="47.2722" lon="-1.69363">
        <ele>67.6458</ele>
        <time>2022-06-26T17:59:40.606Z</time>
      </trkpt>
      <trkpt lat="47.27216" lon="-1.69346">
        <ele>67.644155</ele>
        <time>2022-06-26T17:59:43.283Z</time>
      </trkpt>
      <trkpt lat="47.27245" lon="-1.69328">
        <ele>67.639827</ele>
        <time>2022-06-26T17:59:54.517Z</time>
      </trkpt>
      <trkpt lat="47.27264" lon="-1.69211">
        <ele>66.993357</ele>
        <time>2022-06-26T18:00:23.282Z</time>
      </trkpt>
      <trkpt lat="47.27287" lon="-1.69165">
        <ele>66.600397</ele>
        <time>2022-06-26T18:00:36.605Z</time>
      </trkpt>
      <trkpt lat="47.27315" lon="-1.69076">
        <ele>65.923587</ele>
        <time>2022-06-26T18:00:59.032Z</time>
      </trkpt>
      <trkpt lat="47.27384" lon="-1.69035">
        <ele>65.025952</ele>
        <time>2022-06-26T18:01:23.976Z</time>
      </trkpt>
      <trkpt lat="47.27424" lon="-1.69019">
        <ele>64.500108</ele>
        <time>2022-06-26T18:01:38.112Z</time>
      </trkpt>
      <trkpt lat="47.27483" lon="-1.69007">
        <ele>63.75955</ele>
        <time>2022-06-26T18:01:58.348Z</time>
      </trkpt>
      <trkpt lat="47.27565" lon="-1.68989">
        <ele>62.847337</ele>
        <time>2022-06-26T18:02:26.896Z</time>
      </trkpt>
      <trkpt lat="47.27636" lon="-1.69007">
        <ele>62.077558</ele>
        <time>2022-06-26T18:02:52.516Z</time>
      </trkpt>
      <trkpt lat="47.27653" lon="-1.68995">
        <ele>61.876017</ele>
        <time>2022-06-26T18:02:58.925Z</time>
      </trkpt>
      <trkpt lat="47.27679" lon="-1.6896">
        <ele>61.191579</ele>
        <time>2022-06-26T18:03:10.618Z</time>
      </trkpt>
      <trkpt lat="47.27721" lon="-1.68943">
        <ele>59.703021</ele>
        <time>2022-06-26T18:03:24.496Z</time>
      </trkpt>
      <trkpt lat="47.27773" lon="-1.6897">
        <ele>57.815534</ele>
        <time>2022-06-26T18:03:41.210Z</time>
      </trkpt>
      <trkpt lat="47.27915" lon="-1.69099">
        <ele>51.921004</ele>
        <time>2022-06-26T18:04:29.998Z</time>
      </trkpt>
      <trkpt lat="47.27996" lon="-1.69095">
        <ele>48.998741</ele>
        <time>2022-06-26T18:04:55.254Z</time>
      </trkpt>
      <trkpt lat="47.28037" lon="-1.69113">
        <ele>49.005658</ele>
        <time>2022-06-26T18:05:09.648Z</time>
      </trkpt>
      <trkpt lat="47.28075" lon="-1.6911">
        <ele>49.011771</ele>
        <time>2022-06-26T18:05:23.449Z</time>
      </trkpt>
      <trkpt lat="47.28125" lon="-1.69097">
        <ele>49.02004</ele>
        <time>2022-06-26T18:05:44.548Z</time>
      </trkpt>
      <trkpt lat="47.28144" lon="-1.69098">
        <ele>49.023112</ele>
        <time>2022-06-26T18:05:52.847Z</time>
      </trkpt>
      <trkpt lat="47.2816" lon="-1.69108">
        <ele>49.025924</ele>
        <time>2022-06-26T18:06:00.279Z</time>
      </trkpt>
      <trkpt lat="47.28189" lon="-1.69143">
        <ele>49.426232</ele>
        <time>2022-06-26T18:06:16.821Z</time>
      </trkpt>
      <trkpt lat="47.28194" lon="-1.69199">
        <ele>50.027127</ele>
        <time>2022-06-26T18:06:34.012Z</time>
      </trkpt>
      <trkpt lat="47.28192" lon="-1.69226">
        <ele>50.307396</ele>
        <time>2022-06-26T18:06:42.290Z</time>
      </trkpt>
      <trkpt lat="47.28206" lon="-1.69213">
        <ele>50.561637</ele>
        <time>2022-06-26T18:06:47.042Z</time>
      </trkpt>
      <trkpt lat="47.28215" lon="-1.69213">
        <ele>50.696744</ele>
        <time>2022-06-26T18:06:49.843Z</time>
      </trkpt>
      <trkpt lat="47.28351" lon="-1.6924">
        <ele>53.178095</ele>
        <time>2022-06-26T18:07:33.532Z</time>
      </trkpt>
      <trkpt lat="47.28433" lon="-1.69258">
        <ele>54.900464</ele>
        <time>2022-06-26T18:08:01.766Z</time>
      </trkpt>
      <trkpt lat="47.28558" lon="-1.6928">
        <ele>57.192097</ele>
        <time>2022-06-26T18:08:46.058Z</time>
      </trkpt>
      <trkpt lat="47.28576" lon="-1.69279">
        <ele>57.509976</ele>
        <time>2022-06-26T18:08:52.214Z</time>
      </trkpt>
      <trkpt lat="47.28646" lon="-1.69249">
        <ele>58.626926</ele>
        <time>2022-06-26T18:09:13.432Z</time>
      </trkpt>
      <trkpt lat="47.28643" lon="-1.69224">
        <ele>58.434323</ele>
        <time>2022-06-26T18:09:17.511Z</time>
      </trkpt>
      <trkpt lat="47.28669" lon="-1.6921">
        <ele>58.130639</ele>
        <time>2022-06-26T18:09:27.432Z</time>
      </trkpt>
      <trkpt lat="47.28684" lon="-1.69203">
        <ele>57.96018</ele>
        <time>2022-06-26T18:09:32.930Z</time>
      </trkpt>
      <trkpt lat="47.28751" lon="-1.69161">
        <ele>57.169169</ele>
        <time>2022-06-26T18:09:57.262Z</time>
      </trkpt>
      <trkpt lat="47.28795" lon="-1.69098">
        <ele>56.512535</ele>
        <time>2022-06-26T18:10:16.995Z</time>
      </trkpt>
      <trkpt lat="47.28824" lon="-1.69042">
        <ele>56.01285</ele>
        <time>2022-06-26T18:10:32.444Z</time>
      </trkpt>
      <trkpt lat="47.28837" lon="-1.69026">
        <ele>55.840201</ele>
        <time>2022-06-26T18:10:38.025Z</time>
      </trkpt>
      <trkpt lat="47.28851" lon="-1.69021">
        <ele>55.689242</ele>
        <time>2022-06-26T18:10:42.807Z</time>
      </trkpt>
      <trkpt lat="47.28873" lon="-1.69033">
        <ele>55.453167</ele>
        <time>2022-06-26T18:10:50.766Z</time>
      </trkpt>
      <trkpt lat="47.28886" lon="-1.69039">
        <ele>55.309248</ele>
        <time>2022-06-26T18:10:55.509Z</time>
      </trkpt>
      <trkpt lat="47.28908" lon="-1.6903">
        <ele>55.072223</ele>
        <time>2022-06-26T18:11:04.178Z</time>
      </trkpt>
      <trkpt lat="47.28936" lon="-1.68985">
        <ele>55.26608</ele>
        <time>2022-06-26T18:11:20.795Z</time>
      </trkpt>
      <trkpt lat="47.28947" lon="-1.69">
        <ele>55.579401</ele>
        <time>2022-06-26T18:11:27.792Z</time>
      </trkpt>
      <trkpt lat="47.28957" lon="-1.69002">
        <ele>55.764037</ele>
        <time>2022-06-26T18:11:32.003Z</time>
      </trkpt>
      <trkpt lat="47.29083" lon="-1.69001">
        <ele>58.315998</ele>
        <time>2022-06-26T18:12:34.093Z</time>
      </trkpt>
      <trkpt lat="47.2917" lon="-1.69021">
        <ele>60.446795</ele>
        <time>2022-06-26T18:13:20.123Z</time>
      </trkpt>
      <trkpt lat="47.29215" lon="-1.69006">
        <ele>61.586989</ele>
        <time>2022-06-26T18:13:43.023Z</time>
      </trkpt>
      <trkpt lat="47.2927" lon="-1.68977">
        <ele>62.958486</ele>
        <time>2022-06-26T18:14:10.867Z</time>
      </trkpt>
      <trkpt lat="47.29368" lon="-1.68887">
        <ele>64.030532</ele>
        <time>2022-06-26T18:15:00.817Z</time>
      </trkpt>
      <trkpt lat="47.29458" lon="-1.69013">
        <ele>63.922164</ele>
        <time>2022-06-26T18:15:47.262Z</time>
      </trkpt>
      <trkpt lat="47.29588" lon="-1.6918">
        <ele>61.453396</ele>
        <time>2022-06-26T18:16:44.269Z</time>
      </trkpt>
      <trkpt lat="47.29612" lon="-1.69212">
        <ele>60.744544</ele>
        <time>2022-06-26T18:16:54.304Z</time>
      </trkpt>
      <trkpt lat="47.2961" lon="-1.69252">
        <ele>60.124439</ele>
        <time>2022-06-26T18:17:03.054Z</time>
      </trkpt>
      <trkpt lat="47.29587" lon="-1.69342">
        <ele>58.676546</ele>
        <time>2022-06-26T18:17:23.601Z</time>
      </trkpt>
      <trkpt lat="47.29594" lon="-1.69455">
        <ele>57.368005</ele>
        <time>2022-06-26T18:17:48.171Z</time>
      </trkpt>
      <trkpt lat="47.29644" lon="-1.69587">
        <ele>55.659927</ele>
        <time>2022-06-26T18:18:22.563Z</time>
      </trkpt>
      <trkpt lat="47.29648" lon="-1.69619">
        <ele>55.92499</ele>
        <time>2022-06-26T18:18:30.630Z</time>
      </trkpt>
      <trkpt lat="47.29648" lon="-1.69636">
        <ele>56.057294</ele>
        <time>2022-06-26T18:18:34.881Z</time>
      </trkpt>
      <trkpt lat="47.29616" lon="-1.69698">
        <ele>56.679508</ele>
        <time>2022-06-26T18:18:56.146Z</time>
      </trkpt>
      <trkpt lat="47.29581" lon="-1.69759">
        <ele>57.317343</ele>
        <time>2022-06-26T18:19:20.803Z</time>
      </trkpt>
      <trkpt lat="47.2957" lon="-1.70045">
        <ele>62.46682</ele>
        <time>2022-06-26T18:21:02.813Z</time>
      </trkpt>
      <trkpt lat="47.29573" lon="-1.7012">
        <ele>63.924204</ele>
        <time>2022-06-26T18:21:29.803Z</time>
      </trkpt>
      <trkpt lat="47.29587" lon="-1.70163">
        <ele>64.796987</ele>
        <time>2022-06-26T18:21:46.130Z</time>
      </trkpt>
      <trkpt lat="47.29625" lon="-1.70233">
        <ele>66.438484</ele>
        <time>2022-06-26T18:22:16.256Z</time>
      </trkpt>
      <trkpt lat="47.2968" lon="-1.70189">
        <ele>68.10065</ele>
        <time>2022-06-26T18:22:46.921Z</time>
      </trkpt>
      <trkpt lat="47.29697" lon="-1.70152">
        <ele>68.732809</ele>
        <time>2022-06-26T18:23:02.942Z</time>
      </trkpt>
      <trkpt lat="47.29711" lon="-1.7014">
        <ele>69.06968</ele>
        <time>2022-06-26T18:23:11.816Z</time>
      </trkpt>
      <trkpt lat="47.29767" lon="-1.70147">
        <ele>70.209632</ele>
        <time>2022-06-26T18:23:38.680Z</time>
      </trkpt>
      <trkpt lat="47.29824" lon="-1.70174">
        <ele>71.45203</ele>
        <time>2022-06-26T18:24:05.236Z</time>
      </trkpt>
      <trkpt lat="47.29839" lon="-1.70199">
        <ele>71.786554</ele>
        <time>2022-06-26T18:24:15.234Z</time>
      </trkpt>
      <trkpt lat="47.29831" lon="-1.70254">
        <ele>71.926229</ele>
        <time>2022-06-26T18:24:31.465Z</time>
      </trkpt>
      <trkpt lat="47.29835" lon="-1.70281">
        <ele>71.995079</ele>
        <time>2022-06-26T18:24:38.976Z</time>
      </trkpt>
      <trkpt lat="47.29868" lon="-1.7039">
        <ele>72.294379</ele>
        <time>2022-06-26T18:25:10.282Z</time>
      </trkpt>
      <trkpt lat="47.29894" lon="-1.70442">
        <ele>72.430571</ele>
        <time>2022-06-26T18:25:25.613Z</time>
      </trkpt>
      <trkpt lat="47.29943" lon="-1.70491">
        <ele>72.494857</ele>
        <time>2022-06-26T18:25:46.622Z</time>
      </trkpt>
      <trkpt lat="47.29976" lon="-1.70474">
        <ele>72.532704</ele>
        <time>2022-06-26T18:25:59.450Z</time>
      </trkpt>
      <trkpt lat="47.30039" lon="-1.70461">
        <ele>72.602048</ele>
        <time>2022-06-26T18:26:25.129Z</time>
      </trkpt>
      <trkpt lat="47.30052" lon="-1.70453">
        <ele>72.62975</ele>
        <time>2022-06-26T18:26:28.991Z</time>
      </trkpt>
      <trkpt lat="47.30097" lon="-1.70389">
        <ele>73.163902</ele>
        <time>2022-06-26T18:26:46.657Z</time>
      </trkpt>
      <trkpt lat="47.30119" lon="-1.70425">
        <ele>73.447965</ele>
        <time>2022-06-26T18:26:55.525Z</time>
      </trkpt>
      <trkpt lat="47.30127" lon="-1.70449">
        <ele>73.607482</ele>
        <time>2022-06-26T18:27:00.107Z</time>
      </trkpt>
      <trkpt lat="47.30151" lon="-1.70589">
        <ele>74.383066</ele>
        <time>2022-06-26T18:27:27.359Z</time>
      </trkpt>
      <trkpt lat="47.30192" lon="-1.70589">
        <ele>74.649413</ele>
        <time>2022-06-26T18:27:39.086Z</time>
      </trkpt>
      <trkpt lat="47.30204" lon="-1.70591">
        <ele>74.725964</ele>
        <time>2022-06-26T18:27:43.669Z</time>
      </trkpt>
      <trkpt lat="47.3024" lon="-1.70732">
        <ele>75.341332</ele>
        <time>2022-06-26T18:28:24.154Z</time>
      </trkpt>
      <trkpt lat="47.30334" lon="-1.71086">
        <ele>75.044698</ele>
        <time>2022-06-26T18:29:59.474Z</time>
      </trkpt>
      <trkpt lat="47.30342" lon="-1.71094">
        <ele>75.003255</ele>
        <time>2022-06-26T18:30:01.421Z</time>
      </trkpt>
      <trkpt lat="47.3035" lon="-1.71086">
        <ele>74.958153</ele>
        <time>2022-06-26T18:30:03.513Z</time>
      </trkpt>
      <trkpt lat="47.30413" lon="-1.71191">
        <ele>74.437202</ele>
        <time>2022-06-26T18:30:36.714Z</time>
      </trkpt>
      <trkpt lat="47.30464" lon="-1.71288">
        <ele>73.678665</ele>
        <time>2022-06-26T18:31:05.740Z</time>
      </trkpt>
      <trkpt lat="47.30521" lon="-1.71411">
        <ele>72.698356</ele>
        <time>2022-06-26T18:31:40.733Z</time>
      </trkpt>
      <trkpt lat="47.31085" lon="-1.71275">
        <ele>66.540559</ele>
        <time>2022-06-26T18:34:55.332Z</time>
      </trkpt>
      <trkpt lat="47.31154" lon="-1.71263">
        <ele>66.344915</ele>
        <time>2022-06-26T18:35:20.679Z</time>
      </trkpt>
      <trkpt lat="47.31164" lon="-1.71263">
        <ele>66.317865</ele>
        <time>2022-06-26T18:35:24.379Z</time>
      </trkpt>
      <trkpt lat="47.31175" lon="-1.71285">
        <ele>66.266533</ele>
        <time>2022-06-26T18:35:31.518Z</time>
      </trkpt>
      <trkpt lat="47.31189" lon="-1.71298">
        <ele>66.219986</ele>
        <time>2022-06-26T18:35:38.117Z</time>
      </trkpt>
      <trkpt lat="47.31206" lon="-1.713">
        <ele>66.318691</ele>
        <time>2022-06-26T18:35:44.993Z</time>
      </trkpt>
      <trkpt lat="47.31254" lon="-1.71289">
        <ele>67.06263</ele>
        <time>2022-06-26T18:36:05.827Z</time>
      </trkpt>
      <trkpt lat="47.31545" lon="-1.71145">
        <ele>72.128797</ele>
        <time>2022-06-26T18:38:28.323Z</time>
      </trkpt>
      <trkpt lat="47.31585" lon="-1.70902">
        <ele>73.640859</ele>
        <time>2022-06-26T18:39:14.473Z</time>
      </trkpt>
      <trkpt lat="47.31716" lon="-1.71357">
        <ele>75.421717</ele>
        <time>2022-06-26T18:40:41.502Z</time>
      </trkpt>
      <trkpt lat="47.31765" lon="-1.71318">
        <ele>75.452712</ele>
        <time>2022-06-26T18:40:54.688Z</time>
      </trkpt>
      <trkpt lat="47.31799" lon="-1.71301">
        <ele>75.298301</ele>
        <time>2022-06-26T18:41:02.904Z</time>
      </trkpt>
      <trkpt lat="47.31898" lon="-1.71283">
        <ele>74.870215</ele>
        <time>2022-06-26T18:41:24.568Z</time>
      </trkpt>
      <trkpt lat="47.32011" lon="-1.71279">
        <ele>73.552385</ele>
        <time>2022-06-26T18:41:47.696Z</time>
      </trkpt>
      <trkpt lat="47.3207" lon="-1.71294">
        <ele>72.753971</ele>
        <time>2022-06-26T18:41:59.684Z</time>
      </trkpt>
      <trkpt lat="47.32154" lon="-1.71309">
        <ele>71.591452</ele>
        <time>2022-06-26T18:42:16.323Z</time>
      </trkpt>
      <trkpt lat="47.322" lon="-1.71307">
        <ele>70.935</ele>
        <time>2022-06-26T18:42:25.629Z</time>
      </trkpt>
      <trkpt lat="47.32214" lon="-1.71288">
        <ele>70.668573</ele>
        <time>2022-06-26T18:42:29.425Z</time>
      </trkpt>
      <trkpt lat="47.32245" lon="-1.71208">
        <ele>69.783627</ele>
        <time>2022-06-26T18:42:42.126Z</time>
      </trkpt>
      <trkpt lat="47.32265" lon="-1.7111">
        <ele>68.79966</ele>
        <time>2022-06-26T18:42:56.113Z</time>
      </trkpt>
      <trkpt lat="47.32319" lon="-1.71047">
        <ele>67.819653</ele>
        <time>2022-06-26T18:43:10.194Z</time>
      </trkpt>
      <trkpt lat="47.32357" lon="-1.71022">
        <ele>67.125415</ele>
        <time>2022-06-26T18:43:18.416Z</time>
      </trkpt>
      <trkpt lat="47.32392" lon="-1.71008">
        <ele>65.958428</ele>
        <time>2022-06-26T18:43:25.436Z</time>
      </trkpt>
      <trkpt lat="47.32466" lon="-1.70997">
        <ele>63.607974</ele>
        <time>2022-06-26T18:43:38.887Z</time>
      </trkpt>
      <trkpt lat="47.32503" lon="-1.70879">
        <ele>60.25913</ele>
        <time>2022-06-26T18:43:54.092Z</time>
      </trkpt>
      <trkpt lat="47.32532" lon="-1.70881">
        <ele>58.714243</ele>
        <time>2022-06-26T18:44:02.295Z</time>
      </trkpt>
      <trkpt lat="47.32615" lon="-1.70905">
        <ele>54.206453</ele>
        <time>2022-06-26T18:44:26.150Z</time>
      </trkpt>
      <trkpt lat="47.32651" lon="-1.70907">
        <ele>52.2896</ele>
        <time>2022-06-26T18:44:36.290Z</time>
      </trkpt>
      <trkpt lat="47.32681" lon="-1.70871">
        <ele>50.814706</ele>
        <time>2022-06-26T18:44:47.088Z</time>
      </trkpt>
      <trkpt lat="47.32727" lon="-1.70774">
        <ele>47.903959</ele>
        <time>2022-06-26T18:45:10.756Z</time>
      </trkpt>
      <trkpt lat="47.3274" lon="-1.70771">
        <ele>47.40115</ele>
        <time>2022-06-26T18:45:14.872Z</time>
      </trkpt>
      <trkpt lat="47.32776" lon="-1.70783">
        <ele>46.067503</ele>
        <time>2022-06-26T18:45:26.620Z</time>
      </trkpt>
      <trkpt lat="47.32792" lon="-1.708">
        <ele>45.535676</ele>
        <time>2022-06-26T18:45:33.613Z</time>
      </trkpt>
      <trkpt lat="47.3281" lon="-1.70869">
        <ele>45.987857</ele>
        <time>2022-06-26T18:45:51.522Z</time>
      </trkpt>
      <trkpt lat="47.3283" lon="-1.70882">
        <ele>46.183735</ele>
        <time>2022-06-26T18:46:00.707Z</time>
      </trkpt>
      <trkpt lat="47.32915" lon="-1.70878">
        <ele>46.954874</ele>
        <time>2022-06-26T18:46:40.161Z</time>
      </trkpt>
      <trkpt lat="47.3295" lon="-1.70895">
        <ele>47.491386</ele>
        <time>2022-06-26T18:46:58.225Z</time>
      </trkpt>
      <trkpt lat="47.33012" lon="-1.7091">
        <ele>48.770527</ele>
        <time>2022-06-26T18:47:29.088Z</time>
      </trkpt>
      <trkpt lat="47.32973" lon="-1.70886">
        <ele>49.643117</ele>
        <time>2022-06-26T18:47:49.654Z</time>
      </trkpt>
      <trkpt lat="47.32948" lon="-1.70853">
        <ele>50.311351</ele>
        <time>2022-06-26T18:48:05.092Z</time>
      </trkpt>
      <trkpt lat="47.32942" lon="-1.70845">
        <ele>50.482352</ele>
        <time>2022-06-26T18:48:09.046Z</time>
      </trkpt>
      <trkpt lat="47.32941" lon="-1.70721">
        <ele>50.9583</ele>
        <time>2022-06-26T18:48:45.707Z</time>
      </trkpt>
      <trkpt lat="47.32937" lon="-1.70674">
        <ele>51.050078</ele>
        <time>2022-06-26T18:48:58.366Z</time>
      </trkpt>
      <trkpt lat="47.32911" lon="-1.70639">
        <ele>51.150701</ele>
        <time>2022-06-26T18:49:11.184Z</time>
      </trkpt>
      <trkpt lat="47.32908" lon="-1.70578">
        <ele>51.267814</ele>
        <time>2022-06-26T18:49:25.333Z</time>
      </trkpt>
      <trkpt lat="47.32888" lon="-1.70524">
        <ele>50.435765</ele>
        <time>2022-06-26T18:49:39.522Z</time>
      </trkpt>
      <trkpt lat="47.32878" lon="-1.70459">
        <ele>49.505206</ele>
        <time>2022-06-26T18:49:54.834Z</time>
      </trkpt>
      <trkpt lat="47.32867" lon="-1.70404">
        <ele>48.714681</ele>
        <time>2022-06-26T18:50:07.386Z</time>
      </trkpt>
      <trkpt lat="47.3285" lon="-1.70377">
        <ele>48.210519</ele>
        <time>2022-06-26T18:50:15.021Z</time>
      </trkpt>
      <trkpt lat="47.32846" lon="-1.70275">
        <ele>46.353415</ele>
        <time>2022-06-26T18:50:36.286Z</time>
      </trkpt>
      <trkpt lat="47.32838" lon="-1.70211">
        <ele>44.977854</ele>
        <time>2022-06-26T18:50:49.768Z</time>
      </trkpt>
      <trkpt lat="47.32827" lon="-1.70184">
        <ele>44.308375</ele>
        <time>2022-06-26T18:50:56.221Z</time>
      </trkpt>
      <trkpt lat="47.32779" lon="-1.70135">
        <ele>42.472402</ele>
        <time>2022-06-26T18:51:14.447Z</time>
      </trkpt>
      <trkpt lat="47.32768" lon="-1.70071">
        <ele>41.834899</ele>
        <time>2022-06-26T18:51:28.208Z</time>
      </trkpt>
      <trkpt lat="47.32741" lon="-1.69993">
        <ele>41.555198</ele>
        <time>2022-06-26T18:51:47.816Z</time>
      </trkpt>
      <trkpt lat="47.32722" lon="-1.70012">
        <ele>41.447339</ele>
        <time>2022-06-26T18:51:53.186Z</time>
      </trkpt>
      <trkpt lat="47.32702" lon="-1.70019">
        <ele>41.352348</ele>
        <time>2022-06-26T18:51:58.763Z</time>
      </trkpt>
      <trkpt lat="47.3265" lon="-1.70025">
        <ele>41.182565</ele>
        <time>2022-06-26T18:52:14.538Z</time>
      </trkpt>
      <trkpt lat="47.32641" lon="-1.70026">
        <ele>41.367367</ele>
        <time>2022-06-26T18:52:17.699Z</time>
      </trkpt>
      <trkpt lat="47.32534" lon="-1.70039">
        <ele>43.47771</ele>
        <time>2022-06-26T18:52:57.692Z</time>
      </trkpt>
      <trkpt lat="47.32519" lon="-1.69862">
        <ele>44.179188</ele>
        <time>2022-06-26T18:53:48.924Z</time>
      </trkpt>
      <trkpt lat="47.32521" lon="-1.69846">
        <ele>44.09659</ele>
        <time>2022-06-26T18:53:51.213Z</time>
      </trkpt>
      <trkpt lat="47.32531" lon="-1.69803">
        <ele>43.859028</ele>
        <time>2022-06-26T18:54:01.602Z</time>
      </trkpt>
      <trkpt lat="47.32601" lon="-1.6982">
        <ele>43.315165</ele>
        <time>2022-06-26T18:54:24.891Z</time>
      </trkpt>
      <trkpt lat="47.32634" lon="-1.6984">
        <ele>42.889661</ele>
        <time>2022-06-26T18:54:36.246Z</time>
      </trkpt>
      <trkpt lat="47.32645" lon="-1.6984">
        <ele>42.74367</ele>
        <time>2022-06-26T18:54:39.839Z</time>
      </trkpt>
      <trkpt lat="47.32678" lon="-1.69829">
        <ele>42.29989</ele>
        <time>2022-06-26T18:54:50.823Z</time>
      </trkpt>
      <trkpt lat="47.3273" lon="-1.698">
        <ele>41.591328</ele>
        <time>2022-06-26T18:55:09.173Z</time>
      </trkpt>
      <trkpt lat="47.32713" lon="-1.69519">
        <ele>41.011649</ele>
        <time>2022-06-26T18:56:21.722Z</time>
      </trkpt>
      <trkpt lat="47.32716" lon="-1.69295">
        <ele>40.553335</ele>
        <time>2022-06-26T18:57:17.321Z</time>
      </trkpt>
      <trkpt lat="47.32657" lon="-1.69054">
        <ele>39.327065</ele>
        <time>2022-06-26T18:58:17.560Z</time>
      </trkpt>
      <trkpt lat="47.32652" lon="-1.69026">
        <ele>39.149214</ele>
        <time>2022-06-26T18:58:24.564Z</time>
      </trkpt>
      <trkpt lat="47.32659" lon="-1.68953">
        <ele>38.706247</ele>
        <time>2022-06-26T18:58:41.845Z</time>
      </trkpt>
      <trkpt lat="47.32648" lon="-1.68901">
        <ele>38.600886</ele>
        <time>2022-06-26T18:58:54.467Z</time>
      </trkpt>
      <trkpt lat="47.3264" lon="-1.68878">
        <ele>38.557966</ele>
        <time>2022-06-26T18:59:00.761Z</time>
      </trkpt>
      <trkpt lat="47.32628" lon="-1.68878">
        <ele>38.527709</ele>
        <time>2022-06-26T18:59:03.353Z</time>
      </trkpt>
      <trkpt lat="47.32619" lon="-1.68883">
        <ele>38.505096</ele>
        <time>2022-06-26T18:59:05.377Z</time>
      </trkpt>
      <trkpt lat="47.32599" lon="-1.68898">
        <ele>38.449844</ele>
        <time>2022-06-26T18:59:10.473Z</time>
      </trkpt>
      <trkpt lat="47.32572" lon="-1.68806">
        <ele>38.285287</ele>
        <time>2022-06-26T18:59:35.660Z</time>
      </trkpt>
      <trkpt lat="47.32552" lon="-1.68789">
        <ele>38.381416</ele>
        <time>2022-06-26T18:59:44.631Z</time>
      </trkpt>
      <trkpt lat="47.32478" lon="-1.68755">
        <ele>39.727156</ele>
        <time>2022-06-26T19:00:17.813Z</time>
      </trkpt>
      <trkpt lat="47.32426" lon="-1.68742">
        <ele>40.655051</ele>
        <time>2022-06-26T19:00:43.186Z</time>
      </trkpt>
      <trkpt lat="47.32379" lon="-1.68746">
        <ele>41.530387</ele>
        <time>2022-06-26T19:01:07.797Z</time>
      </trkpt>
      <trkpt lat="47.32337" lon="-1.68714">
        <ele>42.762729</ele>
        <time>2022-06-26T19:01:31.804Z</time>
      </trkpt>
      <trkpt lat="47.32278" lon="-1.68607">
        <ele>45.182895</ele>
        <time>2022-06-26T19:02:16.490Z</time>
      </trkpt>
      <trkpt lat="47.32263" lon="-1.6856">
        <ele>46.107332</ele>
        <time>2022-06-26T19:02:34.103Z</time>
      </trkpt>
      <trkpt lat="47.32258" lon="-1.6852">
        <ele>47.259521</ele>
        <time>2022-06-26T19:02:49.526Z</time>
      </trkpt>
      <trkpt lat="47.32238" lon="-1.68469">
        <ele>48.96099</ele>
        <time>2022-06-26T19:03:11.483Z</time>
      </trkpt>
      <trkpt lat="47.32212" lon="-1.68418">
        <ele>50.801593</ele>
        <time>2022-06-26T19:03:35.245Z</time>
      </trkpt>
      <trkpt lat="47.32204" lon="-1.68413">
        <ele>51.166354</ele>
        <time>2022-06-26T19:03:39.370Z</time>
      </trkpt>
      <trkpt lat="47.3216" lon="-1.68426">
        <ele>53.07183</ele>
        <time>2022-06-26T19:04:08.208Z</time>
      </trkpt>
      <trkpt lat="47.3216" lon="-1.68426">
        <ele>53.074706</ele>
        <time>2022-06-26T19:04:08.453Z</time>
      </trkpt>
      <trkpt lat="47.32125" lon="-1.68473">
        <ele>55.448529</ele>
        <time>2022-06-26T19:04:40.903Z</time>
      </trkpt>
      <trkpt lat="47.32098" lon="-1.68467">
        <ele>56.920525</ele>
        <time>2022-06-26T19:04:59.913Z</time>
      </trkpt>
      <trkpt lat="47.32025" lon="-1.68501">
        <ele>61.027383</ele>
        <time>2022-06-26T19:05:52.589Z</time>
      </trkpt>
      <trkpt lat="47.32022" lon="-1.68502">
        <ele>61.214743</ele>
        <time>2022-06-26T19:05:54.588Z</time>
      </trkpt>
      <trkpt lat="47.32008" lon="-1.68462">
        <ele>62.834514</ele>
        <time>2022-06-26T19:06:11.013Z</time>
      </trkpt>
      <trkpt lat="47.32002" lon="-1.68427">
        <ele>63.575831</ele>
        <time>2022-06-26T19:06:23.829Z</time>
      </trkpt>
      <trkpt lat="47.32002" lon="-1.68404">
        <ele>63.740233</ele>
        <time>2022-06-26T19:06:32.087Z</time>
      </trkpt>
      <trkpt lat="47.31986" lon="-1.68371">
        <ele>64.030439</ele>
        <time>2022-06-26T19:06:45.448Z</time>
      </trkpt>
      <trkpt lat="47.31971" lon="-1.68352">
        <ele>64.231254</ele>
        <time>2022-06-26T19:06:53.786Z</time>
      </trkpt>
      <trkpt lat="47.31961" lon="-1.6834">
        <ele>64.366003</ele>
        <time>2022-06-26T19:06:58.818Z</time>
      </trkpt>
      <trkpt lat="47.31951" lon="-1.68305">
        <ele>64.638325</ele>
        <time>2022-06-26T19:07:08.683Z</time>
      </trkpt>
      <trkpt lat="47.31949" lon="-1.68295">
        <ele>64.712776</ele>
        <time>2022-06-26T19:07:11.128Z</time>
      </trkpt>
      <trkpt lat="47.31935" lon="-1.68281">
        <ele>64.888532</ele>
        <time>2022-06-26T19:07:17.244Z</time>
      </trkpt>
      <trkpt lat="47.31931" lon="-1.6825">
        <ele>65.111797</ele>
        <time>2022-06-26T19:07:24.616Z</time>
      </trkpt>
      <trkpt lat="47.31925" lon="-1.68227">
        <ele>65.283394</ele>
        <time>2022-06-26T19:07:28.752Z</time>
      </trkpt>
      <trkpt lat="47.31918" lon="-1.68221">
        <ele>65.271666</ele>
        <time>2022-06-26T19:07:30.436Z</time>
      </trkpt>
      <trkpt lat="47.31908" lon="-1.68165">
        <ele>64.982751</ele>
        <time>2022-06-26T19:07:44.490Z</time>
      </trkpt>
      <trkpt lat="47.31886" lon="-1.68153">
        <ele>64.809009</ele>
        <time>2022-06-26T19:07:53.157Z</time>
      </trkpt>
      <trkpt lat="47.3188" lon="-1.68104">
        <ele>64.561011</ele>
        <time>2022-06-26T19:08:05.127Z</time>
      </trkpt>
      <trkpt lat="47.31871" lon="-1.68083">
        <ele>64.438103</ele>
        <time>2022-06-26T19:08:10.855Z</time>
      </trkpt>
      <trkpt lat="47.31848" lon="-1.68066">
        <ele>64.250663</ele>
        <time>2022-06-26T19:08:19.936Z</time>
      </trkpt>
      <trkpt lat="47.31814" lon="-1.67952">
        <ele>63.003035</ele>
        <time>2022-06-26T19:08:48.636Z</time>
      </trkpt>
      <trkpt lat="47.31806" lon="-1.67812">
        <ele>61.07409</ele>
        <time>2022-06-26T19:09:18.813Z</time>
      </trkpt>
      <trkpt lat="47.31773" lon="-1.67693">
        <ele>60.211235</ele>
        <time>2022-06-26T19:09:46.719Z</time>
      </trkpt>
      <trkpt lat="47.31783" lon="-1.67654">
        <ele>60.131921</ele>
        <time>2022-06-26T19:09:56.416Z</time>
      </trkpt>
      <trkpt lat="47.31764" lon="-1.67629">
        <ele>60.0618</ele>
        <time>2022-06-26T19:10:05.949Z</time>
      </trkpt>
      <trkpt lat="47.31755" lon="-1.67629">
        <ele>60.036702</ele>
        <time>2022-06-26T19:10:09.149Z</time>
      </trkpt>
      <trkpt lat="47.31713" lon="-1.67663">
        <ele>59.902532</ele>
        <time>2022-06-26T19:10:29.434Z</time>
      </trkpt>
      <trkpt lat="47.31704" lon="-1.6765">
        <ele>59.868965</ele>
        <time>2022-06-26T19:10:34.638Z</time>
      </trkpt>
      <trkpt lat="47.31686" lon="-1.67585">
        <ele>61.191131</ele>
        <time>2022-06-26T19:10:57.594Z</time>
      </trkpt>
      <trkpt lat="47.3165" lon="-1.67599">
        <ele>62.351071</ele>
        <time>2022-06-26T19:11:14.185Z</time>
      </trkpt>
      <trkpt lat="47.31627" lon="-1.67599">
        <ele>63.067183</ele>
        <time>2022-06-26T19:11:23.069Z</time>
      </trkpt>
      <trkpt lat="47.31592" lon="-1.67507">
        <ele>65.308238</ele>
        <time>2022-06-26T19:11:53.533Z</time>
      </trkpt>
      <trkpt lat="47.31565" lon="-1.67403">
        <ele>66.846532</ele>
        <time>2022-06-26T19:12:22.593Z</time>
      </trkpt>
      <trkpt lat="47.31502" lon="-1.67323">
        <ele>68.452418</ele>
        <time>2022-06-26T19:12:48.776Z</time>
      </trkpt>
      <trkpt lat="47.31574" lon="-1.67249">
        <ele>68.120272</ele>
        <time>2022-06-26T19:13:09.182Z</time>
      </trkpt>
      <trkpt lat="47.31628" lon="-1.67216">
        <ele>67.30453</ele>
        <time>2022-06-26T19:13:28.596Z</time>
      </trkpt>
      <trkpt lat="47.3165" lon="-1.67193">
        <ele>66.933282</ele>
        <time>2022-06-26T19:13:37.079Z</time>
      </trkpt>
      <trkpt lat="47.31667" lon="-1.6716">
        <ele>66.540212</ele>
        <time>2022-06-26T19:13:45.985Z</time>
      </trkpt>
      <trkpt lat="47.31676" lon="-1.67125">
        <ele>65.630559</ele>
        <time>2022-06-26T19:13:53.749Z</time>
      </trkpt>
      <trkpt lat="47.31677" lon="-1.67037">
        <ele>63.068825</ele>
        <time>2022-06-26T19:14:11.787Z</time>
      </trkpt>
      <trkpt lat="47.31687" lon="-1.66995">
        <ele>61.79273</ele>
        <time>2022-06-26T19:14:20.672Z</time>
      </trkpt>
      <trkpt lat="47.31701" lon="-1.66981">
        <ele>61.092909</ele>
        <time>2022-06-26T19:14:25.499Z</time>
      </trkpt>
      <trkpt lat="47.31757" lon="-1.66953">
        <ele>58.443838</ele>
        <time>2022-06-26T19:14:42.500Z</time>
      </trkpt>
      <trkpt lat="47.3178" lon="-1.66932">
        <ele>56.811489</ele>
        <time>2022-06-26T19:14:49.985Z</time>
      </trkpt>
      <trkpt lat="47.31837" lon="-1.66813">
        <ele>50.773849</ele>
        <time>2022-06-26T19:15:17.233Z</time>
      </trkpt>
      <trkpt lat="47.31909" lon="-1.6672">
        <ele>45.592485</ele>
        <time>2022-06-26T19:15:43.859Z</time>
      </trkpt>
      <trkpt lat="47.31951" lon="-1.66625">
        <ele>41.967743</ele>
        <time>2022-06-26T19:16:06.463Z</time>
      </trkpt>
      <trkpt lat="47.3197" lon="-1.66593">
        <ele>40.597803</ele>
        <time>2022-06-26T19:16:15.250Z</time>
      </trkpt>
      <trkpt lat="47.31993" lon="-1.66562">
        <ele>39.240064</ele>
        <time>2022-06-26T19:16:24.565Z</time>
      </trkpt>
      <trkpt lat="47.32019" lon="-1.66548">
        <ele>38.536606</ele>
        <time>2022-06-26T19:16:32.909Z</time>
      </trkpt>
      <trkpt lat="47.32042" lon="-1.66443">
        <ele>36.629953</ele>
        <time>2022-06-26T19:16:56.017Z</time>
      </trkpt>
      <trkpt lat="47.32077" lon="-1.66329">
        <ele>35.00701</ele>
        <time>2022-06-26T19:17:23.382Z</time>
      </trkpt>
      <trkpt lat="47.32106" lon="-1.66217">
        <ele>36.864698</ele>
        <time>2022-06-26T19:17:55.904Z</time>
      </trkpt>
      <trkpt lat="47.32114" lon="-1.66194">
        <ele>37.250532</ele>
        <time>2022-06-26T19:18:04.807Z</time>
      </trkpt>
      <trkpt lat="47.32136" lon="-1.66157">
        <ele>38.013825</ele>
        <time>2022-06-26T19:18:24.507Z</time>
      </trkpt>
      <trkpt lat="47.32152" lon="-1.66141">
        <ele>38.459678</ele>
        <time>2022-06-26T19:18:35.788Z</time>
      </trkpt>
      <trkpt lat="47.32132" lon="-1.66063">
        <ele>41.570035</ele>
        <time>2022-06-26T19:19:08.616Z</time>
      </trkpt>
      <trkpt lat="47.3211" lon="-1.65986">
        <ele>45.405811</ele>
        <time>2022-06-26T19:19:50.286Z</time>
      </trkpt>
      <trkpt lat="47.3211" lon="-1.65986">
        <ele>45.412615</ele>
        <time>2022-06-26T19:19:50.350Z</time>
      </trkpt>
      <trkpt lat="47.32109" lon="-1.65983">
        <ele>45.566799</ele>
        <time>2022-06-26T19:19:50.937Z</time>
      </trkpt>
      <trkpt lat="47.32096" lon="-1.65955">
        <ele>47.132018</ele>
        <time>2022-06-26T19:19:56.898Z</time>
      </trkpt>
      <trkpt lat="47.32079" lon="-1.65922">
        <ele>49.0436</ele>
        <time>2022-06-26T19:20:04.181Z</time>
      </trkpt>
      <trkpt lat="47.32042" lon="-1.65869">
        <ele>51.868512</ele>
        <time>2022-06-26T19:20:17.599Z</time>
      </trkpt>
      <trkpt lat="47.32005" lon="-1.65815">
        <ele>53.739438</ele>
        <time>2022-06-26T19:20:31.011Z</time>
      </trkpt>
      <trkpt lat="47.32002" lon="-1.65875">
        <ele>55.212206</ele>
        <time>2022-06-26T19:20:41.562Z</time>
      </trkpt>
      <trkpt lat="47.32005" lon="-1.65815">
        <ele>56.684974</ele>
        <time>2022-06-26T19:20:52.110Z</time>
      </trkpt>
      <trkpt lat="47.32005" lon="-1.65815">
        <ele>56.696862</ele>
        <time>2022-06-26T19:20:52.204Z</time>
      </trkpt>
      <trkpt lat="47.31922" lon="-1.65687">
        <ele>57.450171</ele>
        <time>2022-06-26T19:21:24.748Z</time>
      </trkpt>
      <trkpt lat="47.31943" lon="-1.65669">
        <ele>57.419468</ele>
        <time>2022-06-26T19:21:33.439Z</time>
      </trkpt>
      <trkpt lat="47.32042" lon="-1.6562">
        <ele>56.015079</ele>
        <time>2022-06-26T19:22:08.181Z</time>
      </trkpt>
      <trkpt lat="47.32054" lon="-1.65606">
        <ele>55.574658</ele>
        <time>2022-06-26T19:22:13.051Z</time>
      </trkpt>
      <trkpt lat="47.32069" lon="-1.65586">
        <ele>54.976318</ele>
        <time>2022-06-26T19:22:19.275Z</time>
      </trkpt>
      <trkpt lat="47.32112" lon="-1.65503">
        <ele>52.883134</ele>
        <time>2022-06-26T19:22:40.945Z</time>
      </trkpt>
      <trkpt lat="47.32151" lon="-1.65403">
        <ele>49.76754</ele>
        <time>2022-06-26T19:23:04.169Z</time>
      </trkpt>
      <trkpt lat="47.32173" lon="-1.65378">
        <ele>48.465361</ele>
        <time>2022-06-26T19:23:12.293Z</time>
      </trkpt>
      <trkpt lat="47.32272" lon="-1.65343">
        <ele>43.810375</ele>
        <time>2022-06-26T19:23:41.599Z</time>
      </trkpt>
      <trkpt lat="47.32301" lon="-1.65354">
        <ele>42.303469</ele>
        <time>2022-06-26T19:23:50.361Z</time>
      </trkpt>
      <trkpt lat="47.32321" lon="-1.65372">
        <ele>41.155767</ele>
        <time>2022-06-26T19:23:56.896Z</time>
      </trkpt>
      <trkpt lat="47.32357" lon="-1.6543">
        <ele>38.489156</ele>
        <time>2022-06-26T19:24:12.292Z</time>
      </trkpt>
      <trkpt lat="47.32359" lon="-1.65478">
        <ele>36.881848</ele>
        <time>2022-06-26T19:24:21.486Z</time>
      </trkpt>
      <trkpt lat="47.3237" lon="-1.65487">
        <ele>36.260023</ele>
        <time>2022-06-26T19:24:25.075Z</time>
      </trkpt>
      <trkpt lat="47.32394" lon="-1.65483">
        <ele>35.046063</ele>
        <time>2022-06-26T19:24:32.026Z</time>
      </trkpt>
      <trkpt lat="47.3246" lon="-1.65511">
        <ele>32.929207</ele>
        <time>2022-06-26T19:24:44.165Z</time>
      </trkpt>
      <trkpt lat="47.32477" lon="-1.65529">
        <ele>32.327957</ele>
        <time>2022-06-26T19:24:47.951Z</time>
      </trkpt>
      <trkpt lat="47.3248" lon="-1.65543">
        <ele>32.020123</ele>
        <time>2022-06-26T19:24:49.832Z</time>
      </trkpt>
      <trkpt lat="47.32461" lon="-1.65667">
        <ele>29.544853</ele>
        <time>2022-06-26T19:25:05.807Z</time>
      </trkpt>
      <trkpt lat="47.32461" lon="-1.65667">
        <ele>29.545545</ele>
        <time>2022-06-26T19:25:05.843Z</time>
      </trkpt>
      <trkpt lat="47.3247" lon="-1.65699">
        <ele>29.616435</ele>
        <time>2022-06-26T19:25:10.586Z</time>
      </trkpt>
      <trkpt lat="47.32529" lon="-1.65788">
        <ele>29.873392</ele>
        <time>2022-06-26T19:25:29.534Z</time>
      </trkpt>
      <trkpt lat="47.32536" lon="-1.65794">
        <ele>29.900643</ele>
        <time>2022-06-26T19:25:31.996Z</time>
      </trkpt>
      <trkpt lat="47.32562" lon="-1.65796">
        <ele>29.978168</ele>
        <time>2022-06-26T19:25:39.507Z</time>
      </trkpt>
      <trkpt lat="47.32581" lon="-1.6581">
        <ele>30.043349</ele>
        <time>2022-06-26T19:25:46.720Z</time>
      </trkpt>
      <trkpt lat="47.32619" lon="-1.65871">
        <ele>31.707396</ele>
        <time>2022-06-26T19:26:07.219Z</time>
      </trkpt>
      <trkpt lat="47.32649" lon="-1.65902">
        <ele>33.129115</ele>
        <time>2022-06-26T19:26:21.015Z</time>
      </trkpt>
      <trkpt lat="47.32698" lon="-1.65911">
        <ele>35.088572</ele>
        <time>2022-06-26T19:26:41.743Z</time>
      </trkpt>
      <trkpt lat="47.32719" lon="-1.65899">
        <ele>35.966462</ele>
        <time>2022-06-26T19:26:54.162Z</time>
      </trkpt>
      <trkpt lat="47.32732" lon="-1.65876">
        <ele>36.769565</ele>
        <time>2022-06-26T19:27:04.904Z</time>
      </trkpt>
      <trkpt lat="47.32776" lon="-1.65748">
        <ele>41.783272</ele>
        <time>2022-06-26T19:27:55.061Z</time>
      </trkpt>
      <trkpt lat="47.32791" lon="-1.65735">
        <ele>42.70684</ele>
        <time>2022-06-26T19:28:05.601Z</time>
      </trkpt>
      <trkpt lat="47.3295" lon="-1.65746">
        <ele>48.198689</ele>
        <time>2022-06-26T19:29:17.614Z</time>
      </trkpt>
      <trkpt lat="47.32984" lon="-1.65742">
        <ele>48.819116</ele>
        <time>2022-06-26T19:29:27.099Z</time>
      </trkpt>
      <trkpt lat="47.32973" lon="-1.65632">
        <ele>49.49504</ele>
        <time>2022-06-26T19:29:42.810Z</time>
      </trkpt>
      <trkpt lat="47.32975" lon="-1.65457">
        <ele>45.79401</ele>
        <time>2022-06-26T19:30:03.258Z</time>
      </trkpt>
      <trkpt lat="47.32969" lon="-1.6528">
        <ele>41.831208</ele>
        <time>2022-06-26T19:30:22.507Z</time>
      </trkpt>
      <trkpt lat="47.32976" lon="-1.65188">
        <ele>39.657807</ele>
        <time>2022-06-26T19:30:33.107Z</time>
      </trkpt>
      <trkpt lat="47.32916" lon="-1.65188">
        <ele>38.113989</ele>
        <time>2022-06-26T19:30:44.643Z</time>
      </trkpt>
      <trkpt lat="47.32884" lon="-1.65197">
        <ele>38.040923</ele>
        <time>2022-06-26T19:30:51.344Z</time>
      </trkpt>
      <trkpt lat="47.3284" lon="-1.65219">
        <ele>37.932103</ele>
        <time>2022-06-26T19:31:02.080Z</time>
      </trkpt>
      <trkpt lat="47.32892" lon="-1.65217">
        <ele>37.811995</ele>
        <time>2022-06-26T19:31:22.461Z</time>
      </trkpt>
      <trkpt lat="47.32961" lon="-1.65224">
        <ele>38.193992</ele>
        <time>2022-06-26T19:31:51.252Z</time>
      </trkpt>
      <trkpt lat="47.32978" lon="-1.65219">
        <ele>38.413775</ele>
        <time>2022-06-26T19:31:56.586Z</time>
      </trkpt>
      <trkpt lat="47.33147" lon="-1.65153">
        <ele>40.6435</ele>
        <time>2022-06-26T19:33:13.476Z</time>
      </trkpt>
      <trkpt lat="47.33156" lon="-1.65145">
        <ele>40.790333</ele>
        <time>2022-06-26T19:33:17.898Z</time>
      </trkpt>
      <trkpt lat="47.3318" lon="-1.65117">
        <ele>41.21376</ele>
        <time>2022-06-26T19:33:26.295Z</time>
      </trkpt>
      <trkpt lat="47.33188" lon="-1.65104">
        <ele>41.381124</ele>
        <time>2022-06-26T19:33:31.320Z</time>
      </trkpt>
      <trkpt lat="47.33225" lon="-1.65109">
        <ele>41.88865</ele>
        <time>2022-06-26T19:33:46.573Z</time>
      </trkpt>
      <trkpt lat="47.33292" lon="-1.65074">
        <ele>43.543247</ele>
        <time>2022-06-26T19:34:19.744Z</time>
      </trkpt>
      <trkpt lat="47.33365" lon="-1.65071">
        <ele>46.195763</ele>
        <time>2022-06-26T19:35:00.169Z</time>
      </trkpt>
      <trkpt lat="47.33518" lon="-1.65008">
        <ele>52.260466</ele>
        <time>2022-06-26T19:36:35.313Z</time>
      </trkpt>
      <trkpt lat="47.33601" lon="-1.64961">
        <ele>55.766507</ele>
        <time>2022-06-26T19:37:26.229Z</time>
      </trkpt>
      <trkpt lat="47.33688" lon="-1.64902">
        <ele>57.509039</ele>
        <time>2022-06-26T19:38:11.797Z</time>
      </trkpt>
      <trkpt lat="47.33605" lon="-1.64587">
        <ele>59.934925</ele>
        <time>2022-06-26T19:39:44.703Z</time>
      </trkpt>
      <trkpt lat="47.3347" lon="-1.64055">
        <ele>62.197468</ele>
        <time>2022-06-26T19:42:18.641Z</time>
      </trkpt>
      <trkpt lat="47.33595" lon="-1.63909">
        <ele>62.845689</ele>
        <time>2022-06-26T19:43:00.208Z</time>
      </trkpt>
      <trkpt lat="47.33603" lon="-1.639">
        <ele>62.88495</ele>
        <time>2022-06-26T19:43:02.805Z</time>
      </trkpt>
      <trkpt lat="47.33602" lon="-1.63894">
        <ele>62.900489</ele>
        <time>2022-06-26T19:43:04.364Z</time>
      </trkpt>
      <trkpt lat="47.33602" lon="-1.63894">
        <ele>62.900489</ele>
        <time>2022-06-26T19:43:04.364Z</time>
      </trkpt>
      <trkpt lat="47.33545" lon="-1.63667">
        <ele>62.251683</ele>
        <time>2022-06-26T19:44:03.559Z</time>
      </trkpt>
      <trkpt lat="47.33545" lon="-1.63667">
        <ele>62.251327</ele>
        <time>2022-06-26T19:44:03.570Z</time>
      </trkpt>
      <trkpt lat="47.33545" lon="-1.63667">
        <ele>62.251327</ele>
        <time>2022-06-26T19:44:03.570Z</time>
      </trkpt>
      <trkpt lat="47.33544" lon="-1.63662">
        <ele>62.231067</ele>
        <time>2022-06-26T19:44:04.906Z</time>
      </trkpt>
      <trkpt lat="47.33542" lon="-1.63653">
        <ele>62.197977</ele>
        <time>2022-06-26T19:44:07.078Z</time>
      </trkpt>
      <trkpt lat="47.33542" lon="-1.63653">
        <ele>62.197977</ele>
        <time>2022-06-26T19:44:07.078Z</time>
      </trkpt>
      <trkpt lat="47.33452" lon="-1.63313">
        <ele>59.621984</ele>
        <time>2022-06-26T19:45:30.715Z</time>
      </trkpt>
      <trkpt lat="47.33319" lon="-1.62794">
        <ele>57.526437</ele>
        <time>2022-06-26T19:47:46.307Z</time>
      </trkpt>
      <trkpt lat="47.33313" lon="-1.62789">
        <ele>57.474334</ele>
        <time>2022-06-26T19:47:48.378Z</time>
      </trkpt>
      <trkpt lat="47.33315" lon="-1.62783">
        <ele>57.434922</ele>
        <time>2022-06-26T19:47:49.929Z</time>
      </trkpt>
      <trkpt lat="47.3331" lon="-1.62779">
        <ele>57.378135</ele>
        <time>2022-06-26T19:47:51.232Z</time>
      </trkpt>
      <trkpt lat="47.33311" lon="-1.62772">
        <ele>57.335111</ele>
        <time>2022-06-26T19:47:52.193Z</time>
      </trkpt>
      <trkpt lat="47.33311" lon="-1.62765">
        <ele>57.293644</ele>
        <time>2022-06-26T19:47:53.121Z</time>
      </trkpt>
      <trkpt lat="47.333" lon="-1.62718">
        <ele>56.99956</ele>
        <time>2022-06-26T19:47:59.740Z</time>
      </trkpt>
      <trkpt lat="47.33225" lon="-1.62427">
        <ele>54.967503</ele>
        <time>2022-06-26T19:48:41.016Z</time>
      </trkpt>
      <trkpt lat="47.33161" lon="-1.6243">
        <ele>54.616099</ele>
        <time>2022-06-26T19:48:54.524Z</time>
      </trkpt>
      <trkpt lat="47.33114" lon="-1.62433">
        <ele>54.590435</ele>
        <time>2022-06-26T19:49:04.553Z</time>
      </trkpt>
      <trkpt lat="47.3311" lon="-1.62433">
        <ele>54.588022</ele>
        <time>2022-06-26T19:49:05.493Z</time>
      </trkpt>
      <trkpt lat="47.33109" lon="-1.62425">
        <ele>54.584747</ele>
        <time>2022-06-26T19:49:06.819Z</time>
      </trkpt>
      <trkpt lat="47.33106" lon="-1.62338">
        <ele>54.55265</ele>
        <time>2022-06-26T19:49:20.182Z</time>
      </trkpt>
      <trkpt lat="47.33131" lon="-1.62338">
        <ele>54.538841</ele>
        <time>2022-06-26T19:49:26.381Z</time>
      </trkpt>
      <trkpt lat="47.33153" lon="-1.62315">
        <ele>54.687519</ele>
        <time>2022-06-26T19:49:33.278Z</time>
      </trkpt>
      <trkpt lat="47.3318" lon="-1.6231">
        <ele>54.907827</ele>
        <time>2022-06-26T19:49:40.137Z</time>
      </trkpt>
      <trkpt lat="47.33194" lon="-1.62303">
        <ele>55.031551</ele>
        <time>2022-06-26T19:49:46.156Z</time>
      </trkpt>
      <trkpt lat="47.33127" lon="-1.62047">
        <ele>56.637621</ele>
        <time>2022-06-26T19:50:36.789Z</time>
      </trkpt>
      <trkpt lat="47.33073" lon="-1.61838">
        <ele>57.689111</ele>
        <time>2022-06-26T19:51:21.658Z</time>
      </trkpt>
      <trkpt lat="47.33063" lon="-1.61775">
        <ele>57.679863</ele>
        <time>2022-06-26T19:51:33.053Z</time>
      </trkpt>
      <trkpt lat="47.33065" lon="-1.6175">
        <ele>57.676179</ele>
        <time>2022-06-26T19:51:37.278Z</time>
      </trkpt>
      <trkpt lat="47.33047" lon="-1.61741">
        <ele>57.672079</ele>
        <time>2022-06-26T19:51:41.541Z</time>
      </trkpt>
      <trkpt lat="47.33032" lon="-1.61704">
        <ele>57.665905</ele>
        <time>2022-06-26T19:51:51.945Z</time>
      </trkpt>
      <trkpt lat="47.33014" lon="-1.61593">
        <ele>56.760974</ele>
        <time>2022-06-26T19:52:18.616Z</time>
      </trkpt>
      <trkpt lat="47.32969" lon="-1.61414">
        <ele>54.143184</ele>
        <time>2022-06-26T19:53:00.030Z</time>
      </trkpt>
      <trkpt lat="47.32914" lon="-1.61164">
        <ele>49.548558</ele>
        <time>2022-06-26T19:53:55.450Z</time>
      </trkpt>
      <trkpt lat="47.32901" lon="-1.61141">
        <ele>49.302881</ele>
        <time>2022-06-26T19:54:02.350Z</time>
      </trkpt>
      <trkpt lat="47.32893" lon="-1.61133">
        <ele>49.27107</ele>
        <time>2022-06-26T19:54:05.488Z</time>
      </trkpt>
      <trkpt lat="47.32909" lon="-1.61085">
        <ele>49.151432</ele>
        <time>2022-06-26T19:54:12.634Z</time>
      </trkpt>
      <trkpt lat="47.3291" lon="-1.6108">
        <ele>49.139224</ele>
        <time>2022-06-26T19:54:13.430Z</time>
      </trkpt>
      <trkpt lat="47.32967" lon="-1.60911">
        <ele>48.784091</ele>
        <time>2022-06-26T19:54:43.765Z</time>
      </trkpt>
      <trkpt lat="47.32984" lon="-1.60861">
        <ele>48.938043</ele>
        <time>2022-06-26T19:54:53.949Z</time>
      </trkpt>
      <trkpt lat="47.32991" lon="-1.60842">
        <ele>48.996108</ele>
        <time>2022-06-26T19:54:57.606Z</time>
      </trkpt>
      <trkpt lat="47.33014" lon="-1.60791">
        <ele>49.161591</ele>
        <time>2022-06-26T19:55:07.894Z</time>
      </trkpt>
      <trkpt lat="47.3315" lon="-1.60527">
        <ele>49.965382</ele>
        <time>2022-06-26T19:56:00.157Z</time>
      </trkpt>
      <trkpt lat="47.33372" lon="-1.60102">
        <ele>52.681922</ele>
        <time>2022-06-26T19:57:34.167Z</time>
      </trkpt>
      <trkpt lat="47.33477" lon="-1.59893">
        <ele>55.105788</ele>
        <time>2022-06-26T19:58:27.612Z</time>
      </trkpt>
      <trkpt lat="47.3351" lon="-1.59809">
        <ele>55.701702</ele>
        <time>2022-06-26T19:58:46.587Z</time>
      </trkpt>
      <trkpt lat="47.33529" lon="-1.59778">
        <ele>55.821091</ele>
        <time>2022-06-26T19:58:54.389Z</time>
      </trkpt>
      <trkpt lat="47.3361" lon="-1.59673">
        <ele>56.278628</ele>
        <time>2022-06-26T19:59:18.593Z</time>
      </trkpt>
      <trkpt lat="47.33632" lon="-1.59622">
        <ele>55.979278</ele>
        <time>2022-06-26T19:59:27.366Z</time>
      </trkpt>
      <trkpt lat="47.3364" lon="-1.59586">
        <ele>55.715562</ele>
        <time>2022-06-26T19:59:32.516Z</time>
      </trkpt>
      <trkpt lat="47.33649" lon="-1.59477">
        <ele>54.940694</ele>
        <time>2022-06-26T19:59:47.297Z</time>
      </trkpt>
      <trkpt lat="47.3371" lon="-1.59385">
        <ele>53.712986</ele>
        <time>2022-06-26T20:00:09.738Z</time>
      </trkpt>
      <trkpt lat="47.33771" lon="-1.59294">
        <ele>52.097935</ele>
        <time>2022-06-26T20:00:32.180Z</time>
      </trkpt>
      <trkpt lat="47.33832" lon="-1.59202">
        <ele>50.344138</ele>
        <time>2022-06-26T20:00:54.623Z</time>
      </trkpt>
      <trkpt lat="47.33892" lon="-1.59111">
        <ele>48.372669</ele>
        <time>2022-06-26T20:01:17.066Z</time>
      </trkpt>
      <trkpt lat="47.33953" lon="-1.59019">
        <ele>46.606197</ele>
        <time>2022-06-26T20:01:39.510Z</time>
      </trkpt>
      <trkpt lat="47.34014" lon="-1.58928">
        <ele>45.290591</ele>
        <time>2022-06-26T20:02:01.951Z</time>
      </trkpt>
      <trkpt lat="47.34075" lon="-1.58837">
        <ele>44.291038</ele>
        <time>2022-06-26T20:02:24.390Z</time>
      </trkpt>
      <trkpt lat="47.34135" lon="-1.58745">
        <ele>44.286252</ele>
        <time>2022-06-26T20:02:46.828Z</time>
      </trkpt>
      <trkpt lat="47.34196" lon="-1.58654">
        <ele>44.272942</ele>
        <time>2022-06-26T20:03:09.266Z</time>
      </trkpt>
      <trkpt lat="47.34257" lon="-1.58562">
        <ele>44.217302</ele>
        <time>2022-06-26T20:03:31.704Z</time>
      </trkpt>
      <trkpt lat="47.34318" lon="-1.58471">
        <ele>44.115855</ele>
        <time>2022-06-26T20:03:54.141Z</time>
      </trkpt>
      <trkpt lat="47.34572" lon="-1.58097">
        <ele>41.673082</ele>
        <time>2022-06-26T20:06:00.639Z</time>
      </trkpt>
      <trkpt lat="47.34572" lon="-1.58097">
        <ele>41.670395</ele>
        <time>2022-06-26T20:06:00.708Z</time>
      </trkpt>
      <trkpt lat="47.34617" lon="-1.58024">
        <ele>41.040286</ele>
        <time>2022-06-26T20:06:24.181Z</time>
      </trkpt>
      <trkpt lat="47.34636" lon="-1.58006">
        <ele>40.829122</ele>
        <time>2022-06-26T20:06:31.840Z</time>
      </trkpt>
      <trkpt lat="47.34643" lon="-1.57982">
        <ele>40.665226</ele>
        <time>2022-06-26T20:06:35.530Z</time>
      </trkpt>
      <trkpt lat="47.34655" lon="-1.57976">
        <ele>40.5483</ele>
        <time>2022-06-26T20:06:39.614Z</time>
      </trkpt>
      <trkpt lat="47.34672" lon="-1.57955">
        <ele>40.337862</ele>
        <time>2022-06-26T20:06:47.463Z</time>
      </trkpt>
      <trkpt lat="47.34837" lon="-1.57708">
        <ele>37.255523</ele>
        <time>2022-06-26T20:08:08.102Z</time>
      </trkpt>
      <trkpt lat="47.34989" lon="-1.57501">
        <ele>30.858888</ele>
        <time>2022-06-26T20:09:12.334Z</time>
      </trkpt>
      <trkpt lat="47.35012" lon="-1.57482">
        <ele>29.793676</ele>
        <time>2022-06-26T20:09:19.664Z</time>
      </trkpt>
      <trkpt lat="47.35038" lon="-1.57472">
        <ele>28.707593</ele>
        <time>2022-06-26T20:09:27.162Z</time>
      </trkpt>
      <trkpt lat="47.35226" lon="-1.57425">
        <ele>22.872139</ele>
        <time>2022-06-26T20:10:24.179Z</time>
      </trkpt>
      <trkpt lat="47.35233" lon="-1.57416">
        <ele>22.643517</ele>
        <time>2022-06-26T20:10:27.543Z</time>
      </trkpt>
      <trkpt lat="47.35207" lon="-1.57394">
        <ele>21.93383</ele>
        <time>2022-06-26T20:10:33.987Z</time>
      </trkpt>
      <trkpt lat="47.35134" lon="-1.5729">
        <ele>22.124189</ele>
        <time>2022-06-26T20:11:02.580Z</time>
      </trkpt>
      <trkpt lat="47.35156" lon="-1.57214">
        <ele>22.685294</ele>
        <time>2022-06-26T20:11:30.105Z</time>
      </trkpt>
      <trkpt lat="47.35184" lon="-1.57148">
        <ele>23.078372</ele>
        <time>2022-06-26T20:11:51.353Z</time>
      </trkpt>
      <trkpt lat="47.352" lon="-1.57134">
        <ele>22.86822</ele>
        <time>2022-06-26T20:11:57.931Z</time>
      </trkpt>
      <trkpt lat="47.35151" lon="-1.56846">
        <ele>21.913071</ele>
        <time>2022-06-26T20:13:04.615Z</time>
      </trkpt>
      <trkpt lat="47.35155" lon="-1.56779">
        <ele>22.666483</ele>
        <time>2022-06-26T20:13:25.792Z</time>
      </trkpt>
      <trkpt lat="47.35156" lon="-1.56767">
        <ele>22.801275</ele>
        <time>2022-06-26T20:13:29.712Z</time>
      </trkpt>
      <trkpt lat="47.35149" lon="-1.56736">
        <ele>23.169517</ele>
        <time>2022-06-26T20:13:40.907Z</time>
      </trkpt>
      <trkpt lat="47.35144" lon="-1.56695">
        <ele>23.62795</ele>
        <time>2022-06-26T20:13:57.979Z</time>
      </trkpt>
      <trkpt lat="47.35146" lon="-1.56684">
        <ele>23.76097</ele>
        <time>2022-06-26T20:14:02.072Z</time>
      </trkpt>
      <trkpt lat="47.3515" lon="-1.56672">
        <ele>23.909375</ele>
        <time>2022-06-26T20:14:06.752Z</time>
      </trkpt>
      <trkpt lat="47.3517" lon="-1.56599">
        <ele>25.597065</ele>
        <time>2022-06-26T20:14:37.878Z</time>
      </trkpt>
      <trkpt lat="47.35172" lon="-1.56563">
        <ele>26.482363</ele>
        <time>2022-06-26T20:14:49.290Z</time>
      </trkpt>
      <trkpt lat="47.35165" lon="-1.56513">
        <ele>27.720398</ele>
        <time>2022-06-26T20:15:09.132Z</time>
      </trkpt>
      <trkpt lat="47.35178" lon="-1.56509">
        <ele>28.205845</ele>
        <time>2022-06-26T20:15:12.619Z</time>
      </trkpt>
      <trkpt lat="47.35179" lon="-1.5651">
        <ele>28.249403</ele>
        <time>2022-06-26T20:15:12.931Z</time>
      </trkpt>
      <trkpt lat="47.35195" lon="-1.56525">
        <ele>28.932923</ele>
        <time>2022-06-26T20:15:17.833Z</time>
      </trkpt>
      <trkpt lat="47.35204" lon="-1.56551">
        <ele>29.646239</ele>
        <time>2022-06-26T20:15:22.956Z</time>
      </trkpt>
      <trkpt lat="47.35205" lon="-1.56566">
        <ele>30.014474</ele>
        <time>2022-06-26T20:15:25.597Z</time>
      </trkpt>
      <trkpt lat="47.35216" lon="-1.56622">
        <ele>31.075587</ele>
        <time>2022-06-26T20:15:35.815Z</time>
      </trkpt>
      <trkpt lat="47.35237" lon="-1.56614">
        <ele>31.518146</ele>
        <time>2022-06-26T20:15:41.426Z</time>
      </trkpt>
      <trkpt lat="47.35245" lon="-1.56602">
        <ele>31.750889</ele>
        <time>2022-06-26T20:15:44.376Z</time>
      </trkpt>
      <trkpt lat="47.35247" lon="-1.56605">
        <ele>31.809075</ele>
        <time>2022-06-26T20:15:45.113Z</time>
      </trkpt>
      <trkpt lat="47.35247" lon="-1.56604">
        <ele>31.8229</ele>
        <time>2022-06-26T20:15:45.288Z</time>
      </trkpt>
      <trkpt lat="47.35244" lon="-1.56608">
        <ele>31.905394</ele>
        <time>2022-06-26T20:15:46.334Z</time>
      </trkpt>
      <trkpt lat="47.35214" lon="-1.56609">
        <ele>32.517718</ele>
        <time>2022-06-26T20:15:54.095Z</time>
      </trkpt>
      <trkpt lat="47.35204" lon="-1.56577">
        <ele>33.004898</ele>
        <time>2022-06-26T20:16:00.269Z</time>
      </trkpt>
      <trkpt lat="47.35201" lon="-1.56558">
        <ele>33.274605</ele>
        <time>2022-06-26T20:16:03.687Z</time>
      </trkpt>
      <trkpt lat="47.352" lon="-1.56551">
        <ele>33.373505</ele>
        <time>2022-06-26T20:16:04.940Z</time>
      </trkpt>
      <trkpt lat="47.35198" lon="-1.56515">
        <ele>33.872862</ele>
        <time>2022-06-26T20:16:11.270Z</time>
      </trkpt>
      <trkpt lat="47.35172" lon="-1.56489">
        <ele>34.499077</ele>
        <time>2022-06-26T20:16:19.395Z</time>
      </trkpt>
      <trkpt lat="47.35161" lon="-1.56496">
        <ele>34.733823</ele>
        <time>2022-06-26T20:16:22.569Z</time>
      </trkpt>
      <trkpt lat="47.35157" lon="-1.56483">
        <ele>34.914297</ele>
        <time>2022-06-26T20:16:25.744Z</time>
      </trkpt>
      <trkpt lat="47.3514" lon="-1.56455">
        <ele>35.40656</ele>
        <time>2022-06-26T20:16:40.247Z</time>
      </trkpt>
      <trkpt lat="47.35104" lon="-1.56368">
        <ele>36.725717</ele>
        <time>2022-06-26T20:17:14.350Z</time>
      </trkpt>
      <trkpt lat="47.35086" lon="-1.56278">
        <ele>37.651255</ele>
        <time>2022-06-26T20:17:29.878Z</time>
      </trkpt>
      <trkpt lat="47.35083" lon="-1.56197">
        <ele>37.340308</ele>
        <time>2022-06-26T20:17:44.381Z</time>
      </trkpt>
      <trkpt lat="47.35083" lon="-1.56108">
        <ele>36.994993</ele>
        <time>2022-06-26T20:17:56.994Z</time>
      </trkpt>
      <trkpt lat="47.35086" lon="-1.56086">
        <ele>36.908063</ele>
        <time>2022-06-26T20:18:00.090Z</time>
      </trkpt>
      <trkpt lat="47.351" lon="-1.56038">
        <ele>36.70684</ele>
        <time>2022-06-26T20:18:07.027Z</time>
      </trkpt>
      <trkpt lat="47.3513" lon="-1.55981">
        <ele>36.072918</ele>
        <time>2022-06-26T20:18:16.488Z</time>
      </trkpt>
      <trkpt lat="47.35179" lon="-1.55949">
        <ele>35.358656</ele>
        <time>2022-06-26T20:18:26.990Z</time>
      </trkpt>
      <trkpt lat="47.35184" lon="-1.55948">
        <ele>35.288967</ele>
        <time>2022-06-26T20:18:28.083Z</time>
      </trkpt>
      <trkpt lat="47.35306" lon="-1.55899">
        <ele>34.211262</ele>
        <time>2022-06-26T20:18:54.683Z</time>
      </trkpt>
      <trkpt lat="47.35427" lon="-1.55851">
        <ele>34.014148</ele>
        <time>2022-06-26T20:19:24.172Z</time>
      </trkpt>
      <trkpt lat="47.35416" lon="-1.55637">
        <ele>35.182862</ele>
        <time>2022-06-26T20:20:24.321Z</time>
      </trkpt>
      <trkpt lat="47.35383" lon="-1.55102">
        <ele>37.928979</ele>
        <time>2022-06-26T20:22:57.492Z</time>
      </trkpt>
      <trkpt lat="47.35384" lon="-1.55073">
        <ele>38.014911</ele>
        <time>2022-06-26T20:23:04.421Z</time>
      </trkpt>
      <trkpt lat="47.35389" lon="-1.55061">
        <ele>38.05269</ele>
        <time>2022-06-26T20:23:07.676Z</time>
      </trkpt>
      <trkpt lat="47.35352" lon="-1.54995">
        <ele>36.712007</ele>
        <time>2022-06-26T20:23:18.896Z</time>
      </trkpt>
      <trkpt lat="47.35256" lon="-1.54789">
        <ele>32.607226</ele>
        <time>2022-06-26T20:23:49.293Z</time>
      </trkpt>
      <trkpt lat="47.35213" lon="-1.54692">
        <ele>30.951798</ele>
        <time>2022-06-26T20:24:03.954Z</time>
      </trkpt>
      <trkpt lat="47.35174" lon="-1.54576">
        <ele>29.929642</ele>
        <time>2022-06-26T20:24:22.161Z</time>
      </trkpt>
      <trkpt lat="47.35091" lon="-1.54568">
        <ele>30.463765</ele>
        <time>2022-06-26T20:24:56.321Z</time>
      </trkpt>
      <trkpt lat="47.35061" lon="-1.54551">
        <ele>30.664084</ele>
        <time>2022-06-26T20:25:10.099Z</time>
      </trkpt>
      <trkpt lat="47.35037" lon="-1.5452">
        <ele>30.873683</ele>
        <time>2022-06-26T20:25:24.709Z</time>
      </trkpt>
      <trkpt lat="47.35011" lon="-1.54471">
        <ele>31.495589</ele>
        <time>2022-06-26T20:25:43.664Z</time>
      </trkpt>
      <trkpt lat="47.34911" lon="-1.54201">
        <ele>34.363557</ele>
        <time>2022-06-26T20:27:17.027Z</time>
      </trkpt>
      <trkpt lat="47.34888" lon="-1.54136">
        <ele>34.888724</ele>
        <time>2022-06-26T20:27:37.725Z</time>
      </trkpt>
      <trkpt lat="47.34849" lon="-1.54029">
        <ele>35.566568</ele>
        <time>2022-06-26T20:28:10.798Z</time>
      </trkpt>
      <trkpt lat="47.3478" lon="-1.53931">
        <ele>35.672681</ele>
        <time>2022-06-26T20:28:48.291Z</time>
      </trkpt>
      <trkpt lat="47.34741" lon="-1.53868">
        <ele>35.737432</ele>
        <time>2022-06-26T20:29:09.550Z</time>
      </trkpt>
      <trkpt lat="47.34686" lon="-1.53791">
        <ele>34.741698</ele>
        <time>2022-06-26T20:29:35.494Z</time>
      </trkpt>
      <trkpt lat="47.34571" lon="-1.5363">
        <ele>32.063509</ele>
        <time>2022-06-26T20:30:27.648Z</time>
      </trkpt>
      <trkpt lat="47.34487" lon="-1.53479">
        <ele>29.069788</ele>
        <time>2022-06-26T20:31:09.847Z</time>
      </trkpt>
      <trkpt lat="47.34442" lon="-1.53399">
        <ele>27.351919</ele>
        <time>2022-06-26T20:31:32.302Z</time>
      </trkpt>
      <trkpt lat="47.3442" lon="-1.53382">
        <ele>26.741602</ele>
        <time>2022-06-26T20:31:40.309Z</time>
      </trkpt>
      <trkpt lat="47.34395" lon="-1.53349">
        <ele>25.900816</ele>
        <time>2022-06-26T20:31:51.190Z</time>
      </trkpt>
      <trkpt lat="47.34336" lon="-1.53258">
        <ele>23.696128</ele>
        <time>2022-06-26T20:32:17.694Z</time>
      </trkpt>
      <trkpt lat="47.34323" lon="-1.53209">
        <ele>22.696391</ele>
        <time>2022-06-26T20:32:28.992Z</time>
      </trkpt>
      <trkpt lat="47.34301" lon="-1.53186">
        <ele>21.943869</ele>
        <time>2022-06-26T20:32:37.445Z</time>
      </trkpt>
      <trkpt lat="47.34268" lon="-1.5318">
        <ele>21.032728</ele>
        <time>2022-06-26T20:32:47.744Z</time>
      </trkpt>
      <trkpt lat="47.34251" lon="-1.53131">
        <ele>19.994177</ele>
        <time>2022-06-26T20:32:59.429Z</time>
      </trkpt>
      <trkpt lat="47.34249" lon="-1.53134">
        <ele>19.919215</ele>
        <time>2022-06-26T20:32:59.896Z</time>
      </trkpt>
      <trkpt lat="47.34248" lon="-1.53135">
        <ele>19.879938</ele>
        <time>2022-06-26T20:33:00.137Z</time>
      </trkpt>
      <trkpt lat="47.34244" lon="-1.53138">
        <ele>19.768037</ele>
        <time>2022-06-26T20:33:00.848Z</time>
      </trkpt>
      <trkpt lat="47.34241" lon="-1.53141">
        <ele>19.670357</ele>
        <time>2022-06-26T20:33:01.471Z</time>
      </trkpt>
      <trkpt lat="47.34192" lon="-1.53189">
        <ele>17.895491</ele>
        <time>2022-06-26T20:33:11.815Z</time>
      </trkpt>
      <trkpt lat="47.34133" lon="-1.53251">
        <ele>15.700591</ele>
        <time>2022-06-26T20:33:24.168Z</time>
      </trkpt>
      <trkpt lat="47.34117" lon="-1.53255">
        <ele>15.216135</ele>
        <time>2022-06-26T20:33:27.053Z</time>
      </trkpt>
      <trkpt lat="47.34106" lon="-1.53264">
        <ele>14.834889</ele>
        <time>2022-06-26T20:33:29.429Z</time>
      </trkpt>
      <trkpt lat="47.34101" lon="-1.53278">
        <ele>14.517328</ele>
        <time>2022-06-26T20:33:31.384Z</time>
      </trkpt>
      <trkpt lat="47.34096" lon="-1.53278">
        <ele>14.369532</ele>
        <time>2022-06-26T20:33:32.295Z</time>
      </trkpt>
      <trkpt lat="47.34087" lon="-1.53273">
        <ele>14.118116</ele>
        <time>2022-06-26T20:33:33.948Z</time>
      </trkpt>
      <trkpt lat="47.34071" lon="-1.53244">
        <ele>13.488241</ele>
        <time>2022-06-26T20:33:38.794Z</time>
      </trkpt>
      <trkpt lat="47.34067" lon="-1.53247">
        <ele>13.390145</ele>
        <time>2022-06-26T20:33:39.584Z</time>
      </trkpt>
      <trkpt lat="47.34067" lon="-1.53247">
        <ele>13.388511</ele>
        <time>2022-06-26T20:33:39.609Z</time>
      </trkpt>
      <trkpt lat="47.34044" lon="-1.53173">
        <ele>12.059125</ele>
        <time>2022-06-26T20:33:49.817Z</time>
      </trkpt>
      <trkpt lat="47.34041" lon="-1.53161">
        <ele>11.846954</ele>
        <time>2022-06-26T20:33:51.480Z</time>
      </trkpt>
      <trkpt lat="47.34029" lon="-1.53123">
        <ele>11.16861</ele>
        <time>2022-06-26T20:33:56.737Z</time>
      </trkpt>
      <trkpt lat="47.34" lon="-1.53117">
        <ele>10.4612</ele>
        <time>2022-06-26T20:34:02.225Z</time>
      </trkpt>
      <trkpt lat="47.33991" lon="-1.53131">
        <ele>10.155324</ele>
        <time>2022-06-26T20:34:04.601Z</time>
      </trkpt>
      <trkpt lat="47.33983" lon="-1.53124">
        <ele>9.925684</ele>
        <time>2022-06-26T20:34:06.370Z</time>
      </trkpt>
      <trkpt lat="47.33985" lon="-1.53104">
        <ele>9.864556</ele>
        <time>2022-06-26T20:34:08.698Z</time>
      </trkpt>
      <trkpt lat="47.33988" lon="-1.53071">
        <ele>9.764285</ele>
        <time>2022-06-26T20:34:13.198Z</time>
      </trkpt>
      <trkpt lat="47.34008" lon="-1.52892">
        <ele>9.231166</ele>
        <time>2022-06-26T20:34:39.949Z</time>
      </trkpt>
      <trkpt lat="47.34008" lon="-1.52892">
        <ele>9.229862</ele>
        <time>2022-06-26T20:34:40.032Z</time>
      </trkpt>
      <trkpt lat="47.3402" lon="-1.52805">
        <ele>9.025587</ele>
        <time>2022-06-26T20:34:55.590Z</time>
      </trkpt>
      <trkpt lat="47.34032" lon="-1.52773">
        <ele>8.953808</ele>
        <time>2022-06-26T20:35:01.999Z</time>
      </trkpt>
      <trkpt lat="47.34041" lon="-1.52727">
        <ele>8.859839</ele>
        <time>2022-06-26T20:35:10.389Z</time>
      </trkpt>
      <trkpt lat="47.34045" lon="-1.5271">
        <ele>8.824521</ele>
        <time>2022-06-26T20:35:13.542Z</time>
      </trkpt>
      <trkpt lat="47.34051" lon="-1.52681">
        <ele>8.765011</ele>
        <time>2022-06-26T20:35:18.856Z</time>
      </trkpt>
      <trkpt lat="47.34059" lon="-1.5265">
        <ele>8.699907</ele>
        <time>2022-06-26T20:35:24.669Z</time>
      </trkpt>
      <trkpt lat="47.34008" lon="-1.52629">
        <ele>8.2634</ele>
        <time>2022-06-26T20:35:38.361Z</time>
      </trkpt>
      <trkpt lat="47.34002" lon="-1.52627">
        <ele>8.175853</ele>
        <time>2022-06-26T20:35:39.952Z</time>
      </trkpt>
      <trkpt lat="47.33978" lon="-1.52618">
        <ele>7.823415</ele>
        <time>2022-06-26T20:35:46.356Z</time>
      </trkpt>
      <trkpt lat="47.33978" lon="-1.52618">
        <ele>7.820568</ele>
        <time>2022-06-26T20:35:46.416Z</time>
      </trkpt>
      <trkpt lat="47.33981" lon="-1.52603">
        <ele>7.67198</ele>
        <time>2022-06-26T20:35:49.268Z</time>
      </trkpt>
      <trkpt lat="47.33973" lon="-1.52579">
        <ele>7.414644</ele>
        <time>2022-06-26T20:36:01.827Z</time>
      </trkpt>
      <trkpt lat="47.33977" lon="-1.52538">
        <ele>7.016677</ele>
        <time>2022-06-26T20:36:21.263Z</time>
      </trkpt>
      <trkpt lat="47.33963" lon="-1.52531">
        <ele>6.806696</ele>
        <time>2022-06-26T20:36:24.804Z</time>
      </trkpt>
      <trkpt lat="47.3396" lon="-1.52518">
        <ele>6.67821</ele>
        <time>2022-06-26T20:36:27.123Z</time>
      </trkpt>
      <trkpt lat="47.33947" lon="-1.52515">
        <ele>6.492344</ele>
        <time>2022-06-26T20:36:30.276Z</time>
      </trkpt>
      <trkpt lat="47.33946" lon="-1.52532">
        <ele>6.331176</ele>
        <time>2022-06-26T20:36:32.393Z</time>
      </trkpt>
      <trkpt lat="47.33943" lon="-1.52564">
        <ele>6.084632</ele>
        <time>2022-06-26T20:36:36.718Z</time>
      </trkpt>
      <trkpt lat="47.3394" lon="-1.52602">
        <ele>6.306004</ele>
        <time>2022-06-26T20:36:41.837Z</time>
      </trkpt>
      <trkpt lat="47.33792" lon="-1.52543">
        <ele>7.674293</ele>
        <time>2022-06-26T20:37:25.350Z</time>
      </trkpt>
      <trkpt lat="47.33766" lon="-1.52534">
        <ele>8.755084</ele>
        <time>2022-06-26T20:37:35.948Z</time>
      </trkpt>
      <trkpt lat="47.33761" lon="-1.52532">
        <ele>8.965539</ele>
        <time>2022-06-26T20:37:37.797Z</time>
      </trkpt>
      <trkpt lat="47.33726" lon="-1.52517">
        <ele>10.476465</ele>
        <time>2022-06-26T20:37:53.318Z</time>
      </trkpt>
      <trkpt lat="47.33707" lon="-1.525">
        <ele>11.364188</ele>
        <time>2022-06-26T20:38:03.714Z</time>
      </trkpt>
      <trkpt lat="47.33695" lon="-1.52487">
        <ele>11.995969</ele>
        <time>2022-06-26T20:38:10.475Z</time>
      </trkpt>
      <trkpt lat="47.33689" lon="-1.52481">
        <ele>12.282831</ele>
        <time>2022-06-26T20:38:13.800Z</time>
      </trkpt>
      <trkpt lat="47.33691" lon="-1.52473">
        <ele>12.529807</ele>
        <time>2022-06-26T20:38:17.205Z</time>
      </trkpt>
      <trkpt lat="47.33695" lon="-1.52472">
        <ele>12.688157</ele>
        <time>2022-06-26T20:38:19.293Z</time>
      </trkpt>
      <trkpt lat="47.33746" lon="-1.5221">
        <ele>19.977568</ele>
        <time>2022-06-26T20:39:43.006Z</time>
      </trkpt>
      <trkpt lat="47.3376" lon="-1.52065">
        <ele>22.338636</ele>
        <time>2022-06-26T20:40:16.525Z</time>
      </trkpt>
      <trkpt lat="47.33758" lon="-1.52042">
        <ele>22.462973</ele>
        <time>2022-06-26T20:40:21.030Z</time>
      </trkpt>
      <trkpt lat="47.33744" lon="-1.5188">
        <ele>23.333043</ele>
        <time>2022-06-26T20:40:47.422Z</time>
      </trkpt>
      <trkpt lat="47.33803" lon="-1.51865">
        <ele>22.5232</ele>
        <time>2022-06-26T20:41:00.190Z</time>
      </trkpt>
      <trkpt lat="47.33825" lon="-1.51852">
        <ele>22.15885</ele>
        <time>2022-06-26T20:41:04.976Z</time>
      </trkpt>
      <trkpt lat="47.33899" lon="-1.51754">
        <ele>20.623395</ele>
        <time>2022-06-26T20:41:23.864Z</time>
      </trkpt>
      <trkpt lat="47.33902" lon="-1.51765">
        <ele>20.498362</ele>
        <time>2022-06-26T20:41:25.223Z</time>
      </trkpt>
      <trkpt lat="47.33947" lon="-1.51764">
        <ele>19.833428</ele>
        <time>2022-06-26T20:41:33.621Z</time>
      </trkpt>
      <trkpt lat="47.3397" lon="-1.51785">
        <ele>19.439092</ele>
        <time>2022-06-26T20:41:38.455Z</time>
      </trkpt>
      <trkpt lat="47.3403" lon="-1.51687">
        <ele>18.141275</ele>
        <time>2022-06-26T20:42:09.028Z</time>
      </trkpt>
      <trkpt lat="47.34035" lon="-1.51677">
        <ele>18.006026</ele>
        <time>2022-06-26T20:42:12.218Z</time>
      </trkpt>
      <trkpt lat="47.34036" lon="-1.51662">
        <ele>17.985353</ele>
        <time>2022-06-26T20:42:15.760Z</time>
      </trkpt>
      <trkpt lat="47.34001" lon="-1.51536">
        <ele>18.186827</ele>
        <time>2022-06-26T20:42:37.120Z</time>
      </trkpt>
      <trkpt lat="47.34065" lon="-1.51544">
        <ele>18.327354</ele>
        <time>2022-06-26T20:42:54.611Z</time>
      </trkpt>
      <trkpt lat="47.34117" lon="-1.51521">
        <ele>18.568911</ele>
        <time>2022-06-26T20:43:09.843Z</time>
      </trkpt>
      <trkpt lat="47.34151" lon="-1.51521">
        <ele>18.749357</ele>
        <time>2022-06-26T20:43:23.878Z</time>
      </trkpt>
      <trkpt lat="47.34124" lon="-1.51427">
        <ele>19.118906</ele>
        <time>2022-06-26T20:43:50.754Z</time>
      </trkpt>
      <trkpt lat="47.34124" lon="-1.51427">
        <ele>19.119806</ele>
        <time>2022-06-26T20:43:50.897Z</time>
      </trkpt>
      <trkpt lat="47.34182" lon="-1.51403">
        <ele>19.189145</ele>
        <time>2022-06-26T20:44:13.757Z</time>
      </trkpt>
      <trkpt lat="47.34202" lon="-1.51432">
        <ele>19.024316</ele>
        <time>2022-06-26T20:44:24.264Z</time>
      </trkpt>
      <trkpt lat="47.34245" lon="-1.51413">
        <ele>18.75718</ele>
        <time>2022-06-26T20:44:40.737Z</time>
      </trkpt>
      <trkpt lat="47.34259" lon="-1.51406">
        <ele>18.66817</ele>
        <time>2022-06-26T20:44:46.079Z</time>
      </trkpt>
      <trkpt lat="47.34274" lon="-1.514">
        <ele>18.57715</ele>
        <time>2022-06-26T20:44:51.445Z</time>
      </trkpt>
      <trkpt lat="47.34286" lon="-1.51384">
        <ele>18.482178</ele>
        <time>2022-06-26T20:44:56.920Z</time>
      </trkpt>
      <trkpt lat="47.34283" lon="-1.51362">
        <ele>18.392934</ele>
        <time>2022-06-26T20:45:00.034Z</time>
      </trkpt>
      <trkpt lat="47.34272" lon="-1.51338">
        <ele>18.277275</ele>
        <time>2022-06-26T20:45:03.737Z</time>
      </trkpt>
      <trkpt lat="47.34306" lon="-1.51286">
        <ele>17.511927</ele>
        <time>2022-06-26T20:45:13.174Z</time>
      </trkpt>
      <trkpt lat="47.34318" lon="-1.51242">
        <ele>16.971883</ele>
        <time>2022-06-26T20:45:19.456Z</time>
      </trkpt>
      <trkpt lat="47.34328" lon="-1.51215">
        <ele>16.627777</ele>
        <time>2022-06-26T20:45:23.565Z</time>
      </trkpt>
      <trkpt lat="47.34353" lon="-1.51176">
        <ele>16.015697</ele>
        <time>2022-06-26T20:45:31.020Z</time>
      </trkpt>
      <trkpt lat="47.34352" lon="-1.51171">
        <ele>15.959164</ele>
        <time>2022-06-26T20:45:31.610Z</time>
      </trkpt>
      <trkpt lat="47.34315" lon="-1.5106">
        <ele>14.53317</ele>
        <time>2022-06-26T20:45:48.118Z</time>
      </trkpt>
      <trkpt lat="47.34308" lon="-1.51047">
        <ele>14.337151</ele>
        <time>2022-06-26T20:45:50.272Z</time>
      </trkpt>
      <trkpt lat="47.34271" lon="-1.5103">
        <ele>13.672936</ele>
        <time>2022-06-26T20:45:57.640Z</time>
      </trkpt>
      <trkpt lat="47.3426" lon="-1.50995">
        <ele>13.215048</ele>
        <time>2022-06-26T20:46:02.731Z</time>
      </trkpt>
      <trkpt lat="47.34267" lon="-1.50967">
        <ele>12.865302</ele>
        <time>2022-06-26T20:46:06.760Z</time>
      </trkpt>
      <trkpt lat="47.34285" lon="-1.50949">
        <ele>12.496606</ele>
        <time>2022-06-26T20:46:10.902Z</time>
      </trkpt>
      <trkpt lat="47.34344" lon="-1.5093">
        <ele>11.649654</ele>
        <time>2022-06-26T20:46:23.055Z</time>
      </trkpt>
      <trkpt lat="47.34362" lon="-1.50897">
        <ele>11.301003</ele>
        <time>2022-06-26T20:46:28.841Z</time>
      </trkpt>
      <trkpt lat="47.34372" lon="-1.50852">
        <ele>10.917004</ele>
        <time>2022-06-26T20:46:35.188Z</time>
      </trkpt>
      <trkpt lat="47.34362" lon="-1.50797">
        <ele>10.448223</ele>
        <time>2022-06-26T20:46:42.958Z</time>
      </trkpt>
      <trkpt lat="47.34399" lon="-1.5078">
        <ele>9.979866</ele>
        <time>2022-06-26T20:46:51.208Z</time>
      </trkpt>
      <trkpt lat="47.34501" lon="-1.5071">
        <ele>9.78016</ele>
        <time>2022-06-26T20:47:16.692Z</time>
      </trkpt>
      <trkpt lat="47.34539" lon="-1.50708">
        <ele>9.716243</ele>
        <time>2022-06-26T20:47:25.907Z</time>
      </trkpt>
      <trkpt lat="47.34559" lon="-1.50713">
        <ele>9.683162</ele>
        <time>2022-06-26T20:47:30.622Z</time>
      </trkpt>
      <trkpt lat="47.34612" lon="-1.5073">
        <ele>9.554008</ele>
        <time>2022-06-26T20:47:43.142Z</time>
      </trkpt>
      <trkpt lat="47.34587" lon="-1.50621">
        <ele>9.3545</ele>
        <time>2022-06-26T20:48:11.469Z</time>
      </trkpt>
      <trkpt lat="47.34508" lon="-1.50482">
        <ele>8.865271</ele>
        <time>2022-06-26T20:48:55.383Z</time>
      </trkpt>
      <trkpt lat="47.34493" lon="-1.50418">
        <ele>8.624375</ele>
        <time>2022-06-26T20:49:11.666Z</time>
      </trkpt>
      <trkpt lat="47.34489" lon="-1.5038">
        <ele>8.488069</ele>
        <time>2022-06-26T20:49:20.814Z</time>
      </trkpt>
      <trkpt lat="47.34447" lon="-1.50276">
        <ele>8.16337</ele>
        <time>2022-06-26T20:49:49.890Z</time>
      </trkpt>
      <trkpt lat="47.34367" lon="-1.49997">
        <ele>8.392465</ele>
        <time>2022-06-26T20:51:04.978Z</time>
      </trkpt>
      <trkpt lat="47.34336" lon="-1.49991">
        <ele>8.684198</ele>
        <time>2022-06-26T20:51:18.336Z</time>
      </trkpt>
      <trkpt lat="47.3434" lon="-1.49975">
        <ele>8.791397</ele>
        <time>2022-06-26T20:51:21.903Z</time>
      </trkpt>
      <trkpt lat="47.34335" lon="-1.49861">
        <ele>9.548632</ele>
        <time>2022-06-26T20:51:46.148Z</time>
      </trkpt>
      <trkpt lat="47.34322" lon="-1.49856">
        <ele>9.822783</ele>
        <time>2022-06-26T20:51:50.930Z</time>
      </trkpt>
      <trkpt lat="47.34259" lon="-1.49802">
        <ele>11.24693</ele>
        <time>2022-06-26T20:52:15.702Z</time>
      </trkpt>
      <trkpt lat="47.34196" lon="-1.4974">
        <ele>12.738686</ele>
        <time>2022-06-26T20:52:41.226Z</time>
      </trkpt>
      <trkpt lat="47.34183" lon="-1.49723">
        <ele>13.036707</ele>
        <time>2022-06-26T20:52:46.635Z</time>
      </trkpt>
      <trkpt lat="47.34168" lon="-1.49682">
        <ele>13.358463</ele>
        <time>2022-06-26T20:52:56.312Z</time>
      </trkpt>
      <trkpt lat="47.3415" lon="-1.49591">
        <ele>14.023439</ele>
        <time>2022-06-26T20:53:23.986Z</time>
      </trkpt>
      <trkpt lat="47.34118" lon="-1.4958">
        <ele>14.356235</ele>
        <time>2022-06-26T20:53:37.399Z</time>
      </trkpt>
      <trkpt lat="47.34101" lon="-1.4956">
        <ele>14.582513</ele>
        <time>2022-06-26T20:53:46.185Z</time>
      </trkpt>
      <trkpt lat="47.34054" lon="-1.49482">
        <ele>14.73948</ele>
        <time>2022-06-26T20:54:13.565Z</time>
      </trkpt>
      <trkpt lat="47.34025" lon="-1.49452">
        <ele>14.663954</ele>
        <time>2022-06-26T20:54:26.523Z</time>
      </trkpt>
      <trkpt lat="47.33865" lon="-1.49281">
        <ele>13.935463</ele>
        <time>2022-06-26T20:55:36.744Z</time>
      </trkpt>
      <trkpt lat="47.33824" lon="-1.49252">
        <ele>13.700433</ele>
        <time>2022-06-26T20:55:52.566Z</time>
      </trkpt>
      <trkpt lat="47.33765" lon="-1.49228">
        <ele>13.590029</ele>
        <time>2022-06-26T20:56:14.638Z</time>
      </trkpt>
      <trkpt lat="47.33744" lon="-1.49224">
        <ele>13.648228</ele>
        <time>2022-06-26T20:56:23.427Z</time>
      </trkpt>
      <trkpt lat="47.33717" lon="-1.49234">
        <ele>13.725194</ele>
        <time>2022-06-26T20:56:34.190Z</time>
      </trkpt>
      <trkpt lat="47.33701" lon="-1.49173">
        <ele>13.847593</ele>
        <time>2022-06-26T20:56:52.097Z</time>
      </trkpt>
      <trkpt lat="47.33693" lon="-1.49157">
        <ele>13.88446</ele>
        <time>2022-06-26T20:56:56.997Z</time>
      </trkpt>
      <trkpt lat="47.33704" lon="-1.49093">
        <ele>14.009808</ele>
        <time>2022-06-26T20:57:08.644Z</time>
      </trkpt>
      <trkpt lat="47.33698" lon="-1.49077">
        <ele>14.006251</ele>
        <time>2022-06-26T20:57:14.088Z</time>
      </trkpt>
      <trkpt lat="47.33701" lon="-1.49006">
        <ele>13.968903</ele>
        <time>2022-06-26T20:57:32.090Z</time>
      </trkpt>
      <trkpt lat="47.33689" lon="-1.48919">
        <ele>13.922447</ele>
        <time>2022-06-26T20:57:55.064Z</time>
      </trkpt>
      <trkpt lat="47.33686" lon="-1.48802">
        <ele>13.678339</ele>
        <time>2022-06-26T20:58:23.151Z</time>
      </trkpt>
      <trkpt lat="47.33686" lon="-1.48802">
        <ele>13.676887</ele>
        <time>2022-06-26T20:58:23.194Z</time>
      </trkpt>
      <trkpt lat="47.3368" lon="-1.48763">
        <ele>13.39026</ele>
        <time>2022-06-26T20:58:32.437Z</time>
      </trkpt>
      <trkpt lat="47.33632" lon="-1.48619">
        <ele>12.221</ele>
        <time>2022-06-26T20:59:09.395Z</time>
      </trkpt>
      <trkpt lat="47.33629" lon="-1.484">
        <ele>11.062886</ele>
        <time>2022-06-26T21:00:01.003Z</time>
      </trkpt>
      <trkpt lat="47.33681" lon="-1.48429">
        <ele>10.664813</ele>
        <time>2022-06-26T21:00:20.565Z</time>
      </trkpt>
      <trkpt lat="47.33683" lon="-1.48244">
        <ele>10.027218</ele>
        <time>2022-06-26T21:01:05.711Z</time>
      </trkpt>
      <trkpt lat="47.33572" lon="-1.48195">
        <ele>9.24298</ele>
        <time>2022-06-26T21:01:46.377Z</time>
      </trkpt>
      <trkpt lat="47.33481" lon="-1.48118">
        <ele>8.36431</ele>
        <time>2022-06-26T21:02:22.460Z</time>
      </trkpt>
      <trkpt lat="47.33399" lon="-1.48104">
        <ele>8.009749</ele>
        <time>2022-06-26T21:02:40.208Z</time>
      </trkpt>
      <trkpt lat="47.33258" lon="-1.48083">
        <ele>7.763526</ele>
        <time>2022-06-26T21:03:12.547Z</time>
      </trkpt>
      <trkpt lat="47.33258" lon="-1.48083">
        <ele>7.764366</ele>
        <time>2022-06-26T21:03:12.794Z</time>
      </trkpt>
      <trkpt lat="47.33145" lon="-1.48092">
        <ele>8.238076</ele>
        <time>2022-06-26T21:03:41.963Z</time>
      </trkpt>
      <trkpt lat="47.33119" lon="-1.47975">
        <ele>8.64451</ele>
        <time>2022-06-26T21:04:02.813Z</time>
      </trkpt>
      <trkpt lat="47.3311" lon="-1.47906">
        <ele>8.902427</ele>
        <time>2022-06-26T21:04:15.331Z</time>
      </trkpt>
      <trkpt lat="47.33101" lon="-1.47783">
        <ele>9.355195</ele>
        <time>2022-06-26T21:04:35.750Z</time>
      </trkpt>
      <trkpt lat="47.33101" lon="-1.47772">
        <ele>9.390753</ele>
        <time>2022-06-26T21:04:37.518Z</time>
      </trkpt>
      <trkpt lat="47.33098" lon="-1.47731">
        <ele>9.51665</ele>
        <time>2022-06-26T21:04:44.098Z</time>
      </trkpt>
      <trkpt lat="47.33086" lon="-1.47724">
        <ele>9.573556</ele>
        <time>2022-06-26T21:04:47.129Z</time>
      </trkpt>
      <trkpt lat="47.33082" lon="-1.47707">
        <ele>9.628105</ele>
        <time>2022-06-26T21:04:50.113Z</time>
      </trkpt>
      <trkpt lat="47.33083" lon="-1.47701">
        <ele>9.649174</ele>
        <time>2022-06-26T21:04:51.183Z</time>
      </trkpt>
      <trkpt lat="47.33089" lon="-1.4769">
        <ele>9.69025</ele>
        <time>2022-06-26T21:04:53.355Z</time>
      </trkpt>
      <trkpt lat="47.33098" lon="-1.47686">
        <ele>9.731018</ele>
        <time>2022-06-26T21:04:55.636Z</time>
      </trkpt>
      <trkpt lat="47.33099" lon="-1.47628">
        <ele>9.911349</ele>
        <time>2022-06-26T21:05:05.383Z</time>
      </trkpt>
      <trkpt lat="47.33103" lon="-1.47469">
        <ele>10.592296</ele>
        <time>2022-06-26T21:05:32.186Z</time>
      </trkpt>
      <trkpt lat="47.33095" lon="-1.47417">
        <ele>10.900347</ele>
        <time>2022-06-26T21:05:41.258Z</time>
      </trkpt>
      <trkpt lat="47.33084" lon="-1.47391">
        <ele>11.080392</ele>
        <time>2022-06-26T21:05:47.004Z</time>
      </trkpt>
      <trkpt lat="47.32994" lon="-1.47253">
        <ele>12.544887</ele>
        <time>2022-06-26T21:06:23.208Z</time>
      </trkpt>
      <trkpt lat="47.32954" lon="-1.47218">
        <ele>13.254228</ele>
        <time>2022-06-26T21:06:36.957Z</time>
      </trkpt>
      <trkpt lat="47.32937" lon="-1.47195">
        <ele>13.592925</ele>
        <time>2022-06-26T21:06:43.810Z</time>
      </trkpt>
      <trkpt lat="47.32907" lon="-1.47025">
        <ele>15.972173</ele>
        <time>2022-06-26T21:07:21.600Z</time>
      </trkpt>
      <trkpt lat="47.32896" lon="-1.46945">
        <ele>17.30358</ele>
        <time>2022-06-26T21:07:39.350Z</time>
      </trkpt>
      <trkpt lat="47.32878" lon="-1.46885">
        <ele>18.388426</ele>
        <time>2022-06-26T21:07:55.476Z</time>
      </trkpt>
      <trkpt lat="47.32882" lon="-1.46781">
        <ele>21.361689</ele>
        <time>2022-06-26T21:08:25.319Z</time>
      </trkpt>
      <trkpt lat="47.3289" lon="-1.46747">
        <ele>22.525221</ele>
        <time>2022-06-26T21:08:36.294Z</time>
      </trkpt>
      <trkpt lat="47.32974" lon="-1.46534">
        <ele>30.722947</ele>
        <time>2022-06-26T21:10:01.943Z</time>
      </trkpt>
      <trkpt lat="47.32969" lon="-1.46219">
        <ele>40.335328</ele>
        <time>2022-06-26T21:11:42.124Z</time>
      </trkpt>
      <trkpt lat="47.33027" lon="-1.46015">
        <ele>45.020232</ele>
        <time>2022-06-26T21:12:37.663Z</time>
      </trkpt>
      <trkpt lat="47.33033" lon="-1.45997">
        <ele>45.327717</ele>
        <time>2022-06-26T21:12:42.383Z</time>
      </trkpt>
      <trkpt lat="47.33066" lon="-1.45854">
        <ele>47.579527</ele>
        <time>2022-06-26T21:13:16.608Z</time>
      </trkpt>
      <trkpt lat="47.33062" lon="-1.45831">
        <ele>47.718239</ele>
        <time>2022-06-26T21:13:21.536Z</time>
      </trkpt>
      <trkpt lat="47.33036" lon="-1.45811">
        <ele>47.966013</ele>
        <time>2022-06-26T21:13:30.472Z</time>
      </trkpt>
      <trkpt lat="47.33027" lon="-1.45805">
        <ele>48.052568</ele>
        <time>2022-06-26T21:13:33.302Z</time>
      </trkpt>
      <trkpt lat="47.33008" lon="-1.45795">
        <ele>48.219154</ele>
        <time>2022-06-26T21:13:38.901Z</time>
      </trkpt>
      <trkpt lat="47.33003" lon="-1.45792">
        <ele>48.268756</ele>
        <time>2022-06-26T21:13:40.468Z</time>
      </trkpt>
      <trkpt lat="47.32965" lon="-1.45777">
        <ele>48.596753</ele>
        <time>2022-06-26T21:13:50.368Z</time>
      </trkpt>
      <trkpt lat="47.32945" lon="-1.45758">
        <ele>48.798173</ele>
        <time>2022-06-26T21:13:56.249Z</time>
      </trkpt>
      <trkpt lat="47.32896" lon="-1.45823">
        <ele>49.164279</ele>
        <time>2022-06-26T21:14:11.414Z</time>
      </trkpt>
      <trkpt lat="47.32882" lon="-1.45812">
        <ele>49.210045</ele>
        <time>2022-06-26T21:14:15.184Z</time>
      </trkpt>
      <trkpt lat="47.32833" lon="-1.45797">
        <ele>49.363344</ele>
        <time>2022-06-26T21:14:27.308Z</time>
      </trkpt>
      <trkpt lat="47.32811" lon="-1.45763">
        <ele>49.458975</ele>
        <time>2022-06-26T21:14:35.053Z</time>
      </trkpt>
      <trkpt lat="47.32807" lon="-1.45746">
        <ele>49.496137</ele>
        <time>2022-06-26T21:14:38.362Z</time>
      </trkpt>
      <trkpt lat="47.32805" lon="-1.45686">
        <ele>49.57902</ele>
        <time>2022-06-26T21:14:49.277Z</time>
      </trkpt>
      <trkpt lat="47.32771" lon="-1.4566">
        <ele>49.453236</ele>
        <time>2022-06-26T21:14:58.883Z</time>
      </trkpt>
      <trkpt lat="47.32744" lon="-1.4563">
        <ele>49.339915</ele>
        <time>2022-06-26T21:15:07.100Z</time>
      </trkpt>
      <trkpt lat="47.32732" lon="-1.45611">
        <ele>49.280124</ele>
        <time>2022-06-26T21:15:11.045Z</time>
      </trkpt>
      <trkpt lat="47.32718" lon="-1.45571">
        <ele>49.18024</ele>
        <time>2022-06-26T21:15:17.737Z</time>
      </trkpt>
      <trkpt lat="47.32654" lon="-1.457">
        <ele>48.677948</ele>
        <time>2022-06-26T21:15:39.694Z</time>
      </trkpt>
      <trkpt lat="47.32646" lon="-1.45709">
        <ele>48.618134</ele>
        <time>2022-06-26T21:15:41.569Z</time>
      </trkpt>
      <trkpt lat="47.32633" lon="-1.45709">
        <ele>48.541372</ele>
        <time>2022-06-26T21:15:44.225Z</time>
      </trkpt>
      <trkpt lat="47.3256" lon="-1.45674">
        <ele>48.082263</ele>
        <time>2022-06-26T21:16:00.404Z</time>
      </trkpt>
      <trkpt lat="47.32481" lon="-1.456">
        <ele>49.758799</ele>
        <time>2022-06-26T21:16:28.658Z</time>
      </trkpt>
      <trkpt lat="47.32467" lon="-1.45592">
        <ele>50.174925</ele>
        <time>2022-06-26T21:16:34.350Z</time>
      </trkpt>
      <trkpt lat="47.32427" lon="-1.45493">
        <ele>52.258673</ele>
        <time>2022-06-26T21:17:16.980Z</time>
      </trkpt>
      <trkpt lat="47.32359" lon="-1.45352">
        <ele>56.670879</ele>
        <time>2022-06-26T21:18:27.241Z</time>
      </trkpt>
      <trkpt lat="47.32368" lon="-1.45294">
        <ele>58.260087</ele>
        <time>2022-06-26T21:18:44.348Z</time>
      </trkpt>
      <trkpt lat="47.32384" lon="-1.45237">
        <ele>59.868787</ele>
        <time>2022-06-26T21:19:01.036Z</time>
      </trkpt>
      <trkpt lat="47.3244" lon="-1.45101">
        <ele>62.562991</ele>
        <time>2022-06-26T21:19:41.865Z</time>
      </trkpt>
      <trkpt lat="47.32444" lon="-1.45085">
        <ele>62.844928</ele>
        <time>2022-06-26T21:19:45.732Z</time>
      </trkpt>
      <trkpt lat="47.32477" lon="-1.44709">
        <ele>66.866913</ele>
        <time>2022-06-26T21:21:04.335Z</time>
      </trkpt>
      <trkpt lat="47.32529" lon="-1.44188">
        <ele>67.941</ele>
        <time>2022-06-26T21:22:32.221Z</time>
      </trkpt>
      <trkpt lat="47.32568" lon="-1.43927">
        <ele>66.37349</ele>
        <time>2022-06-26T21:23:10.217Z</time>
      </trkpt>
      <trkpt lat="47.32565" lon="-1.43905">
        <ele>66.091264</ele>
        <time>2022-06-26T21:23:13.165Z</time>
      </trkpt>
      <trkpt lat="47.32539" lon="-1.43847">
        <ele>65.179068</ele>
        <time>2022-06-26T21:23:22.890Z</time>
      </trkpt>
      <trkpt lat="47.32592" lon="-1.43815">
        <ele>64.084295</ele>
        <time>2022-06-26T21:23:34.129Z</time>
      </trkpt>
      <trkpt lat="47.32611" lon="-1.43795">
        <ele>63.644386</ele>
        <time>2022-06-26T21:23:38.428Z</time>
      </trkpt>
      <trkpt lat="47.32667" lon="-1.43728">
        <ele>60.068453</ele>
        <time>2022-06-26T21:23:51.180Z</time>
      </trkpt>
      <trkpt lat="47.32698" lon="-1.43671">
        <ele>57.061283</ele>
        <time>2022-06-26T21:23:58.980Z</time>
      </trkpt>
      <trkpt lat="47.32754" lon="-1.43561">
        <ele>51.096185</ele>
        <time>2022-06-26T21:24:24.291Z</time>
      </trkpt>
      <trkpt lat="47.32775" lon="-1.43528">
        <ele>48.635068</ele>
        <time>2022-06-26T21:24:32.363Z</time>
      </trkpt>
      <trkpt lat="47.32793" lon="-1.43519">
        <ele>47.173156</ele>
        <time>2022-06-26T21:24:37.125Z</time>
      </trkpt>
      <trkpt lat="47.32812" lon="-1.4352">
        <ele>45.647738</ele>
        <time>2022-06-26T21:24:42.082Z</time>
      </trkpt>
      <trkpt lat="47.32877" lon="-1.43485">
        <ele>40.084259</ele>
        <time>2022-06-26T21:25:00.217Z</time>
      </trkpt>
      <trkpt lat="47.32942" lon="-1.43389">
        <ele>36.749317</ele>
        <time>2022-06-26T21:25:27.007Z</time>
      </trkpt>
      <trkpt lat="47.32948" lon="-1.43361">
        <ele>36.366832</ele>
        <time>2022-06-26T21:25:34.012Z</time>
      </trkpt>
      <trkpt lat="47.32958" lon="-1.43343">
        <ele>36.058449</ele>
        <time>2022-06-26T21:25:39.163Z</time>
      </trkpt>
      <trkpt lat="47.32967" lon="-1.43329">
        <ele>35.81606</ele>
        <time>2022-06-26T21:25:44.349Z</time>
      </trkpt>
      <trkpt lat="47.3297" lon="-1.43299">
        <ele>35.41528</ele>
        <time>2022-06-26T21:25:51.042Z</time>
      </trkpt>
      <trkpt lat="47.32979" lon="-1.43282">
        <ele>35.140619</ele>
        <time>2022-06-26T21:25:57.233Z</time>
      </trkpt>
      <trkpt lat="47.3299" lon="-1.43279">
        <ele>34.927095</ele>
        <time>2022-06-26T21:26:00.991Z</time>
      </trkpt>
      <trkpt lat="47.33037" lon="-1.43236">
        <ele>35.843475</ele>
        <time>2022-06-26T21:26:26.788Z</time>
      </trkpt>
      <trkpt lat="47.32958" lon="-1.43112">
        <ele>40.029347</ele>
        <time>2022-06-26T21:27:36.450Z</time>
      </trkpt>
      <trkpt lat="47.32957" lon="-1.43099">
        <ele>40.357256</ele>
        <time>2022-06-26T21:27:41.844Z</time>
      </trkpt>
      <trkpt lat="47.32983" lon="-1.43113">
        <ele>41.427415</ele>
        <time>2022-06-26T21:27:56.979Z</time>
      </trkpt>
      <trkpt lat="47.33066" lon="-1.43181">
        <ele>45.803283</ele>
        <time>2022-06-26T21:28:51.104Z</time>
      </trkpt>
      <trkpt lat="47.33011" lon="-1.43083">
        <ele>49.793732</ele>
        <time>2022-06-26T21:29:45.017Z</time>
      </trkpt>
      <trkpt lat="47.33004" lon="-1.43047">
        <ele>51.113805</ele>
        <time>2022-06-26T21:30:02.081Z</time>
      </trkpt>
      <trkpt lat="47.33005" lon="-1.43007">
        <ele>52.526322</ele>
        <time>2022-06-26T21:30:16.718Z</time>
      </trkpt>
      <trkpt lat="47.33023" lon="-1.42987">
        <ele>53.700779</ele>
        <time>2022-06-26T21:30:27.610Z</time>
      </trkpt>
      <trkpt lat="47.33062" lon="-1.42891">
        <ele>57.60216</ele>
        <time>2022-06-26T21:31:05.019Z</time>
      </trkpt>
      <trkpt lat="47.33061" lon="-1.4286">
        <ele>58.696447</ele>
        <time>2022-06-26T21:31:15.297Z</time>
      </trkpt>
      <trkpt lat="47.33073" lon="-1.42835">
        <ele>59.276404</ele>
        <time>2022-06-26T21:31:24.854Z</time>
      </trkpt>
      <trkpt lat="47.33104" lon="-1.42758">
        <ele>60.977766</ele>
        <time>2022-06-26T21:31:48.083Z</time>
      </trkpt>
      <trkpt lat="47.33126" lon="-1.42731">
        <ele>61.792823</ele>
        <time>2022-06-26T21:31:58.430Z</time>
      </trkpt>
      <trkpt lat="47.33147" lon="-1.4272">
        <ele>62.426943</ele>
        <time>2022-06-26T21:32:05.674Z</time>
      </trkpt>
      <trkpt lat="47.33207" lon="-1.42712">
        <ele>63.935564</ele>
        <time>2022-06-26T21:32:23.140Z</time>
      </trkpt>
      <trkpt lat="47.33243" lon="-1.427">
        <ele>64.465542</ele>
        <time>2022-06-26T21:32:33.468Z</time>
      </trkpt>
      <trkpt lat="47.33261" lon="-1.42681">
        <ele>64.786519</ele>
        <time>2022-06-26T21:32:39.897Z</time>
      </trkpt>
      <trkpt lat="47.3327" lon="-1.42686">
        <ele>64.928195</ele>
        <time>2022-06-26T21:32:42.446Z</time>
      </trkpt>
      <trkpt lat="47.33306" lon="-1.42683">
        <ele>65.458606</ele>
        <time>2022-06-26T21:32:53.185Z</time>
      </trkpt>
      <trkpt lat="47.33313" lon="-1.42672">
        <ele>65.60427</ele>
        <time>2022-06-26T21:32:56.677Z</time>
      </trkpt>
      <trkpt lat="47.33453" lon="-1.42584">
        <ele>67.371915</ele>
        <time>2022-06-26T21:33:43.468Z</time>
      </trkpt>
      <trkpt lat="47.3327" lon="-1.41605">
        <ele>70.231656</ele>
        <time>2022-06-26T21:36:35.170Z</time>
      </trkpt>
      <trkpt lat="47.33171" lon="-1.41084">
        <ele>70.589547</ele>
        <time>2022-06-26T21:38:03.502Z</time>
      </trkpt>
      <trkpt lat="47.33079" lon="-1.40686">
        <ele>68.878523</ele>
        <time>2022-06-26T21:39:04.114Z</time>
      </trkpt>
      <trkpt lat="47.33057" lon="-1.40584">
        <ele>68.225849</ele>
        <time>2022-06-26T21:39:19.614Z</time>
      </trkpt>
      <trkpt lat="47.33038" lon="-1.40468">
        <ele>67.502186</ele>
        <time>2022-06-26T21:39:36.536Z</time>
      </trkpt>
      <trkpt lat="47.33019" lon="-1.40395">
        <ele>66.890334</ele>
        <time>2022-06-26T21:39:47.438Z</time>
      </trkpt>
      <trkpt lat="47.33001" lon="-1.40338">
        <ele>66.287202</ele>
        <time>2022-06-26T21:39:56.306Z</time>
      </trkpt>
      <trkpt lat="47.32993" lon="-1.40279">
        <ele>65.724858</ele>
        <time>2022-06-26T21:40:04.264Z</time>
      </trkpt>
      <trkpt lat="47.3299" lon="-1.40207">
        <ele>65.036549</ele>
        <time>2022-06-26T21:40:13.799Z</time>
      </trkpt>
      <trkpt lat="47.32978" lon="-1.40176">
        <ele>64.758195</ele>
        <time>2022-06-26T21:40:18.562Z</time>
      </trkpt>
      <trkpt lat="47.32955" lon="-1.40144">
        <ele>64.688547</ele>
        <time>2022-06-26T21:40:24.875Z</time>
      </trkpt>
      <trkpt lat="47.32928" lon="-1.40115">
        <ele>64.616733</ele>
        <time>2022-06-26T21:40:32.211Z</time>
      </trkpt>
      <trkpt lat="47.32904" lon="-1.40077">
        <ele>64.539394</ele>
        <time>2022-06-26T21:40:40.431Z</time>
      </trkpt>
      <trkpt lat="47.32894" lon="-1.40045">
        <ele>64.487171</ele>
        <time>2022-06-26T21:40:45.793Z</time>
      </trkpt>
      <trkpt lat="47.32896" lon="-1.40005">
        <ele>64.428218</ele>
        <time>2022-06-26T21:40:52.880Z</time>
      </trkpt>
      <trkpt lat="47.32914" lon="-1.39949">
        <ele>64.744631</ele>
        <time>2022-06-26T21:41:03.828Z</time>
      </trkpt>
      <trkpt lat="47.32912" lon="-1.39923">
        <ele>65.087575</ele>
        <time>2022-06-26T21:41:09.894Z</time>
      </trkpt>
      <trkpt lat="47.32862" lon="-1.39774">
        <ele>67.259371</ele>
        <time>2022-06-26T21:41:48.601Z</time>
      </trkpt>
      <trkpt lat="47.32859" lon="-1.39732">
        <ele>67.810408</ele>
        <time>2022-06-26T21:41:59.276Z</time>
      </trkpt>
      <trkpt lat="47.32866" lon="-1.3969">
        <ele>68.314922</ele>
        <time>2022-06-26T21:42:08.700Z</time>
      </trkpt>
      <trkpt lat="47.32904" lon="-1.39553">
        <ele>70.063312</ele>
        <time>2022-06-26T21:42:40.563Z</time>
      </trkpt>
      <trkpt lat="47.32919" lon="-1.39414">
        <ele>71.404734</ele>
        <time>2022-06-26T21:43:09.853Z</time>
      </trkpt>
      <trkpt lat="47.32927" lon="-1.39238">
        <ele>72.603451</ele>
        <time>2022-06-26T21:43:42.694Z</time>
      </trkpt>
      <trkpt lat="47.32924" lon="-1.39142">
        <ele>73.115276</ele>
        <time>2022-06-26T21:43:59.728Z</time>
      </trkpt>
      <trkpt lat="47.32906" lon="-1.38966">
        <ele>73.974721</ele>
        <time>2022-06-26T21:44:31.563Z</time>
      </trkpt>
      <trkpt lat="47.32875" lon="-1.38866">
        <ele>74.605634</ele>
        <time>2022-06-26T21:44:52.570Z</time>
      </trkpt>
      <trkpt lat="47.32866" lon="-1.38841">
        <ele>74.772152</ele>
        <time>2022-06-26T21:44:57.941Z</time>
      </trkpt>
      <trkpt lat="47.32804" lon="-1.38698">
        <ele>75.729584</ele>
        <time>2022-06-26T21:45:29.321Z</time>
      </trkpt>
      <trkpt lat="47.32779" lon="-1.38637">
        <ele>76.044101</ele>
        <time>2022-06-26T21:45:42.430Z</time>
      </trkpt>
      <trkpt lat="47.32772" lon="-1.3861">
        <ele>76.168045</ele>
        <time>2022-06-26T21:45:47.650Z</time>
      </trkpt>
      <trkpt lat="47.32765" lon="-1.38486">
        <ele>76.712888</ele>
        <time>2022-06-26T21:46:09.504Z</time>
      </trkpt>
      <trkpt lat="47.32762" lon="-1.38182">
        <ele>77.712085</ele>
        <time>2022-06-26T21:47:03.049Z</time>
      </trkpt>
      <trkpt lat="47.33138" lon="-1.38157">
        <ele>77.378679</ele>
        <time>2022-06-26T21:48:29.293Z</time>
      </trkpt>
      <trkpt lat="47.33216" lon="-1.38152">
        <ele>76.901228</ele>
        <time>2022-06-26T21:48:46.341Z</time>
      </trkpt>
      <trkpt lat="47.33261" lon="-1.3814">
        <ele>76.626242</ele>
        <time>2022-06-26T21:48:55.935Z</time>
      </trkpt>
      <trkpt lat="47.33258" lon="-1.3807">
        <ele>76.126076</ele>
        <time>2022-06-26T21:49:05.915Z</time>
      </trkpt>
      <trkpt lat="47.33236" lon="-1.38029">
        <ele>75.606291</ele>
        <time>2022-06-26T21:49:13.210Z</time>
      </trkpt>
      <trkpt lat="47.33308" lon="-1.37831">
        <ele>73.305149</ele>
        <time>2022-06-26T21:49:43.101Z</time>
      </trkpt>
      <trkpt lat="47.33311" lon="-1.3782">
        <ele>73.170717</ele>
        <time>2022-06-26T21:49:44.609Z</time>
      </trkpt>
      <trkpt lat="47.33308" lon="-1.378">
        <ele>72.930742</ele>
        <time>2022-06-26T21:49:47.415Z</time>
      </trkpt>
      <trkpt lat="47.33322" lon="-1.37774">
        <ele>72.538355</ele>
        <time>2022-06-26T21:49:51.861Z</time>
      </trkpt>
      <trkpt lat="47.33337" lon="-1.37713">
        <ele>71.793348</ele>
        <time>2022-06-26T21:50:00.358Z</time>
      </trkpt>
      <trkpt lat="47.33357" lon="-1.37643">
        <ele>70.909729</ele>
        <time>2022-06-26T21:50:10.419Z</time>
      </trkpt>
      <trkpt lat="47.33375" lon="-1.37599">
        <ele>70.411808</ele>
        <time>2022-06-26T21:50:17.359Z</time>
      </trkpt>
      <trkpt lat="47.33384" lon="-1.37575">
        <ele>70.161603</ele>
        <time>2022-06-26T21:50:21.144Z</time>
      </trkpt>
      <trkpt lat="47.33439" lon="-1.37476">
        <ele>68.983356</ele>
        <time>2022-06-26T21:50:38.928Z</time>
      </trkpt>
      <trkpt lat="47.33388" lon="-1.37407">
        <ele>68.019198</ele>
        <time>2022-06-26T21:51:02.230Z</time>
      </trkpt>
      <trkpt lat="47.33386" lon="-1.37381">
        <ele>67.753376</ele>
        <time>2022-06-26T21:51:08.436Z</time>
      </trkpt>
      <trkpt lat="47.33375" lon="-1.37322">
        <ele>67.143719</ele>
        <time>2022-06-26T21:51:22.387Z</time>
      </trkpt>
      <trkpt lat="47.33358" lon="-1.37273">
        <ele>66.603152</ele>
        <time>2022-06-26T21:51:34.755Z</time>
      </trkpt>
      <trkpt lat="47.33355" lon="-1.37238">
        <ele>66.247486</ele>
        <time>2022-06-26T21:51:42.887Z</time>
      </trkpt>
      <trkpt lat="47.33337" lon="-1.37191">
        <ele>65.706823</ele>
        <time>2022-06-26T21:51:54.934Z</time>
      </trkpt>
      <trkpt lat="47.33327" lon="-1.3715">
        <ele>65.31709</ele>
        <time>2022-06-26T21:52:04.428Z</time>
      </trkpt>
      <trkpt lat="47.33325" lon="-1.37091">
        <ele>64.785784</ele>
        <time>2022-06-26T21:52:17.957Z</time>
      </trkpt>
      <trkpt lat="47.33312" lon="-1.37061">
        <ele>64.465266</ele>
        <time>2022-06-26T21:52:26.286Z</time>
      </trkpt>
      <trkpt lat="47.33311" lon="-1.37059">
        <ele>64.440708</ele>
        <time>2022-06-26T21:52:26.908Z</time>
      </trkpt>
      <trkpt lat="47.3327" lon="-1.37027">
        <ele>63.833901</ele>
        <time>2022-06-26T21:52:42.616Z</time>
      </trkpt>
      <trkpt lat="47.33229" lon="-1.36955">
        <ele>63.04287</ele>
        <time>2022-06-26T21:53:04.424Z</time>
      </trkpt>
      <trkpt lat="47.33197" lon="-1.36932">
        <ele>62.658475</ele>
        <time>2022-06-26T21:53:16.566Z</time>
      </trkpt>
      <trkpt lat="47.33183" lon="-1.36916">
        <ele>62.462704</ele>
        <time>2022-06-26T21:53:22.819Z</time>
      </trkpt>
      <trkpt lat="47.33181" lon="-1.36904">
        <ele>62.374529</ele>
        <time>2022-06-26T21:53:25.647Z</time>
      </trkpt>
      <trkpt lat="47.33142" lon="-1.36834">
        <ele>61.713847</ele>
        <time>2022-06-26T21:53:46.644Z</time>
      </trkpt>
      <trkpt lat="47.33112" lon="-1.36793">
        <ele>61.271605</ele>
        <time>2022-06-26T21:54:00.628Z</time>
      </trkpt>
      <trkpt lat="47.33072" lon="-1.36758">
        <ele>60.753132</ele>
        <time>2022-06-26T21:54:16.747Z</time>
      </trkpt>
      <trkpt lat="47.33047" lon="-1.3675">
        <ele>60.47251</ele>
        <time>2022-06-26T21:54:25.463Z</time>
      </trkpt>
      <trkpt lat="47.3302" lon="-1.36725">
        <ele>60.120869</ele>
        <time>2022-06-26T21:54:36.543Z</time>
      </trkpt>
      <trkpt lat="47.32953" lon="-1.36598">
        <ele>58.503396</ele>
        <time>2022-06-26T21:55:13.790Z</time>
      </trkpt>
      <trkpt lat="47.32911" lon="-1.36563">
        <ele>57.522903</ele>
        <time>2022-06-26T21:55:29.634Z</time>
      </trkpt>
      <trkpt lat="47.32899" lon="-1.36541">
        <ele>57.107883</ele>
        <time>2022-06-26T21:55:36.144Z</time>
      </trkpt>
      <trkpt lat="47.32863" lon="-1.36435">
        <ele>55.376187</ele>
        <time>2022-06-26T21:56:00.824Z</time>
      </trkpt>
      <trkpt lat="47.32849" lon="-1.36372">
        <ele>54.069911</ele>
        <time>2022-06-26T21:56:14.797Z</time>
      </trkpt>
      <trkpt lat="47.32825" lon="-1.36327">
        <ele>52.938593</ele>
        <time>2022-06-26T21:56:26.767Z</time>
      </trkpt>
      <trkpt lat="47.32805" lon="-1.36303">
        <ele>52.205693</ele>
        <time>2022-06-26T21:56:34.420Z</time>
      </trkpt>
      <trkpt lat="47.32788" lon="-1.36262">
        <ele>51.257562</ele>
        <time>2022-06-26T21:56:44.723Z</time>
      </trkpt>
      <trkpt lat="47.32772" lon="-1.36242">
        <ele>50.630265</ele>
        <time>2022-06-26T21:56:51.782Z</time>
      </trkpt>
      <trkpt lat="47.32693" lon="-1.36168">
        <ele>49.592723</ele>
        <time>2022-06-26T21:57:22.133Z</time>
      </trkpt>
      <trkpt lat="47.3268" lon="-1.36143">
        <ele>49.379687</ele>
        <time>2022-06-26T21:57:29.655Z</time>
      </trkpt>
      <trkpt lat="47.32659" lon="-1.36076">
        <ele>48.884107</ele>
        <time>2022-06-26T21:57:49.806Z</time>
      </trkpt>
      <trkpt lat="47.32636" lon="-1.36036">
        <ele>48.63541</ele>
        <time>2022-06-26T21:58:03.110Z</time>
      </trkpt>
      <trkpt lat="47.32619" lon="-1.36016">
        <ele>48.575671</ele>
        <time>2022-06-26T21:58:10.919Z</time>
      </trkpt>
      <trkpt lat="47.32596" lon="-1.36005">
        <ele>48.510405</ele>
        <time>2022-06-26T21:58:19.985Z</time>
      </trkpt>
      <trkpt lat="47.32572" lon="-1.36006">
        <ele>48.443314</ele>
        <time>2022-06-26T21:58:28.919Z</time>
      </trkpt>
      <trkpt lat="47.32568" lon="-1.35982">
        <ele>48.397702</ele>
        <time>2022-06-26T21:58:34.838Z</time>
      </trkpt>
      <trkpt lat="47.32564" lon="-1.35979">
        <ele>48.384433</ele>
        <time>2022-06-26T21:58:36.608Z</time>
      </trkpt>
      <trkpt lat="47.32566" lon="-1.35953">
        <ele>48.336294</ele>
        <time>2022-06-26T21:58:40.954Z</time>
      </trkpt>
      <trkpt lat="47.32555" lon="-1.35986">
        <ele>48.267025</ele>
        <time>2022-06-26T21:58:49.630Z</time>
      </trkpt>
      <trkpt lat="47.32542" lon="-1.35996">
        <ele>48.2269</ele>
        <time>2022-06-26T21:58:55.258Z</time>
      </trkpt>
      <trkpt lat="47.32501" lon="-1.36003">
        <ele>47.877856</ele>
        <time>2022-06-26T21:59:09.580Z</time>
      </trkpt>
      <trkpt lat="47.32432" lon="-1.36042">
        <ele>46.961891</ele>
        <time>2022-06-26T21:59:34.842Z</time>
      </trkpt>
      <trkpt lat="47.32358" lon="-1.36067">
        <ele>46.015065</ele>
        <time>2022-06-26T21:59:59.766Z</time>
      </trkpt>
      <trkpt lat="47.32325" lon="-1.36059">
        <ele>45.783278</ele>
        <time>2022-06-26T22:00:10.931Z</time>
      </trkpt>
      <trkpt lat="47.32287" lon="-1.36012">
        <ele>45.475683</ele>
        <time>2022-06-26T22:00:28.406Z</time>
      </trkpt>
      <trkpt lat="47.32246" lon="-1.35987">
        <ele>45.19884</ele>
        <time>2022-06-26T22:00:44.641Z</time>
      </trkpt>
      <trkpt lat="47.32178" lon="-1.35977">
        <ele>44.727276</ele>
        <time>2022-06-26T22:01:10.018Z</time>
      </trkpt>
      <trkpt lat="47.32075" lon="-1.36004">
        <ele>43.616344</ele>
        <time>2022-06-26T22:01:46.396Z</time>
      </trkpt>
      <trkpt lat="47.32035" lon="-1.36021">
        <ele>43.17804</ele>
        <time>2022-06-26T22:02:00.506Z</time>
      </trkpt>
      <trkpt lat="47.32015" lon="-1.36038">
        <ele>42.934959</ele>
        <time>2022-06-26T22:02:07.883Z</time>
      </trkpt>
      <trkpt lat="47.31981" lon="-1.35986">
        <ele>41.875522</ele>
        <time>2022-06-26T22:02:23.961Z</time>
      </trkpt>
      <trkpt lat="47.31972" lon="-1.35965">
        <ele>41.502055</ele>
        <time>2022-06-26T22:02:29.306Z</time>
      </trkpt>
      <trkpt lat="47.3196" lon="-1.35909">
        <ele>40.646901</ele>
        <time>2022-06-26T22:02:41.628Z</time>
      </trkpt>
      <trkpt lat="47.31947" lon="-1.35877">
        <ele>40.089321</ele>
        <time>2022-06-26T22:02:49.755Z</time>
      </trkpt>
      <trkpt lat="47.31937" lon="-1.35858">
        <ele>39.734872</ele>
        <time>2022-06-26T22:02:54.828Z</time>
      </trkpt>
      <trkpt lat="47.31918" lon="-1.35839">
        <ele>39.225667</ele>
        <time>2022-06-26T22:03:02.576Z</time>
      </trkpt>
      <trkpt lat="47.31899" lon="-1.35794">
        <ele>38.798382</ele>
        <time>2022-06-26T22:03:14.222Z</time>
      </trkpt>
      <trkpt lat="47.31885" lon="-1.35741">
        <ele>38.481227</ele>
        <time>2022-06-26T22:03:26.663Z</time>
      </trkpt>
      <trkpt lat="47.31851" lon="-1.35652">
        <ele>37.913513</ele>
        <time>2022-06-26T22:03:51.709Z</time>
      </trkpt>
      <trkpt lat="47.31812" lon="-1.35605">
        <ele>37.474902</ele>
        <time>2022-06-26T22:04:11.834Z</time>
      </trkpt>
      <trkpt lat="47.31789" lon="-1.35605">
        <ele>37.167673</ele>
        <time>2022-06-26T22:04:19.615Z</time>
      </trkpt>
      <trkpt lat="47.31773" lon="-1.35599">
        <ele>36.945485</ele>
        <time>2022-06-26T22:04:27.331Z</time>
      </trkpt>
      <trkpt lat="47.31755" lon="-1.35582">
        <ele>36.657263</ele>
        <time>2022-06-26T22:04:34.543Z</time>
      </trkpt>
      <trkpt lat="47.31731" lon="-1.35506">
        <ele>35.881631</ele>
        <time>2022-06-26T22:04:54.220Z</time>
      </trkpt>
      <trkpt lat="47.31731" lon="-1.35506">
        <ele>35.879341</ele>
        <time>2022-06-26T22:04:54.416Z</time>
      </trkpt>
      <trkpt lat="47.31726" lon="-1.35344">
        <ele>35.794886</ele>
        <time>2022-06-26T22:05:27.936Z</time>
      </trkpt>
      <trkpt lat="47.3171" lon="-1.35249">
        <ele>36.699256</ele>
        <time>2022-06-26T22:05:51.581Z</time>
      </trkpt>
      <trkpt lat="47.31701" lon="-1.35217">
        <ele>37.023459</ele>
        <time>2022-06-26T22:06:02.614Z</time>
      </trkpt>
      <trkpt lat="47.31677" lon="-1.35521">
        <ele>52.799829</ele>
        <time>2022-06-26T22:08:55.906Z</time>
      </trkpt>
      <trkpt lat="47.31638" lon="-1.35594">
        <ele>57.348364</ele>
        <time>2022-06-26T22:09:50.799Z</time>
      </trkpt>
      <trkpt lat="47.31585" lon="-1.35632">
        <ele>61.414113</ele>
        <time>2022-06-26T22:10:34.678Z</time>
      </trkpt>
      <trkpt lat="47.31537" lon="-1.35791">
        <ele>67.446827</ele>
        <time>2022-06-26T22:11:43.678Z</time>
      </trkpt>
      <trkpt lat="47.31509" lon="-1.35875">
        <ele>69.04008</ele>
        <time>2022-06-26T22:12:15.439Z</time>
      </trkpt>
      <trkpt lat="47.31502" lon="-1.35959">
        <ele>70.483322</ele>
        <time>2022-06-26T22:12:41.054Z</time>
      </trkpt>
      <trkpt lat="47.31488" lon="-1.36005">
        <ele>70.658481</ele>
        <time>2022-06-26T22:12:55.030Z</time>
      </trkpt>
      <trkpt lat="47.31463" lon="-1.3599">
        <ele>70.563422</ele>
        <time>2022-06-26T22:13:01.246Z</time>
      </trkpt>
      <trkpt lat="47.31292" lon="-1.36034">
        <ele>69.362461</ele>
        <time>2022-06-26T22:13:36.302Z</time>
      </trkpt>
      <trkpt lat="47.31262" lon="-1.36025">
        <ele>68.849606</ele>
        <time>2022-06-26T22:13:42.104Z</time>
      </trkpt>
      <trkpt lat="47.31253" lon="-1.36012">
        <ele>68.640734</ele>
        <time>2022-06-26T22:13:44.478Z</time>
      </trkpt>
      <trkpt lat="47.3123" lon="-1.36001">
        <ele>68.247416</ele>
        <time>2022-06-26T22:13:48.852Z</time>
      </trkpt>
      <trkpt lat="47.31196" lon="-1.35953">
        <ele>67.46117</ele>
        <time>2022-06-26T22:13:57.757Z</time>
      </trkpt>
      <trkpt lat="47.31155" lon="-1.35944">
        <ele>65.823253</ele>
        <time>2022-06-26T22:14:05.360Z</time>
      </trkpt>
      <trkpt lat="47.31101" lon="-1.35947">
        <ele>62.467528</ele>
        <time>2022-06-26T22:14:14.118Z</time>
      </trkpt>
      <trkpt lat="47.3108" lon="-1.3596">
        <ele>61.035594</ele>
        <time>2022-06-26T22:14:17.520Z</time>
      </trkpt>
      <trkpt lat="47.31079" lon="-1.35943">
        <ele>60.317516</ele>
        <time>2022-06-26T22:14:19.264Z</time>
      </trkpt>
      <trkpt lat="47.31042" lon="-1.35867">
        <ele>56.37487</ele>
        <time>2022-06-26T22:14:28.470Z</time>
      </trkpt>
      <trkpt lat="47.31027" lon="-1.35834">
        <ele>53.936942</ele>
        <time>2022-06-26T22:14:32.301Z</time>
      </trkpt>
      <trkpt lat="47.31022" lon="-1.35816">
        <ele>52.5522</ele>
        <time>2022-06-26T22:14:34.258Z</time>
      </trkpt>
      <trkpt lat="47.31021" lon="-1.35776">
        <ele>49.776393</ele>
        <time>2022-06-26T22:14:38.062Z</time>
      </trkpt>
      <trkpt lat="47.31029" lon="-1.35741">
        <ele>47.191721</ele>
        <time>2022-06-26T22:14:41.590Z</time>
      </trkpt>
      <trkpt lat="47.31079" lon="-1.35659">
        <ele>39.513314</ele>
        <time>2022-06-26T22:14:51.999Z</time>
      </trkpt>
      <trkpt lat="47.31095" lon="-1.35632">
        <ele>37.185252</ele>
        <time>2022-06-26T22:14:55.395Z</time>
      </trkpt>
      <trkpt lat="47.31101" lon="-1.35623">
        <ele>36.604208</ele>
        <time>2022-06-26T22:14:56.616Z</time>
      </trkpt>
      <trkpt lat="47.31123" lon="-1.35587">
        <ele>34.374881</ele>
        <time>2022-06-26T22:15:01.440Z</time>
      </trkpt>
      <trkpt lat="47.31173" lon="-1.35532">
        <ele>30.162083</ele>
        <time>2022-06-26T22:15:10.980Z</time>
      </trkpt>
      <trkpt lat="47.3119" lon="-1.35504">
        <ele>28.431966</ele>
        <time>2022-06-26T22:15:15.032Z</time>
      </trkpt>
      <trkpt lat="47.31217" lon="-1.35438">
        <ele>25.028004</ele>
        <time>2022-06-26T22:15:23.224Z</time>
      </trkpt>
      <trkpt lat="47.31233" lon="-1.35415">
        <ele>24.007025</ele>
        <time>2022-06-26T22:15:26.760Z</time>
      </trkpt>
      <trkpt lat="47.31272" lon="-1.35375">
        <ele>21.838247</ele>
        <time>2022-06-26T22:15:34.347Z</time>
      </trkpt>
      <trkpt lat="47.31322" lon="-1.35334">
        <ele>19.244736</ele>
        <time>2022-06-26T22:15:43.746Z</time>
      </trkpt>
      <trkpt lat="47.31326" lon="-1.35319">
        <ele>18.740405</ele>
        <time>2022-06-26T22:15:45.448Z</time>
      </trkpt>
      <trkpt lat="47.3132" lon="-1.35296">
        <ele>18.004271</ele>
        <time>2022-06-26T22:15:48.286Z</time>
      </trkpt>
      <trkpt lat="47.31305" lon="-1.35287">
        <ele>17.271</ele>
        <time>2022-06-26T22:15:50.830Z</time>
      </trkpt>
      <trkpt lat="47.31293" lon="-1.35291">
        <ele>16.79508</ele>
        <time>2022-06-26T22:15:52.981Z</time>
      </trkpt>
      <trkpt lat="47.31266" lon="-1.35336">
        <ele>15.347593</ele>
        <time>2022-06-26T22:15:59.801Z</time>
      </trkpt>
      <trkpt lat="47.31253" lon="-1.35347">
        <ele>14.815976</ele>
        <time>2022-06-26T22:16:02.170Z</time>
      </trkpt>
      <trkpt lat="47.31237" lon="-1.3534">
        <ele>14.242563</ele>
        <time>2022-06-26T22:16:04.776Z</time>
      </trkpt>
      <trkpt lat="47.31233" lon="-1.35326">
        <ele>13.867996</ele>
        <time>2022-06-26T22:16:06.493Z</time>
      </trkpt>
      <trkpt lat="47.31239" lon="-1.35303">
        <ele>13.288602</ele>
        <time>2022-06-26T22:16:09.003Z</time>
      </trkpt>
      <trkpt lat="47.31257" lon="-1.35271">
        <ele>12.28896</ele>
        <time>2022-06-26T22:16:13.659Z</time>
      </trkpt>
      <trkpt lat="47.31257" lon="-1.35271">
        <ele>12.282978</ele>
        <time>2022-06-26T22:16:13.686Z</time>
      </trkpt>
      <trkpt lat="47.31278" lon="-1.35197">
        <ele>10.70973</ele>
        <time>2022-06-26T22:16:23.925Z</time>
      </trkpt>
      <trkpt lat="47.31311" lon="-1.35136">
        <ele>10.597075</ele>
        <time>2022-06-26T22:16:34.256Z</time>
      </trkpt>
      <trkpt lat="47.31327" lon="-1.35114">
        <ele>10.551065</ele>
        <time>2022-06-26T22:16:38.907Z</time>
      </trkpt>
      <trkpt lat="47.31352" lon="-1.35078">
        <ele>10.477475</ele>
        <time>2022-06-26T22:16:46.543Z</time>
      </trkpt>
      <trkpt lat="47.31356" lon="-1.35072">
        <ele>10.464763</ele>
        <time>2022-06-26T22:16:47.828Z</time>
      </trkpt>
      <trkpt lat="47.31381" lon="-1.35033">
        <ele>10.388065</ele>
        <time>2022-06-26T22:16:56.593Z</time>
      </trkpt>
      <trkpt lat="47.3139" lon="-1.35018">
        <ele>10.359089</ele>
        <time>2022-06-26T22:16:59.996Z</time>
      </trkpt>
      <trkpt lat="47.31424" lon="-1.34976">
        <ele>11.789603</ele>
        <time>2022-06-26T22:17:13.734Z</time>
      </trkpt>
      <trkpt lat="47.31608" lon="-1.34777">
        <ele>20.147604</ele>
        <time>2022-06-26T22:18:54.910Z</time>
      </trkpt>
      <trkpt lat="47.3164" lon="-1.34756">
        <ele>21.489046</ele>
        <time>2022-06-26T22:19:11.999Z</time>
      </trkpt>
      <trkpt lat="47.31724" lon="-1.34726">
        <ele>22.912591</ele>
        <time>2022-06-26T22:19:43.925Z</time>
      </trkpt>
      <trkpt lat="47.31727" lon="-1.34712">
        <ele>22.670344</ele>
        <time>2022-06-26T22:19:45.826Z</time>
      </trkpt>
      <trkpt lat="47.31748" lon="-1.34692">
        <ele>22.082611</ele>
        <time>2022-06-26T22:19:50.432Z</time>
      </trkpt>
      <trkpt lat="47.31758" lon="-1.34665">
        <ele>21.578966</ele>
        <time>2022-06-26T22:19:54.330Z</time>
      </trkpt>
      <trkpt lat="47.31793" lon="-1.34635">
        <ele>20.615525</ele>
        <time>2022-06-26T22:20:01.397Z</time>
      </trkpt>
      <trkpt lat="47.31786" lon="-1.34613">
        <ele>20.226861</ele>
        <time>2022-06-26T22:20:03.814Z</time>
      </trkpt>
      <trkpt lat="47.31752" lon="-1.34559">
        <ele>18.727876</ele>
        <time>2022-06-26T22:20:11.702Z</time>
      </trkpt>
      <trkpt lat="47.31735" lon="-1.34542">
        <ele>17.79693</ele>
        <time>2022-06-26T22:20:14.760Z</time>
      </trkpt>
      <trkpt lat="47.31735" lon="-1.34542">
        <ele>17.792306</ele>
        <time>2022-06-26T22:20:14.772Z</time>
      </trkpt>
      <trkpt lat="47.31722" lon="-1.34542">
        <ele>17.190743</ele>
        <time>2022-06-26T22:20:16.993Z</time>
      </trkpt>
      <trkpt lat="47.31708" lon="-1.34547">
        <ele>16.515492</ele>
        <time>2022-06-26T22:20:19.308Z</time>
      </trkpt>
      <trkpt lat="47.31677" lon="-1.34575">
        <ele>14.845899</ele>
        <time>2022-06-26T22:20:24.990Z</time>
      </trkpt>
      <trkpt lat="47.31662" lon="-1.34577">
        <ele>14.148829</ele>
        <time>2022-06-26T22:20:27.315Z</time>
      </trkpt>
      <trkpt lat="47.31652" lon="-1.34564">
        <ele>13.554593</ele>
        <time>2022-06-26T22:20:29.478Z</time>
      </trkpt>
      <trkpt lat="47.3165" lon="-1.34559">
        <ele>13.354192</ele>
        <time>2022-06-26T22:20:30.707Z</time>
      </trkpt>
      <trkpt lat="47.32028" lon="-1.33968">
        <ele>7.939861</ele>
        <time>2022-06-26T22:22:38.804Z</time>
      </trkpt>
      <trkpt lat="47.32119" lon="-1.33792">
        <ele>6.98754</ele>
        <time>2022-06-26T22:23:13.675Z</time>
      </trkpt>
      <trkpt lat="47.32213" lon="-1.33556">
        <ele>5.7268</ele>
        <time>2022-06-26T22:23:55.265Z</time>
      </trkpt>
      <trkpt lat="47.32332" lon="-1.33296">
        <ele>4.969052</ele>
        <time>2022-06-26T22:24:43.439Z</time>
      </trkpt>
      <trkpt lat="47.32375" lon="-1.33209">
        <ele>4.760386</ele>
        <time>2022-06-26T22:25:00.843Z</time>
      </trkpt>
      <trkpt lat="47.32414" lon="-1.3315">
        <ele>4.570322</ele>
        <time>2022-06-26T22:25:14.137Z</time>
      </trkpt>
      <trkpt lat="47.32422" lon="-1.33142">
        <ele>4.53691</ele>
        <time>2022-06-26T22:25:16.450Z</time>
      </trkpt>
      <trkpt lat="47.32447" lon="-1.33137">
        <ele>4.452342</ele>
        <time>2022-06-26T22:25:22.265Z</time>
      </trkpt>
      <trkpt lat="47.32509" lon="-1.33066">
        <ele>4.332145</ele>
        <time>2022-06-26T22:25:40.856Z</time>
      </trkpt>
      <trkpt lat="47.32577" lon="-1.33002">
        <ele>4.418375</ele>
        <time>2022-06-26T22:26:01.956Z</time>
      </trkpt>
      <trkpt lat="47.32615" lon="-1.32947">
        <ele>4.47505</ele>
        <time>2022-06-26T22:26:15.162Z</time>
      </trkpt>
      <trkpt lat="47.32631" lon="-1.32927">
        <ele>4.516954</ele>
        <time>2022-06-26T22:26:20.819Z</time>
      </trkpt>
      <trkpt lat="47.32641" lon="-1.32923">
        <ele>4.556773</ele>
        <time>2022-06-26T22:26:23.411Z</time>
      </trkpt>
      <trkpt lat="47.32729" lon="-1.32792">
        <ele>5.033053</ele>
        <time>2022-06-26T22:26:57.576Z</time>
      </trkpt>
      <trkpt lat="47.32766" lon="-1.32725">
        <ele>5.215227</ele>
        <time>2022-06-26T22:27:12.831Z</time>
      </trkpt>
      <trkpt lat="47.32793" lon="-1.32657">
        <ele>5.323459</ele>
        <time>2022-06-26T22:27:26.234Z</time>
      </trkpt>
      <trkpt lat="47.32828" lon="-1.32605">
        <ele>5.423861</ele>
        <time>2022-06-26T22:27:38.873Z</time>
      </trkpt>
      <trkpt lat="47.33052" lon="-1.3217">
        <ele>7.956882</ele>
        <time>2022-06-26T22:29:14.718Z</time>
      </trkpt>
      <trkpt lat="47.33066" lon="-1.32188">
        <ele>8.228275</ele>
        <time>2022-06-26T22:29:22.680Z</time>
      </trkpt>
      <trkpt lat="47.33049" lon="-1.32225">
        <ele>8.833016</ele>
        <time>2022-06-26T22:29:36.170Z</time>
      </trkpt>
      <trkpt lat="47.3306" lon="-1.32268">
        <ele>10.502081</ele>
        <time>2022-06-26T22:29:51.295Z</time>
      </trkpt>
      <trkpt lat="47.33154" lon="-1.32327">
        <ele>15.931585</ele>
        <time>2022-06-26T22:30:59.443Z</time>
      </trkpt>
      <trkpt lat="47.33192" lon="-1.32369">
        <ele>18.362432</ele>
        <time>2022-06-26T22:31:31.844Z</time>
      </trkpt>
      <trkpt lat="47.33293" lon="-1.32509">
        <ele>23.377932</ele>
        <time>2022-06-26T22:32:52.488Z</time>
      </trkpt>
      <trkpt lat="47.3333" lon="-1.32537">
        <ele>24.740198</ele>
        <time>2022-06-26T22:33:09.760Z</time>
      </trkpt>
      <trkpt lat="47.33395" lon="-1.326">
        <ele>25.244303</ele>
        <time>2022-06-26T22:33:40.590Z</time>
      </trkpt>
      <trkpt lat="47.33421" lon="-1.32579">
        <ele>25.435248</ele>
        <time>2022-06-26T22:33:51.879Z</time>
      </trkpt>
      <trkpt lat="47.33438" lon="-1.32574">
        <ele>25.543634</ele>
        <time>2022-06-26T22:33:57.972Z</time>
      </trkpt>
      <trkpt lat="47.33452" lon="-1.32573">
        <ele>25.639042</ele>
        <time>2022-06-26T22:34:03.940Z</time>
      </trkpt>
      <trkpt lat="47.33469" lon="-1.32587">
        <ele>25.761314</ele>
        <time>2022-06-26T22:34:11.186Z</time>
      </trkpt>
      <trkpt lat="47.33503" lon="-1.32639">
        <ele>26.402826</ele>
        <time>2022-06-26T22:34:31.190Z</time>
      </trkpt>
      <trkpt lat="47.33567" lon="-1.32713">
        <ele>27.707922</ele>
        <time>2022-06-26T22:35:06.431Z</time>
      </trkpt>
      <trkpt lat="47.33659" lon="-1.32788">
        <ele>29.785135</ele>
        <time>2022-06-26T22:35:59.220Z</time>
      </trkpt>
      <trkpt lat="47.33739" lon="-1.32888">
        <ele>32.478928</ele>
        <time>2022-06-26T22:36:52.339Z</time>
      </trkpt>
      <trkpt lat="47.33808" lon="-1.3294">
        <ele>34.521109</ele>
        <time>2022-06-26T22:37:29.260Z</time>
      </trkpt>
      <trkpt lat="47.33847" lon="-1.32948">
        <ele>35.619062</ele>
        <time>2022-06-26T22:37:49.521Z</time>
      </trkpt>
      <trkpt lat="47.33873" lon="-1.32976">
        <ele>36.493045</ele>
        <time>2022-06-26T22:38:06.417Z</time>
      </trkpt>
      <trkpt lat="47.33951" lon="-1.32981">
        <ele>38.690106</ele>
        <time>2022-06-26T22:38:46.778Z</time>
      </trkpt>
      <trkpt lat="47.33959" lon="-1.32988">
        <ele>38.995958</ele>
        <time>2022-06-26T22:38:52.310Z</time>
      </trkpt>
      <trkpt lat="47.34012" lon="-1.32925">
        <ele>41.162645</ele>
        <time>2022-06-26T22:39:25.964Z</time>
      </trkpt>
      <trkpt lat="47.34069" lon="-1.32872">
        <ele>43.284099</ele>
        <time>2022-06-26T22:40:03.433Z</time>
      </trkpt>
      <trkpt lat="47.34093" lon="-1.32842">
        <ele>44.278748</ele>
        <time>2022-06-26T22:40:21.224Z</time>
      </trkpt>
      <trkpt lat="47.34101" lon="-1.32818">
        <ele>44.869173</ele>
        <time>2022-06-26T22:40:30.355Z</time>
      </trkpt>
      <trkpt lat="47.34133" lon="-1.32784">
        <ele>46.118128</ele>
        <time>2022-06-26T22:40:51.152Z</time>
      </trkpt>
      <trkpt lat="47.34135" lon="-1.3277">
        <ele>46.426246</ele>
        <time>2022-06-26T22:40:57.939Z</time>
      </trkpt>
      <trkpt lat="47.34151" lon="-1.32739">
        <ele>47.273384</ele>
        <time>2022-06-26T22:41:10.036Z</time>
      </trkpt>
      <trkpt lat="47.34179" lon="-1.327">
        <ele>48.494337</ele>
        <time>2022-06-26T22:41:30.420Z</time>
      </trkpt>
      <trkpt lat="47.3419" lon="-1.32694">
        <ele>48.876899</ele>
        <time>2022-06-26T22:41:37.364Z</time>
      </trkpt>
      <trkpt lat="47.34209" lon="-1.32658">
        <ele>49.835183</ele>
        <time>2022-06-26T22:41:53.754Z</time>
      </trkpt>
      <trkpt lat="47.34249" lon="-1.32683">
        <ele>51.049419</ele>
        <time>2022-06-26T22:42:16.004Z</time>
      </trkpt>
      <trkpt lat="47.34264" lon="-1.32702">
        <ele>51.612234</ele>
        <time>2022-06-26T22:42:25.955Z</time>
      </trkpt>
      <trkpt lat="47.34273" lon="-1.32716">
        <ele>51.970399</ele>
        <time>2022-06-26T22:42:31.952Z</time>
      </trkpt>
      <trkpt lat="47.34279" lon="-1.32748">
        <ele>52.58916</ele>
        <time>2022-06-26T22:42:43.362Z</time>
      </trkpt>
      <trkpt lat="47.343" lon="-1.32749">
        <ele>53.163157</ele>
        <time>2022-06-26T22:42:53.939Z</time>
      </trkpt>
      <trkpt lat="47.34337" lon="-1.32765">
        <ele>54.239187</ele>
        <time>2022-06-26T22:43:13.896Z</time>
      </trkpt>
      <trkpt lat="47.34357" lon="-1.3278">
        <ele>54.87738</ele>
        <time>2022-06-26T22:43:24.563Z</time>
      </trkpt>
      <trkpt lat="47.34357" lon="-1.328">
        <ele>55.264164</ele>
        <time>2022-06-26T22:43:31.880Z</time>
      </trkpt>
      <trkpt lat="47.34412" lon="-1.32874">
        <ele>57.39081</ele>
        <time>2022-06-26T22:44:10.646Z</time>
      </trkpt>
      <trkpt lat="47.34524" lon="-1.32974">
        <ele>61.029741</ele>
        <time>2022-06-26T22:45:17.370Z</time>
      </trkpt>
      <trkpt lat="47.34533" lon="-1.32975">
        <ele>61.275953</ele>
        <time>2022-06-26T22:45:23.077Z</time>
      </trkpt>
      <trkpt lat="47.34599" lon="-1.32942">
        <ele>63.118773</ele>
        <time>2022-06-26T22:45:56.156Z</time>
      </trkpt>
      <trkpt lat="47.34607" lon="-1.3283">
        <ele>65.094789</ele>
        <time>2022-06-26T22:46:25.893Z</time>
      </trkpt>
      <trkpt lat="47.34618" lon="-1.3279">
        <ele>65.773259</ele>
        <time>2022-06-26T22:46:35.385Z</time>
      </trkpt>
      <trkpt lat="47.34638" lon="-1.32741">
        <ele>66.68564</ele>
        <time>2022-06-26T22:46:48.466Z</time>
      </trkpt>
      <trkpt lat="47.34664" lon="-1.32719">
        <ele>67.386564</ele>
        <time>2022-06-26T22:46:59.326Z</time>
      </trkpt>
      <trkpt lat="47.34704" lon="-1.32709">
        <ele>68.317402</ele>
        <time>2022-06-26T22:47:13.082Z</time>
      </trkpt>
      <trkpt lat="47.34704" lon="-1.32709">
        <ele>68.327248</ele>
        <time>2022-06-26T22:47:13.219Z</time>
      </trkpt>
      <trkpt lat="47.3472" lon="-1.32715">
        <ele>68.711732</ele>
        <time>2022-06-26T22:47:18.821Z</time>
      </trkpt>
      <trkpt lat="47.3475" lon="-1.32739">
        <ele>69.140884</ele>
        <time>2022-06-26T22:47:30.250Z</time>
      </trkpt>
      <trkpt lat="47.34795" lon="-1.3275">
        <ele>69.612406</ele>
        <time>2022-06-26T22:47:45.164Z</time>
      </trkpt>
      <trkpt lat="47.3482" lon="-1.32698">
        <ele>70.064126</ele>
        <time>2022-06-26T22:47:56.889Z</time>
      </trkpt>
      <trkpt lat="47.34835" lon="-1.3265">
        <ele>70.435536</ele>
        <time>2022-06-26T22:48:05.658Z</time>
      </trkpt>
      <trkpt lat="47.34842" lon="-1.32564">
        <ele>70.518856</ele>
        <time>2022-06-26T22:48:19.268Z</time>
      </trkpt>
      <trkpt lat="47.34811" lon="-1.32508">
        <ele>70.19781</ele>
        <time>2022-06-26T22:48:29.593Z</time>
      </trkpt>
      <trkpt lat="47.34761" lon="-1.324">
        <ele>69.624711</ele>
        <time>2022-06-26T22:48:47.063Z</time>
      </trkpt>
      <trkpt lat="47.34709" lon="-1.32265">
        <ele>68.967221</ele>
        <time>2022-06-26T22:49:07.810Z</time>
      </trkpt>
      <trkpt lat="47.34655" lon="-1.32143">
        <ele>68.59882</ele>
        <time>2022-06-26T22:49:28.902Z</time>
      </trkpt>
      <trkpt lat="47.34626" lon="-1.32106">
        <ele>69.082875</ele>
        <time>2022-06-26T22:49:38.729Z</time>
      </trkpt>
      <trkpt lat="47.34588" lon="-1.32076">
        <ele>69.626788</ele>
        <time>2022-06-26T22:49:50.951Z</time>
      </trkpt>
      <trkpt lat="47.34563" lon="-1.32049">
        <ele>70.023459</ele>
        <time>2022-06-26T22:50:00.332Z</time>
      </trkpt>
      <trkpt lat="47.345" lon="-1.31959">
        <ele>71.339073</ele>
        <time>2022-06-26T22:50:29.486Z</time>
      </trkpt>
      <trkpt lat="47.34475" lon="-1.31918">
        <ele>72.036826</ele>
        <time>2022-06-26T22:50:42.236Z</time>
      </trkpt>
      <trkpt lat="47.34408" lon="-1.3182">
        <ele>73.799097</ele>
        <time>2022-06-26T22:51:12.186Z</time>
      </trkpt>
      <trkpt lat="47.34352" lon="-1.31745">
        <ele>74.132519</ele>
        <time>2022-06-26T22:51:32.626Z</time>
      </trkpt>
      <trkpt lat="47.34374" lon="-1.31703">
        <ele>74.168128</ele>
        <time>2022-06-26T22:51:41.836Z</time>
      </trkpt>
      <trkpt lat="47.34385" lon="-1.31664">
        <ele>74.19622</ele>
        <time>2022-06-26T22:51:48.334Z</time>
      </trkpt>
      <trkpt lat="47.34383" lon="-1.31595">
        <ele>74.242096</ele>
        <time>2022-06-26T22:51:58.253Z</time>
      </trkpt>
      <trkpt lat="47.34368" lon="-1.31511">
        <ele>73.115454</ele>
        <time>2022-06-26T22:52:09.788Z</time>
      </trkpt>
      <trkpt lat="47.34374" lon="-1.3148">
        <ele>72.625185</ele>
        <time>2022-06-26T22:52:13.948Z</time>
      </trkpt>
      <trkpt lat="47.3439" lon="-1.31444">
        <ele>71.960665</ele>
        <time>2022-06-26T22:52:19.582Z</time>
      </trkpt>
      <trkpt lat="47.3441" lon="-1.31391">
        <ele>71.055628</ele>
        <time>2022-06-26T22:52:27.283Z</time>
      </trkpt>
      <trkpt lat="47.3442" lon="-1.31289">
        <ele>68.949279</ele>
        <time>2022-06-26T22:52:39.851Z</time>
      </trkpt>
      <trkpt lat="47.34422" lon="-1.31181">
        <ele>66.096989</ele>
        <time>2022-06-26T22:52:52.813Z</time>
      </trkpt>
      <trkpt lat="47.34411" lon="-1.31098">
        <ele>63.866655</ele>
        <time>2022-06-26T22:53:02.540Z</time>
      </trkpt>
      <trkpt lat="47.34379" lon="-1.30977">
        <ele>59.445803</ele>
        <time>2022-06-26T22:53:17.195Z</time>
      </trkpt>
      <trkpt lat="47.34379" lon="-1.30932">
        <ele>57.841132</ele>
        <time>2022-06-26T22:53:22.105Z</time>
      </trkpt>
      <trkpt lat="47.34424" lon="-1.3081">
        <ele>52.819058</ele>
        <time>2022-06-26T22:53:37.498Z</time>
      </trkpt>
      <trkpt lat="47.34439" lon="-1.30734">
        <ele>49.828125</ele>
        <time>2022-06-26T22:53:46.388Z</time>
      </trkpt>
      <trkpt lat="47.34433" lon="-1.30707">
        <ele>48.76432</ele>
        <time>2022-06-26T22:53:49.521Z</time>
      </trkpt>
      <trkpt lat="47.3445" lon="-1.30659">
        <ele>46.711073</ele>
        <time>2022-06-26T22:53:55.285Z</time>
      </trkpt>
      <trkpt lat="47.34467" lon="-1.30538">
        <ele>41.468099</ele>
        <time>2022-06-26T22:54:08.421Z</time>
      </trkpt>
      <trkpt lat="47.34465" lon="-1.30455">
        <ele>37.306959</ele>
        <time>2022-06-26T22:54:16.863Z</time>
      </trkpt>
      <trkpt lat="47.34453" lon="-1.30392">
        <ele>34.055773</ele>
        <time>2022-06-26T22:54:23.356Z</time>
      </trkpt>
      <trkpt lat="47.3444" lon="-1.30368">
        <ele>32.501709</ele>
        <time>2022-06-26T22:54:26.387Z</time>
      </trkpt>
      <trkpt lat="47.34339" lon="-1.30243">
        <ele>21.810422</ele>
        <time>2022-06-26T22:54:45.429Z</time>
      </trkpt>
      <trkpt lat="47.34334" lon="-1.30215">
        <ele>20.166438</ele>
        <time>2022-06-26T22:54:48.227Z</time>
      </trkpt>
      <trkpt lat="47.34338" lon="-1.30155">
        <ele>16.759838</ele>
        <time>2022-06-26T22:54:54.299Z</time>
      </trkpt>
      <trkpt lat="47.34328" lon="-1.30138">
        <ele>15.562033</ele>
        <time>2022-06-26T22:54:56.538Z</time>
      </trkpt>
      <trkpt lat="47.34313" lon="-1.30129">
        <ele>14.855532</ele>
        <time>2022-06-26T22:54:58.983Z</time>
      </trkpt>
      <trkpt lat="47.34306" lon="-1.3013">
        <ele>14.548976</ele>
        <time>2022-06-26T22:55:00.232Z</time>
      </trkpt>
      <trkpt lat="47.34303" lon="-1.30108">
        <ele>13.937639</ele>
        <time>2022-06-26T22:55:02.547Z</time>
      </trkpt>
      <trkpt lat="47.34274" lon="-1.30009">
        <ele>10.930416</ele>
        <time>2022-06-26T22:55:14.456Z</time>
      </trkpt>
      <trkpt lat="47.34273" lon="-1.29988">
        <ele>10.337602</ele>
        <time>2022-06-26T22:55:16.794Z</time>
      </trkpt>
      <trkpt lat="47.34279" lon="-1.29954">
        <ele>9.367122</ele>
        <time>2022-06-26T22:55:20.946Z</time>
      </trkpt>
      <trkpt lat="47.34306" lon="-1.29872">
        <ele>7.996019</ele>
        <time>2022-06-26T22:55:32.566Z</time>
      </trkpt>
      <trkpt lat="47.34321" lon="-1.29826">
        <ele>7.857881</ele>
        <time>2022-06-26T22:55:39.903Z</time>
      </trkpt>
      <trkpt lat="47.34403" lon="-1.29656">
        <ele>7.481038</ele>
        <time>2022-06-26T22:56:12.669Z</time>
      </trkpt>
      <trkpt lat="47.34416" lon="-1.29609">
        <ele>7.581258</ele>
        <time>2022-06-26T22:56:20.850Z</time>
      </trkpt>
      <trkpt lat="47.34426" lon="-1.29544">
        <ele>7.711586</ele>
        <time>2022-06-26T22:56:31.546Z</time>
      </trkpt>
      <trkpt lat="47.34439" lon="-1.29449">
        <ele>7.902361</ele>
        <time>2022-06-26T22:56:47.319Z</time>
      </trkpt>
      <trkpt lat="47.34441" lon="-1.29405">
        <ele>7.968241</ele>
        <time>2022-06-26T22:56:54.584Z</time>
      </trkpt>
      <trkpt lat="47.34439" lon="-1.29192">
        <ele>8.257372</ele>
        <time>2022-06-26T22:57:28.333Z</time>
      </trkpt>
      <trkpt lat="47.34438" lon="-1.29126">
        <ele>8.097031</ele>
        <time>2022-06-26T22:57:38.125Z</time>
      </trkpt>
      <trkpt lat="47.34436" lon="-1.2912">
        <ele>8.069811</ele>
        <time>2022-06-26T22:57:39.132Z</time>
      </trkpt>
      <trkpt lat="47.34399" lon="-1.29111">
        <ele>7.856795</ele>
        <time>2022-06-26T22:57:46.928Z</time>
      </trkpt>
      <trkpt lat="47.34391" lon="-1.29109">
        <ele>7.810284</ele>
        <time>2022-06-26T22:57:48.602Z</time>
      </trkpt>
      <trkpt lat="47.34364" lon="-1.29104">
        <ele>7.652299</ele>
        <time>2022-06-26T22:57:54.147Z</time>
      </trkpt>
      <trkpt lat="47.34356" lon="-1.29156">
        <ele>7.44577</ele>
        <time>2022-06-26T22:58:01.147Z</time>
      </trkpt>
      <trkpt lat="47.34355" lon="-1.29171">
        <ele>7.383583</ele>
        <time>2022-06-26T22:58:03.291Z</time>
      </trkpt>
      <trkpt lat="47.34346" lon="-1.29227">
        <ele>7.220898</ele>
        <time>2022-06-26T22:58:11.056Z</time>
      </trkpt>
      <trkpt lat="47.34337" lon="-1.29236">
        <ele>7.202626</ele>
        <time>2022-06-26T22:58:13.246Z</time>
      </trkpt>
      <trkpt lat="47.34329" lon="-1.29235">
        <ele>7.187547</ele>
        <time>2022-06-26T22:58:14.969Z</time>
      </trkpt>
      <trkpt lat="47.34315" lon="-1.29232">
        <ele>7.163739</ele>
        <time>2022-06-26T22:58:17.856Z</time>
      </trkpt>
      <trkpt lat="47.34303" lon="-1.29227">
        <ele>7.141148</ele>
        <time>2022-06-26T22:58:20.822Z</time>
      </trkpt>
      <trkpt lat="47.34295" lon="-1.29214">
        <ele>7.12078</ele>
        <time>2022-06-26T22:58:23.228Z</time>
      </trkpt>
      <trkpt lat="47.34254" lon="-1.29195">
        <ele>7.045564</ele>
        <time>2022-06-26T22:58:35.775Z</time>
      </trkpt>
      <trkpt lat="47.34295" lon="-1.29214">
        <ele>6.970349</ele>
        <time>2022-06-26T22:58:48.327Z</time>
      </trkpt>
      <trkpt lat="47.34303" lon="-1.29227">
        <ele>6.949981</ele>
        <time>2022-06-26T22:58:51.262Z</time>
      </trkpt>
      <trkpt lat="47.34315" lon="-1.29232">
        <ele>6.946472</ele>
        <time>2022-06-26T22:58:54.085Z</time>
      </trkpt>
      <trkpt lat="47.34329" lon="-1.29235">
        <ele>7.029035</ele>
        <time>2022-06-26T22:58:57.300Z</time>
      </trkpt>
      <trkpt lat="47.34337" lon="-1.29236">
        <ele>7.081325</ele>
        <time>2022-06-26T22:58:59.535Z</time>
      </trkpt>
      <trkpt lat="47.34346" lon="-1.29227">
        <ele>7.144691</ele>
        <time>2022-06-26T22:59:02.092Z</time>
      </trkpt>
      <trkpt lat="47.34355" lon="-1.29171">
        <ele>7.37914</ele>
        <time>2022-06-26T22:59:11.922Z</time>
      </trkpt>
      <trkpt lat="47.34356" lon="-1.29156">
        <ele>7.444816</ele>
        <time>2022-06-26T22:59:14.770Z</time>
      </trkpt>
      <trkpt lat="47.34364" lon="-1.29104">
        <ele>7.66293</ele>
        <time>2022-06-26T22:59:24.568Z</time>
      </trkpt>
      <trkpt lat="47.34391" lon="-1.29109">
        <ele>7.829777</ele>
        <time>2022-06-26T22:59:31.828Z</time>
      </trkpt>
      <trkpt lat="47.34399" lon="-1.29111">
        <ele>7.878897</ele>
        <time>2022-06-26T22:59:33.862Z</time>
      </trkpt>
      <trkpt lat="47.34434" lon="-1.2909">
        <ele>8.058595</ele>
        <time>2022-06-26T22:59:45.642Z</time>
      </trkpt>
      <trkpt lat="47.34435" lon="-1.29072">
        <ele>8.089692</ele>
        <time>2022-06-26T22:59:48.466Z</time>
      </trkpt>
      <trkpt lat="47.34442" lon="-1.29026">
        <ele>8.173338</ele>
        <time>2022-06-26T22:59:56.176Z</time>
      </trkpt>
      <trkpt lat="47.34445" lon="-1.29014">
        <ele>8.194816</ele>
        <time>2022-06-26T22:59:58.159Z</time>
      </trkpt>
      <trkpt lat="47.34465" lon="-1.28958">
        <ele>8.306246</ele>
        <time>2022-06-26T23:00:07.956Z</time>
      </trkpt>
      <trkpt lat="47.34511" lon="-1.28889">
        <ele>8.474435</ele>
        <time>2022-06-26T23:00:22.584Z</time>
      </trkpt>
      <trkpt lat="47.34523" lon="-1.28878">
        <ele>8.522291</ele>
        <time>2022-06-26T23:00:25.802Z</time>
      </trkpt>
      <trkpt lat="47.34548" lon="-1.28876">
        <ele>8.619965</ele>
        <time>2022-06-26T23:00:32.070Z</time>
      </trkpt>
      <trkpt lat="47.34549" lon="-1.28872">
        <ele>8.630762</ele>
        <time>2022-06-26T23:00:32.721Z</time>
      </trkpt>
      <trkpt lat="47.3455" lon="-1.28867">
        <ele>8.644675</ele>
        <time>2022-06-26T23:00:33.556Z</time>
      </trkpt>
      <trkpt lat="47.34553" lon="-1.28859">
        <ele>8.667502</ele>
        <time>2022-06-26T23:00:34.950Z</time>
      </trkpt>
      <trkpt lat="47.34555" lon="-1.28849">
        <ele>8.694682</ele>
        <time>2022-06-26T23:00:36.758Z</time>
      </trkpt>
      <trkpt lat="47.34563" lon="-1.28813">
        <ele>8.796155</ele>
        <time>2022-06-26T23:00:43.624Z</time>
      </trkpt>
      <trkpt lat="47.34564" lon="-1.28807">
        <ele>8.811865</ele>
        <time>2022-06-26T23:00:44.654Z</time>
      </trkpt>
      <trkpt lat="47.34599" lon="-1.28695">
        <ele>9.135929</ele>
        <time>2022-06-26T23:01:04.948Z</time>
      </trkpt>
      <trkpt lat="47.3461" lon="-1.28672">
        <ele>9.176509</ele>
        <time>2022-06-26T23:01:09.542Z</time>
      </trkpt>
      <trkpt lat="47.34622" lon="-1.28646">
        <ele>9.130026</ele>
        <time>2022-06-26T23:01:14.288Z</time>
      </trkpt>
      <trkpt lat="47.34633" lon="-1.28628">
        <ele>9.094324</ele>
        <time>2022-06-26T23:01:18.163Z</time>
      </trkpt>
      <trkpt lat="47.3465" lon="-1.28599">
        <ele>9.037864</ele>
        <time>2022-06-26T23:01:24.425Z</time>
      </trkpt>
      <trkpt lat="47.3463" lon="-1.28578">
        <ele>8.983753</ele>
        <time>2022-06-26T23:01:29.791Z</time>
      </trkpt>
      <trkpt lat="47.34633" lon="-1.28526">
        <ele>8.90697</ele>
        <time>2022-06-26T23:01:37.422Z</time>
      </trkpt>
      <trkpt lat="47.34647" lon="-1.28436">
        <ele>8.696693</ele>
        <time>2022-06-26T23:01:50.259Z</time>
      </trkpt>
      <trkpt lat="47.34648" lon="-1.28428">
        <ele>8.65523</ele>
        <time>2022-06-26T23:01:51.247Z</time>
      </trkpt>
      <trkpt lat="47.34643" lon="-1.2841">
        <ele>8.546081</ele>
        <time>2022-06-26T23:01:53.898Z</time>
      </trkpt>
      <trkpt lat="47.34634" lon="-1.28383">
        <ele>8.377829</ele>
        <time>2022-06-26T23:01:57.757Z</time>
      </trkpt>
      <trkpt lat="47.34628" lon="-1.28365">
        <ele>8.268639</ele>
        <time>2022-06-26T23:02:00.267Z</time>
      </trkpt>
      <trkpt lat="47.34625" lon="-1.28354">
        <ele>8.200252</ele>
        <time>2022-06-26T23:02:01.888Z</time>
      </trkpt>
      <trkpt lat="47.34593" lon="-1.28227">
        <ele>7.447417</ele>
        <time>2022-06-26T23:02:20.425Z</time>
      </trkpt>
      <trkpt lat="47.34566" lon="-1.28244">
        <ele>7.335242</ele>
        <time>2022-06-26T23:02:26.876Z</time>
      </trkpt>
      <trkpt lat="47.34538" lon="-1.28251">
        <ele>7.366078</ele>
        <time>2022-06-26T23:02:33.262Z</time>
      </trkpt>
      <trkpt lat="47.34516" lon="-1.28253">
        <ele>7.389675</ele>
        <time>2022-06-26T23:02:38.331Z</time>
      </trkpt>
      <trkpt lat="47.34522" lon="-1.28173">
        <ele>7.448827</ele>
        <time>2022-06-26T23:02:51.144Z</time>
      </trkpt>
      <trkpt lat="47.34517" lon="-1.28113">
        <ele>7.493095</ele>
        <time>2022-06-26T23:03:01.304Z</time>
      </trkpt>
      <trkpt lat="47.34503" lon="-1.28058">
        <ele>7.605964</ele>
        <time>2022-06-26T23:03:11.050Z</time>
      </trkpt>
      <trkpt lat="47.34484" lon="-1.28018">
        <ele>7.765919</ele>
        <time>2022-06-26T23:03:19.391Z</time>
      </trkpt>
      <trkpt lat="47.34462" lon="-1.27985">
        <ele>7.913853</ele>
        <time>2022-06-26T23:03:27.039Z</time>
      </trkpt>
      <trkpt lat="47.34448" lon="-1.27972">
        <ele>7.99108</ele>
        <time>2022-06-26T23:03:30.906Z</time>
      </trkpt>
      <trkpt lat="47.34441" lon="-1.27966">
        <ele>8.031583</ele>
        <time>2022-06-26T23:03:33.024Z</time>
      </trkpt>
      <trkpt lat="47.3444" lon="-1.27965">
        <ele>8.038418</ele>
        <time>2022-06-26T23:03:33.363Z</time>
      </trkpt>
      <trkpt lat="47.34399" lon="-1.27952">
        <ele>8.2341</ele>
        <time>2022-06-26T23:03:42.956Z</time>
      </trkpt>
      <trkpt lat="47.34388" lon="-1.27938">
        <ele>8.305632</ele>
        <time>2022-06-26T23:03:46.281Z</time>
      </trkpt>
      <trkpt lat="47.34381" lon="-1.27936">
        <ele>8.338066</ele>
        <time>2022-06-26T23:03:47.851Z</time>
      </trkpt>
      <trkpt lat="47.3388" lon="-1.27777">
        <ele>16.172596</ele>
        <time>2022-06-26T23:06:10.839Z</time>
      </trkpt>
      <trkpt lat="47.33876" lon="-1.27776">
        <ele>16.284631</ele>
        <time>2022-06-26T23:06:13.164Z</time>
      </trkpt>
      <trkpt lat="47.33819" lon="-1.27759">
        <ele>19.517543</ele>
        <time>2022-06-26T23:06:47.858Z</time>
      </trkpt>
      <trkpt lat="47.33805" lon="-1.27754">
        <ele>20.748583</ele>
        <time>2022-06-26T23:06:56.563Z</time>
      </trkpt>
      <trkpt lat="47.33787" lon="-1.27749">
        <ele>22.283075</ele>
        <time>2022-06-26T23:07:08.501Z</time>
      </trkpt>
      <trkpt lat="47.33761" lon="-1.27734">
        <ele>24.759516</ele>
        <time>2022-06-26T23:07:28.073Z</time>
      </trkpt>
      <trkpt lat="47.33752" lon="-1.2772">
        <ele>25.847791</ele>
        <time>2022-06-26T23:07:37.573Z</time>
      </trkpt>
      <trkpt lat="47.33778" lon="-1.27696">
        <ele>28.513868</ele>
        <time>2022-06-26T23:08:00.789Z</time>
      </trkpt>
      <trkpt lat="47.33806" lon="-1.27657">
        <ele>31.822227</ele>
        <time>2022-06-26T23:08:30.635Z</time>
      </trkpt>
      <trkpt lat="47.33879" lon="-1.27476">
        <ele>41.155127</ele>
        <time>2022-06-26T23:09:51.197Z</time>
      </trkpt>
      <trkpt lat="47.33897" lon="-1.27435">
        <ele>43.297802</ele>
        <time>2022-06-26T23:10:05.707Z</time>
      </trkpt>
      <trkpt lat="47.33916" lon="-1.27368">
        <ele>45.202886</ele>
        <time>2022-06-26T23:10:26.674Z</time>
      </trkpt>
      <trkpt lat="47.33929" lon="-1.27234">
        <ele>47.908286</ele>
        <time>2022-06-26T23:10:57.981Z</time>
      </trkpt>
      <trkpt lat="47.33928" lon="-1.27222">
        <ele>48.150609</ele>
        <time>2022-06-26T23:11:00.702Z</time>
      </trkpt>
      <trkpt lat="47.33916" lon="-1.27133">
        <ele>50.020287</ele>
        <time>2022-06-26T23:11:20.976Z</time>
      </trkpt>
      <trkpt lat="47.33908" lon="-1.26967">
        <ele>53.764532</ele>
        <time>2022-06-26T23:12:07.480Z</time>
      </trkpt>
      <trkpt lat="47.33886" lon="-1.26914">
        <ele>55.169601</ele>
        <time>2022-06-26T23:12:23.288Z</time>
      </trkpt>
      <trkpt lat="47.33886" lon="-1.2689">
        <ele>55.662536</ele>
        <time>2022-06-26T23:12:30.807Z</time>
      </trkpt>
      <trkpt lat="47.33904" lon="-1.26853">
        <ele>56.574572</ele>
        <time>2022-06-26T23:12:40.720Z</time>
      </trkpt>
      <trkpt lat="47.33908" lon="-1.26828">
        <ele>57.099432</ele>
        <time>2022-06-26T23:12:48.824Z</time>
      </trkpt>
      <trkpt lat="47.33905" lon="-1.26814">
        <ele>57.398383</ele>
        <time>2022-06-26T23:12:51.110Z</time>
      </trkpt>
      <trkpt lat="47.33886" lon="-1.26758">
        <ele>58.672627</ele>
        <time>2022-06-26T23:13:07.663Z</time>
      </trkpt>
      <trkpt lat="47.33885" lon="-1.26744">
        <ele>58.960598</ele>
        <time>2022-06-26T23:13:12.850Z</time>
      </trkpt>
      <trkpt lat="47.3389" lon="-1.26729">
        <ele>59.286054</ele>
        <time>2022-06-26T23:13:16.663Z</time>
      </trkpt>
      <trkpt lat="47.33914" lon="-1.26711">
        <ele>60.105794</ele>
        <time>2022-06-26T23:13:27.336Z</time>
      </trkpt>
      <trkpt lat="47.33924" lon="-1.26687">
        <ele>60.659971</ele>
        <time>2022-06-26T23:13:32.192Z</time>
      </trkpt>
      <trkpt lat="47.3394" lon="-1.26591">
        <ele>62.049066</ele>
        <time>2022-06-26T23:13:54.542Z</time>
      </trkpt>
      <trkpt lat="47.33935" lon="-1.26548">
        <ele>62.639808</ele>
        <time>2022-06-26T23:14:03.218Z</time>
      </trkpt>
      <trkpt lat="47.33898" lon="-1.26443">
        <ele>64.258916</ele>
        <time>2022-06-26T23:14:28.887Z</time>
      </trkpt>
      <trkpt lat="47.33868" lon="-1.26365">
        <ele>65.523366</ele>
        <time>2022-06-26T23:14:48.887Z</time>
      </trkpt>
      <trkpt lat="47.3386" lon="-1.26357">
        <ele>65.727772</ele>
        <time>2022-06-26T23:14:51.931Z</time>
      </trkpt>
      <trkpt lat="47.3379" lon="-1.26351">
        <ele>67.191815</ele>
        <time>2022-06-26T23:15:14.368Z</time>
      </trkpt>
      <trkpt lat="47.3377" lon="-1.26352">
        <ele>67.621719</ele>
        <time>2022-06-26T23:15:21.662Z</time>
      </trkpt>
      <trkpt lat="47.3377" lon="-1.2637">
        <ele>67.876078</ele>
        <time>2022-06-26T23:15:27.419Z</time>
      </trkpt>
      <trkpt lat="47.33774" lon="-1.26377">
        <ele>68.017641</ele>
        <time>2022-06-26T23:15:30.426Z</time>
      </trkpt>
      <trkpt lat="47.33773" lon="-1.26395">
        <ele>68.230897</ele>
        <time>2022-06-26T23:15:36.311Z</time>
      </trkpt>
      <trkpt lat="47.33835" lon="-1.26422">
        <ele>69.216597</ele>
        <time>2022-06-26T23:16:07.196Z</time>
      </trkpt>
      <trkpt lat="47.33828" lon="-1.26471">
        <ele>69.733134</ele>
        <time>2022-06-26T23:16:22.529Z</time>
      </trkpt>
      <trkpt lat="47.33823" lon="-1.26474">
        <ele>69.819293</ele>
        <time>2022-06-26T23:16:25.151Z</time>
      </trkpt>
      <trkpt lat="47.33821" lon="-1.26496">
        <ele>70.044376</ele>
        <time>2022-06-26T23:16:30.553Z</time>
      </trkpt>
      <trkpt lat="47.33801" lon="-1.26491">
        <ele>70.351866</ele>
        <time>2022-06-26T23:16:35.662Z</time>
      </trkpt>
      <trkpt lat="47.33778" lon="-1.26497">
        <ele>70.706195</ele>
        <time>2022-06-26T23:16:41.910Z</time>
      </trkpt>
      <trkpt lat="47.33763" lon="-1.26549">
        <ele>71.093083</ele>
        <time>2022-06-26T23:16:52.107Z</time>
      </trkpt>
      <trkpt lat="47.33738" lon="-1.26555">
        <ele>71.286055</ele>
        <time>2022-06-26T23:16:59.501Z</time>
      </trkpt>
      <trkpt lat="47.33639" lon="-1.26566">
        <ele>72.048572</ele>
        <time>2022-06-26T23:17:25.888Z</time>
      </trkpt>
      <trkpt lat="47.33635" lon="-1.26563">
        <ele>72.088809</ele>
        <time>2022-06-26T23:17:27.339Z</time>
      </trkpt>
      <trkpt lat="47.33631" lon="-1.26533">
        <ele>72.249982</ele>
        <time>2022-06-26T23:17:32.786Z</time>
      </trkpt>
      <trkpt lat="47.33565" lon="-1.26532">
        <ele>72.911184</ele>
        <time>2022-06-26T23:17:50.743Z</time>
      </trkpt>
      <trkpt lat="47.33547" lon="-1.26462">
        <ele>73.419338</ele>
        <time>2022-06-26T23:18:05.108Z</time>
      </trkpt>
      <trkpt lat="47.33508" lon="-1.26377">
        <ele>74.09794</ele>
        <time>2022-06-26T23:18:25.986Z</time>
      </trkpt>
      <trkpt lat="47.33498" lon="-1.26343">
        <ele>74.215581</ele>
        <time>2022-06-26T23:18:33.324Z</time>
      </trkpt>
      <trkpt lat="47.33432" lon="-1.26384">
        <ele>74.547443</ele>
        <time>2022-06-26T23:18:51.740Z</time>
      </trkpt>
      <trkpt lat="47.33429" lon="-1.26396">
        <ele>74.586728</ele>
        <time>2022-06-26T23:18:53.784Z</time>
      </trkpt>
      <trkpt lat="47.33424" lon="-1.26394">
        <ele>74.611727</ele>
        <time>2022-06-26T23:18:55.043Z</time>
      </trkpt>
      <trkpt lat="47.33414" lon="-1.26406">
        <ele>74.672792</ele>
        <time>2022-06-26T23:18:58.211Z</time>
      </trkpt>
      <trkpt lat="47.33375" lon="-1.26422">
        <ele>74.860115</ele>
        <time>2022-06-26T23:19:07.280Z</time>
      </trkpt>
      <trkpt lat="47.33356" lon="-1.26406">
        <ele>74.843792</ele>
        <time>2022-06-26T23:19:11.861Z</time>
      </trkpt>
      <trkpt lat="47.33281" lon="-1.263">
        <ele>74.03907</ele>
        <time>2022-06-26T23:19:32.754Z</time>
      </trkpt>
      <trkpt lat="47.33167" lon="-1.26186">
        <ele>73.166797</ele>
        <time>2022-06-26T23:20:00.359Z</time>
      </trkpt>
      <trkpt lat="47.33068" lon="-1.26116">
        <ele>72.611935</ele>
        <time>2022-06-26T23:20:23.781Z</time>
      </trkpt>
      <trkpt lat="47.33004" lon="-1.26083">
        <ele>72.473612</ele>
        <time>2022-06-26T23:20:39.073Z</time>
      </trkpt>
      <trkpt lat="47.32965" lon="-1.26083">
        <ele>72.395039</ele>
        <time>2022-06-26T23:20:47.614Z</time>
      </trkpt>
      <trkpt lat="47.32946" lon="-1.261">
        <ele>72.349834</ele>
        <time>2022-06-26T23:20:52.377Z</time>
      </trkpt>
      <trkpt lat="47.32932" lon="-1.26133">
        <ele>72.295927</ele>
        <time>2022-06-26T23:20:57.938Z</time>
      </trkpt>
      <trkpt lat="47.32907" lon="-1.26224">
        <ele>72.090411</ele>
        <time>2022-06-26T23:21:11.908Z</time>
      </trkpt>
      <trkpt lat="47.32894" lon="-1.2636">
        <ele>71.751424</ele>
        <time>2022-06-26T23:21:31.663Z</time>
      </trkpt>
      <trkpt lat="47.3288" lon="-1.26422">
        <ele>71.592223</ele>
        <time>2022-06-26T23:21:41.202Z</time>
      </trkpt>
      <trkpt lat="47.32877" lon="-1.26432">
        <ele>71.598511</ele>
        <time>2022-06-26T23:21:42.633Z</time>
      </trkpt>
      <trkpt lat="47.32875" lon="-1.2644">
        <ele>71.604321</ele>
        <time>2022-06-26T23:21:43.951Z</time>
      </trkpt>
      <trkpt lat="47.32868" lon="-1.26472">
        <ele>71.625188</ele>
        <time>2022-06-26T23:21:48.795Z</time>
      </trkpt>
      <trkpt lat="47.32861" lon="-1.26511">
        <ele>71.650345</ele>
        <time>2022-06-26T23:21:54.677Z</time>
      </trkpt>
      <trkpt lat="47.32858" lon="-1.26539">
        <ele>71.668242</ele>
        <time>2022-06-26T23:21:58.927Z</time>
      </trkpt>
      <trkpt lat="47.32854" lon="-1.2659">
        <ele>71.70041</ele>
        <time>2022-06-26T23:22:06.801Z</time>
      </trkpt>
      <trkpt lat="47.32849" lon="-1.26653">
        <ele>71.739731</ele>
        <time>2022-06-26T23:22:17.051Z</time>
      </trkpt>
      <trkpt lat="47.32838" lon="-1.26733">
        <ele>72.214562</ele>
        <time>2022-06-26T23:22:31.161Z</time>
      </trkpt>
      <trkpt lat="47.32822" lon="-1.26791">
        <ele>72.73767</ele>
        <time>2022-06-26T23:22:42.514Z</time>
      </trkpt>
      <trkpt lat="47.3275" lon="-1.26931">
        <ele>74.294711</ele>
        <time>2022-06-26T23:23:19.143Z</time>
      </trkpt>
      <trkpt lat="47.3265" lon="-1.2713">
        <ele>77.063212</ele>
        <time>2022-06-26T23:24:10.633Z</time>
      </trkpt>
      <trkpt lat="47.32642" lon="-1.27164">
        <ele>77.410906</ele>
        <time>2022-06-26T23:24:17.779Z</time>
      </trkpt>
      <trkpt lat="47.32633" lon="-1.27233">
        <ele>78.099764</ele>
        <time>2022-06-26T23:24:31.886Z</time>
      </trkpt>
      <trkpt lat="47.32628" lon="-1.273">
        <ele>78.752605</ele>
        <time>2022-06-26T23:24:45.104Z</time>
      </trkpt>
      <trkpt lat="47.32631" lon="-1.27347">
        <ele>79.206707</ele>
        <time>2022-06-26T23:24:54.220Z</time>
      </trkpt>
      <trkpt lat="47.32633" lon="-1.27436">
        <ele>80.038519</ele>
        <time>2022-06-26T23:25:11.720Z</time>
      </trkpt>
      <trkpt lat="47.32617" lon="-1.27511">
        <ele>80.749491</ele>
        <time>2022-06-26T23:25:27.836Z</time>
      </trkpt>
      <trkpt lat="47.32588" lon="-1.27573">
        <ele>81.433424</ele>
        <time>2022-06-26T23:25:43.300Z</time>
      </trkpt>
      <trkpt lat="47.32566" lon="-1.27595">
        <ele>81.791083</ele>
        <time>2022-06-26T23:25:51.076Z</time>
      </trkpt>
      <trkpt lat="47.32544" lon="-1.27604">
        <ele>81.939221</ele>
        <time>2022-06-26T23:25:56.936Z</time>
      </trkpt>
      <trkpt lat="47.32455" lon="-1.27613">
        <ele>81.786059</ele>
        <time>2022-06-26T23:26:18.328Z</time>
      </trkpt>
      <trkpt lat="47.32424" lon="-1.27625">
        <ele>81.730944</ele>
        <time>2022-06-26T23:26:25.141Z</time>
      </trkpt>
      <trkpt lat="47.32418" lon="-1.27619">
        <ele>81.718279</ele>
        <time>2022-06-26T23:26:26.715Z</time>
      </trkpt>
      <trkpt lat="47.32392" lon="-1.27593">
        <ele>81.665191</ele>
        <time>2022-06-26T23:26:33.159Z</time>
      </trkpt>
      <trkpt lat="47.32357" lon="-1.27515">
        <ele>80.658301</ele>
        <time>2022-06-26T23:26:45.535Z</time>
      </trkpt>
      <trkpt lat="47.32325" lon="-1.27491">
        <ele>79.982476</ele>
        <time>2022-06-26T23:26:52.459Z</time>
      </trkpt>
      <trkpt lat="47.32269" lon="-1.27486">
        <ele>78.945595</ele>
        <time>2022-06-26T23:27:03.032Z</time>
      </trkpt>
      <trkpt lat="47.32259" lon="-1.27486">
        <ele>78.763799</ele>
        <time>2022-06-26T23:27:04.906Z</time>
      </trkpt>
      <trkpt lat="47.32227" lon="-1.27487">
        <ele>78.217175</ele>
        <time>2022-06-26T23:27:11.178Z</time>
      </trkpt>
      <trkpt lat="47.32191" lon="-1.27475">
        <ele>77.803943</ele>
        <time>2022-06-26T23:27:18.224Z</time>
      </trkpt>
      <trkpt lat="47.32034" lon="-1.2729">
        <ele>75.865442</ele>
        <time>2022-06-26T23:28:00.670Z</time>
      </trkpt>
      <trkpt lat="47.31999" lon="-1.27235">
        <ele>75.555465</ele>
        <time>2022-06-26T23:28:12.088Z</time>
      </trkpt>
      <trkpt lat="47.31925" lon="-1.27318">
        <ele>74.91379</ele>
        <time>2022-06-26T23:28:45.447Z</time>
      </trkpt>
      <trkpt lat="47.31925" lon="-1.27318">
        <ele>74.91379</ele>
        <time>2022-06-26T23:28:45.448Z</time>
      </trkpt>
      <trkpt lat="47.31678" lon="-1.27526">
        <ele>72.394213</ele>
        <time>2022-06-26T23:30:23.656Z</time>
      </trkpt>
      <trkpt lat="47.31581" lon="-1.27595">
        <ele>71.628832</ele>
        <time>2022-06-26T23:31:01.285Z</time>
      </trkpt>
      <trkpt lat="47.31375" lon="-1.27692">
        <ele>70.423703</ele>
        <time>2022-06-26T23:31:48.995Z</time>
      </trkpt>
      <trkpt lat="47.31299" lon="-1.27705">
        <ele>70.015366</ele>
        <time>2022-06-26T23:32:05.332Z</time>
      </trkpt>
      <trkpt lat="47.31277" lon="-1.27717">
        <ele>69.78649</ele>
        <time>2022-06-26T23:32:10.425Z</time>
      </trkpt>
      <trkpt lat="47.31231" lon="-1.27763">
        <ele>69.199837</ele>
        <time>2022-06-26T23:32:22.140Z</time>
      </trkpt>
      <trkpt lat="47.31224" lon="-1.27774">
        <ele>69.092147</ele>
        <time>2022-06-26T23:32:24.259Z</time>
      </trkpt>
      <trkpt lat="47.31205" lon="-1.27814">
        <ele>68.745194</ele>
        <time>2022-06-26T23:32:31.029Z</time>
      </trkpt>
      <trkpt lat="47.31195" lon="-1.27825">
        <ele>68.617175</ele>
        <time>2022-06-26T23:32:33.508Z</time>
      </trkpt>
      <trkpt lat="47.31148" lon="-1.27837">
        <ele>68.122754</ele>
        <time>2022-06-26T23:32:42.994Z</time>
      </trkpt>
      <trkpt lat="47.31057" lon="-1.27818">
        <ele>67.051778</ele>
        <time>2022-06-26T23:33:01.882Z</time>
      </trkpt>
      <trkpt lat="47.31032" lon="-1.27833">
        <ele>66.741046</ele>
        <time>2022-06-26T23:33:07.471Z</time>
      </trkpt>
      <trkpt lat="47.3099" lon="-1.27896">
        <ele>66.048148</ele>
        <time>2022-06-26T23:33:19.890Z</time>
      </trkpt>
      <trkpt lat="47.30969" lon="-1.27916">
        <ele>65.688161</ele>
        <time>2022-06-26T23:33:24.994Z</time>
      </trkpt>
      <trkpt lat="47.309" lon="-1.27963">
        <ele>64.577791</ele>
        <time>2022-06-26T23:33:40.480Z</time>
      </trkpt>
      <trkpt lat="47.30866" lon="-1.27971">
        <ele>64.086443</ele>
        <time>2022-06-26T23:33:47.371Z</time>
      </trkpt>
      <trkpt lat="47.30846" lon="-1.27996">
        <ele>63.704749</ele>
        <time>2022-06-26T23:33:52.283Z</time>
      </trkpt>
      <trkpt lat="47.3074" lon="-1.2809">
        <ele>61.112884</ele>
        <time>2022-06-26T23:34:14.877Z</time>
      </trkpt>
      <trkpt lat="47.30666" lon="-1.28194">
        <ele>58.761426</ele>
        <time>2022-06-26T23:34:33.076Z</time>
      </trkpt>
      <trkpt lat="47.30558" lon="-1.28303">
        <ele>55.438325</ele>
        <time>2022-06-26T23:34:56.215Z</time>
      </trkpt>
      <trkpt lat="47.30527" lon="-1.2833">
        <ele>54.286869</ele>
        <time>2022-06-26T23:35:02.733Z</time>
      </trkpt>
      <trkpt lat="47.30506" lon="-1.2835">
        <ele>53.202076</ele>
        <time>2022-06-26T23:35:07.219Z</time>
      </trkpt>
      <trkpt lat="47.30452" lon="-1.28394">
        <ele>50.557594</ele>
        <time>2022-06-26T23:35:17.430Z</time>
      </trkpt>
      <trkpt lat="47.30421" lon="-1.28394">
        <ele>49.226959</ele>
        <time>2022-06-26T23:35:22.270Z</time>
      </trkpt>
      <trkpt lat="47.304" lon="-1.28374">
        <ele>48.14526</ele>
        <time>2022-06-26T23:35:26.177Z</time>
      </trkpt>
      <trkpt lat="47.30362" lon="-1.2832">
        <ele>45.357227</ele>
        <time>2022-06-26T23:35:34.423Z</time>
      </trkpt>
      <trkpt lat="47.30339" lon="-1.28307">
        <ele>43.854488</ele>
        <time>2022-06-26T23:35:38.081Z</time>
      </trkpt>
      <trkpt lat="47.3023" lon="-1.28291">
        <ele>37.122512</ele>
        <time>2022-06-26T23:35:54.727Z</time>
      </trkpt>
      <trkpt lat="47.30214" lon="-1.28293">
        <ele>36.111182</ele>
        <time>2022-06-26T23:35:57.246Z</time>
      </trkpt>
      <trkpt lat="47.30178" lon="-1.28313">
        <ele>34.52826</ele>
        <time>2022-06-26T23:36:03.282Z</time>
      </trkpt>
      <trkpt lat="47.30142" lon="-1.28306">
        <ele>33.072258</ele>
        <time>2022-06-26T23:36:09.229Z</time>
      </trkpt>
      <trkpt lat="47.3012" lon="-1.28309">
        <ele>32.179898</ele>
        <time>2022-06-26T23:36:12.945Z</time>
      </trkpt>
      <trkpt lat="47.30079" lon="-1.28384">
        <ele>29.53818</ele>
        <time>2022-06-26T23:36:23.986Z</time>
      </trkpt>
      <trkpt lat="47.30035" lon="-1.28451">
        <ele>27.688884</ele>
        <time>2022-06-26T23:36:35.014Z</time>
      </trkpt>
      <trkpt lat="47.29907" lon="-1.28543">
        <ele>24.440979</ele>
        <time>2022-06-26T23:37:00.212Z</time>
      </trkpt>
      <trkpt lat="47.29872" lon="-1.28556">
        <ele>24.924386</ele>
        <time>2022-06-26T23:37:07.075Z</time>
      </trkpt>
      <trkpt lat="47.29827" lon="-1.28557">
        <ele>25.515555</ele>
        <time>2022-06-26T23:37:18.506Z</time>
      </trkpt>
      <trkpt lat="47.29794" lon="-1.28544">
        <ele>25.96872</ele>
        <time>2022-06-26T23:37:30.729Z</time>
      </trkpt>
      <trkpt lat="47.29775" lon="-1.28527">
        <ele>26.259794</ele>
        <time>2022-06-26T23:37:39.242Z</time>
      </trkpt>
      <trkpt lat="47.29742" lon="-1.2848">
        <ele>27.303335</ele>
        <time>2022-06-26T23:37:57.274Z</time>
      </trkpt>
      <trkpt lat="47.2972" lon="-1.28465">
        <ele>28.727142</ele>
        <time>2022-06-26T23:38:08.284Z</time>
      </trkpt>
      <trkpt lat="47.29724" lon="-1.28415">
        <ele>30.706315</ele>
        <time>2022-06-26T23:38:24.518Z</time>
      </trkpt>
      <trkpt lat="47.29734" lon="-1.28368">
        <ele>32.664448</ele>
        <time>2022-06-26T23:38:42.115Z</time>
      </trkpt>
      <trkpt lat="47.29777" lon="-1.28298">
        <ele>36.435819</ele>
        <time>2022-06-26T23:39:20.074Z</time>
      </trkpt>
      <trkpt lat="47.29784" lon="-1.28281">
        <ele>37.194322</ele>
        <time>2022-06-26T23:39:28.879Z</time>
      </trkpt>
      <trkpt lat="47.29787" lon="-1.28247">
        <ele>38.775604</ele>
        <time>2022-06-26T23:39:43.511Z</time>
      </trkpt>
      <trkpt lat="47.29782" lon="-1.28169">
        <ele>42.285157</ele>
        <time>2022-06-26T23:40:13.468Z</time>
      </trkpt>
      <trkpt lat="47.29735" lon="-1.27903">
        <ele>52.85559</ele>
        <time>2022-06-26T23:41:55.625Z</time>
      </trkpt>
      <trkpt lat="47.29719" lon="-1.27781">
        <ele>56.549427</ele>
        <time>2022-06-26T23:42:28.958Z</time>
      </trkpt>
      <trkpt lat="47.29719" lon="-1.27781">
        <ele>56.561364</ele>
        <time>2022-06-26T23:42:29.230Z</time>
      </trkpt>
      <trkpt lat="47.2972" lon="-1.27757">
        <ele>57.183657</ele>
        <time>2022-06-26T23:42:34.835Z</time>
      </trkpt>
      <trkpt lat="47.29726" lon="-1.27749">
        <ele>57.283589</ele>
        <time>2022-06-26T23:42:37.500Z</time>
      </trkpt>
      <trkpt lat="47.29786" lon="-1.27681">
        <ele>58.211277</ele>
        <time>2022-06-26T23:42:58.922Z</time>
      </trkpt>
      <trkpt lat="47.29782" lon="-1.276">
        <ele>58.893742</ele>
        <time>2022-06-26T23:43:13.709Z</time>
      </trkpt>
      <trkpt lat="47.298" lon="-1.27521">
        <ele>59.60638</ele>
        <time>2022-06-26T23:43:29.046Z</time>
      </trkpt>
      <trkpt lat="47.29819" lon="-1.27351">
        <ele>61.161619</ele>
        <time>2022-06-26T23:44:03.965Z</time>
      </trkpt>
      <trkpt lat="47.2983" lon="-1.27306">
        <ele>61.590271</ele>
        <time>2022-06-26T23:44:14.235Z</time>
      </trkpt>
      <trkpt lat="47.29824" lon="-1.27263">
        <ele>62.033092</ele>
        <time>2022-06-26T23:44:23.639Z</time>
      </trkpt>
      <trkpt lat="47.29764" lon="-1.2704">
        <ele>64.641001</ele>
        <time>2022-06-26T23:45:15.967Z</time>
      </trkpt>
      <trkpt lat="47.29741" lon="-1.2689">
        <ele>64.69216</ele>
        <time>2022-06-26T23:45:43.609Z</time>
      </trkpt>
      <trkpt lat="47.29728" lon="-1.26832">
        <ele>64.71271</ele>
        <time>2022-06-26T23:45:52.867Z</time>
      </trkpt>
      <trkpt lat="47.29643" lon="-1.2668">
        <ele>63.280611</ele>
        <time>2022-06-26T23:46:18.780Z</time>
      </trkpt>
      <trkpt lat="47.29607" lon="-1.26618">
        <ele>62.48306</ele>
        <time>2022-06-26T23:46:29.570Z</time>
      </trkpt>
      <trkpt lat="47.29604" lon="-1.26612">
        <ele>62.413031</ele>
        <time>2022-06-26T23:46:30.542Z</time>
      </trkpt>
      <trkpt lat="47.29593" lon="-1.26593">
        <ele>62.159036</ele>
        <time>2022-06-26T23:46:34.216Z</time>
      </trkpt>
      <trkpt lat="47.29568" lon="-1.26569">
        <ele>62.288472</ele>
        <time>2022-06-26T23:46:40.400Z</time>
      </trkpt>
      <trkpt lat="47.29425" lon="-1.26468">
        <ele>63.223174</ele>
        <time>2022-06-26T23:47:24.035Z</time>
      </trkpt>
      <trkpt lat="47.29376" lon="-1.26393">
        <ele>64.010177</ele>
        <time>2022-06-26T23:47:47.558Z</time>
      </trkpt>
      <trkpt lat="47.29351" lon="-1.26375">
        <ele>64.313765</ele>
        <time>2022-06-26T23:47:55.890Z</time>
      </trkpt>
      <trkpt lat="47.29306" lon="-1.26389">
        <ele>64.819701</ele>
        <time>2022-06-26T23:48:08.152Z</time>
      </trkpt>
      <trkpt lat="47.29233" lon="-1.26431">
        <ele>65.030146</ele>
        <time>2022-06-26T23:48:27.677Z</time>
      </trkpt>
      <trkpt lat="47.29203" lon="-1.26443">
        <ele>64.95481</ele>
        <time>2022-06-26T23:48:34.617Z</time>
      </trkpt>
      <trkpt lat="47.29122" lon="-1.26436">
        <ele>64.761466</ele>
        <time>2022-06-26T23:48:51.865Z</time>
      </trkpt>
      <trkpt lat="47.29091" lon="-1.26423">
        <ele>64.822332</ele>
        <time>2022-06-26T23:48:59.078Z</time>
      </trkpt>
      <trkpt lat="47.29064" lon="-1.264">
        <ele>65.054125</ele>
        <time>2022-06-26T23:49:06.129Z</time>
      </trkpt>
      <trkpt lat="47.29037" lon="-1.26362">
        <ele>65.339935</ele>
        <time>2022-06-26T23:49:16.496Z</time>
      </trkpt>
      <trkpt lat="47.28939" lon="-1.26174">
        <ele>66.583264</ele>
        <time>2022-06-26T23:50:03.829Z</time>
      </trkpt>
      <trkpt lat="47.28917" lon="-1.2616">
        <ele>66.775763</ele>
        <time>2022-06-26T23:50:10.723Z</time>
      </trkpt>
      <trkpt lat="47.2882" lon="-1.2614">
        <ele>67.526618</ele>
        <time>2022-06-26T23:50:36.063Z</time>
      </trkpt>
      <trkpt lat="47.28775" lon="-1.2611">
        <ele>67.500685</ele>
        <time>2022-06-26T23:50:47.112Z</time>
      </trkpt>
      <trkpt lat="47.28723" lon="-1.26036">
        <ele>67.462453</ele>
        <time>2022-06-26T23:51:03.529Z</time>
      </trkpt>
      <trkpt lat="47.28676" lon="-1.25946">
        <ele>67.27216</ele>
        <time>2022-06-26T23:51:22.188Z</time>
      </trkpt>
      <trkpt lat="47.28594" lon="-1.25726">
        <ele>65.777986</ele>
        <time>2022-06-26T23:51:58.470Z</time>
      </trkpt>
      <trkpt lat="47.28571" lon="-1.25789">
        <ele>64.275897</ele>
        <time>2022-06-26T23:52:10.589Z</time>
      </trkpt>
      <trkpt lat="47.28547" lon="-1.25854">
        <ele>62.695035</ele>
        <time>2022-06-26T23:52:26.001Z</time>
      </trkpt>
      <trkpt lat="47.28513" lon="-1.25917">
        <ele>60.988054</ele>
        <time>2022-06-26T23:52:42.082Z</time>
      </trkpt>
      <trkpt lat="47.28474" lon="-1.25946">
        <ele>59.354062</ele>
        <time>2022-06-26T23:52:54.501Z</time>
      </trkpt>
      <trkpt lat="47.28446" lon="-1.25953">
        <ele>58.190202</ele>
        <time>2022-06-26T23:53:02.942Z</time>
      </trkpt>
      <trkpt lat="47.28433" lon="-1.2597">
        <ele>57.499207</ele>
        <time>2022-06-26T23:53:07.907Z</time>
      </trkpt>
      <trkpt lat="47.28364" lon="-1.26122">
        <ele>53.111498</ele>
        <time>2022-06-26T23:53:45.671Z</time>
      </trkpt>
      <trkpt lat="47.28341" lon="-1.26117">
        <ele>52.801006</ele>
        <time>2022-06-26T23:53:52.788Z</time>
      </trkpt>
      <trkpt lat="47.28298" lon="-1.26142">
        <ele>52.1761</ele>
        <time>2022-06-26T23:54:08.335Z</time>
      </trkpt>
      <trkpt lat="47.28298" lon="-1.26142">
        <ele>52.171644</ele>
        <time>2022-06-26T23:54:08.453Z</time>
      </trkpt>
      <trkpt lat="47.28275" lon="-1.26144">
        <ele>51.870388</ele>
        <time>2022-06-26T23:54:16.438Z</time>
      </trkpt>
      <trkpt lat="47.28251" lon="-1.2612">
        <ele>51.467564</ele>
        <time>2022-06-26T23:54:27.300Z</time>
      </trkpt>
      <trkpt lat="47.28237" lon="-1.26059">
        <ele>50.985507</ele>
        <time>2022-06-26T23:54:43.770Z</time>
      </trkpt>
      <trkpt lat="47.282" lon="-1.26009">
        <ele>51.087187</ele>
        <time>2022-06-26T23:55:01.877Z</time>
      </trkpt>
      <trkpt lat="47.28186" lon="-1.25968">
        <ele>51.149342</ele>
        <time>2022-06-26T23:55:12.699Z</time>
      </trkpt>
      <trkpt lat="47.28165" lon="-1.25933">
        <ele>51.213302</ele>
        <time>2022-06-26T23:55:24.453Z</time>
      </trkpt>
      <trkpt lat="47.28151" lon="-1.25839">
        <ele>51.508583</ele>
        <time>2022-06-26T23:55:51.011Z</time>
      </trkpt>
      <trkpt lat="47.28144" lon="-1.25799">
        <ele>52.320589</ele>
        <time>2022-06-26T23:56:01.999Z</time>
      </trkpt>
      <trkpt lat="47.28141" lon="-1.25784">
        <ele>52.635743</ele>
        <time>2022-06-26T23:56:06.656Z</time>
      </trkpt>
      <trkpt lat="47.28136" lon="-1.25788">
        <ele>52.820318</ele>
        <time>2022-06-26T23:56:09.007Z</time>
      </trkpt>
      <trkpt lat="47.28124" lon="-1.25795">
        <ele>53.189467</ele>
        <time>2022-06-26T23:56:15.101Z</time>
      </trkpt>
      <trkpt lat="47.28115" lon="-1.25797">
        <ele>53.471529</ele>
        <time>2022-06-26T23:56:20.315Z</time>
      </trkpt>
      <trkpt lat="47.2809" lon="-1.25773">
        <ele>54.358523</ele>
        <time>2022-06-26T23:56:35.563Z</time>
      </trkpt>
      <trkpt lat="47.28069" lon="-1.2576">
        <ele>55.039226</ele>
        <time>2022-06-26T23:56:47.418Z</time>
      </trkpt>
      <trkpt lat="47.28041" lon="-1.25761">
        <ele>55.854287</ele>
        <time>2022-06-26T23:57:02.758Z</time>
      </trkpt>
      <trkpt lat="47.28014" lon="-1.25776">
        <ele>56.746821</ele>
        <time>2022-06-26T23:57:19.609Z</time>
      </trkpt>
      <trkpt lat="47.27967" lon="-1.25828">
        <ele>59.536906</ele>
        <time>2022-06-26T23:57:56.829Z</time>
      </trkpt>
      <trkpt lat="47.27916" lon="-1.25871">
        <ele>62.372011</ele>
        <time>2022-06-26T23:58:34.676Z</time>
      </trkpt>
      <trkpt lat="47.27877" lon="-1.25913">
        <ele>64.68413</ele>
        <time>2022-06-26T23:59:03.529Z</time>
      </trkpt>
      <trkpt lat="47.27862" lon="-1.25937">
        <ele>65.608744</ele>
        <time>2022-06-26T23:59:16.793Z</time>
      </trkpt>
      <trkpt lat="47.27839" lon="-1.25973">
        <ele>66.710795</ele>
        <time>2022-06-26T23:59:35.691Z</time>
      </trkpt>
      <trkpt lat="47.2783" lon="-1.25977">
        <ele>67.025525</ele>
        <time>2022-06-26T23:59:40.972Z</time>
      </trkpt>
      <trkpt lat="47.27806" lon="-1.26113">
        <ele>70.153229</ele>
        <time>2022-06-27T00:00:31.816Z</time>
      </trkpt>
      <trkpt lat="47.27785" lon="-1.26176">
        <ele>71.411852</ele>
        <time>2022-06-27T00:00:54.950Z</time>
      </trkpt>
      <trkpt lat="47.27828" lon="-1.26243">
        <ele>72.231822</ele>
        <time>2022-06-27T00:01:13.811Z</time>
      </trkpt>
      <trkpt lat="47.27824" lon="-1.26256">
        <ele>72.363785</ele>
        <time>2022-06-27T00:01:18.425Z</time>
      </trkpt>
      <trkpt lat="47.27756" lon="-1.26305">
        <ele>73.370317</ele>
        <time>2022-06-27T00:01:49.791Z</time>
      </trkpt>
      <trkpt lat="47.27595" lon="-1.26389">
        <ele>74.452649</ele>
        <time>2022-06-27T00:02:58.852Z</time>
      </trkpt>
      <trkpt lat="47.27558" lon="-1.26424">
        <ele>74.444905</ele>
        <time>2022-06-27T00:03:15.755Z</time>
      </trkpt>
      <trkpt lat="47.27548" lon="-1.2644">
        <ele>74.326586</ele>
        <time>2022-06-27T00:03:21.643Z</time>
      </trkpt>
      <trkpt lat="47.27497" lon="-1.26583">
        <ele>73.450724</ele>
        <time>2022-06-27T00:04:00.152Z</time>
      </trkpt>
      <trkpt lat="47.27497" lon="-1.26583">
        <ele>73.449371</ele>
        <time>2022-06-27T00:04:00.221Z</time>
      </trkpt>
      <trkpt lat="47.27402" lon="-1.26924">
        <ele>69.234008</ele>
        <time>2022-06-27T00:05:22.712Z</time>
      </trkpt>
      <trkpt lat="47.27322" lon="-1.272">
        <ele>65.391655</ele>
        <time>2022-06-27T00:06:27.990Z</time>
      </trkpt>
      <trkpt lat="47.27303" lon="-1.272">
        <ele>65.152591</ele>
        <time>2022-06-27T00:06:31.970Z</time>
      </trkpt>
      <trkpt lat="47.27169" lon="-1.27261">
        <ele>62.691825</ele>
        <time>2022-06-27T00:07:01.836Z</time>
      </trkpt>
      <trkpt lat="47.27196" lon="-1.27318">
        <ele>61.238086</ele>
        <time>2022-06-27T00:07:10.821Z</time>
      </trkpt>
      <trkpt lat="47.272" lon="-1.27354">
        <ele>60.464824</ele>
        <time>2022-06-27T00:07:15.081Z</time>
      </trkpt>
      <trkpt lat="47.27173" lon="-1.27471">
        <ele>57.530413</ele>
        <time>2022-06-27T00:07:28.294Z</time>
      </trkpt>
      <trkpt lat="47.27148" lon="-1.27518">
        <ele>55.108374</ele>
        <time>2022-06-27T00:07:34.578Z</time>
      </trkpt>
      <trkpt lat="47.27107" lon="-1.2758">
        <ele>51.658801</ele>
        <time>2022-06-27T00:07:43.564Z</time>
      </trkpt>
      <trkpt lat="47.27094" lon="-1.2761">
        <ele>50.210349</ele>
        <time>2022-06-27T00:07:47.320Z</time>
      </trkpt>
      <trkpt lat="47.27092" lon="-1.27629">
        <ele>49.469636</ele>
        <time>2022-06-27T00:07:49.211Z</time>
      </trkpt>
      <trkpt lat="47.27097" lon="-1.27654">
        <ele>48.422033</ele>
        <time>2022-06-27T00:07:51.902Z</time>
      </trkpt>
      <trkpt lat="47.27105" lon="-1.27667">
        <ele>47.711646</ele>
        <time>2022-06-27T00:07:53.708Z</time>
      </trkpt>
      <trkpt lat="47.27134" lon="-1.27695">
        <ele>46.229104</ele>
        <time>2022-06-27T00:07:59.080Z</time>
      </trkpt>
      <trkpt lat="47.27245" lon="-1.27768">
        <ele>41.210314</ele>
        <time>2022-06-27T00:08:18.793Z</time>
      </trkpt>
      <trkpt lat="47.27257" lon="-1.27793">
        <ele>40.332428</ele>
        <time>2022-06-27T00:08:23.132Z</time>
      </trkpt>
      <trkpt lat="47.27256" lon="-1.27815">
        <ele>40.178943</ele>
        <time>2022-06-27T00:08:25.721Z</time>
      </trkpt>
      <trkpt lat="47.27212" lon="-1.27935">
        <ele>40.358634</ele>
        <time>2022-06-27T00:08:44.760Z</time>
      </trkpt>
      <trkpt lat="47.27192" lon="-1.27989">
        <ele>40.440682</ele>
        <time>2022-06-27T00:08:55.438Z</time>
      </trkpt>
      <trkpt lat="47.27188" lon="-1.28001">
        <ele>40.458382</ele>
        <time>2022-06-27T00:08:58.180Z</time>
      </trkpt>
      <trkpt lat="47.27189" lon="-1.28028">
        <ele>40.49308</ele>
        <time>2022-06-27T00:09:04.398Z</time>
      </trkpt>
      <trkpt lat="47.272" lon="-1.28047">
        <ele>40.806202</ele>
        <time>2022-06-27T00:09:11.250Z</time>
      </trkpt>
      <trkpt lat="47.27218" lon="-1.28051">
        <ele>41.470622</ele>
        <time>2022-06-27T00:09:18.382Z</time>
      </trkpt>
      <trkpt lat="47.27226" lon="-1.28047">
        <ele>41.760549</ele>
        <time>2022-06-27T00:09:21.348Z</time>
      </trkpt>
      <trkpt lat="47.27225" lon="-1.28055">
        <ele>41.947534</ele>
        <time>2022-06-27T00:09:24.441Z</time>
      </trkpt>
      <trkpt lat="47.27174" lon="-1.28098">
        <ele>44.021944</ele>
        <time>2022-06-27T00:09:52.970Z</time>
      </trkpt>
      <trkpt lat="47.27163" lon="-1.28118">
        <ele>44.652932</ele>
        <time>2022-06-27T00:10:01.746Z</time>
      </trkpt>
      <trkpt lat="47.27163" lon="-1.28176">
        <ele>46.027637</ele>
        <time>2022-06-27T00:10:19.866Z</time>
      </trkpt>
      <trkpt lat="47.27184" lon="-1.28323">
        <ele>49.304793</ele>
        <time>2022-06-27T00:11:10.487Z</time>
      </trkpt>
      <trkpt lat="47.27178" lon="-1.28376">
        <ele>50.458717</ele>
        <time>2022-06-27T00:11:26.715Z</time>
      </trkpt>
      <trkpt lat="47.27154" lon="-1.28442">
        <ele>52.063636</ele>
        <time>2022-06-27T00:11:47.563Z</time>
      </trkpt>
      <trkpt lat="47.27144" lon="-1.28521">
        <ele>53.209104</ele>
        <time>2022-06-27T00:12:09.018Z</time>
      </trkpt>
      <trkpt lat="47.27145" lon="-1.28555">
        <ele>53.62407</ele>
        <time>2022-06-27T00:12:17.913Z</time>
      </trkpt>
      <trkpt lat="47.27158" lon="-1.28601">
        <ele>54.216872</ele>
        <time>2022-06-27T00:12:30.203Z</time>
      </trkpt>
      <trkpt lat="47.27161" lon="-1.28612">
        <ele>54.366547</ele>
        <time>2022-06-27T00:12:32.991Z</time>
      </trkpt>
      <trkpt lat="47.27166" lon="-1.28626">
        <ele>54.557662</ele>
        <time>2022-06-27T00:12:37.228Z</time>
      </trkpt>
      <trkpt lat="47.27134" lon="-1.28797">
        <ele>56.955979</ele>
        <time>2022-06-27T00:13:22.372Z</time>
      </trkpt>
      <trkpt lat="47.27157" lon="-1.28826">
        <ele>57.633381</ele>
        <time>2022-06-27T00:13:35.079Z</time>
      </trkpt>
      <trkpt lat="47.2722" lon="-1.29018">
        <ele>61.064467</ele>
        <time>2022-06-27T00:14:35.708Z</time>
      </trkpt>
      <trkpt lat="47.27238" lon="-1.29043">
        <ele>61.698539</ele>
        <time>2022-06-27T00:14:45.641Z</time>
      </trkpt>
      <trkpt lat="47.27285" lon="-1.29087">
        <ele>63.155832</ele>
        <time>2022-06-27T00:15:09.071Z</time>
      </trkpt>
      <trkpt lat="47.27304" lon="-1.29097">
        <ele>63.688793</ele>
        <time>2022-06-27T00:15:17.796Z</time>
      </trkpt>
      <trkpt lat="47.27314" lon="-1.29133">
        <ele>64.363726</ele>
        <time>2022-06-27T00:15:28.931Z</time>
      </trkpt>
      <trkpt lat="47.27321" lon="-1.29159">
        <ele>64.939434</ele>
        <time>2022-06-27T00:15:37.624Z</time>
      </trkpt>
      <trkpt lat="47.27344" lon="-1.29248">
        <ele>66.874243</ele>
        <time>2022-06-27T00:16:03.120Z</time>
      </trkpt>
      <trkpt lat="47.27297" lon="-1.29358">
        <ele>69.500801</ele>
        <time>2022-06-27T00:16:36.434Z</time>
      </trkpt>
      <trkpt lat="47.27263" lon="-1.29418">
        <ele>70.826624</ele>
        <time>2022-06-27T00:16:55.832Z</time>
      </trkpt>
      <trkpt lat="47.27223" lon="-1.29473">
        <ele>72.13183</ele>
        <time>2022-06-27T00:17:15.343Z</time>
      </trkpt>
      <trkpt lat="47.27163" lon="-1.29531">
        <ele>73.846063</ele>
        <time>2022-06-27T00:17:38.677Z</time>
      </trkpt>
      <trkpt lat="47.27136" lon="-1.29571">
        <ele>74.457639</ele>
        <time>2022-06-27T00:17:50.300Z</time>
      </trkpt>
      <trkpt lat="47.27126" lon="-1.29597">
        <ele>74.73566</ele>
        <time>2022-06-27T00:17:56.750Z</time>
      </trkpt>
      <trkpt lat="47.27109" lon="-1.29656">
        <ele>75.323574</ele>
        <time>2022-06-27T00:18:09.396Z</time>
      </trkpt>
      <trkpt lat="47.27106" lon="-1.29691">
        <ele>75.646046</ele>
        <time>2022-06-27T00:18:16.457Z</time>
      </trkpt>
      <trkpt lat="47.27111" lon="-1.29776">
        <ele>76.433327</ele>
        <time>2022-06-27T00:18:32.800Z</time>
      </trkpt>
      <trkpt lat="47.27081" lon="-1.29884">
        <ele>76.063984</ele>
        <time>2022-06-27T00:18:51.551Z</time>
      </trkpt>
      <trkpt lat="47.27063" lon="-1.29942">
        <ele>75.801766</ele>
        <time>2022-06-27T00:19:00.430Z</time>
      </trkpt>
      <trkpt lat="47.27043" lon="-1.2994">
        <ele>75.679206</ele>
        <time>2022-06-27T00:19:04.587Z</time>
      </trkpt>
      <trkpt lat="47.2698" lon="-1.29946">
        <ele>74.923015</ele>
        <time>2022-06-27T00:19:16.838Z</time>
      </trkpt>
      <trkpt lat="47.26964" lon="-1.29935">
        <ele>74.481987</ele>
        <time>2022-06-27T00:19:20.181Z</time>
      </trkpt>
      <trkpt lat="47.26923" lon="-1.29902">
        <ele>73.345563</ele>
        <time>2022-06-27T00:19:28.596Z</time>
      </trkpt>
      <trkpt lat="47.26776" lon="-1.29925">
        <ele>70.372359</ele>
        <time>2022-06-27T00:19:56.006Z</time>
      </trkpt>
      <trkpt lat="47.26708" lon="-1.29935">
        <ele>69.547707</ele>
        <time>2022-06-27T00:20:09.958Z</time>
      </trkpt>
      <trkpt lat="47.26708" lon="-1.29935">
        <ele>69.545168</ele>
        <time>2022-06-27T00:20:10.106Z</time>
      </trkpt>
      <trkpt lat="47.26688" lon="-1.29929">
        <ele>69.302573</ele>
        <time>2022-06-27T00:20:14.496Z</time>
      </trkpt>
      <trkpt lat="47.26631" lon="-1.29877">
        <ele>68.879834</ele>
        <time>2022-06-27T00:20:30.516Z</time>
      </trkpt>
      <trkpt lat="47.26606" lon="-1.29867">
        <ele>68.914837</ele>
        <time>2022-06-27T00:20:37.301Z</time>
      </trkpt>
      <trkpt lat="47.26436" lon="-1.29878">
        <ele>69.002938</ele>
        <time>2022-06-27T00:21:17.908Z</time>
      </trkpt>
      <trkpt lat="47.26441" lon="-1.29808">
        <ele>68.913438</ele>
        <time>2022-06-27T00:21:28.507Z</time>
      </trkpt>
      <trkpt lat="47.26455" lon="-1.29735">
        <ele>68.816663</ele>
        <time>2022-06-27T00:21:39.794Z</time>
      </trkpt>
      <trkpt lat="47.2651" lon="-1.29607">
        <ele>68.989446</ele>
        <time>2022-06-27T00:22:03.086Z</time>
      </trkpt>
      <trkpt lat="47.26516" lon="-1.29583">
        <ele>69.052617</ele>
        <time>2022-06-27T00:22:07.266Z</time>
      </trkpt>
      <trkpt lat="47.26515" lon="-1.29553">
        <ele>69.125754</ele>
        <time>2022-06-27T00:22:12.458Z</time>
      </trkpt>
      <trkpt lat="47.26501" lon="-1.295">
        <ele>69.263113</ele>
        <time>2022-06-27T00:22:23.178Z</time>
      </trkpt>
      <trkpt lat="47.265" lon="-1.29469">
        <ele>69.339325</ele>
        <time>2022-06-27T00:22:29.051Z</time>
      </trkpt>
      <trkpt lat="47.26532" lon="-1.29328">
        <ele>70.041002</ele>
        <time>2022-06-27T00:22:56.670Z</time>
      </trkpt>
      <trkpt lat="47.26609" lon="-1.29078">
        <ele>71.664207</ele>
        <time>2022-06-27T00:23:46.473Z</time>
      </trkpt>
      <trkpt lat="47.26608" lon="-1.2907">
        <ele>71.716953</ele>
        <time>2022-06-27T00:23:47.980Z</time>
      </trkpt>
      <trkpt lat="47.266" lon="-1.29054">
        <ele>71.8526</ele>
        <time>2022-06-27T00:23:52.004Z</time>
      </trkpt>
      <trkpt lat="47.26565" lon="-1.29027">
        <ele>72.235895</ele>
        <time>2022-06-27T00:24:03.167Z</time>
      </trkpt>
      <trkpt lat="47.2648" lon="-1.29049">
        <ele>73.355701</ele>
        <time>2022-06-27T00:24:34.574Z</time>
      </trkpt>
      <trkpt lat="47.26402" lon="-1.29102">
        <ele>74.596123</ele>
        <time>2022-06-27T00:25:06.525Z</time>
      </trkpt>
      <trkpt lat="47.26323" lon="-1.29147">
        <ele>75.74958</ele>
        <time>2022-06-27T00:25:37.173Z</time>
      </trkpt>
      <trkpt lat="47.26323" lon="-1.29147">
        <ele>75.750471</ele>
        <time>2022-06-27T00:25:37.185Z</time>
      </trkpt>
      <trkpt lat="47.26322" lon="-1.29149">
        <ele>75.772597</ele>
        <time>2022-06-27T00:25:37.621Z</time>
      </trkpt>
      <trkpt lat="47.2627" lon="-1.29177">
        <ele>76.499222</ele>
        <time>2022-06-27T00:25:51.939Z</time>
      </trkpt>
      <trkpt lat="47.26233" lon="-1.29196">
        <ele>77.01348</ele>
        <time>2022-06-27T00:26:02.072Z</time>
      </trkpt>
      <trkpt lat="47.2618" lon="-1.29229">
        <ele>77.635934</ele>
        <time>2022-06-27T00:26:16.951Z</time>
      </trkpt>
      <trkpt lat="47.26157" lon="-1.29242">
        <ele>77.810743</ele>
        <time>2022-06-27T00:26:23.322Z</time>
      </trkpt>
      <trkpt lat="47.26112" lon="-1.29291">
        <ele>78.207804</ele>
        <time>2022-06-27T00:26:37.791Z</time>
      </trkpt>
      <trkpt lat="47.26065" lon="-1.29343">
        <ele>78.624879</ele>
        <time>2022-06-27T00:26:52.990Z</time>
      </trkpt>
      <trkpt lat="47.26057" lon="-1.29348">
        <ele>78.686544</ele>
        <time>2022-06-27T00:26:55.237Z</time>
      </trkpt>
      <trkpt lat="47.26003" lon="-1.29364">
        <ele>78.792561</ele>
        <time>2022-06-27T00:27:09.481Z</time>
      </trkpt>
      <trkpt lat="47.25949" lon="-1.29385">
        <ele>78.837556</ele>
        <time>2022-06-27T00:27:23.923Z</time>
      </trkpt>
      <trkpt lat="47.25909" lon="-1.29396">
        <ele>78.870339</ele>
        <time>2022-06-27T00:27:34.445Z</time>
      </trkpt>
      <trkpt lat="47.25879" lon="-1.29427">
        <ele>78.89986</ele>
        <time>2022-06-27T00:27:43.921Z</time>
      </trkpt>
      <trkpt lat="47.25879" lon="-1.29426">
        <ele>78.900584</ele>
        <time>2022-06-27T00:27:44.155Z</time>
      </trkpt>
      <trkpt lat="47.25654" lon="-1.29656">
        <ele>79.557172</ele>
        <time>2022-06-27T00:29:28.716Z</time>
      </trkpt>
      <trkpt lat="47.25606" lon="-1.29665">
        <ele>79.691228</ele>
        <time>2022-06-27T00:29:47.193Z</time>
      </trkpt>
      <trkpt lat="47.25441" lon="-1.29603">
        <ele>80.417082</ele>
        <time>2022-06-27T00:30:54.680Z</time>
      </trkpt>
      <trkpt lat="47.25346" lon="-1.29648">
        <ele>80.801606</ele>
        <time>2022-06-27T00:31:33.860Z</time>
      </trkpt>
      <trkpt lat="47.25283" lon="-1.29684">
        <ele>81.016162</ele>
        <time>2022-06-27T00:31:50.838Z</time>
      </trkpt>
      <trkpt lat="47.24933" lon="-1.29923">
        <ele>81.185302</ele>
        <time>2022-06-27T00:33:20.811Z</time>
      </trkpt>
      <trkpt lat="47.24902" lon="-1.29939">
        <ele>81.167931</ele>
        <time>2022-06-27T00:33:28.147Z</time>
      </trkpt>
      <trkpt lat="47.24776" lon="-1.29993">
        <ele>80.930998</ele>
        <time>2022-06-27T00:33:57.452Z</time>
      </trkpt>
      <trkpt lat="47.24571" lon="-1.30076">
        <ele>80.874584</ele>
        <time>2022-06-27T00:34:46.749Z</time>
      </trkpt>
      <trkpt lat="47.24527" lon="-1.30092">
        <ele>80.84712</ele>
        <time>2022-06-27T00:34:57.582Z</time>
      </trkpt>
      <trkpt lat="47.24382" lon="-1.3013">
        <ele>80.679236</ele>
        <time>2022-06-27T00:35:31.123Z</time>
      </trkpt>
      <trkpt lat="47.242" lon="-1.30189">
        <ele>80.335032</ele>
        <time>2022-06-27T00:36:13.121Z</time>
      </trkpt>
      <trkpt lat="47.24053" lon="-1.30264">
        <ele>80.233918</ele>
        <time>2022-06-27T00:36:48.969Z</time>
      </trkpt>
      <trkpt lat="47.24054" lon="-1.30284">
        <ele>80.225243</ele>
        <time>2022-06-27T00:36:52.059Z</time>
      </trkpt>
      <trkpt lat="47.24004" lon="-1.30334">
        <ele>80.084187</ele>
        <time>2022-06-27T00:37:14.496Z</time>
      </trkpt>
      <trkpt lat="47.24002" lon="-1.30321">
        <ele>80.06145</ele>
        <time>2022-06-27T00:37:20.421Z</time>
      </trkpt>
      <trkpt lat="47.23912" lon="-1.3046">
        <ele>79.672376</ele>
        <time>2022-06-27T00:38:50.632Z</time>
      </trkpt>
      <trkpt lat="47.23785" lon="-1.3064">
        <ele>78.35952</ele>
        <time>2022-06-27T00:40:53.281Z</time>
      </trkpt>
      <trkpt lat="47.23728" lon="-1.30721">
        <ele>77.773656</ele>
        <time>2022-06-27T00:41:48.119Z</time>
      </trkpt>
      <trkpt lat="47.23575" lon="-1.31011">
        <ele>76.361989</ele>
        <time>2022-06-27T00:44:41.562Z</time>
      </trkpt>
      <trkpt lat="47.23615" lon="-1.30734">
        <ele>76.061546</ele>
        <time>2022-06-27T00:45:52.790Z</time>
      </trkpt>
      <trkpt lat="47.23575" lon="-1.31011">
        <ele>75.616686</ele>
        <time>2022-06-27T00:47:02.646Z</time>
      </trkpt>
      <trkpt lat="47.23543" lon="-1.31072">
        <ele>75.254891</ele>
        <time>2022-06-27T00:47:21.603Z</time>
      </trkpt>
      <trkpt lat="47.23504" lon="-1.31025">
        <ele>74.909652</ele>
        <time>2022-06-27T00:47:39.211Z</time>
      </trkpt>
      <trkpt lat="47.23495" lon="-1.31022">
        <ele>74.842296</ele>
        <time>2022-06-27T00:47:42.648Z</time>
      </trkpt>
      <trkpt lat="47.23461" lon="-1.31079">
        <ele>74.484865</ele>
        <time>2022-06-27T00:48:00.566Z</time>
      </trkpt>
      <trkpt lat="47.23303" lon="-1.31211">
        <ele>72.631572</ele>
        <time>2022-06-27T00:49:02.875Z</time>
      </trkpt>
      <trkpt lat="47.23298" lon="-1.31237">
        <ele>72.44408</ele>
        <time>2022-06-27T00:49:09.338Z</time>
      </trkpt>
      <trkpt lat="47.23287" lon="-1.31256">
        <ele>72.311174</ele>
        <time>2022-06-27T00:49:15.181Z</time>
      </trkpt>
      <trkpt lat="47.23211" lon="-1.31321">
        <ele>71.621293</ele>
        <time>2022-06-27T00:49:45.899Z</time>
      </trkpt>
      <trkpt lat="47.23166" lon="-1.31333">
        <ele>71.265032</ele>
        <time>2022-06-27T00:50:01.991Z</time>
      </trkpt>
      <trkpt lat="47.23156" lon="-1.31346">
        <ele>71.158858</ele>
        <time>2022-06-27T00:50:06.794Z</time>
      </trkpt>
      <trkpt lat="47.23094" lon="-1.31508">
        <ele>70.142863</ele>
        <time>2022-06-27T00:50:50.808Z</time>
      </trkpt>
      <trkpt lat="47.23024" lon="-1.31602">
        <ele>69.288669</ele>
        <time>2022-06-27T00:51:23.888Z</time>
      </trkpt>
      <trkpt lat="47.2303" lon="-1.31613">
        <ele>69.189044</ele>
        <time>2022-06-27T00:51:25.657Z</time>
      </trkpt>
      <trkpt lat="47.22935" lon="-1.31784">
        <ele>67.538475</ele>
        <time>2022-06-27T00:51:56.381Z</time>
      </trkpt>
      <trkpt lat="47.22877" lon="-1.31851">
        <ele>66.830005</ele>
        <time>2022-06-27T00:52:11.468Z</time>
      </trkpt>
      <trkpt lat="47.2287" lon="-1.3186">
        <ele>66.733888</ele>
        <time>2022-06-27T00:52:13.543Z</time>
      </trkpt>
      <trkpt lat="47.22831" lon="-1.3191">
        <ele>66.238293</ele>
        <time>2022-06-27T00:52:24.235Z</time>
      </trkpt>
      <trkpt lat="47.22801" lon="-1.31963">
        <ele>65.841157</ele>
        <time>2022-06-27T00:52:34.148Z</time>
      </trkpt>
      <trkpt lat="47.2277" lon="-1.32016">
        <ele>65.669475</ele>
        <time>2022-06-27T00:52:44.442Z</time>
      </trkpt>
      <trkpt lat="47.22698" lon="-1.32141">
        <ele>65.26519</ele>
        <time>2022-06-27T00:53:09.711Z</time>
      </trkpt>
      <trkpt lat="47.22632" lon="-1.32265">
        <ele>64.709587</ele>
        <time>2022-06-27T00:53:33.436Z</time>
      </trkpt>
      <trkpt lat="47.22615" lon="-1.3231">
        <ele>64.517818</ele>
        <time>2022-06-27T00:53:41.188Z</time>
      </trkpt>
      <trkpt lat="47.22597" lon="-1.32378">
        <ele>64.245948</ele>
        <time>2022-06-27T00:53:51.705Z</time>
      </trkpt>
      <trkpt lat="47.22591" lon="-1.32424">
        <ele>63.88832</ele>
        <time>2022-06-27T00:53:58.306Z</time>
      </trkpt>
      <trkpt lat="47.22588" lon="-1.32472">
        <ele>63.521349</ele>
        <time>2022-06-27T00:54:04.938Z</time>
      </trkpt>
      <trkpt lat="47.22592" lon="-1.32519">
        <ele>63.15472</ele>
        <time>2022-06-27T00:54:11.503Z</time>
      </trkpt>
      <trkpt lat="47.22632" lon="-1.32691">
        <ele>61.885028</ele>
        <time>2022-06-27T00:54:36.702Z</time>
      </trkpt>
      <trkpt lat="47.22643" lon="-1.32838">
        <ele>61.06892</ele>
        <time>2022-06-27T00:54:57.736Z</time>
      </trkpt>
      <trkpt lat="47.22675" lon="-1.33016">
        <ele>60.412432</ele>
        <time>2022-06-27T00:55:26.013Z</time>
      </trkpt>
      <trkpt lat="47.22673" lon="-1.33074">
        <ele>60.25787</ele>
        <time>2022-06-27T00:55:34.842Z</time>
      </trkpt>
      <trkpt lat="47.22615" lon="-1.33224">
        <ele>59.253647</ele>
        <time>2022-06-27T00:55:59.785Z</time>
      </trkpt>
      <trkpt lat="47.22533" lon="-1.3339">
        <ele>57.490899</ele>
        <time>2022-06-27T00:56:27.585Z</time>
      </trkpt>
      <trkpt lat="47.22498" lon="-1.33447">
        <ele>56.79645</ele>
        <time>2022-06-27T00:56:37.664Z</time>
      </trkpt>
      <trkpt lat="47.22468" lon="-1.33531">
        <ele>55.937679</ele>
        <time>2022-06-27T00:56:50.936Z</time>
      </trkpt>
      <trkpt lat="47.22442" lon="-1.3363">
        <ele>54.297175</ele>
        <time>2022-06-27T00:57:06.320Z</time>
      </trkpt>
      <trkpt lat="47.22379" lon="-1.33604">
        <ele>52.013724</ele>
        <time>2022-06-27T00:57:22.418Z</time>
      </trkpt>
      <trkpt lat="47.22369" lon="-1.33591">
        <ele>51.552641</ele>
        <time>2022-06-27T00:57:25.547Z</time>
      </trkpt>
      <trkpt lat="47.22354" lon="-1.33574">
        <ele>50.885004</ele>
        <time>2022-06-27T00:57:29.758Z</time>
      </trkpt>
      <trkpt lat="47.22346" lon="-1.33572">
        <ele>50.5922</ele>
        <time>2022-06-27T00:57:31.645Z</time>
      </trkpt>
      <trkpt lat="47.22318" lon="-1.33582">
        <ele>49.598504</ele>
        <time>2022-06-27T00:57:37.768Z</time>
      </trkpt>
      <trkpt lat="47.22305" lon="-1.33595">
        <ele>48.913038</ele>
        <time>2022-06-27T00:57:41.221Z</time>
      </trkpt>
      <trkpt lat="47.22289" lon="-1.33603">
        <ele>47.459011</ele>
        <time>2022-06-27T00:57:45.855Z</time>
      </trkpt>
      <trkpt lat="47.22279" lon="-1.33602">
        <ele>46.601493</ele>
        <time>2022-06-27T00:57:48.594Z</time>
      </trkpt>
      <trkpt lat="47.22146" lon="-1.33565">
        <ele>35.108786</ele>
        <time>2022-06-27T00:58:23.627Z</time>
      </trkpt>
      <trkpt lat="47.22083" lon="-1.3355">
        <ele>30.795101</ele>
        <time>2022-06-27T00:58:40.394Z</time>
      </trkpt>
      <trkpt lat="47.22051" lon="-1.33536">
        <ele>28.762188</ele>
        <time>2022-06-27T00:58:49.363Z</time>
      </trkpt>
      <trkpt lat="47.22015" lon="-1.33508">
        <ele>26.275565</ele>
        <time>2022-06-27T00:59:00.662Z</time>
      </trkpt>
      <trkpt lat="47.21964" lon="-1.33824">
        <ele>18.972695</ele>
        <time>2022-06-27T00:59:53.716Z</time>
      </trkpt>
      <trkpt lat="47.21951" lon="-1.3382">
        <ele>18.670878</ele>
        <time>2022-06-27T00:59:56.303Z</time>
      </trkpt>
      <trkpt lat="47.21837" lon="-1.33797">
        <ele>18.60336</ele>
        <time>2022-06-27T01:00:21.204Z</time>
      </trkpt>
      <trkpt lat="47.21705" lon="-1.33733">
        <ele>19.798108</ele>
        <time>2022-06-27T01:00:58.787Z</time>
      </trkpt>
      <trkpt lat="47.21656" lon="-1.33707">
        <ele>20.683878</ele>
        <time>2022-06-27T01:01:14.785Z</time>
      </trkpt>
      <trkpt lat="47.21691" lon="-1.33534">
        <ele>24.037105</ele>
        <time>2022-06-27T01:01:58.450Z</time>
      </trkpt>
      <trkpt lat="47.21695" lon="-1.33453">
        <ele>26.075326</ele>
        <time>2022-06-27T01:02:21.100Z</time>
      </trkpt>
      <trkpt lat="47.21683" lon="-1.33225">
        <ele>33.600342</ele>
        <time>2022-06-27T01:03:36.503Z</time>
      </trkpt>
      <trkpt lat="47.21696" lon="-1.33172">
        <ele>35.70551</ele>
        <time>2022-06-27T01:03:57.192Z</time>
      </trkpt>
      <trkpt lat="47.21732" lon="-1.33082">
        <ele>39.445941</ele>
        <time>2022-06-27T01:04:35.882Z</time>
      </trkpt>
      <trkpt lat="47.21755" lon="-1.32985">
        <ele>42.694076</ele>
        <time>2022-06-27T01:05:11.486Z</time>
      </trkpt>
      <trkpt lat="47.21785" lon="-1.32871">
        <ele>46.539212</ele>
        <time>2022-06-27T01:05:47.614Z</time>
      </trkpt>
      <trkpt lat="47.21947" lon="-1.32513">
        <ele>51.853122</ele>
        <time>2022-06-27T01:07:15.868Z</time>
      </trkpt>
      <trkpt lat="47.21892" lon="-1.32417">
        <ele>53.611665</ele>
        <time>2022-06-27T01:07:58.972Z</time>
      </trkpt>
      <trkpt lat="47.21805" lon="-1.32319">
        <ele>56.54274</ele>
        <time>2022-06-27T01:08:56.615Z</time>
      </trkpt>
      <trkpt lat="47.21668" lon="-1.32249">
        <ele>59.199964</ele>
        <time>2022-06-27T01:10:05.285Z</time>
      </trkpt>
      <trkpt lat="47.21637" lon="-1.32205">
        <ele>59.779444</ele>
        <time>2022-06-27T01:10:23.044Z</time>
      </trkpt>
      <trkpt lat="47.21629" lon="-1.32195">
        <ele>59.920003</ele>
        <time>2022-06-27T01:10:27.153Z</time>
      </trkpt>
      <trkpt lat="47.21605" lon="-1.32162">
        <ele>60.356707</ele>
        <time>2022-06-27T01:10:40.049Z</time>
      </trkpt>
      <trkpt lat="47.21605" lon="-1.32162">
        <ele>60.358966</ele>
        <time>2022-06-27T01:10:40.085Z</time>
      </trkpt>
      <trkpt lat="47.21575" lon="-1.32102">
        <ele>60.459223</ele>
        <time>2022-06-27T01:10:59.319Z</time>
      </trkpt>
      <trkpt lat="47.21551" lon="-1.32003">
        <ele>60.541398</ele>
        <time>2022-06-27T01:11:25.612Z</time>
      </trkpt>
      <trkpt lat="47.21517" lon="-1.31921">
        <ele>60.619432</ele>
        <time>2022-06-27T01:11:50.141Z</time>
      </trkpt>
      <trkpt lat="47.2148" lon="-1.31792">
        <ele>60.792682</ele>
        <time>2022-06-27T01:12:26.814Z</time>
      </trkpt>
      <trkpt lat="47.21485" lon="-1.31786">
        <ele>60.803826</ele>
        <time>2022-06-27T01:12:28.292Z</time>
      </trkpt>
      <trkpt lat="47.21438" lon="-1.31728">
        <ele>60.914952</ele>
        <time>2022-06-27T01:12:52.044Z</time>
      </trkpt>
      <trkpt lat="47.21417" lon="-1.31722">
        <ele>60.902156</ele>
        <time>2022-06-27T01:13:00.036Z</time>
      </trkpt>
      <trkpt lat="47.2127" lon="-1.31518">
        <ele>59.723095</ele>
        <time>2022-06-27T01:14:12.020Z</time>
      </trkpt>
      <trkpt lat="47.2117" lon="-1.31678">
        <ele>57.987498</ele>
        <time>2022-06-27T01:15:01.520Z</time>
      </trkpt>
      <trkpt lat="47.21119" lon="-1.3162">
        <ele>57.868223</ele>
        <time>2022-06-27T01:15:23.584Z</time>
      </trkpt>
      <trkpt lat="47.21099" lon="-1.31602">
        <ele>57.83176</ele>
        <time>2022-06-27T01:15:32.169Z</time>
      </trkpt>
      <trkpt lat="47.21055" lon="-1.31572">
        <ele>57.758041</ele>
        <time>2022-06-27T01:15:42.996Z</time>
      </trkpt>
      <trkpt lat="47.21016" lon="-1.31562">
        <ele>57.697701</ele>
        <time>2022-06-27T01:15:53.538Z</time>
      </trkpt>
      <trkpt lat="47.2098" lon="-1.31563">
        <ele>57.914869</ele>
        <time>2022-06-27T01:16:04.276Z</time>
      </trkpt>
      <trkpt lat="47.20978" lon="-1.3155">
        <ele>57.984679</ele>
        <time>2022-06-27T01:16:08.622Z</time>
      </trkpt>
      <trkpt lat="47.20863" lon="-1.31373">
        <ele>58.684792</ele>
        <time>2022-06-27T01:17:16.188Z</time>
      </trkpt>
      <trkpt lat="47.20827" lon="-1.31397">
        <ele>58.104558</ele>
        <time>2022-06-27T01:17:24.647Z</time>
      </trkpt>
      <trkpt lat="47.20783" lon="-1.31421">
        <ele>57.400173</ele>
        <time>2022-06-27T01:17:34.089Z</time>
      </trkpt>
      <trkpt lat="47.20749" lon="-1.31432">
        <ele>56.886432</ele>
        <time>2022-06-27T01:17:40.588Z</time>
      </trkpt>
      <trkpt lat="47.20744" lon="-1.31419">
        <ele>56.734453</ele>
        <time>2022-06-27T01:17:43.781Z</time>
      </trkpt>
      <trkpt lat="47.20721" lon="-1.31396">
        <ele>56.255709</ele>
        <time>2022-06-27T01:17:52.162Z</time>
      </trkpt>
      <trkpt lat="47.20594" lon="-1.31318">
        <ele>51.537036</ele>
        <time>2022-06-27T01:18:33.344Z</time>
      </trkpt>
      <trkpt lat="47.20486" lon="-1.31168">
        <ele>48.426292</ele>
        <time>2022-06-27T01:19:20.308Z</time>
      </trkpt>
      <trkpt lat="47.20481" lon="-1.31159">
        <ele>48.295889</ele>
        <time>2022-06-27T01:19:24.101Z</time>
      </trkpt>
      <trkpt lat="47.20482" lon="-1.31107">
        <ele>47.717018</ele>
        <time>2022-06-27T01:19:36.710Z</time>
      </trkpt>
      <trkpt lat="47.20476" lon="-1.3108">
        <ele>47.401792</ele>
        <time>2022-06-27T01:19:43.305Z</time>
      </trkpt>
      <trkpt lat="47.20464" lon="-1.31056">
        <ele>47.393935</ele>
        <time>2022-06-27T01:19:51.419Z</time>
      </trkpt>
      <trkpt lat="47.20464" lon="-1.31056">
        <ele>47.394856</ele>
        <time>2022-06-27T01:19:51.475Z</time>
      </trkpt>
      <trkpt lat="47.20414" lon="-1.31016">
        <ele>47.830803</ele>
        <time>2022-06-27T01:20:13.425Z</time>
      </trkpt>
      <trkpt lat="47.20408" lon="-1.31005">
        <ele>47.90362</ele>
        <time>2022-06-27T01:20:18.672Z</time>
      </trkpt>
      <trkpt lat="47.20354" lon="-1.30964">
        <ele>48.369644</ele>
        <time>2022-06-27T01:20:35.868Z</time>
      </trkpt>
      <trkpt lat="47.2035" lon="-1.30972">
        <ele>48.419759</ele>
        <time>2022-06-27T01:20:37.883Z</time>
      </trkpt>
      <trkpt lat="47.20329" lon="-1.30959">
        <ele>48.591215</ele>
        <time>2022-06-27T01:20:44.376Z</time>
      </trkpt>
      <trkpt lat="47.20262" lon="-1.30944">
        <ele>48.577324</ele>
        <time>2022-06-27T01:21:03.500Z</time>
      </trkpt>
      <trkpt lat="47.20216" lon="-1.30917">
        <ele>48.502045</ele>
        <time>2022-06-27T01:21:14.950Z</time>
      </trkpt>
      <trkpt lat="47.20196" lon="-1.30887">
        <ele>48.458793</ele>
        <time>2022-06-27T01:21:21.162Z</time>
      </trkpt>
      <trkpt lat="47.20192" lon="-1.30864">
        <ele>48.434566</ele>
        <time>2022-06-27T01:21:24.847Z</time>
      </trkpt>
      <trkpt lat="47.20162" lon="-1.30911">
        <ele>47.982027</ele>
        <time>2022-06-27T01:21:39.179Z</time>
      </trkpt>
      <trkpt lat="47.20134" lon="-1.30938">
        <ele>47.141081</ele>
        <time>2022-06-27T01:21:50.203Z</time>
      </trkpt>
      <trkpt lat="47.20094" lon="-1.31004">
        <ele>45.657141</ele>
        <time>2022-06-27T01:22:09.433Z</time>
      </trkpt>
      <trkpt lat="47.2007" lon="-1.31025">
        <ele>44.971828</ele>
        <time>2022-06-27T01:22:17.861Z</time>
      </trkpt>
      <trkpt lat="47.20039" lon="-1.31069">
        <ele>43.901523</ele>
        <time>2022-06-27T01:22:31.130Z</time>
      </trkpt>
      <trkpt lat="47.19992" lon="-1.31153">
        <ele>41.802897</ele>
        <time>2022-06-27T01:22:53.918Z</time>
      </trkpt>
      <trkpt lat="47.19992" lon="-1.31153">
        <ele>41.790055</ele>
        <time>2022-06-27T01:22:54.034Z</time>
      </trkpt>
      <trkpt lat="47.19929" lon="-1.31235">
        <ele>39.424692</ele>
        <time>2022-06-27T01:23:20.288Z</time>
      </trkpt>
      <trkpt lat="47.19874" lon="-1.31319">
        <ele>37.699014</ele>
        <time>2022-06-27T01:23:45.832Z</time>
      </trkpt>
      <trkpt lat="47.19839" lon="-1.31358">
        <ele>36.833647</ele>
        <time>2022-06-27T01:24:00.204Z</time>
      </trkpt>
      <trkpt lat="47.19767" lon="-1.31499">
        <ele>34.689732</ele>
        <time>2022-06-27T01:24:39.751Z</time>
      </trkpt>
      <trkpt lat="47.19608" lon="-1.3135">
        <ele>31.946761</ele>
        <time>2022-06-27T01:25:17.585Z</time>
      </trkpt>
      <trkpt lat="47.19582" lon="-1.31344">
        <ele>31.594893</ele>
        <time>2022-06-27T01:25:22.892Z</time>
      </trkpt>
      <trkpt lat="47.19524" lon="-1.31345">
        <ele>30.82735</ele>
        <time>2022-06-27T01:25:34.533Z</time>
      </trkpt>
      <trkpt lat="47.19527" lon="-1.31295">
        <ele>30.365</ele>
        <time>2022-06-27T01:25:46.256Z</time>
      </trkpt>
      <trkpt lat="47.19525" lon="-1.31223">
        <ele>29.602335</ele>
        <time>2022-06-27T01:26:02.879Z</time>
      </trkpt>
      <trkpt lat="47.19525" lon="-1.31223">
        <ele>29.597929</ele>
        <time>2022-06-27T01:26:02.963Z</time>
      </trkpt>
      <trkpt lat="47.19474" lon="-1.31026">
        <ele>27.279196</ele>
        <time>2022-06-27T01:26:50.117Z</time>
      </trkpt>
      <trkpt lat="47.19288" lon="-1.31108">
        <ele>24.50154</ele>
        <time>2022-06-27T01:27:27.765Z</time>
      </trkpt>
      <trkpt lat="47.19261" lon="-1.3111">
        <ele>24.743911</ele>
        <time>2022-06-27T01:27:34.338Z</time>
      </trkpt>
      <trkpt lat="47.192" lon="-1.31071">
        <ele>25.352619</ele>
        <time>2022-06-27T01:27:53.805Z</time>
      </trkpt>
      <trkpt lat="47.1917" lon="-1.31067">
        <ele>25.62465</ele>
        <time>2022-06-27T01:28:03.458Z</time>
      </trkpt>
      <trkpt lat="47.19156" lon="-1.3107">
        <ele>25.74889</ele>
        <time>2022-06-27T01:28:07.961Z</time>
      </trkpt>
      <trkpt lat="47.1911" lon="-1.31091">
        <ele>26.434483</ele>
        <time>2022-06-27T01:28:25.136Z</time>
      </trkpt>
      <trkpt lat="47.18972" lon="-1.31207">
        <ele>29.547264</ele>
        <time>2022-06-27T01:29:18.707Z</time>
      </trkpt>
      <trkpt lat="47.18948" lon="-1.31127">
        <ele>29.88351</ele>
        <time>2022-06-27T01:29:34.340Z</time>
      </trkpt>
      <trkpt lat="47.18904" lon="-1.30924">
        <ele>30.451203</ele>
        <time>2022-06-27T01:30:09.998Z</time>
      </trkpt>
      <trkpt lat="47.1889" lon="-1.30879">
        <ele>30.317653</ele>
        <time>2022-06-27T01:30:17.449Z</time>
      </trkpt>
      <trkpt lat="47.18849" lon="-1.3079">
        <ele>30.022404</ele>
        <time>2022-06-27T01:30:33.334Z</time>
      </trkpt>
      <trkpt lat="47.18803" lon="-1.30743">
        <ele>29.804936</ele>
        <time>2022-06-27T01:30:45.273Z</time>
      </trkpt>
      <trkpt lat="47.18779" lon="-1.30713">
        <ele>29.706524</ele>
        <time>2022-06-27T01:30:51.912Z</time>
      </trkpt>
      <trkpt lat="47.1875" lon="-1.30657">
        <ele>29.555869</ele>
        <time>2022-06-27T01:31:02.143Z</time>
      </trkpt>
      <trkpt lat="47.18733" lon="-1.30638">
        <ele>29.489696</ele>
        <time>2022-06-27T01:31:06.597Z</time>
      </trkpt>
      <trkpt lat="47.18597" lon="-1.30563">
        <ele>30.220913</ele>
        <time>2022-06-27T01:31:43.063Z</time>
      </trkpt>
      <trkpt lat="47.18588" lon="-1.30546">
        <ele>30.404682</ele>
        <time>2022-06-27T01:31:47.827Z</time>
      </trkpt>
      <trkpt lat="47.18538" lon="-1.30498">
        <ele>31.167608</ele>
        <time>2022-06-27T01:32:05.858Z</time>
      </trkpt>
      <trkpt lat="47.18525" lon="-1.30473">
        <ele>31.444876</ele>
        <time>2022-06-27T01:32:13.306Z</time>
      </trkpt>
      <trkpt lat="47.18509" lon="-1.30417">
        <ele>32.540631</ele>
        <time>2022-06-27T01:32:27.613Z</time>
      </trkpt>
      <trkpt lat="47.18492" lon="-1.30395">
        <ele>33.230122</ele>
        <time>2022-06-27T01:32:36.660Z</time>
      </trkpt>
      <trkpt lat="47.18389" lon="-1.30305">
        <ele>36.893929</ele>
        <time>2022-06-27T01:33:25.094Z</time>
      </trkpt>
      <trkpt lat="47.18288" lon="-1.30241">
        <ele>39.294469</ele>
        <time>2022-06-27T01:34:06.670Z</time>
      </trkpt>
      <trkpt lat="47.18261" lon="-1.30224">
        <ele>39.935714</ele>
        <time>2022-06-27T01:34:16.406Z</time>
      </trkpt>
      <trkpt lat="47.18161" lon="-1.30159">
        <ele>40.389336</ele>
        <time>2022-06-27T01:34:44.602Z</time>
      </trkpt>
      <trkpt lat="47.18043" lon="-1.30091">
        <ele>39.272357</ele>
        <time>2022-06-27T01:35:09.466Z</time>
      </trkpt>
      <trkpt lat="47.17996" lon="-1.30057">
        <ele>38.585785</ele>
        <time>2022-06-27T01:35:19.882Z</time>
      </trkpt>
      <trkpt lat="47.17984" lon="-1.30068">
        <ele>38.403275</ele>
        <time>2022-06-27T01:35:22.578Z</time>
      </trkpt>
      <trkpt lat="47.17932" lon="-1.30083">
        <ele>37.709646</ele>
        <time>2022-06-27T01:35:33.333Z</time>
      </trkpt>
      <trkpt lat="47.17851" lon="-1.30094">
        <ele>37.039627</ele>
        <time>2022-06-27T01:35:50.339Z</time>
      </trkpt>
      <trkpt lat="47.17799" lon="-1.30079">
        <ele>37.016916</ele>
        <time>2022-06-27T01:36:02.278Z</time>
      </trkpt>
      <trkpt lat="47.17688" lon="-1.30034">
        <ele>37.101393</ele>
        <time>2022-06-27T01:36:30.708Z</time>
      </trkpt>
      <trkpt lat="47.17611" lon="-1.3002">
        <ele>37.62111</ele>
        <time>2022-06-27T01:36:51.518Z</time>
      </trkpt>
      <trkpt lat="47.17576" lon="-1.3001">
        <ele>37.864702</ele>
        <time>2022-06-27T01:37:01.460Z</time>
      </trkpt>
      <trkpt lat="47.17523" lon="-1.29984">
        <ele>38.222976</ele>
        <time>2022-06-27T01:37:16.441Z</time>
      </trkpt>
      <trkpt lat="47.17507" lon="-1.2997">
        <ele>38.324711</ele>
        <time>2022-06-27T01:37:21.512Z</time>
      </trkpt>
      <trkpt lat="47.17465" lon="-1.29912">
        <ele>38.637059</ele>
        <time>2022-06-27T01:37:37.015Z</time>
      </trkpt>
      <trkpt lat="47.17369" lon="-1.29821">
        <ele>39.127232</ele>
        <time>2022-06-27T01:38:06.142Z</time>
      </trkpt>
      <trkpt lat="47.17279" lon="-1.29749">
        <ele>38.981212</ele>
        <time>2022-06-27T01:38:29.569Z</time>
      </trkpt>
      <trkpt lat="47.17225" lon="-1.29723">
        <ele>38.900106</ele>
        <time>2022-06-27T01:38:41.866Z</time>
      </trkpt>
      <trkpt lat="47.1712" lon="-1.29651">
        <ele>38.134605</ele>
        <time>2022-06-27T01:39:06.475Z</time>
      </trkpt>
      <trkpt lat="47.17022" lon="-1.29589">
        <ele>37.456968</ele>
        <time>2022-06-27T01:39:29.744Z</time>
      </trkpt>
      <trkpt lat="47.16961" lon="-1.29436">
        <ele>36.746709</ele>
        <time>2022-06-27T01:39:56.143Z</time>
      </trkpt>
      <trkpt lat="47.16954" lon="-1.29456">
        <ele>36.658358</ele>
        <time>2022-06-27T01:39:59.436Z</time>
      </trkpt>
      <trkpt lat="47.16923" lon="-1.29644">
        <ele>35.351274</ele>
        <time>2022-06-27T01:40:28.967Z</time>
      </trkpt>
      <trkpt lat="47.16895" lon="-1.29666">
        <ele>35.025899</ele>
        <time>2022-06-27T01:40:35.924Z</time>
      </trkpt>
      <trkpt lat="47.16884" lon="-1.29684">
        <ele>34.860984</ele>
        <time>2022-06-27T01:40:39.528Z</time>
      </trkpt>
      <trkpt lat="47.16834" lon="-1.29808">
        <ele>34.008499</ele>
        <time>2022-06-27T01:41:01.406Z</time>
      </trkpt>
      <trkpt lat="47.16818" lon="-1.2981">
        <ele>33.870321</ele>
        <time>2022-06-27T01:41:05.036Z</time>
      </trkpt>
      <trkpt lat="47.16775" lon="-1.29774">
        <ele>33.446113</ele>
        <time>2022-06-27T01:41:16.465Z</time>
      </trkpt>
      <trkpt lat="47.16744" lon="-1.29889">
        <ele>32.623124</ele>
        <time>2022-06-27T01:41:45.834Z</time>
      </trkpt>
      <trkpt lat="47.16708" lon="-1.29961">
        <ele>32.00787</ele>
        <time>2022-06-27T01:42:06.819Z</time>
      </trkpt>
      <trkpt lat="47.16672" lon="-1.30021">
        <ele>31.459709</ele>
        <time>2022-06-27T01:42:25.290Z</time>
      </trkpt>
      <trkpt lat="47.1658" lon="-1.30125">
        <ele>30.164537</ele>
        <time>2022-06-27T01:43:04.625Z</time>
      </trkpt>
      <trkpt lat="47.16567" lon="-1.30148">
        <ele>29.940306</ele>
        <time>2022-06-27T01:43:11.382Z</time>
      </trkpt>
      <trkpt lat="47.16506" lon="-1.30188">
        <ele>29.398593</ele>
        <time>2022-06-27T01:43:25.579Z</time>
      </trkpt>
      <trkpt lat="47.16415" lon="-1.30209">
        <ele>29.173483</ele>
        <time>2022-06-27T01:43:45.958Z</time>
      </trkpt>
      <trkpt lat="47.16314" lon="-1.30229">
        <ele>29.099908</ele>
        <time>2022-06-27T01:44:10.893Z</time>
      </trkpt>
      <trkpt lat="47.16255" lon="-1.30251">
        <ele>29.2334</ele>
        <time>2022-06-27T01:44:26.395Z</time>
      </trkpt>
      <trkpt lat="47.16175" lon="-1.30268">
        <ele>29.411405</ele>
        <time>2022-06-27T01:44:45.643Z</time>
      </trkpt>
      <trkpt lat="47.1615" lon="-1.30281">
        <ele>29.344712</ele>
        <time>2022-06-27T01:44:51.929Z</time>
      </trkpt>
      <trkpt lat="47.16123" lon="-1.30384">
        <ele>29.151797</ele>
        <time>2022-06-27T01:45:08.935Z</time>
      </trkpt>
      <trkpt lat="47.16082" lon="-1.30426">
        <ele>29.024153</ele>
        <time>2022-06-27T01:45:19.875Z</time>
      </trkpt>
      <trkpt lat="47.16035" lon="-1.30446">
        <ele>28.889794</ele>
        <time>2022-06-27T01:45:30.479Z</time>
      </trkpt>
      <trkpt lat="47.16026" lon="-1.30503">
        <ele>28.769348</ele>
        <time>2022-06-27T01:45:38.864Z</time>
      </trkpt>
      <trkpt lat="47.15946" lon="-1.30518">
        <ele>28.52617</ele>
        <time>2022-06-27T01:45:57.034Z</time>
      </trkpt>
      <trkpt lat="47.15819" lon="-1.30508">
        <ele>28.5082</ele>
        <time>2022-06-27T01:46:25.719Z</time>
      </trkpt>
      <trkpt lat="47.15771" lon="-1.30511">
        <ele>28.561599</ele>
        <time>2022-06-27T01:46:37.262Z</time>
      </trkpt>
      <trkpt lat="47.15713" lon="-1.30523">
        <ele>28.757698</ele>
        <time>2022-06-27T01:46:52.348Z</time>
      </trkpt>
      <trkpt lat="47.15607" lon="-1.30538">
        <ele>29.855305</ele>
        <time>2022-06-27T01:47:21.916Z</time>
      </trkpt>
      <trkpt lat="47.15558" lon="-1.30533">
        <ele>30.360779</ele>
        <time>2022-06-27T01:47:36.779Z</time>
      </trkpt>
      <trkpt lat="47.15456" lon="-1.3051">
        <ele>31.688152</ele>
        <time>2022-06-27T01:48:07.991Z</time>
      </trkpt>
      <trkpt lat="47.15407" lon="-1.30475">
        <ele>32.402941</ele>
        <time>2022-06-27T01:48:24.081Z</time>
      </trkpt>
      <trkpt lat="47.1536" lon="-1.30447">
        <ele>33.027363</ele>
        <time>2022-06-27T01:48:38.587Z</time>
      </trkpt>
      <trkpt lat="47.15348" lon="-1.30451">
        <ele>33.166784</ele>
        <time>2022-06-27T01:48:42.377Z</time>
      </trkpt>
      <trkpt lat="47.15282" lon="-1.30628">
        <ele>34.657011</ele>
        <time>2022-06-27T01:49:21.748Z</time>
      </trkpt>
      <trkpt lat="47.15228" lon="-1.30699">
        <ele>35.252703</ele>
        <time>2022-06-27T01:49:41.982Z</time>
      </trkpt>
      <trkpt lat="47.15205" lon="-1.30657">
        <ele>35.530625</ele>
        <time>2022-06-27T01:49:51.589Z</time>
      </trkpt>
      <trkpt lat="47.15158" lon="-1.30591">
        <ele>36.0257</ele>
        <time>2022-06-27T01:50:08.472Z</time>
      </trkpt>
      <trkpt lat="47.15033" lon="-1.30411">
        <ele>36.870681</ele>
        <time>2022-06-27T01:50:51.079Z</time>
      </trkpt>
      <trkpt lat="47.15014" lon="-1.30392">
        <ele>36.971589</ele>
        <time>2022-06-27T01:50:56.543Z</time>
      </trkpt>
      <trkpt lat="47.14961" lon="-1.30374">
        <ele>37.096209</ele>
        <time>2022-06-27T01:51:09.576Z</time>
      </trkpt>
      <trkpt lat="47.14951" lon="-1.30365">
        <ele>37.122547</ele>
        <time>2022-06-27T01:51:12.306Z</time>
      </trkpt>
      <trkpt lat="47.14877" lon="-1.30251">
        <ele>37.368608</ele>
        <time>2022-06-27T01:51:37.898Z</time>
      </trkpt>
      <trkpt lat="47.14794" lon="-1.3045">
        <ele>36.840816</ele>
        <time>2022-06-27T01:52:11.758Z</time>
      </trkpt>
      <trkpt lat="47.14727" lon="-1.30612">
        <ele>35.563865</ele>
        <time>2022-06-27T01:52:37.433Z</time>
      </trkpt>
      <trkpt lat="47.14647" lon="-1.30555">
        <ele>34.495093</ele>
        <time>2022-06-27T01:52:55.218Z</time>
      </trkpt>
      <trkpt lat="47.14633" lon="-1.30552">
        <ele>34.273785</ele>
        <time>2022-06-27T01:52:58.150Z</time>
      </trkpt>
      <trkpt lat="47.14493" lon="-1.30593">
        <ele>32.084275</ele>
        <time>2022-06-27T01:53:26.734Z</time>
      </trkpt>
      <trkpt lat="47.14463" lon="-1.30586">
        <ele>31.56927</ele>
        <time>2022-06-27T01:53:32.684Z</time>
      </trkpt>
      <trkpt lat="47.14393" lon="-1.3054">
        <ele>30.218213</ele>
        <time>2022-06-27T01:53:47.517Z</time>
      </trkpt>
      <trkpt lat="47.14286" lon="-1.30518">
        <ele>28.467017</ele>
        <time>2022-06-27T01:54:08.509Z</time>
      </trkpt>
      <trkpt lat="47.14145" lon="-1.30518">
        <ele>26.912062</ele>
        <time>2022-06-27T01:54:37.417Z</time>
      </trkpt>
      <trkpt lat="47.14044" lon="-1.30802">
        <ele>26.005993</ele>
        <time>2022-06-27T01:55:27.323Z</time>
      </trkpt>
      <trkpt lat="47.14024" lon="-1.30846">
        <ele>25.547752</ele>
        <time>2022-06-27T01:55:34.869Z</time>
      </trkpt>
      <trkpt lat="47.13946" lon="-1.30992">
        <ele>23.92075</ele>
        <time>2022-06-27T01:55:59.473Z</time>
      </trkpt>
      <trkpt lat="47.13945" lon="-1.30994">
        <ele>23.897066</ele>
        <time>2022-06-27T01:55:59.837Z</time>
      </trkpt>
      <trkpt lat="47.13845" lon="-1.30891">
        <ele>22.23973</ele>
        <time>2022-06-27T01:56:24.469Z</time>
      </trkpt>
      <trkpt lat="47.13833" lon="-1.30925">
        <ele>21.883366</ele>
        <time>2022-06-27T01:56:33.831Z</time>
      </trkpt>
      <trkpt lat="47.1382" lon="-1.30989">
        <ele>21.301603</ele>
        <time>2022-06-27T01:56:48.826Z</time>
      </trkpt>
      <trkpt lat="47.1381" lon="-1.31014">
        <ele>21.066068</ele>
        <time>2022-06-27T01:56:55.769Z</time>
      </trkpt>
      <trkpt lat="47.13808" lon="-1.31031">
        <ele>20.925736</ele>
        <time>2022-06-27T01:56:59.575Z</time>
      </trkpt>
      <trkpt lat="47.13816" lon="-1.31046">
        <ele>20.767251</ele>
        <time>2022-06-27T01:57:04.104Z</time>
      </trkpt>
      <trkpt lat="47.13789" lon="-1.31108">
        <ele>20.168436</ele>
        <time>2022-06-27T01:57:21.620Z</time>
      </trkpt>
      <trkpt lat="47.13759" lon="-1.31098">
        <ele>19.807445</ele>
        <time>2022-06-27T01:57:31.951Z</time>
      </trkpt>
      <trkpt lat="47.13741" lon="-1.31085">
        <ele>19.567281</ele>
        <time>2022-06-27T01:57:38.713Z</time>
      </trkpt>
      <trkpt lat="47.13691" lon="-1.31018">
        <ele>18.579597</ele>
        <time>2022-06-27T01:58:01.337Z</time>
      </trkpt>
      <trkpt lat="47.13663" lon="-1.30978">
        <ele>17.995457</ele>
        <time>2022-06-27T01:58:13.936Z</time>
      </trkpt>
      <trkpt lat="47.1365" lon="-1.30968">
        <ele>17.765317</ele>
        <time>2022-06-27T01:58:18.849Z</time>
      </trkpt>
      <trkpt lat="47.13557" lon="-1.30961">
        <ele>16.488033</ele>
        <time>2022-06-27T01:58:50.191Z</time>
      </trkpt>
      <trkpt lat="47.13512" lon="-1.30937">
        <ele>16.069725</ele>
        <time>2022-06-27T01:59:06.758Z</time>
      </trkpt>
      <trkpt lat="47.13494" lon="-1.31068">
        <ele>15.280714</ele>
        <time>2022-06-27T01:59:37.997Z</time>
      </trkpt>
      <trkpt lat="47.13487" lon="-1.31077">
        <ele>15.20214</ele>
        <time>2022-06-27T01:59:41.162Z</time>
      </trkpt>
      <trkpt lat="47.1345" lon="-1.31058">
        <ele>15.535754</ele>
        <time>2022-06-27T01:59:55.312Z</time>
      </trkpt>
      <trkpt lat="47.1341" lon="-1.31018">
        <ele>16.295896</ele>
        <time>2022-06-27T02:00:15.107Z</time>
      </trkpt>
      <trkpt lat="47.13331" lon="-1.31023">
        <ele>17.525094</ele>
        <time>2022-06-27T02:00:52.793Z</time>
      </trkpt>
      <trkpt lat="47.13314" lon="-1.31035">
        <ele>17.829235</ele>
        <time>2022-06-27T02:01:03.411Z</time>
      </trkpt>
      <trkpt lat="47.13302" lon="-1.3105">
        <ele>18.310025</ele>
        <time>2022-06-27T02:01:11.711Z</time>
      </trkpt>
      <trkpt lat="47.13282" lon="-1.31064">
        <ele>19.154589</ele>
        <time>2022-06-27T02:01:24.412Z</time>
      </trkpt>
      <trkpt lat="47.13251" lon="-1.31018">
        <ele>20.824201</ele>
        <time>2022-06-27T02:01:43.916Z</time>
      </trkpt>
      <trkpt lat="47.13233" lon="-1.31009">
        <ele>21.526664</ele>
        <time>2022-06-27T02:01:52.133Z</time>
      </trkpt>
      <trkpt lat="47.13152" lon="-1.31078">
        <ele>24.922356</ele>
        <time>2022-06-27T02:02:33.588Z</time>
      </trkpt>
      <trkpt lat="47.13149" lon="-1.3108">
        <ele>24.985716</ele>
        <time>2022-06-27T02:02:34.837Z</time>
      </trkpt>
      <trkpt lat="47.13083" lon="-1.31129">
        <ele>26.450676</ele>
        <time>2022-06-27T02:03:00.311Z</time>
      </trkpt>
      <trkpt lat="47.13125" lon="-1.31194">
        <ele>27.655828</ele>
        <time>2022-06-27T02:03:18.794Z</time>
      </trkpt>
      <trkpt lat="47.13148" lon="-1.31232">
        <ele>28.318549</ele>
        <time>2022-06-27T02:03:28.370Z</time>
      </trkpt>
      <trkpt lat="47.13176" lon="-1.31275">
        <ele>28.680181</ele>
        <time>2022-06-27T02:03:39.172Z</time>
      </trkpt>
      <trkpt lat="47.13191" lon="-1.31409">
        <ele>29.501345</ele>
        <time>2022-06-27T02:04:03.894Z</time>
      </trkpt>
      <trkpt lat="47.13201" lon="-1.31469">
        <ele>29.876402</ele>
        <time>2022-06-27T02:04:21.478Z</time>
      </trkpt>
      <trkpt lat="47.13202" lon="-1.31473">
        <ele>29.902293</ele>
        <time>2022-06-27T02:04:22.634Z</time>
      </trkpt>
      <trkpt lat="47.13232" lon="-1.31613">
        <ele>30.717587</ele>
        <time>2022-06-27T02:05:06.490Z</time>
      </trkpt>
      <trkpt lat="47.13247" lon="-1.31596">
        <ele>30.869275</ele>
        <time>2022-06-27T02:05:14.227Z</time>
      </trkpt>
      <trkpt lat="47.13291" lon="-1.31582">
        <ele>31.2329</ele>
        <time>2022-06-27T02:05:32.708Z</time>
      </trkpt>
      <trkpt lat="47.13303" lon="-1.31673">
        <ele>30.932946</ele>
        <time>2022-06-27T02:05:55.218Z</time>
      </trkpt>
      <trkpt lat="47.13303" lon="-1.31673">
        <ele>30.930829</ele>
        <time>2022-06-27T02:05:55.537Z</time>
      </trkpt>
      <trkpt lat="47.13306" lon="-1.3176">
        <ele>30.379078</ele>
        <time>2022-06-27T02:06:15.809Z</time>
      </trkpt>
      <trkpt lat="47.13312" lon="-1.31842">
        <ele>29.855101</ele>
        <time>2022-06-27T02:06:34.993Z</time>
      </trkpt>
      <trkpt lat="47.13355" lon="-1.32108">
        <ele>26.92234</ele>
        <time>2022-06-27T02:07:36.074Z</time>
      </trkpt>
      <trkpt lat="47.13376" lon="-1.32211">
        <ele>25.995559</ele>
        <time>2022-06-27T02:08:01.065Z</time>
      </trkpt>
      <trkpt lat="47.13392" lon="-1.32316">
        <ele>25.111711</ele>
        <time>2022-06-27T02:08:17.310Z</time>
      </trkpt>
      <trkpt lat="47.13398" lon="-1.32341">
        <ele>24.898904</ele>
        <time>2022-06-27T02:08:21.207Z</time>
      </trkpt>
      <trkpt lat="47.13418" lon="-1.32375">
        <ele>24.52091</ele>
        <time>2022-06-27T02:08:27.950Z</time>
      </trkpt>
      <trkpt lat="47.13505" lon="-1.32533">
        <ele>22.374255</ele>
        <time>2022-06-27T02:08:57.937Z</time>
      </trkpt>
      <trkpt lat="47.1351" lon="-1.32556">
        <ele>22.122836</ele>
        <time>2022-06-27T02:09:01.264Z</time>
      </trkpt>
      <trkpt lat="47.13497" lon="-1.32626">
        <ele>21.178352</ele>
        <time>2022-06-27T02:09:11.240Z</time>
      </trkpt>
      <trkpt lat="47.13497" lon="-1.32673">
        <ele>20.462171</ele>
        <time>2022-06-27T02:09:17.808Z</time>
      </trkpt>
      <trkpt lat="47.13519" lon="-1.32725">
        <ele>19.556174</ele>
        <time>2022-06-27T02:09:26.136Z</time>
      </trkpt>
      <trkpt lat="47.13581" lon="-1.32751">
        <ele>18.122195</ele>
        <time>2022-06-27T02:09:38.408Z</time>
      </trkpt>
      <trkpt lat="47.13649" lon="-1.32815">
        <ele>17.312395</ele>
        <time>2022-06-27T02:09:53.563Z</time>
      </trkpt>
      <trkpt lat="47.13678" lon="-1.32853">
        <ele>17.032558</ele>
        <time>2022-06-27T02:10:01.009Z</time>
      </trkpt>
      <trkpt lat="47.13728" lon="-1.32939">
        <ele>16.542444</ele>
        <time>2022-06-27T02:10:23.185Z</time>
      </trkpt>
      <trkpt lat="47.13706" lon="-1.3299">
        <ele>17.688505</ele>
        <time>2022-06-27T02:10:35.571Z</time>
      </trkpt>
      <trkpt lat="47.13702" lon="-1.33026">
        <ele>18.402387</ele>
        <time>2022-06-27T02:10:45.289Z</time>
      </trkpt>
      <trkpt lat="47.13692" lon="-1.33042">
        <ele>18.819404</ele>
        <time>2022-06-27T02:10:52.408Z</time>
      </trkpt>
      <trkpt lat="47.13682" lon="-1.33055">
        <ele>19.181541</ele>
        <time>2022-06-27T02:10:56.677Z</time>
      </trkpt>
      <trkpt lat="47.13689" lon="-1.3307">
        <ele>19.506198</ele>
        <time>2022-06-27T02:11:02.787Z</time>
      </trkpt>
      <trkpt lat="47.13704" lon="-1.33168">
        <ele>21.422854</ele>
        <time>2022-06-27T02:11:29.232Z</time>
      </trkpt>
      <trkpt lat="47.13704" lon="-1.332">
        <ele>21.971519</ele>
        <time>2022-06-27T02:11:37.204Z</time>
      </trkpt>
      <trkpt lat="47.13696" lon="-1.33227">
        <ele>22.462792</ele>
        <time>2022-06-27T02:11:47.637Z</time>
      </trkpt>
      <trkpt lat="47.1373" lon="-1.3328">
        <ele>23.670339</ele>
        <time>2022-06-27T02:12:05.715Z</time>
      </trkpt>
      <trkpt lat="47.13693" lon="-1.33321">
        <ele>24.796716</ele>
        <time>2022-06-27T02:12:20.236Z</time>
      </trkpt>
      <trkpt lat="47.13709" lon="-1.33351">
        <ele>25.426829</ele>
        <time>2022-06-27T02:12:27.852Z</time>
      </trkpt>
      <trkpt lat="47.13722" lon="-1.33376">
        <ele>25.930212</ele>
        <time>2022-06-27T02:12:35.028Z</time>
      </trkpt>
      <trkpt lat="47.13688" lon="-1.33427">
        <ele>26.403519</ele>
        <time>2022-06-27T02:12:50.654Z</time>
      </trkpt>
      <trkpt lat="47.13678" lon="-1.33486">
        <ele>26.806519</ele>
        <time>2022-06-27T02:13:04.747Z</time>
      </trkpt>
      <trkpt lat="47.13668" lon="-1.33519">
        <ele>27.049621</ele>
        <time>2022-06-27T02:13:15.189Z</time>
      </trkpt>
      <trkpt lat="47.13667" lon="-1.33638">
        <ele>27.666995</ele>
        <time>2022-06-27T02:13:48.436Z</time>
      </trkpt>
      <trkpt lat="47.13668" lon="-1.33701">
        <ele>27.623119</ele>
        <time>2022-06-27T02:14:02.808Z</time>
      </trkpt>
      <trkpt lat="47.13675" lon="-1.33761">
        <ele>27.580182</ele>
        <time>2022-06-27T02:14:15.416Z</time>
      </trkpt>
      <trkpt lat="47.13691" lon="-1.33768">
        <ele>27.563701</ele>
        <time>2022-06-27T02:14:20.026Z</time>
      </trkpt>
      <trkpt lat="47.13684" lon="-1.33801">
        <ele>27.539951</ele>
        <time>2022-06-27T02:14:24.940Z</time>
      </trkpt>
      <trkpt lat="47.13684" lon="-1.33822">
        <ele>27.525535</ele>
        <time>2022-06-27T02:14:28.052Z</time>
      </trkpt>
      <trkpt lat="47.13693" lon="-1.33882">
        <ele>26.953776</ele>
        <time>2022-06-27T02:14:37.005Z</time>
      </trkpt>
      <trkpt lat="47.13702" lon="-1.34014">
        <ele>23.873886</ele>
        <time>2022-06-27T02:14:53.624Z</time>
      </trkpt>
      <trkpt lat="47.13742" lon="-1.34074">
        <ele>21.929479</ele>
        <time>2022-06-27T02:15:03.092Z</time>
      </trkpt>
      <trkpt lat="47.13755" lon="-1.34107">
        <ele>20.920995</ele>
        <time>2022-06-27T02:15:07.198Z</time>
      </trkpt>
      <trkpt lat="47.13781" lon="-1.34138">
        <ele>19.192435</ele>
        <time>2022-06-27T02:15:12.810Z</time>
      </trkpt>
      <trkpt lat="47.13795" lon="-1.34157">
        <ele>18.230632</ele>
        <time>2022-06-27T02:15:15.967Z</time>
      </trkpt>
      <trkpt lat="47.13824" lon="-1.34187">
        <ele>16.46162</ele>
        <time>2022-06-27T02:15:21.732Z</time>
      </trkpt>
      <trkpt lat="47.13833" lon="-1.34201">
        <ele>15.760078</ele>
        <time>2022-06-27T02:15:23.952Z</time>
      </trkpt>
      <trkpt lat="47.13871" lon="-1.34307">
        <ele>12.065453</ele>
        <time>2022-06-27T02:15:37.429Z</time>
      </trkpt>
      <trkpt lat="47.13873" lon="-1.34326">
        <ele>11.841755</ele>
        <time>2022-06-27T02:15:39.797Z</time>
      </trkpt>
      <trkpt lat="47.13864" lon="-1.34417">
        <ele>10.764202</ele>
        <time>2022-06-27T02:15:51.657Z</time>
      </trkpt>
      <trkpt lat="47.13861" lon="-1.34441">
        <ele>10.468017</ele>
        <time>2022-06-27T02:15:55.446Z</time>
      </trkpt>
      <trkpt lat="47.13852" lon="-1.34506">
        <ele>9.695084</ele>
        <time>2022-06-27T02:16:05.196Z</time>
      </trkpt>
      <trkpt lat="47.13855" lon="-1.34527">
        <ele>9.441348</ele>
        <time>2022-06-27T02:16:08.327Z</time>
      </trkpt>
      <trkpt lat="47.13867" lon="-1.34555">
        <ele>9.179533</ele>
        <time>2022-06-27T02:16:13.429Z</time>
      </trkpt>
      <trkpt lat="47.1388" lon="-1.34597">
        <ele>9.232025</ele>
        <time>2022-06-27T02:16:20.516Z</time>
      </trkpt>
      <trkpt lat="47.13893" lon="-1.34738">
        <ele>9.394944</ele>
        <time>2022-06-27T02:16:45.565Z</time>
      </trkpt>
      <trkpt lat="47.13914" lon="-1.34876">
        <ele>9.439344</ele>
        <time>2022-06-27T02:17:07.814Z</time>
      </trkpt>
      <trkpt lat="47.13914" lon="-1.34919">
        <ele>9.420784</ele>
        <time>2022-06-27T02:17:14.950Z</time>
      </trkpt>
      <trkpt lat="47.13889" lon="-1.34925">
        <ele>9.404551</ele>
        <time>2022-06-27T02:17:20.816Z</time>
      </trkpt>
      <trkpt lat="47.13881" lon="-1.34949">
        <ele>9.393193</ele>
        <time>2022-06-27T02:17:24.922Z</time>
      </trkpt>
      <trkpt lat="47.13883" lon="-1.35021">
        <ele>9.362646</ele>
        <time>2022-06-27T02:17:42.873Z</time>
      </trkpt>
      <trkpt lat="47.13859" lon="-1.35114">
        <ele>9.291482</ele>
        <time>2022-06-27T02:18:07.090Z</time>
      </trkpt>
      <trkpt lat="47.13801" lon="-1.35284">
        <ele>9.240308</ele>
        <time>2022-06-27T02:18:54.592Z</time>
      </trkpt>
      <trkpt lat="47.13801" lon="-1.35284">
        <ele>9.241222</ele>
        <time>2022-06-27T02:18:54.624Z</time>
      </trkpt>
      <trkpt lat="47.13803" lon="-1.35313">
        <ele>9.390918</ele>
        <time>2022-06-27T02:18:59.753Z</time>
      </trkpt>
      <trkpt lat="47.13807" lon="-1.35319">
        <ele>9.434062</ele>
        <time>2022-06-27T02:19:01.230Z</time>
      </trkpt>
      <trkpt lat="47.13817" lon="-1.35335">
        <ele>9.545649</ele>
        <time>2022-06-27T02:19:05.052Z</time>
      </trkpt>
      <trkpt lat="47.13815" lon="-1.3536">
        <ele>9.674924</ele>
        <time>2022-06-27T02:19:09.480Z</time>
      </trkpt>
      <trkpt lat="47.1381" lon="-1.3536">
        <ele>9.712673</ele>
        <time>2022-06-27T02:19:10.774Z</time>
      </trkpt>
      <trkpt lat="47.13741" lon="-1.35365">
        <ele>10.234238</ele>
        <time>2022-06-27T02:19:28.639Z</time>
      </trkpt>
      <trkpt lat="47.13692" lon="-1.35368">
        <ele>10.69018</ele>
        <time>2022-06-27T02:19:41.321Z</time>
      </trkpt>
      <trkpt lat="47.13694" lon="-1.35359">
        <ele>10.787648</ele>
        <time>2022-06-27T02:19:42.986Z</time>
      </trkpt>
      <trkpt lat="47.13727" lon="-1.35325">
        <ele>11.397486</ele>
        <time>2022-06-27T02:19:53.409Z</time>
      </trkpt>
      <trkpt lat="47.13727" lon="-1.35325">
        <ele>11.401146</ele>
        <time>2022-06-27T02:19:53.480Z</time>
      </trkpt>
      <trkpt lat="47.13745" lon="-1.35327">
        <ele>11.673982</ele>
        <time>2022-06-27T02:19:59.361Z</time>
      </trkpt>
      <trkpt lat="47.13751" lon="-1.3538">
        <ele>12.22761</ele>
        <time>2022-06-27T02:20:16.461Z</time>
      </trkpt>
      <trkpt lat="47.13775" lon="-1.35449">
        <ele>13.022173</ele>
        <time>2022-06-27T02:20:39.923Z</time>
      </trkpt>
      <trkpt lat="47.13769" lon="-1.35457">
        <ele>13.147262</ele>
        <time>2022-06-27T02:20:50.101Z</time>
      </trkpt>
      <trkpt lat="47.13732" lon="-1.35481">
        <ele>13.375701</ele>
        <time>2022-06-27T02:21:06.645Z</time>
      </trkpt>
      <trkpt lat="47.13659" lon="-1.35505">
        <ele>13.673456</ele>
        <time>2022-06-27T02:21:38.645Z</time>
      </trkpt>
      <trkpt lat="47.13717" lon="-1.35793">
        <ele>12.454363</ele>
        <time>2022-06-27T02:22:50.287Z</time>
      </trkpt>
      <trkpt lat="47.13715" lon="-1.35886">
        <ele>11.6512</ele>
        <time>2022-06-27T02:23:10.737Z</time>
      </trkpt>
      <trkpt lat="47.13706" lon="-1.36012">
        <ele>10.243022</ele>
        <time>2022-06-27T02:23:38.690Z</time>
      </trkpt>
      <trkpt lat="47.13724" lon="-1.36021">
        <ele>9.920662</ele>
        <time>2022-06-27T02:23:45.236Z</time>
      </trkpt>
      <trkpt lat="47.13752" lon="-1.36023">
        <ele>9.469657</ele>
        <time>2022-06-27T02:23:54.337Z</time>
      </trkpt>
      <trkpt lat="47.13738" lon="-1.36227">
        <ele>8.780921</ele>
        <time>2022-06-27T02:24:43.481Z</time>
      </trkpt>
      <trkpt lat="47.13727" lon="-1.36284">
        <ele>8.710227</ele>
        <time>2022-06-27T02:24:59.719Z</time>
      </trkpt>
      <trkpt lat="47.13718" lon="-1.36344">
        <ele>8.910995</ele>
        <time>2022-06-27T02:25:16.577Z</time>
      </trkpt>
      <trkpt lat="47.13727" lon="-1.36284">
        <ele>9.824917</ele>
        <time>2022-06-27T02:25:34.171Z</time>
      </trkpt>
      <trkpt lat="47.13668" lon="-1.36263">
        <ele>11.139544</ele>
        <time>2022-06-27T02:26:02.041Z</time>
      </trkpt>
      <trkpt lat="47.13658" lon="-1.36266">
        <ele>11.381292</ele>
        <time>2022-06-27T02:26:07.470Z</time>
      </trkpt>
      <trkpt lat="47.1363" lon="-1.36317">
        <ele>12.347297</ele>
        <time>2022-06-27T02:26:30.721Z</time>
      </trkpt>
      <trkpt lat="47.13613" lon="-1.36336">
        <ele>12.961527</ele>
        <time>2022-06-27T02:26:42.581Z</time>
      </trkpt>
      <trkpt lat="47.13599" lon="-1.3634">
        <ele>13.49839</ele>
        <time>2022-06-27T02:26:51.473Z</time>
      </trkpt>
      <trkpt lat="47.13617" lon="-1.36453">
        <ele>16.471814</ele>
        <time>2022-06-27T02:27:38.527Z</time>
      </trkpt>
      <trkpt lat="47.13604" lon="-1.36495">
        <ele>17.647747</ele>
        <time>2022-06-27T02:27:56.573Z</time>
      </trkpt>
      <trkpt lat="47.13594" lon="-1.36496">
        <ele>18.005661</ele>
        <time>2022-06-27T02:28:02.078Z</time>
      </trkpt>
      <trkpt lat="47.13603" lon="-1.36549">
        <ele>19.364887</ele>
        <time>2022-06-27T02:28:21.926Z</time>
      </trkpt>
      <trkpt lat="47.13659" lon="-1.3667">
        <ele>20.337522</ele>
        <time>2022-06-27T02:29:07.261Z</time>
      </trkpt>
      <trkpt lat="47.13674" lon="-1.36692">
        <ele>20.542312</ele>
        <time>2022-06-27T02:29:15.263Z</time>
      </trkpt>
      <trkpt lat="47.13712" lon="-1.36722">
        <ele>20.968985</ele>
        <time>2022-06-27T02:29:30.929Z</time>
      </trkpt>
      <trkpt lat="47.13735" lon="-1.3675">
        <ele>20.994665</ele>
        <time>2022-06-27T02:29:41.213Z</time>
      </trkpt>
      <trkpt lat="47.13761" lon="-1.36767">
        <ele>20.754508</ele>
        <time>2022-06-27T02:29:50.985Z</time>
      </trkpt>
      <trkpt lat="47.13796" lon="-1.36802">
        <ele>20.396559</ele>
        <time>2022-06-27T02:30:05.436Z</time>
      </trkpt>
      <trkpt lat="47.13832" lon="-1.36856">
        <ele>19.965375</ele>
        <time>2022-06-27T02:30:23.358Z</time>
      </trkpt>
      <trkpt lat="47.13875" lon="-1.36991">
        <ele>18.915817</ele>
        <time>2022-06-27T02:30:59.045Z</time>
      </trkpt>
      <trkpt lat="47.13916" lon="-1.37062">
        <ele>18.173236</ele>
        <time>2022-06-27T02:31:20.924Z</time>
      </trkpt>
      <trkpt lat="47.1395" lon="-1.37136">
        <ele>17.431984</ele>
        <time>2022-06-27T02:31:41.062Z</time>
      </trkpt>
      <trkpt lat="47.13961" lon="-1.37181">
        <ele>16.713063</ele>
        <time>2022-06-27T02:31:51.662Z</time>
      </trkpt>
      <trkpt lat="47.13961" lon="-1.37214">
        <ele>16.223832</ele>
        <time>2022-06-27T02:31:58.839Z</time>
      </trkpt>
      <trkpt lat="47.13967" lon="-1.37243">
        <ele>15.76334</ele>
        <time>2022-06-27T02:32:05.592Z</time>
      </trkpt>
      <trkpt lat="47.13991" lon="-1.37247">
        <ele>15.238113</ele>
        <time>2022-06-27T02:32:10.003Z</time>
      </trkpt>
      <trkpt lat="47.14023" lon="-1.37282">
        <ele>14.364396</ele>
        <time>2022-06-27T02:32:17.383Z</time>
      </trkpt>
      <trkpt lat="47.14034" lon="-1.37286">
        <ele>14.116538</ele>
        <time>2022-06-27T02:32:19.496Z</time>
      </trkpt>
      <trkpt lat="47.14197" lon="-1.37282">
        <ele>10.713849</ele>
        <time>2022-06-27T02:32:50.281Z</time>
      </trkpt>
      <trkpt lat="47.14235" lon="-1.37294">
        <ele>9.911243</ele>
        <time>2022-06-27T02:33:03.155Z</time>
      </trkpt>
      <trkpt lat="47.14294" lon="-1.37351">
        <ele>9.230942</ele>
        <time>2022-06-27T02:33:27.099Z</time>
      </trkpt>
      <trkpt lat="47.14313" lon="-1.37378">
        <ele>8.995795</ele>
        <time>2022-06-27T02:33:36.398Z</time>
      </trkpt>
      <trkpt lat="47.14336" lon="-1.37451">
        <ele>8.515419</ele>
        <time>2022-06-27T02:33:55.808Z</time>
      </trkpt>
      <trkpt lat="47.14366" lon="-1.37589">
        <ele>8.396403</ele>
        <time>2022-06-27T02:34:31.336Z</time>
      </trkpt>
      <trkpt lat="47.14386" lon="-1.37645">
        <ele>8.505885</ele>
        <time>2022-06-27T02:34:47.684Z</time>
      </trkpt>
      <trkpt lat="47.14426" lon="-1.378">
        <ele>9.239471</ele>
        <time>2022-06-27T02:35:34.548Z</time>
      </trkpt>
      <trkpt lat="47.14426" lon="-1.378">
        <ele>9.241267</ele>
        <time>2022-06-27T02:35:34.714Z</time>
      </trkpt>
      <trkpt lat="47.14429" lon="-1.37838">
        <ele>9.582977</ele>
        <time>2022-06-27T02:35:45.876Z</time>
      </trkpt>
      <trkpt lat="47.14474" lon="-1.37997">
        <ele>11.114457</ele>
        <time>2022-06-27T02:36:38.131Z</time>
      </trkpt>
      <trkpt lat="47.14473" lon="-1.38027">
        <ele>11.31193</ele>
        <time>2022-06-27T02:36:47.300Z</time>
      </trkpt>
      <trkpt lat="47.14462" lon="-1.38052">
        <ele>11.506523</ele>
        <time>2022-06-27T02:36:56.126Z</time>
      </trkpt>
      <trkpt lat="47.1443" lon="-1.38091">
        <ele>11.909407</ele>
        <time>2022-06-27T02:37:13.826Z</time>
      </trkpt>
      <trkpt lat="47.1441" lon="-1.38128">
        <ele>12.222031</ele>
        <time>2022-06-27T02:37:27.358Z</time>
      </trkpt>
      <trkpt lat="47.14382" lon="-1.38164">
        <ele>12.581056</ele>
        <time>2022-06-27T02:37:42.312Z</time>
      </trkpt>
      <trkpt lat="47.14358" lon="-1.38229">
        <ele>12.878343</ele>
        <time>2022-06-27T02:38:02.098Z</time>
      </trkpt>
      <trkpt lat="47.14321" lon="-1.38356">
        <ele>13.126354</ele>
        <time>2022-06-27T02:38:37.394Z</time>
      </trkpt>
      <trkpt lat="47.143" lon="-1.38459">
        <ele>13.371492</ele>
        <time>2022-06-27T02:39:05.237Z</time>
      </trkpt>
      <trkpt lat="47.14284" lon="-1.38501">
        <ele>13.576334</ele>
        <time>2022-06-27T02:39:18.763Z</time>
      </trkpt>
      <trkpt lat="47.14247" lon="-1.38532">
        <ele>13.836418</ele>
        <time>2022-06-27T02:39:35.363Z</time>
      </trkpt>
      <trkpt lat="47.1422" lon="-1.38539">
        <ele>14.005102</ele>
        <time>2022-06-27T02:39:46.168Z</time>
      </trkpt>
      <trkpt lat="47.14208" lon="-1.3856">
        <ele>14.123417</ele>
        <time>2022-06-27T02:39:51.103Z</time>
      </trkpt>
      <trkpt lat="47.14178" lon="-1.38598">
        <ele>14.366773</ele>
        <time>2022-06-27T02:40:07.496Z</time>
      </trkpt>
      <trkpt lat="47.14151" lon="-1.38699">
        <ele>15.365605</ele>
        <time>2022-06-27T02:40:39.095Z</time>
      </trkpt>
      <trkpt lat="47.14151" lon="-1.38738">
        <ele>15.73228</ele>
        <time>2022-06-27T02:40:50.359Z</time>
      </trkpt>
      <trkpt lat="47.14154" lon="-1.38769">
        <ele>16.037342</ele>
        <time>2022-06-27T02:41:00.170Z</time>
      </trkpt>
      <trkpt lat="47.14163" lon="-1.38789">
        <ele>16.255748</ele>
        <time>2022-06-27T02:41:07.183Z</time>
      </trkpt>
      <trkpt lat="47.14187" lon="-1.38809">
        <ele>16.653743</ele>
        <time>2022-06-27T02:41:20.269Z</time>
      </trkpt>
      <trkpt lat="47.14186" lon="-1.38857">
        <ele>17.040952</ele>
        <time>2022-06-27T02:41:35.293Z</time>
      </trkpt>
      <trkpt lat="47.14182" lon="-1.38887">
        <ele>17.237401</ele>
        <time>2022-06-27T02:41:45.944Z</time>
      </trkpt>
      <trkpt lat="47.14158" lon="-1.38946">
        <ele>17.677115</ele>
        <time>2022-06-27T02:42:06.543Z</time>
      </trkpt>
      <trkpt lat="47.14148" lon="-1.3896">
        <ele>17.811489</ele>
        <time>2022-06-27T02:42:11.494Z</time>
      </trkpt>
      <trkpt lat="47.14142" lon="-1.38958">
        <ele>17.863495</ele>
        <time>2022-06-27T02:42:16.252Z</time>
      </trkpt>
      <trkpt lat="47.14139" lon="-1.38963">
        <ele>17.909207</ele>
        <time>2022-06-27T02:42:17.883Z</time>
      </trkpt>
      <trkpt lat="47.14144" lon="-1.38977">
        <ele>18.013009</ele>
        <time>2022-06-27T02:42:21.590Z</time>
      </trkpt>
      <trkpt lat="47.14208" lon="-1.39081">
        <ele>18.021737</ele>
        <time>2022-06-27T02:42:58.573Z</time>
      </trkpt>
      <trkpt lat="47.14244" lon="-1.39127">
        <ele>17.189726</ele>
        <time>2022-06-27T02:43:14.671Z</time>
      </trkpt>
      <trkpt lat="47.14322" lon="-1.39266">
        <ele>15.146663</ele>
        <time>2022-06-27T02:43:52.940Z</time>
      </trkpt>
      <trkpt lat="47.14322" lon="-1.39266">
        <ele>15.142281</ele>
        <time>2022-06-27T02:43:53.029Z</time>
      </trkpt>
      <trkpt lat="47.14321" lon="-1.39281">
        <ele>15.011724</ele>
        <time>2022-06-27T02:43:56.385Z</time>
      </trkpt>
      <trkpt lat="47.14313" lon="-1.39295">
        <ele>14.846252</ele>
        <time>2022-06-27T02:44:00.683Z</time>
      </trkpt>
      <trkpt lat="47.14313" lon="-1.39308">
        <ele>14.736507</ele>
        <time>2022-06-27T02:44:03.288Z</time>
      </trkpt>
      <trkpt lat="47.14319" lon="-1.39356">
        <ele>14.304128</ele>
        <time>2022-06-27T02:44:14.240Z</time>
      </trkpt>
      <trkpt lat="47.14312" lon="-1.39451">
        <ele>13.458055</ele>
        <time>2022-06-27T02:44:36.757Z</time>
      </trkpt>
      <trkpt lat="47.14304" lon="-1.39522">
        <ele>13.820712</ele>
        <time>2022-06-27T02:44:54.684Z</time>
      </trkpt>
      <trkpt lat="47.14292" lon="-1.39576">
        <ele>15.073034</ele>
        <time>2022-06-27T02:45:13.166Z</time>
      </trkpt>
      <trkpt lat="47.14287" lon="-1.3958">
        <ele>15.259711</ele>
        <time>2022-06-27T02:45:16.319Z</time>
      </trkpt>
      <trkpt lat="47.14281" lon="-1.39572">
        <ele>15.518132</ele>
        <time>2022-06-27T02:45:19.505Z</time>
      </trkpt>
      <trkpt lat="47.14267" lon="-1.39557">
        <ele>16.0771</ele>
        <time>2022-06-27T02:45:26.353Z</time>
      </trkpt>
      <trkpt lat="47.1424" lon="-1.39616">
        <ele>17.634122</ele>
        <time>2022-06-27T02:45:54.504Z</time>
      </trkpt>
      <trkpt lat="47.14158" lon="-1.39634">
        <ele>21.203669</ele>
        <time>2022-06-27T02:46:48.604Z</time>
      </trkpt>
      <trkpt lat="47.1411" lon="-1.39654">
        <ele>23.825609</ele>
        <time>2022-06-27T02:47:15.711Z</time>
      </trkpt>
      <trkpt lat="47.14074" lon="-1.39694">
        <ele>26.193866</ele>
        <time>2022-06-27T02:47:38.843Z</time>
      </trkpt>
      <trkpt lat="47.14031" lon="-1.39726">
        <ele>28.511267</ele>
        <time>2022-06-27T02:48:00.824Z</time>
      </trkpt>
      <trkpt lat="47.14027" lon="-1.39732">
        <ele>28.65102</ele>
        <time>2022-06-27T02:48:03.361Z</time>
      </trkpt>
      <trkpt lat="47.14024" lon="-1.39744">
        <ele>28.853701</ele>
        <time>2022-06-27T02:48:06.942Z</time>
      </trkpt>
      <trkpt lat="47.14022" lon="-1.39759">
        <ele>29.091132</ele>
        <time>2022-06-27T02:48:10.895Z</time>
      </trkpt>
      <trkpt lat="47.14018" lon="-1.39769">
        <ele>29.279585</ele>
        <time>2022-06-27T02:48:13.944Z</time>
      </trkpt>
      <trkpt lat="47.14009" lon="-1.39787">
        <ele>29.634141</ele>
        <time>2022-06-27T02:48:19.514Z</time>
      </trkpt>
      <trkpt lat="47.13955" lon="-1.39793">
        <ele>30.89823</ele>
        <time>2022-06-27T02:48:37.189Z</time>
      </trkpt>
      <trkpt lat="47.13935" lon="-1.39793">
        <ele>31.371501</ele>
        <time>2022-06-27T02:48:43.310Z</time>
      </trkpt>
      <trkpt lat="47.13895" lon="-1.39805">
        <ele>32.33026</ele>
        <time>2022-06-27T02:48:55.503Z</time>
      </trkpt>
      <trkpt lat="47.13895" lon="-1.39796">
        <ele>32.482311</ele>
        <time>2022-06-27T02:48:57.415Z</time>
      </trkpt>
      <trkpt lat="47.13866" lon="-1.39783">
        <ele>33.07656</ele>
        <time>2022-06-27T02:49:06.346Z</time>
      </trkpt>
      <trkpt lat="47.1385" lon="-1.39868">
        <ele>34.227526</ele>
        <time>2022-06-27T02:49:32.915Z</time>
      </trkpt>
      <trkpt lat="47.13843" lon="-1.40018">
        <ele>36.199113</ele>
        <time>2022-06-27T02:50:23.036Z</time>
      </trkpt>
      <trkpt lat="47.13824" lon="-1.40258">
        <ele>39.61583</ele>
        <time>2022-06-27T02:51:44.359Z</time>
      </trkpt>
      <trkpt lat="47.13825" lon="-1.40464">
        <ele>39.047641</ele>
        <time>2022-06-27T02:52:35.204Z</time>
      </trkpt>
      <trkpt lat="47.13821" lon="-1.40548">
        <ele>38.557254</ele>
        <time>2022-06-27T02:52:53.778Z</time>
      </trkpt>
      <trkpt lat="47.13809" lon="-1.40611">
        <ele>37.596725</ele>
        <time>2022-06-27T02:53:08.001Z</time>
      </trkpt>
      <trkpt lat="47.13801" lon="-1.40695">
        <ele>36.336742</ele>
        <time>2022-06-27T02:53:26.502Z</time>
      </trkpt>
      <trkpt lat="47.13814" lon="-1.40701">
        <ele>36.022548</ele>
        <time>2022-06-27T02:53:29.257Z</time>
      </trkpt>
      <trkpt lat="47.13834" lon="-1.40745">
        <ele>35.247194</ele>
        <time>2022-06-27T02:53:36.032Z</time>
      </trkpt>
      <trkpt lat="47.13863" lon="-1.40853">
        <ele>33.426544</ele>
        <time>2022-06-27T02:53:51.023Z</time>
      </trkpt>
      <trkpt lat="47.13906" lon="-1.40927">
        <ele>31.891733</ele>
        <time>2022-06-27T02:54:03.473Z</time>
      </trkpt>
      <trkpt lat="47.13983" lon="-1.41124">
        <ele>28.721778</ele>
        <time>2022-06-27T02:54:32.184Z</time>
      </trkpt>
      <trkpt lat="47.13983" lon="-1.41124">
        <ele>28.718546</ele>
        <time>2022-06-27T02:54:32.208Z</time>
      </trkpt>
      <trkpt lat="47.13997" lon="-1.41138">
        <ele>28.392845</ele>
        <time>2022-06-27T02:54:35.452Z</time>
      </trkpt>
      <trkpt lat="47.14041" lon="-1.41156">
        <ele>27.513731</ele>
        <time>2022-06-27T02:54:44.609Z</time>
      </trkpt>
      <trkpt lat="47.14117" lon="-1.41215">
        <ele>28.986275</ele>
        <time>2022-06-27T02:55:05.466Z</time>
      </trkpt>
      <trkpt lat="47.14152" lon="-1.41248">
        <ele>29.974122</ele>
        <time>2022-06-27T02:55:20.651Z</time>
      </trkpt>
      <trkpt lat="47.14174" lon="-1.41283">
        <ele>30.738197</ele>
        <time>2022-06-27T02:55:34.391Z</time>
      </trkpt>
      <trkpt lat="47.14212" lon="-1.4137">
        <ele>33.207387</ele>
        <time>2022-06-27T02:56:08.553Z</time>
      </trkpt>
      <trkpt lat="47.14229" lon="-1.41412">
        <ele>34.73087</ele>
        <time>2022-06-27T02:56:26.162Z</time>
      </trkpt>
      <trkpt lat="47.14272" lon="-1.41539">
        <ele>39.110033</ele>
        <time>2022-06-27T02:57:11.213Z</time>
      </trkpt>
      <trkpt lat="47.1429" lon="-1.41598">
        <ele>38.799582</ele>
        <time>2022-06-27T02:57:26.214Z</time>
      </trkpt>
      <trkpt lat="47.14276" lon="-1.4161">
        <ele>38.334218</ele>
        <time>2022-06-27T02:57:30.351Z</time>
      </trkpt>
      <trkpt lat="47.14249" lon="-1.41632">
        <ele>37.437831</ele>
        <time>2022-06-27T02:57:38.864Z</time>
      </trkpt>
      <trkpt lat="47.14232" lon="-1.41645">
        <ele>36.894268</ele>
        <time>2022-06-27T02:57:43.479Z</time>
      </trkpt>
      <trkpt lat="47.14201" lon="-1.4167">
        <ele>35.874015</ele>
        <time>2022-06-27T02:57:49.171Z</time>
      </trkpt>
      <trkpt lat="47.14198" lon="-1.41692">
        <ele>35.438404</ele>
        <time>2022-06-27T02:57:51.457Z</time>
      </trkpt>
      <trkpt lat="47.14202" lon="-1.41704">
        <ele>35.180291</ele>
        <time>2022-06-27T02:57:52.766Z</time>
      </trkpt>
      <trkpt lat="47.14176" lon="-1.41723">
        <ele>33.964762</ele>
        <time>2022-06-27T02:57:56.976Z</time>
      </trkpt>
      <trkpt lat="47.14128" lon="-1.41764">
        <ele>29.101678</ele>
        <time>2022-06-27T02:58:04.780Z</time>
      </trkpt>
      <trkpt lat="47.14042" lon="-1.4184">
        <ele>20.242045</ele>
        <time>2022-06-27T02:58:19.160Z</time>
      </trkpt>
      <trkpt lat="47.14019" lon="-1.41846">
        <ele>18.445887</ele>
        <time>2022-06-27T02:58:22.692Z</time>
      </trkpt>
      <trkpt lat="47.14003" lon="-1.41843">
        <ele>17.890375</ele>
        <time>2022-06-27T02:58:24.979Z</time>
      </trkpt>
      <trkpt lat="47.13942" lon="-1.41807">
        <ele>15.523218</ele>
        <time>2022-06-27T02:58:35.215Z</time>
      </trkpt>
      <trkpt lat="47.13934" lon="-1.41795">
        <ele>15.098175</ele>
        <time>2022-06-27T02:58:38.063Z</time>
      </trkpt>
      <trkpt lat="47.13931" lon="-1.41791">
        <ele>14.949082</ele>
        <time>2022-06-27T02:58:39.100Z</time>
      </trkpt>
      <trkpt lat="47.13918" lon="-1.418">
        <ele>14.448889</ele>
        <time>2022-06-27T02:58:43.475Z</time>
      </trkpt>
      <trkpt lat="47.13867" lon="-1.41781">
        <ele>12.580524</ele>
        <time>2022-06-27T02:59:02.171Z</time>
      </trkpt>
      <trkpt lat="47.1382" lon="-1.41739">
        <ele>12.625801</ele>
        <time>2022-06-27T02:59:24.834Z</time>
      </trkpt>
      <trkpt lat="47.13765" lon="-1.41704">
        <ele>13.220426</ele>
        <time>2022-06-27T02:59:50.559Z</time>
      </trkpt>
      <trkpt lat="47.13705" lon="-1.41631">
        <ele>13.988942</ele>
        <time>2022-06-27T03:00:24.873Z</time>
      </trkpt>
      <trkpt lat="47.13661" lon="-1.41553">
        <ele>14.535353</ele>
        <time>2022-06-27T03:00:54.827Z</time>
      </trkpt>
      <trkpt lat="47.13645" lon="-1.41533">
        <ele>14.699635</ele>
        <time>2022-06-27T03:01:03.539Z</time>
      </trkpt>
      <trkpt lat="47.13615" lon="-1.41514">
        <ele>14.956075</ele>
        <time>2022-06-27T03:01:16.696Z</time>
      </trkpt>
      <trkpt lat="47.13582" lon="-1.41507">
        <ele>15.216439</ele>
        <time>2022-06-27T03:01:29.485Z</time>
      </trkpt>
      <trkpt lat="47.13545" lon="-1.41477">
        <ele>15.369648</ele>
        <time>2022-06-27T03:01:45.350Z</time>
      </trkpt>
      <trkpt lat="47.13448" lon="-1.41448">
        <ele>15.286163</ele>
        <time>2022-06-27T03:02:22.012Z</time>
      </trkpt>
      <trkpt lat="47.13384" lon="-1.41408">
        <ele>15.227065</ele>
        <time>2022-06-27T03:02:47.182Z</time>
      </trkpt>
      <trkpt lat="47.13354" lon="-1.41373">
        <ele>15.189463</ele>
        <time>2022-06-27T03:03:01.255Z</time>
      </trkpt>
      <trkpt lat="47.13257" lon="-1.41298">
        <ele>15.083297</ele>
        <time>2022-06-27T03:03:41.675Z</time>
      </trkpt>
      <trkpt lat="47.13226" lon="-1.41294">
        <ele>15.143157</ele>
        <time>2022-06-27T03:03:53.008Z</time>
      </trkpt>
      <trkpt lat="47.13205" lon="-1.4128">
        <ele>15.354614</ele>
        <time>2022-06-27T03:04:01.344Z</time>
      </trkpt>
      <trkpt lat="47.13047" lon="-1.41265">
        <ele>17.085599</ele>
        <time>2022-06-27T03:05:07.534Z</time>
      </trkpt>
      <trkpt lat="47.1299" lon="-1.41247">
        <ele>19.134754</ele>
        <time>2022-06-27T03:05:38.544Z</time>
      </trkpt>
      <trkpt lat="47.12975" lon="-1.41234">
        <ele>19.743427</ele>
        <time>2022-06-27T03:05:48.492Z</time>
      </trkpt>
      <trkpt lat="47.12934" lon="-1.41211">
        <ele>21.285549</ele>
        <time>2022-06-27T03:06:13.810Z</time>
      </trkpt>
      <trkpt lat="47.12838" lon="-1.41219">
        <ele>24.364666</ele>
        <time>2022-06-27T03:07:11.872Z</time>
      </trkpt>
      <trkpt lat="47.12728" lon="-1.41266">
        <ele>27.578879</ele>
        <time>2022-06-27T03:08:09.107Z</time>
      </trkpt>
      <trkpt lat="47.12728" lon="-1.41266">
        <ele>27.578879</ele>
        <time>2022-06-27T03:08:09.112Z</time>
      </trkpt>
      <trkpt lat="47.12684" lon="-1.41299">
        <ele>28.67467</ele>
        <time>2022-06-27T03:08:28.978Z</time>
      </trkpt>
      <trkpt lat="47.12635" lon="-1.41324">
        <ele>29.634318</ele>
        <time>2022-06-27T03:08:49.918Z</time>
      </trkpt>
      <trkpt lat="47.12559" lon="-1.41398">
        <ele>31.304179</ele>
        <time>2022-06-27T03:09:32.982Z</time>
      </trkpt>
      <trkpt lat="47.12528" lon="-1.41415">
        <ele>32.620699</ele>
        <time>2022-06-27T03:09:51.536Z</time>
      </trkpt>
      <trkpt lat="47.12558" lon="-1.41365">
        <ele>34.625584</ele>
        <time>2022-06-27T03:10:11.724Z</time>
      </trkpt>
      <trkpt lat="47.12546" lon="-1.41346">
        <ele>35.409396</ele>
        <time>2022-06-27T03:10:23.549Z</time>
      </trkpt>
      <trkpt lat="47.12465" lon="-1.41286">
        <ele>39.401229</ele>
        <time>2022-06-27T03:11:19.581Z</time>
      </trkpt>
      <trkpt lat="47.12421" lon="-1.41262">
        <ele>40.750409</ele>
        <time>2022-06-27T03:11:47.917Z</time>
      </trkpt>
      <trkpt lat="47.12415" lon="-1.41258">
        <ele>40.954035</ele>
        <time>2022-06-27T03:11:52.108Z</time>
      </trkpt>
      <trkpt lat="47.124" lon="-1.41266">
        <ele>41.423426</ele>
        <time>2022-06-27T03:12:00.568Z</time>
      </trkpt>
      <trkpt lat="47.12455" lon="-1.41371">
        <ele>44.008978</ele>
        <time>2022-06-27T03:12:43.740Z</time>
      </trkpt>
      <trkpt lat="47.12449" lon="-1.41411">
        <ele>44.674578</ele>
        <time>2022-06-27T03:12:55.701Z</time>
      </trkpt>
      <trkpt lat="47.12437" lon="-1.41428">
        <ele>44.879899</ele>
        <time>2022-06-27T03:13:02.396Z</time>
      </trkpt>
      <trkpt lat="47.12389" lon="-1.41467">
        <ele>45.540154</ele>
        <time>2022-06-27T03:13:26.498Z</time>
      </trkpt>
      <trkpt lat="47.12389" lon="-1.41467">
        <ele>45.541616</ele>
        <time>2022-06-27T03:13:26.519Z</time>
      </trkpt>
      <trkpt lat="47.1235" lon="-1.41523">
        <ele>46.204486</ele>
        <time>2022-06-27T03:13:49.291Z</time>
      </trkpt>
      <trkpt lat="47.12319" lon="-1.41555">
        <ele>46.657026</ele>
        <time>2022-06-27T03:14:05.291Z</time>
      </trkpt>
      <trkpt lat="47.12315" lon="-1.41566">
        <ele>46.754222</ele>
        <time>2022-06-27T03:14:09.874Z</time>
      </trkpt>
      <trkpt lat="47.12292" lon="-1.4159">
        <ele>46.851392</ele>
        <time>2022-06-27T03:14:21.248Z</time>
      </trkpt>
      <trkpt lat="47.12281" lon="-1.41576">
        <ele>46.902613</ele>
        <time>2022-06-27T03:14:28.072Z</time>
      </trkpt>
      <trkpt lat="47.12242" lon="-1.41575">
        <ele>47.036469</ele>
        <time>2022-06-27T03:14:43.549Z</time>
      </trkpt>
      <trkpt lat="47.12219" lon="-1.4159">
        <ele>47.12187</ele>
        <time>2022-06-27T03:14:53.086Z</time>
      </trkpt>
      <trkpt lat="47.12216" lon="-1.41598">
        <ele>47.143768</ele>
        <time>2022-06-27T03:14:55.641Z</time>
      </trkpt>
      <trkpt lat="47.12229" lon="-1.41634">
        <ele>47.239036</ele>
        <time>2022-06-27T03:15:05.912Z</time>
      </trkpt>
      <trkpt lat="47.1222" lon="-1.41639">
        <ele>47.271897</ele>
        <time>2022-06-27T03:15:09.824Z</time>
      </trkpt>
      <trkpt lat="47.12147" lon="-1.41636">
        <ele>46.769283</ele>
        <time>2022-06-27T03:15:35.664Z</time>
      </trkpt>
      <trkpt lat="47.12129" lon="-1.4163">
        <ele>46.521609</ele>
        <time>2022-06-27T03:15:41.812Z</time>
      </trkpt>
      <trkpt lat="47.1204" lon="-1.41592">
        <ele>45.280681</ele>
        <time>2022-06-27T03:16:12.749Z</time>
      </trkpt>
      <trkpt lat="47.11933" lon="-1.41574">
        <ele>43.608158</ele>
        <time>2022-06-27T03:16:48.092Z</time>
      </trkpt>
      <trkpt lat="47.11831" lon="-1.41533">
        <ele>41.965211</ele>
        <time>2022-06-27T03:17:22.921Z</time>
      </trkpt>
      <trkpt lat="47.1181" lon="-1.41527">
        <ele>41.742166</ele>
        <time>2022-06-27T03:17:31.189Z</time>
      </trkpt>
      <trkpt lat="47.11766" lon="-1.4154">
        <ele>41.288778</ele>
        <time>2022-06-27T03:17:46.265Z</time>
      </trkpt>
      <trkpt lat="47.11749" lon="-1.41537">
        <ele>41.107717</ele>
        <time>2022-06-27T03:17:52.340Z</time>
      </trkpt>
      <trkpt lat="47.11716" lon="-1.41519">
        <ele>40.750894</ele>
        <time>2022-06-27T03:18:04.443Z</time>
      </trkpt>
      <trkpt lat="47.11708" lon="-1.4151">
        <ele>40.651085</ele>
        <time>2022-06-27T03:18:08.455Z</time>
      </trkpt>
      <trkpt lat="47.11708" lon="-1.41499">
        <ele>40.572166</ele>
        <time>2022-06-27T03:18:10.914Z</time>
      </trkpt>
      <trkpt lat="47.11716" lon="-1.41464">
        <ele>40.317288</ele>
        <time>2022-06-27T03:18:19.265Z</time>
      </trkpt>
      <trkpt lat="47.11713" lon="-1.41459">
        <ele>40.269287</ele>
        <time>2022-06-27T03:18:22.186Z</time>
      </trkpt>
      <trkpt lat="47.11706" lon="-1.41459">
        <ele>40.177086</ele>
        <time>2022-06-27T03:18:24.561Z</time>
      </trkpt>
      <trkpt lat="47.11616" lon="-1.41365">
        <ele>38.617663</ele>
        <time>2022-06-27T03:19:02.538Z</time>
      </trkpt>
      <trkpt lat="47.11603" lon="-1.41362">
        <ele>38.43707</ele>
        <time>2022-06-27T03:19:06.643Z</time>
      </trkpt>
      <trkpt lat="47.11593" lon="-1.41335">
        <ele>38.133315</ele>
        <time>2022-06-27T03:19:14.122Z</time>
      </trkpt>
      <trkpt lat="47.11579" lon="-1.41338">
        <ele>37.936409</ele>
        <time>2022-06-27T03:19:18.355Z</time>
      </trkpt>
      <trkpt lat="47.11471" lon="-1.41228">
        <ele>36.060066</ele>
        <time>2022-06-27T03:20:00.601Z</time>
      </trkpt>
      <trkpt lat="47.11438" lon="-1.41256">
        <ele>35.505314</ele>
        <time>2022-06-27T03:20:13.823Z</time>
      </trkpt>
      <trkpt lat="47.11427" lon="-1.41258">
        <ele>35.350347</ele>
        <time>2022-06-27T03:20:17.679Z</time>
      </trkpt>
      <trkpt lat="47.11401" lon="-1.41225">
        <ele>35.446812</ele>
        <time>2022-06-27T03:20:31.092Z</time>
      </trkpt>
      <trkpt lat="47.11396" lon="-1.41226">
        <ele>35.547214</ele>
        <time>2022-06-27T03:20:32.687Z</time>
      </trkpt>
      <trkpt lat="47.11384" lon="-1.41182">
        <ele>36.187256</ele>
        <time>2022-06-27T03:20:47.145Z</time>
      </trkpt>
      <trkpt lat="47.11363" lon="-1.41037">
        <ele>38.192315</ele>
        <time>2022-06-27T03:21:36.493Z</time>
      </trkpt>
      <trkpt lat="47.11363" lon="-1.41037">
        <ele>38.197137</ele>
        <time>2022-06-27T03:21:36.940Z</time>
      </trkpt>
      <trkpt lat="47.11378" lon="-1.41026">
        <ele>38.536749</ele>
        <time>2022-06-27T03:21:45.639Z</time>
      </trkpt>
      <trkpt lat="47.11383" lon="-1.41013">
        <ele>38.756681</ele>
        <time>2022-06-27T03:21:51.725Z</time>
      </trkpt>
      <trkpt lat="47.11388" lon="-1.40918">
        <ele>40.570751</ele>
        <time>2022-06-27T03:22:27.079Z</time>
      </trkpt>
      <trkpt lat="47.1143" lon="-1.40912">
        <ele>41.761203</ele>
        <time>2022-06-27T03:22:49.043Z</time>
      </trkpt>
      <trkpt lat="47.11423" lon="-1.40855">
        <ele>42.867515</ele>
        <time>2022-06-27T03:23:08.642Z</time>
      </trkpt>
      <trkpt lat="47.11425" lon="-1.40844">
        <ele>43.098403</ele>
        <time>2022-06-27T03:23:12.301Z</time>
      </trkpt>
      <trkpt lat="47.11517" lon="-1.40811">
        <ele>44.998539</ele>
        <time>2022-06-27T03:23:55.871Z</time>
      </trkpt>
      <trkpt lat="47.1159" lon="-1.40782">
        <ele>46.322557</ele>
        <time>2022-06-27T03:24:30.094Z</time>
      </trkpt>
      <trkpt lat="47.11595" lon="-1.40774">
        <ele>46.451332</ele>
        <time>2022-06-27T03:24:33.505Z</time>
      </trkpt>
      <trkpt lat="47.11588" lon="-1.40748">
        <ele>46.77931</ele>
        <time>2022-06-27T03:24:42.227Z</time>
      </trkpt>
      <trkpt lat="47.11593" lon="-1.4073">
        <ele>46.99544</ele>
        <time>2022-06-27T03:24:47.984Z</time>
      </trkpt>
      <trkpt lat="47.11669" lon="-1.40674">
        <ele>48.24381</ele>
        <time>2022-06-27T03:25:27.405Z</time>
      </trkpt>
      <trkpt lat="47.11677" lon="-1.4066">
        <ele>48.426801</ele>
        <time>2022-06-27T03:25:32.926Z</time>
      </trkpt>
      <trkpt lat="47.11679" lon="-1.40639">
        <ele>48.644589</ele>
        <time>2022-06-27T03:25:39.604Z</time>
      </trkpt>
      <trkpt lat="47.11671" lon="-1.4055">
        <ele>49.54778</ele>
        <time>2022-06-27T03:26:05.560Z</time>
      </trkpt>
      <trkpt lat="47.11676" lon="-1.4052">
        <ele>49.728746</ele>
        <time>2022-06-27T03:26:14.232Z</time>
      </trkpt>
      <trkpt lat="47.1167" lon="-1.40512">
        <ele>49.799725</ele>
        <time>2022-06-27T03:26:16.194Z</time>
      </trkpt>
      <trkpt lat="47.11649" lon="-1.40444">
        <ele>50.246039</ele>
        <time>2022-06-27T03:26:29.885Z</time>
      </trkpt>
      <trkpt lat="47.11627" lon="-1.40428">
        <ele>50.453547</ele>
        <time>2022-06-27T03:26:36.343Z</time>
      </trkpt>
      <trkpt lat="47.11599" lon="-1.4041">
        <ele>50.725381</ele>
        <time>2022-06-27T03:26:45.022Z</time>
      </trkpt>
      <trkpt lat="47.11587" lon="-1.4038">
        <ele>50.932487</ele>
        <time>2022-06-27T03:26:51.679Z</time>
      </trkpt>
      <trkpt lat="47.11584" lon="-1.40371">
        <ele>50.990978</ele>
        <time>2022-06-27T03:26:53.637Z</time>
      </trkpt>
      <trkpt lat="47.11548" lon="-1.40217">
        <ele>51.97331</ele>
        <time>2022-06-27T03:27:23.976Z</time>
      </trkpt>
      <trkpt lat="47.11433" lon="-1.40267">
        <ele>52.80392</ele>
        <time>2022-06-27T03:27:57.446Z</time>
      </trkpt>
      <trkpt lat="47.11335" lon="-1.4028">
        <ele>53.031712</ele>
        <time>2022-06-27T03:28:21.932Z</time>
      </trkpt>
      <trkpt lat="47.1133" lon="-1.40281">
        <ele>53.04136</ele>
        <time>2022-06-27T03:28:22.889Z</time>
      </trkpt>
      <trkpt lat="47.11282" lon="-1.40289">
        <ele>53.06665</ele>
        <time>2022-06-27T03:28:33.726Z</time>
      </trkpt>
      <trkpt lat="47.11237" lon="-1.40311">
        <ele>52.670327</ele>
        <time>2022-06-27T03:28:43.729Z</time>
      </trkpt>
      <trkpt lat="47.11169" lon="-1.40353">
        <ele>52.041477</ele>
        <time>2022-06-27T03:28:59.223Z</time>
      </trkpt>
      <trkpt lat="47.11143" lon="-1.40358">
        <ele>51.822763</ele>
        <time>2022-06-27T03:29:04.562Z</time>
      </trkpt>
      <trkpt lat="47.11138" lon="-1.40358">
        <ele>51.779582</ele>
        <time>2022-06-27T03:29:05.612Z</time>
      </trkpt>
      <trkpt lat="47.11029" lon="-1.40313">
        <ele>50.506152</ele>
        <time>2022-06-27T03:29:28.654Z</time>
      </trkpt>
      <trkpt lat="47.10989" lon="-1.40298">
        <ele>50.010602</ele>
        <time>2022-06-27T03:29:37.205Z</time>
      </trkpt>
      <trkpt lat="47.10905" lon="-1.40262">
        <ele>48.981838</ele>
        <time>2022-06-27T03:29:55.058Z</time>
      </trkpt>
      <trkpt lat="47.10829" lon="-1.4021">
        <ele>47.996124</ele>
        <time>2022-06-27T03:30:12.035Z</time>
      </trkpt>
      <trkpt lat="47.10807" lon="-1.40198">
        <ele>47.720788</ele>
        <time>2022-06-27T03:30:16.809Z</time>
      </trkpt>
      <trkpt lat="47.10743" lon="-1.40181">
        <ele>47.207004</ele>
        <time>2022-06-27T03:30:30.150Z</time>
      </trkpt>
      <trkpt lat="47.10553" lon="-1.40159">
        <ele>46.878742</ele>
        <time>2022-06-27T03:31:13.065Z</time>
      </trkpt>
      <trkpt lat="47.10524" lon="-1.40169">
        <ele>47.088834</ele>
        <time>2022-06-27T03:31:20.782Z</time>
      </trkpt>
      <trkpt lat="47.1049" lon="-1.40208">
        <ele>47.394161</ele>
        <time>2022-06-27T03:31:32.474Z</time>
      </trkpt>
      <trkpt lat="47.10494" lon="-1.40221">
        <ele>47.461048</ele>
        <time>2022-06-27T03:31:34.902Z</time>
      </trkpt>
      <trkpt lat="47.10422" lon="-1.40314">
        <ele>48.667222</ele>
        <time>2022-06-27T03:32:04.332Z</time>
      </trkpt>
      <trkpt lat="47.10394" lon="-1.40342">
        <ele>49.311001</ele>
        <time>2022-06-27T03:32:15.015Z</time>
      </trkpt>
      <trkpt lat="47.10383" lon="-1.40354">
        <ele>49.57002</ele>
        <time>2022-06-27T03:32:19.111Z</time>
      </trkpt>
      <trkpt lat="47.10337" lon="-1.40379">
        <ele>50.496198</ele>
        <time>2022-06-27T03:32:34.963Z</time>
      </trkpt>
      <trkpt lat="47.10329" lon="-1.40381">
        <ele>50.64378</ele>
        <time>2022-06-27T03:32:37.482Z</time>
      </trkpt>
      <trkpt lat="47.10305" lon="-1.40387">
        <ele>51.106925</ele>
        <time>2022-06-27T03:32:45.631Z</time>
      </trkpt>
      <trkpt lat="47.1029" lon="-1.40407">
        <ele>51.42426</ele>
        <time>2022-06-27T03:32:52.438Z</time>
      </trkpt>
      <trkpt lat="47.10243" lon="-1.40431">
        <ele>52.121592</ele>
        <time>2022-06-27T03:33:12.446Z</time>
      </trkpt>
      <trkpt lat="47.10222" lon="-1.40445">
        <ele>52.453301</ele>
        <time>2022-06-27T03:33:23.505Z</time>
      </trkpt>
      <trkpt lat="47.10118" lon="-1.40508">
        <ele>53.720968</ele>
        <time>2022-06-27T03:34:10.021Z</time>
      </trkpt>
      <trkpt lat="47.10089" lon="-1.40521">
        <ele>53.660958</ele>
        <time>2022-06-27T03:34:21.132Z</time>
      </trkpt>
      <trkpt lat="47.10052" lon="-1.40529">
        <ele>53.587923</ele>
        <time>2022-06-27T03:34:34.482Z</time>
      </trkpt>
      <trkpt lat="47.10008" lon="-1.40396">
        <ele>53.359028</ele>
        <time>2022-06-27T03:35:10.192Z</time>
      </trkpt>
      <trkpt lat="47.1" lon="-1.40374">
        <ele>53.252641</ele>
        <time>2022-06-27T03:35:16.277Z</time>
      </trkpt>
      <trkpt lat="47.09997" lon="-1.40349">
        <ele>53.143186</ele>
        <time>2022-06-27T03:35:22.418Z</time>
      </trkpt>
      <trkpt lat="47.10012" lon="-1.40307">
        <ele>52.940957</ele>
        <time>2022-06-27T03:35:33.983Z</time>
      </trkpt>
      <trkpt lat="47.09988" lon="-1.40197">
        <ele>52.452448</ele>
        <time>2022-06-27T03:36:01.726Z</time>
      </trkpt>
      <trkpt lat="47.09986" lon="-1.40157">
        <ele>52.275492</ele>
        <time>2022-06-27T03:36:11.465Z</time>
      </trkpt>
      <trkpt lat="47.09973" lon="-1.40103">
        <ele>51.795188</ele>
        <time>2022-06-27T03:36:25.309Z</time>
      </trkpt>
      <trkpt lat="47.09967" lon="-1.40054">
        <ele>51.382292</ele>
        <time>2022-06-27T03:36:37.014Z</time>
      </trkpt>
      <trkpt lat="47.09945" lon="-1.40028">
        <ele>51.028189</ele>
        <time>2022-06-27T03:36:46.846Z</time>
      </trkpt>
      <trkpt lat="47.09927" lon="-1.39966">
        <ele>50.460016</ele>
        <time>2022-06-27T03:37:02.408Z</time>
      </trkpt>
      <trkpt lat="47.09905" lon="-1.39865">
        <ele>48.640684</ele>
        <time>2022-06-27T03:37:25.997Z</time>
      </trkpt>
      <trkpt lat="47.09822" lon="-1.39914">
        <ele>45.444344</ele>
        <time>2022-06-27T03:37:41.026Z</time>
      </trkpt>
      <trkpt lat="47.09789" lon="-1.39927">
        <ele>44.232176</ele>
        <time>2022-06-27T03:37:46.439Z</time>
      </trkpt>
      <trkpt lat="47.0973" lon="-1.39939">
        <ele>41.880906</ele>
        <time>2022-06-27T03:37:55.814Z</time>
      </trkpt>
      <trkpt lat="47.09647" lon="-1.39925">
        <ele>38.4538</ele>
        <time>2022-06-27T03:38:09.292Z</time>
      </trkpt>
      <trkpt lat="47.09611" lon="-1.39944">
        <ele>36.85724</ele>
        <time>2022-06-27T03:38:15.706Z</time>
      </trkpt>
      <trkpt lat="47.09592" lon="-1.39965">
        <ele>36.19898</ele>
        <time>2022-06-27T03:38:19.721Z</time>
      </trkpt>
      <trkpt lat="47.09574" lon="-1.39955">
        <ele>36.028581</ele>
        <time>2022-06-27T03:38:26.013Z</time>
      </trkpt>
      <trkpt lat="47.09547" lon="-1.39923">
        <ele>35.713854</ele>
        <time>2022-06-27T03:38:37.898Z</time>
      </trkpt>
      <trkpt lat="47.09542" lon="-1.39921">
        <ele>35.672714</ele>
        <time>2022-06-27T03:38:39.472Z</time>
      </trkpt>
      <trkpt lat="47.09523" lon="-1.39926">
        <ele>35.490924</ele>
        <time>2022-06-27T03:38:46.681Z</time>
      </trkpt>
      <trkpt lat="47.09464" lon="-1.40022">
        <ele>34.69567</ele>
        <time>2022-06-27T03:39:19.574Z</time>
      </trkpt>
      <trkpt lat="47.09422" lon="-1.40017">
        <ele>34.428201</ele>
        <time>2022-06-27T03:39:35.253Z</time>
      </trkpt>
      <trkpt lat="47.09404" lon="-1.40091">
        <ele>34.099446</ele>
        <time>2022-06-27T03:39:54.376Z</time>
      </trkpt>
      <trkpt lat="47.09368" lon="-1.40082">
        <ele>33.879043</ele>
        <time>2022-06-27T03:40:06.815Z</time>
      </trkpt>
      <trkpt lat="47.09318" lon="-1.40184">
        <ele>33.478955</ele>
        <time>2022-06-27T03:40:36.218Z</time>
      </trkpt>
      <trkpt lat="47.09272" lon="-1.40193">
        <ele>33.356937</ele>
        <time>2022-06-27T03:40:52.758Z</time>
      </trkpt>
      <trkpt lat="47.09248" lon="-1.40197">
        <ele>33.291798</ele>
        <time>2022-06-27T03:41:01.824Z</time>
      </trkpt>
      <trkpt lat="47.09241" lon="-1.4019">
        <ele>33.268841</ele>
        <time>2022-06-27T03:41:04.968Z</time>
      </trkpt>
      <trkpt lat="47.09191" lon="-1.4011">
        <ele>33.122786</ele>
        <time>2022-06-27T03:41:32.775Z</time>
      </trkpt>
      <trkpt lat="47.09158" lon="-1.40063">
        <ele>33.324931</ele>
        <time>2022-06-27T03:41:51.213Z</time>
      </trkpt>
      <trkpt lat="47.0908" lon="-1.40047">
        <ele>33.670141</ele>
        <time>2022-06-27T03:42:23.274Z</time>
      </trkpt>
      <trkpt lat="47.09059" lon="-1.40049">
        <ele>33.760001</ele>
        <time>2022-06-27T03:42:31.299Z</time>
      </trkpt>
      <trkpt lat="47.08957" lon="-1.40015">
        <ele>34.574389</ele>
        <time>2022-06-27T03:43:10.401Z</time>
      </trkpt>
      <trkpt lat="47.08924" lon="-1.39995">
        <ele>34.898856</ele>
        <time>2022-06-27T03:43:25.542Z</time>
      </trkpt>
      <trkpt lat="47.08892" lon="-1.39964">
        <ele>35.239006</ele>
        <time>2022-06-27T03:43:42.012Z</time>
      </trkpt>
      <trkpt lat="47.08873" lon="-1.39939">
        <ele>35.467203</ele>
        <time>2022-06-27T03:43:53.554Z</time>
      </trkpt>
      <trkpt lat="47.08854" lon="-1.39884">
        <ele>36.460028</ele>
        <time>2022-06-27T03:44:13.536Z</time>
      </trkpt>
      <trkpt lat="47.08838" lon="-1.3988">
        <ele>36.854394</ele>
        <time>2022-06-27T03:44:21.766Z</time>
      </trkpt>
      <trkpt lat="47.08834" lon="-1.39872">
        <ele>37.025082</ele>
        <time>2022-06-27T03:44:25.191Z</time>
      </trkpt>
      <trkpt lat="47.08796" lon="-1.39865">
        <ele>37.983382</ele>
        <time>2022-06-27T03:44:44.702Z</time>
      </trkpt>
      <trkpt lat="47.08753" lon="-1.39852">
        <ele>39.071002</ele>
        <time>2022-06-27T03:45:07.293Z</time>
      </trkpt>
      <trkpt lat="47.08747" lon="-1.39853">
        <ele>39.209854</ele>
        <time>2022-06-27T03:45:09.812Z</time>
      </trkpt>
      <trkpt lat="47.08733" lon="-1.39837">
        <ele>39.644103</ele>
        <time>2022-06-27T03:45:16.424Z</time>
      </trkpt>
      <trkpt lat="47.08705" lon="-1.39787">
        <ele>40.264918</ele>
        <time>2022-06-27T03:45:31.786Z</time>
      </trkpt>
      <trkpt lat="47.08683" lon="-1.39745">
        <ele>40.629923</ele>
        <time>2022-06-27T03:45:42.481Z</time>
      </trkpt>
      <trkpt lat="47.08668" lon="-1.39704">
        <ele>40.949071</ele>
        <time>2022-06-27T03:45:51.181Z</time>
      </trkpt>
      <trkpt lat="47.0864" lon="-1.3972">
        <ele>41.256044</ele>
        <time>2022-06-27T03:45:58.906Z</time>
      </trkpt>
      <trkpt lat="47.08586" lon="-1.39747">
        <ele>41.709575</ele>
        <time>2022-06-27T03:46:11.193Z</time>
      </trkpt>
      <trkpt lat="47.08549" lon="-1.39756">
        <ele>41.474851</ele>
        <time>2022-06-27T03:46:18.989Z</time>
      </trkpt>
      <trkpt lat="47.08537" lon="-1.39747">
        <ele>41.392092</ele>
        <time>2022-06-27T03:46:21.731Z</time>
      </trkpt>
      <trkpt lat="47.08527" lon="-1.3974">
        <ele>41.325544</ele>
        <time>2022-06-27T03:46:23.870Z</time>
      </trkpt>
      <trkpt lat="47.08522" lon="-1.39731">
        <ele>41.276086</ele>
        <time>2022-06-27T03:46:25.467Z</time>
      </trkpt>
      <trkpt lat="47.08474" lon="-1.39701">
        <ele>40.95227</ele>
        <time>2022-06-27T03:46:43.740Z</time>
      </trkpt>
      <trkpt lat="47.08436" lon="-1.39688">
        <ele>40.713835</ele>
        <time>2022-06-27T03:46:57.559Z</time>
      </trkpt>
      <trkpt lat="47.08395" lon="-1.39707">
        <ele>40.358148</ele>
        <time>2022-06-27T03:47:12.718Z</time>
      </trkpt>
      <trkpt lat="47.08296" lon="-1.39698">
        <ele>39.455009</ele>
        <time>2022-06-27T03:47:47.669Z</time>
      </trkpt>
      <trkpt lat="47.08277" lon="-1.39698">
        <ele>39.284874</ele>
        <time>2022-06-27T03:47:54.168Z</time>
      </trkpt>
      <trkpt lat="47.08209" lon="-1.39662">
        <ele>37.972005</ele>
        <time>2022-06-27T03:48:18.382Z</time>
      </trkpt>
      <trkpt lat="47.08118" lon="-1.39634">
        <ele>35.6507</ele>
        <time>2022-06-27T03:48:47.973Z</time>
      </trkpt>
      <trkpt lat="47.0809" lon="-1.39653">
        <ele>34.890626</ele>
        <time>2022-06-27T03:48:57.520Z</time>
      </trkpt>
      <trkpt lat="47.08058" lon="-1.39635">
        <ele>33.964928</ele>
        <time>2022-06-27T03:49:07.778Z</time>
      </trkpt>
      <trkpt lat="47.08033" lon="-1.39627">
        <ele>33.208048</ele>
        <time>2022-06-27T03:49:15.556Z</time>
      </trkpt>
      <trkpt lat="47.08033" lon="-1.39627">
        <ele>33.202209</ele>
        <time>2022-06-27T03:49:15.610Z</time>
      </trkpt>
      <trkpt lat="47.07999" lon="-1.39625">
        <ele>32.21764</ele>
        <time>2022-06-27T03:49:25.774Z</time>
      </trkpt>
      <trkpt lat="47.07983" lon="-1.39632">
        <ele>31.726804</ele>
        <time>2022-06-27T03:49:30.710Z</time>
      </trkpt>
      <trkpt lat="47.07953" lon="-1.39628">
        <ele>30.831767</ele>
        <time>2022-06-27T03:49:39.821Z</time>
      </trkpt>
      <trkpt lat="47.07903" lon="-1.39635">
        <ele>29.364043</ele>
        <time>2022-06-27T03:49:56.161Z</time>
      </trkpt>
      <trkpt lat="47.07923" lon="-1.39674">
        <ele>29.970873</ele>
        <time>2022-06-27T03:50:08.302Z</time>
      </trkpt>
      <trkpt lat="47.07937" lon="-1.39675">
        <ele>30.286124</ele>
        <time>2022-06-27T03:50:13.875Z</time>
      </trkpt>
      <trkpt lat="47.07938" lon="-1.39679">
        <ele>30.349263</ele>
        <time>2022-06-27T03:50:14.790Z</time>
      </trkpt>
      <trkpt lat="47.07947" lon="-1.39748">
        <ele>31.393356</ele>
        <time>2022-06-27T03:50:48.000Z</time>
      </trkpt>
      <trkpt lat="47.07957" lon="-1.39759">
        <ele>31.68325</ele>
        <time>2022-06-27T03:50:55.073Z</time>
      </trkpt>
      <trkpt lat="47.07961" lon="-1.39775">
        <ele>31.922336</ele>
        <time>2022-06-27T03:50:59.689Z</time>
      </trkpt>
      <trkpt lat="47.07941" lon="-1.39809">
        <ele>32.589242</ele>
        <time>2022-06-27T03:51:18.031Z</time>
      </trkpt>
      <trkpt lat="47.07928" lon="-1.3982">
        <ele>32.917695</ele>
        <time>2022-06-27T03:51:26.652Z</time>
      </trkpt>
      <trkpt lat="47.07902" lon="-1.39826">
        <ele>33.62855</ele>
        <time>2022-06-27T03:51:41.924Z</time>
      </trkpt>
      <trkpt lat="47.0788" lon="-1.39845">
        <ele>34.520409</ele>
        <time>2022-06-27T03:51:59.197Z</time>
      </trkpt>
      <trkpt lat="47.07863" lon="-1.39862">
        <ele>35.219629</ele>
        <time>2022-06-27T03:52:08.201Z</time>
      </trkpt>
      <trkpt lat="47.07847" lon="-1.39916">
        <ele>36.603318</ele>
        <time>2022-06-27T03:52:27.417Z</time>
      </trkpt>
      <trkpt lat="47.07853" lon="-1.39924">
        <ele>36.865238</ele>
        <time>2022-06-27T03:52:31.202Z</time>
      </trkpt>
      <trkpt lat="47.07913" lon="-1.39982">
        <ele>39.33974</ele>
        <time>2022-06-27T03:52:54.966Z</time>
      </trkpt>
      <trkpt lat="47.07919" lon="-1.39988">
        <ele>39.415671</ele>
        <time>2022-06-27T03:52:56.842Z</time>
      </trkpt>
      <trkpt lat="47.07967" lon="-1.40035">
        <ele>39.535736</ele>
        <time>2022-06-27T03:53:09.257Z</time>
      </trkpt>
      <trkpt lat="47.07992" lon="-1.40069">
        <ele>39.606567</ele>
        <time>2022-06-27T03:53:16.290Z</time>
      </trkpt>
      <trkpt lat="47.08" lon="-1.40079">
        <ele>39.627963</ele>
        <time>2022-06-27T03:53:18.431Z</time>
      </trkpt>
      <trkpt lat="47.0801" lon="-1.40093">
        <ele>39.656871</ele>
        <time>2022-06-27T03:53:21.381Z</time>
      </trkpt>
      <trkpt lat="47.08052" lon="-1.40159">
        <ele>39.823699</ele>
        <time>2022-06-27T03:53:34.972Z</time>
      </trkpt>
      <trkpt lat="47.07977" lon="-1.40295">
        <ele>41.584129</ele>
        <time>2022-06-27T03:54:08.783Z</time>
      </trkpt>
      <trkpt lat="47.07943" lon="-1.40361">
        <ele>42.416631</ele>
        <time>2022-06-27T03:54:28.150Z</time>
      </trkpt>
      <trkpt lat="47.07956" lon="-1.40383">
        <ele>42.816388</ele>
        <time>2022-06-27T03:54:35.227Z</time>
      </trkpt>
      <trkpt lat="47.07958" lon="-1.40405">
        <ele>43.130154</ele>
        <time>2022-06-27T03:54:40.668Z</time>
      </trkpt>
      <trkpt lat="47.07931" lon="-1.40464">
        <ele>44.118056</ele>
        <time>2022-06-27T03:54:57.060Z</time>
      </trkpt>
      <trkpt lat="47.07926" lon="-1.40476">
        <ele>44.314509</ele>
        <time>2022-06-27T03:55:00.172Z</time>
      </trkpt>
      <trkpt lat="47.07872" lon="-1.40581">
        <ele>46.125254</ele>
        <time>2022-06-27T03:55:28.397Z</time>
      </trkpt>
      <trkpt lat="47.07858" lon="-1.40581">
        <ele>46.297751</ele>
        <time>2022-06-27T03:55:32.551Z</time>
      </trkpt>
      <trkpt lat="47.07832" lon="-1.40545">
        <ele>46.740318</ele>
        <time>2022-06-27T03:55:43.135Z</time>
      </trkpt>
      <trkpt lat="47.07823" lon="-1.40541">
        <ele>46.851451</ele>
        <time>2022-06-27T03:55:45.632Z</time>
      </trkpt>
      <trkpt lat="47.07823" lon="-1.40548">
        <ele>46.911001</ele>
        <time>2022-06-27T03:55:47.054Z</time>
      </trkpt>
      <trkpt lat="47.07814" lon="-1.40558">
        <ele>47.042137</ele>
        <time>2022-06-27T03:55:50.213Z</time>
      </trkpt>
      <trkpt lat="47.07809" lon="-1.40557">
        <ele>47.102714</ele>
        <time>2022-06-27T03:55:51.560Z</time>
      </trkpt>
      <trkpt lat="47.07804" lon="-1.40558">
        <ele>47.163783</ele>
        <time>2022-06-27T03:55:52.920Z</time>
      </trkpt>
      <trkpt lat="47.07846" lon="-1.40631">
        <ele>47.961102</ele>
        <time>2022-06-27T03:56:20.354Z</time>
      </trkpt>
      <trkpt lat="47.07904" lon="-1.4072">
        <ele>48.748226</ele>
        <time>2022-06-27T03:56:55.236Z</time>
      </trkpt>
      <trkpt lat="47.07913" lon="-1.40711">
        <ele>48.830377</ele>
        <time>2022-06-27T03:56:59.309Z</time>
      </trkpt>
      <trkpt lat="47.07904" lon="-1.4072">
        <ele>48.912528</ele>
        <time>2022-06-27T03:57:03.954Z</time>
      </trkpt>
      <trkpt lat="47.07894" lon="-1.40728">
        <ele>49.00384</ele>
        <time>2022-06-27T03:57:08.996Z</time>
      </trkpt>
      <trkpt lat="47.07868" lon="-1.40743">
        <ele>49.220395</ele>
        <time>2022-06-27T03:57:20.499Z</time>
      </trkpt>
      <trkpt lat="47.0784" lon="-1.40751">
        <ele>49.438197</ele>
        <time>2022-06-27T03:57:31.638Z</time>
      </trkpt>
      <trkpt lat="47.07803" lon="-1.40786">
        <ele>49.739158</ele>
        <time>2022-06-27T03:57:49.613Z</time>
      </trkpt>
      <trkpt lat="47.07785" lon="-1.40812">
        <ele>49.797719</ele>
        <time>2022-06-27T03:57:59.301Z</time>
      </trkpt>
      <trkpt lat="47.0777" lon="-1.40849">
        <ele>49.865473</ele>
        <time>2022-06-27T03:58:11.185Z</time>
      </trkpt>
      <trkpt lat="47.07667" lon="-1.40916">
        <ele>50.127266</ele>
        <time>2022-06-27T03:58:53.789Z</time>
      </trkpt>
      <trkpt lat="47.07693" lon="-1.41086">
        <ele>49.192951</ele>
        <time>2022-06-27T03:59:36.247Z</time>
      </trkpt>
      <trkpt lat="47.07721" lon="-1.41288">
        <ele>47.329313</ele>
        <time>2022-06-27T04:00:22.927Z</time>
      </trkpt>
      <trkpt lat="47.0774" lon="-1.41426">
        <ele>45.63234</ele>
        <time>2022-06-27T04:00:54.000Z</time>
      </trkpt>
      <trkpt lat="47.07742" lon="-1.41438">
        <ele>45.486555</ele>
        <time>2022-06-27T04:00:56.700Z</time>
      </trkpt>
      <trkpt lat="47.07735" lon="-1.41455">
        <ele>45.316672</ele>
        <time>2022-06-27T04:01:01.284Z</time>
      </trkpt>
      <trkpt lat="47.07744" lon="-1.4146">
        <ele>45.204086</ele>
        <time>2022-06-27T04:01:03.715Z</time>
      </trkpt>
      <trkpt lat="47.07632" lon="-1.41637">
        <ele>43.311693</ele>
        <time>2022-06-27T04:01:47.839Z</time>
      </trkpt>
      <trkpt lat="47.07603" lon="-1.41656">
        <ele>43.105423</ele>
        <time>2022-06-27T04:01:56.606Z</time>
      </trkpt>
      <trkpt lat="47.07603" lon="-1.41656">
        <ele>43.104016</ele>
        <time>2022-06-27T04:01:56.658Z</time>
      </trkpt>
      <trkpt lat="47.07563" lon="-1.4167">
        <ele>42.831066</ele>
        <time>2022-06-27T04:02:08.071Z</time>
      </trkpt>
      <trkpt lat="47.07491" lon="-1.419">
        <ele>42.09412</ele>
        <time>2022-06-27T04:02:47.757Z</time>
      </trkpt>
      <trkpt lat="47.07517" lon="-1.41912">
        <ele>42.067119</ele>
        <time>2022-06-27T04:02:53.452Z</time>
      </trkpt>
      <trkpt lat="47.07526" lon="-1.41911">
        <ele>42.0581</ele>
        <time>2022-06-27T04:02:55.421Z</time>
      </trkpt>
      <trkpt lat="47.0751" lon="-1.4192">
        <ele>42.040796</ele>
        <time>2022-06-27T04:02:59.185Z</time>
      </trkpt>
      <trkpt lat="47.07516" lon="-1.41969">
        <ele>42.006234</ele>
        <time>2022-06-27T04:03:07.781Z</time>
      </trkpt>
      <trkpt lat="47.07527" lon="-1.41982">
        <ele>41.992132</ele>
        <time>2022-06-27T04:03:11.671Z</time>
      </trkpt>
      <trkpt lat="47.07575" lon="-1.42009">
        <ele>42.400267</ele>
        <time>2022-06-27T04:03:26.102Z</time>
      </trkpt>
      <trkpt lat="47.07586" lon="-1.42171">
        <ele>43.404142</ele>
        <time>2022-06-27T04:03:58.013Z</time>
      </trkpt>
      <trkpt lat="47.07589" lon="-1.42226">
        <ele>43.627897</ele>
        <time>2022-06-27T04:04:08.526Z</time>
      </trkpt>
      <trkpt lat="47.07556" lon="-1.42519">
        <ele>43.54963</ele>
        <time>2022-06-27T04:04:55.367Z</time>
      </trkpt>
      <trkpt lat="47.0752" lon="-1.42902">
        <ele>41.189258</ele>
        <time>2022-06-27T04:05:50.179Z</time>
      </trkpt>
      <trkpt lat="47.07514" lon="-1.43062">
        <ele>40.11062</ele>
        <time>2022-06-27T04:06:12.393Z</time>
      </trkpt>
      <trkpt lat="47.075" lon="-1.4319">
        <ele>39.337246</ele>
        <time>2022-06-27T04:06:30.912Z</time>
      </trkpt>
      <trkpt lat="47.07499" lon="-1.43218">
        <ele>39.169867</ele>
        <time>2022-06-27T04:06:35.009Z</time>
      </trkpt>
      <trkpt lat="47.07502" lon="-1.43272">
        <ele>38.933631</ele>
        <time>2022-06-27T04:06:42.917Z</time>
      </trkpt>
      <trkpt lat="47.0754" lon="-1.43432">
        <ele>38.611959</ele>
        <time>2022-06-27T04:07:09.410Z</time>
      </trkpt>
      <trkpt lat="47.07595" lon="-1.43661">
        <ele>37.426881</ele>
        <time>2022-06-27T04:07:45.952Z</time>
      </trkpt>
      <trkpt lat="47.07647" lon="-1.43935">
        <ele>34.67072</ele>
        <time>2022-06-27T04:08:23.682Z</time>
      </trkpt>
      <trkpt lat="47.07666" lon="-1.44027">
        <ele>33.69121</ele>
        <time>2022-06-27T04:08:36.653Z</time>
      </trkpt>
      <trkpt lat="47.07679" lon="-1.44063">
        <ele>33.468524</ele>
        <time>2022-06-27T04:08:42.235Z</time>
      </trkpt>
      <trkpt lat="47.07687" lon="-1.44088">
        <ele>33.319729</ele>
        <time>2022-06-27T04:08:46.038Z</time>
      </trkpt>
      <trkpt lat="47.07699" lon="-1.44107">
        <ele>33.173436</ele>
        <time>2022-06-27T04:08:49.775Z</time>
      </trkpt>
      <trkpt lat="47.07843" lon="-1.44256">
        <ele>32.448037</ele>
        <time>2022-06-27T04:09:28.840Z</time>
      </trkpt>
      <trkpt lat="47.07929" lon="-1.44357">
        <ele>32.576531</ele>
        <time>2022-06-27T04:09:56.386Z</time>
      </trkpt>
      <trkpt lat="47.07952" lon="-1.44358">
        <ele>32.615054</ele>
        <time>2022-06-27T04:10:02.680Z</time>
      </trkpt>
      <trkpt lat="47.08048" lon="-1.44302">
        <ele>32.784988</ele>
        <time>2022-06-27T04:10:28.239Z</time>
      </trkpt>
      <trkpt lat="47.08057" lon="-1.44299">
        <ele>32.801068</ele>
        <time>2022-06-27T04:10:30.375Z</time>
      </trkpt>
      <trkpt lat="47.08078" lon="-1.44306">
        <ele>32.835981</ele>
        <time>2022-06-27T04:10:35.315Z</time>
      </trkpt>
      <trkpt lat="47.08025" lon="-1.44333">
        <ele>32.661959</ele>
        <time>2022-06-27T04:10:47.520Z</time>
      </trkpt>
      <trkpt lat="47.07931" lon="-1.44395">
        <ele>32.098932</ele>
        <time>2022-06-27T04:11:09.751Z</time>
      </trkpt>
      <trkpt lat="47.07885" lon="-1.44426">
        <ele>31.873465</ele>
        <time>2022-06-27T04:11:20.409Z</time>
      </trkpt>
      <trkpt lat="47.07785" lon="-1.44487">
        <ele>31.752879</ele>
        <time>2022-06-27T04:11:45.015Z</time>
      </trkpt>
      <trkpt lat="47.07749" lon="-1.44489">
        <ele>31.713795</ele>
        <time>2022-06-27T04:11:53.323Z</time>
      </trkpt>
      <trkpt lat="47.07727" lon="-1.44481">
        <ele>31.688468</ele>
        <time>2022-06-27T04:11:58.639Z</time>
      </trkpt>
      <trkpt lat="47.07726" lon="-1.44504">
        <ele>31.812598</ele>
        <time>2022-06-27T04:12:02.469Z</time>
      </trkpt>
      <trkpt lat="47.07736" lon="-1.44526">
        <ele>31.976317</ele>
        <time>2022-06-27T04:12:06.869Z</time>
      </trkpt>
      <trkpt lat="47.07758" lon="-1.44579">
        <ele>32.37313</ele>
        <time>2022-06-27T04:12:18.117Z</time>
      </trkpt>
      <trkpt lat="47.07809" lon="-1.44654">
        <ele>33.047921</ele>
        <time>2022-06-27T04:12:39.049Z</time>
      </trkpt>
      <trkpt lat="47.07727" lon="-1.44922">
        <ele>35.817607</ele>
        <time>2022-06-27T04:14:08.655Z</time>
      </trkpt>
      <trkpt lat="47.07727" lon="-1.44922">
        <ele>35.819395</ele>
        <time>2022-06-27T04:14:08.826Z</time>
      </trkpt>
      <trkpt lat="47.07714" lon="-1.45086">
        <ele>36.840224</ele>
        <time>2022-06-27T04:14:57.179Z</time>
      </trkpt>
      <trkpt lat="47.07715" lon="-1.45121">
        <ele>37.037497</ele>
        <time>2022-06-27T04:15:06.686Z</time>
      </trkpt>
      <trkpt lat="47.0771" lon="-1.45131">
        <ele>37.109506</ele>
        <time>2022-06-27T04:15:10.196Z</time>
      </trkpt>
      <trkpt lat="47.0766" lon="-1.45146">
        <ele>37.509691</ele>
        <time>2022-06-27T04:15:29.832Z</time>
      </trkpt>
      <trkpt lat="47.0759" lon="-1.45133">
        <ele>37.479493</ele>
        <time>2022-06-27T04:15:56.040Z</time>
      </trkpt>
      <trkpt lat="47.07583" lon="-1.45166">
        <ele>37.469244</ele>
        <time>2022-06-27T04:16:01.416Z</time>
      </trkpt>
      <trkpt lat="47.07529" lon="-1.45307">
        <ele>37.495579</ele>
        <time>2022-06-27T04:16:26.274Z</time>
      </trkpt>
      <trkpt lat="47.07511" lon="-1.45396">
        <ele>37.643321</ele>
        <time>2022-06-27T04:16:40.542Z</time>
      </trkpt>
      <trkpt lat="47.07484" lon="-1.45471">
        <ele>37.77882</ele>
        <time>2022-06-27T04:16:55.457Z</time>
      </trkpt>
      <trkpt lat="47.07478" lon="-1.4555">
        <ele>38.171323</ele>
        <time>2022-06-27T04:17:10.017Z</time>
      </trkpt>
      <trkpt lat="47.07478" lon="-1.45639">
        <ele>39.028955</ele>
        <time>2022-06-27T04:17:28.216Z</time>
      </trkpt>
      <trkpt lat="47.07471" lon="-1.45675">
        <ele>39.397104</ele>
        <time>2022-06-27T04:17:36.086Z</time>
      </trkpt>
      <trkpt lat="47.07459" lon="-1.45712">
        <ele>39.787604</ele>
        <time>2022-06-27T04:17:44.370Z</time>
      </trkpt>
      <trkpt lat="47.07428" lon="-1.45757">
        <ele>40.416784</ele>
        <time>2022-06-27T04:17:58.718Z</time>
      </trkpt>
      <trkpt lat="47.07402" lon="-1.4578">
        <ele>40.882331</ele>
        <time>2022-06-27T04:18:08.662Z</time>
      </trkpt>
      <trkpt lat="47.07382" lon="-1.45802">
        <ele>41.255234</ele>
        <time>2022-06-27T04:18:16.438Z</time>
      </trkpt>
      <trkpt lat="47.07355" lon="-1.45843">
        <ele>41.849342</ele>
        <time>2022-06-27T04:18:28.402Z</time>
      </trkpt>
      <trkpt lat="47.0734" lon="-1.45863">
        <ele>42.148505</ele>
        <time>2022-06-27T04:18:34.494Z</time>
      </trkpt>
      <trkpt lat="47.07332" lon="-1.45884">
        <ele>42.400573</ele>
        <time>2022-06-27T04:18:39.741Z</time>
      </trkpt>
      <trkpt lat="47.07329" lon="-1.45906">
        <ele>42.639438</ele>
        <time>2022-06-27T04:18:44.584Z</time>
      </trkpt>
      <trkpt lat="47.07325" lon="-1.46097">
        <ele>44.034877</ele>
        <time>2022-06-27T04:19:22.147Z</time>
      </trkpt>
      <trkpt lat="47.07318" lon="-1.46131">
        <ele>44.258296</ele>
        <time>2022-06-27T04:19:28.983Z</time>
      </trkpt>
      <trkpt lat="47.07275" lon="-1.46215">
        <ele>44.727822</ele>
        <time>2022-06-27T04:19:47.970Z</time>
      </trkpt>
      <trkpt lat="47.07249" lon="-1.4625">
        <ele>44.508324</ele>
        <time>2022-06-27T04:19:56.562Z</time>
      </trkpt>
      <trkpt lat="47.07187" lon="-1.463">
        <ele>44.068696</ele>
        <time>2022-06-27T04:20:12.203Z</time>
      </trkpt>
      <trkpt lat="47.0719" lon="-1.46303">
        <ele>44.046462</ele>
        <time>2022-06-27T04:20:12.974Z</time>
      </trkpt>
      <trkpt lat="47.07271" lon="-1.46384">
        <ele>42.548231</ele>
        <time>2022-06-27T04:20:32.187Z</time>
      </trkpt>
      <trkpt lat="47.07286" lon="-1.464">
        <ele>42.024404</ele>
        <time>2022-06-27T04:20:35.552Z</time>
      </trkpt>
      <trkpt lat="47.07364" lon="-1.46488">
        <ele>39.207162</ele>
        <time>2022-06-27T04:20:53.075Z</time>
      </trkpt>
      <trkpt lat="47.07428" lon="-1.46573">
        <ele>36.479156</ele>
        <time>2022-06-27T04:21:08.262Z</time>
      </trkpt>
      <trkpt lat="47.07457" lon="-1.46627">
        <ele>34.942478</ele>
        <time>2022-06-27T04:21:16.623Z</time>
      </trkpt>
      <trkpt lat="47.07511" lon="-1.4671">
        <ele>32.441215</ele>
        <time>2022-06-27T04:21:30.661Z</time>
      </trkpt>
      <trkpt lat="47.07546" lon="-1.46787">
        <ele>30.937814</ele>
        <time>2022-06-27T04:21:42.353Z</time>
      </trkpt>
      <trkpt lat="47.07549" lon="-1.46787">
        <ele>30.867922</ele>
        <time>2022-06-27T04:21:42.873Z</time>
      </trkpt>
      <trkpt lat="47.07584" lon="-1.46866">
        <ele>29.323868</ele>
        <time>2022-06-27T04:21:55.053Z</time>
      </trkpt>
      <trkpt lat="47.07638" lon="-1.46955">
        <ele>27.682454</ele>
        <time>2022-06-27T04:22:10.657Z</time>
      </trkpt>
      <trkpt lat="47.07666" lon="-1.47017">
        <ele>26.882755</ele>
        <time>2022-06-27T04:22:20.493Z</time>
      </trkpt>
      <trkpt lat="47.07689" lon="-1.47058">
        <ele>26.308949</ele>
        <time>2022-06-27T04:22:27.804Z</time>
      </trkpt>
      <trkpt lat="47.07757" lon="-1.47116">
        <ele>25.227426</ele>
        <time>2022-06-27T04:22:43.933Z</time>
      </trkpt>
      <trkpt lat="47.07839" lon="-1.47234">
        <ele>24.219373</ele>
        <time>2022-06-27T04:23:07.634Z</time>
      </trkpt>
      <trkpt lat="47.07951" lon="-1.47353">
        <ele>24.376529</ele>
        <time>2022-06-27T04:23:38.728Z</time>
      </trkpt>
      <trkpt lat="47.07991" lon="-1.47407">
        <ele>24.654097</ele>
        <time>2022-06-27T04:23:53.881Z</time>
      </trkpt>
      <trkpt lat="47.08086" lon="-1.47575">
        <ele>27.164795</ele>
        <time>2022-06-27T04:24:43.746Z</time>
      </trkpt>
      <trkpt lat="47.08124" lon="-1.47658">
        <ele>28.374548</ele>
        <time>2022-06-27T04:25:06.793Z</time>
      </trkpt>
      <trkpt lat="47.08155" lon="-1.47758">
        <ele>29.021774</ele>
        <time>2022-06-27T04:25:29.297Z</time>
      </trkpt>
      <trkpt lat="47.08193" lon="-1.47906">
        <ele>29.823344</ele>
        <time>2022-06-27T04:25:55.927Z</time>
      </trkpt>
      <trkpt lat="47.08194" lon="-1.47932">
        <ele>29.789062</ele>
        <time>2022-06-27T04:25:59.961Z</time>
      </trkpt>
      <trkpt lat="47.08207" lon="-1.47977">
        <ele>29.727027</ele>
        <time>2022-06-27T04:26:07.183Z</time>
      </trkpt>
      <trkpt lat="47.08238" lon="-1.48078">
        <ele>29.583212</ele>
        <time>2022-06-27T04:26:23.870Z</time>
      </trkpt>
      <trkpt lat="47.08261" lon="-1.48177">
        <ele>29.698229</ele>
        <time>2022-06-27T04:26:39.986Z</time>
      </trkpt>
      <trkpt lat="47.08259" lon="-1.48341">
        <ele>30.40825</ele>
        <time>2022-06-27T04:27:10.243Z</time>
      </trkpt>
      <trkpt lat="47.08249" lon="-1.48417">
        <ele>30.748361</ele>
        <time>2022-06-27T04:27:25.530Z</time>
      </trkpt>
      <trkpt lat="47.08217" lon="-1.48532">
        <ele>31.303471</ele>
        <time>2022-06-27T04:27:49.402Z</time>
      </trkpt>
      <trkpt lat="47.08192" lon="-1.48675">
        <ele>31.67185</ele>
        <time>2022-06-27T04:28:14.197Z</time>
      </trkpt>
      <trkpt lat="47.08191" lon="-1.48716">
        <ele>31.456297</ele>
        <time>2022-06-27T04:28:20.352Z</time>
      </trkpt>
      <trkpt lat="47.08202" lon="-1.48807">
        <ele>30.972256</ele>
        <time>2022-06-27T04:28:33.759Z</time>
      </trkpt>
      <trkpt lat="47.08183" lon="-1.48919">
        <ele>30.272612</ele>
        <time>2022-06-27T04:28:49.811Z</time>
      </trkpt>
      <trkpt lat="47.08148" lon="-1.48997">
        <ele>29.238152</ele>
        <time>2022-06-27T04:29:02.202Z</time>
      </trkpt>
      <trkpt lat="47.081" lon="-1.49062">
        <ele>28.172706</ele>
        <time>2022-06-27T04:29:15.009Z</time>
      </trkpt>
      <trkpt lat="47.08081" lon="-1.49103">
        <ele>27.621645</ele>
        <time>2022-06-27T04:29:21.652Z</time>
      </trkpt>
      <trkpt lat="47.08059" lon="-1.49174">
        <ele>26.981102</ele>
        <time>2022-06-27T04:29:32.242Z</time>
      </trkpt>
      <trkpt lat="47.08028" lon="-1.493">
        <ele>25.94377</ele>
        <time>2022-06-27T04:29:51.218Z</time>
      </trkpt>
      <trkpt lat="47.08027" lon="-1.49324">
        <ele>25.758493</ele>
        <time>2022-06-27T04:29:54.548Z</time>
      </trkpt>
      <trkpt lat="47.07988" lon="-1.49349">
        <ele>25.179892</ele>
        <time>2022-06-27T04:30:02.895Z</time>
      </trkpt>
      <trkpt lat="47.07935" lon="-1.49399">
        <ele>24.075178</ele>
        <time>2022-06-27T04:30:15.574Z</time>
      </trkpt>
      <trkpt lat="47.0798" lon="-1.49414">
        <ele>23.267474</ele>
        <time>2022-06-27T04:30:27.282Z</time>
      </trkpt>
      <trkpt lat="47.08032" lon="-1.49498">
        <ele>21.754932</ele>
        <time>2022-06-27T04:30:46.255Z</time>
      </trkpt>
      <trkpt lat="47.08053" lon="-1.49543">
        <ele>20.864002</ele>
        <time>2022-06-27T04:30:54.819Z</time>
      </trkpt>
      <trkpt lat="47.08065" lon="-1.49587">
        <ele>20.087103</ele>
        <time>2022-06-27T04:31:04.584Z</time>
      </trkpt>
      <trkpt lat="47.08064" lon="-1.49629">
        <ele>19.397579</ele>
        <time>2022-06-27T04:31:13.835Z</time>
      </trkpt>
      <trkpt lat="47.08047" lon="-1.49689">
        <ele>18.330899</ele>
        <time>2022-06-27T04:31:27.955Z</time>
      </trkpt>
      <trkpt lat="47.08051" lon="-1.49737">
        <ele>18.204166</ele>
        <time>2022-06-27T04:31:39.272Z</time>
      </trkpt>
      <trkpt lat="47.0804" lon="-1.49794">
        <ele>18.652382</ele>
        <time>2022-06-27T04:31:54.323Z</time>
      </trkpt>
      <trkpt lat="47.08039" lon="-1.49806">
        <ele>18.743072</ele>
        <time>2022-06-27T04:31:57.439Z</time>
      </trkpt>
      <trkpt lat="47.08048" lon="-1.49827">
        <ele>18.923196</ele>
        <time>2022-06-27T04:32:05.275Z</time>
      </trkpt>
      <trkpt lat="47.08068" lon="-1.49838">
        <ele>19.161858</ele>
        <time>2022-06-27T04:32:13.894Z</time>
      </trkpt>
      <trkpt lat="47.08075" lon="-1.4985">
        <ele>19.280138</ele>
        <time>2022-06-27T04:32:19.432Z</time>
      </trkpt>
      <trkpt lat="47.0808" lon="-1.49883">
        <ele>19.531843</ele>
        <time>2022-06-27T04:32:29.495Z</time>
      </trkpt>
      <trkpt lat="47.0808" lon="-1.49883">
        <ele>19.535037</ele>
        <time>2022-06-27T04:32:29.694Z</time>
      </trkpt>
      <trkpt lat="47.08079" lon="-1.4991">
        <ele>19.734693</ele>
        <time>2022-06-27T04:32:39.763Z</time>
      </trkpt>
      <trkpt lat="47.0806" lon="-1.4994">
        <ele>20.143494</ele>
        <time>2022-06-27T04:32:50.343Z</time>
      </trkpt>
      <trkpt lat="47.08037" lon="-1.50054">
        <ele>22.378709</ele>
        <time>2022-06-27T04:33:23.226Z</time>
      </trkpt>
      <trkpt lat="47.08017" lon="-1.50119">
        <ele>23.717268</ele>
        <time>2022-06-27T04:33:42.008Z</time>
      </trkpt>
      <trkpt lat="47.08" lon="-1.50188">
        <ele>24.948533</ele>
        <time>2022-06-27T04:33:58.164Z</time>
      </trkpt>
      <trkpt lat="47.07985" lon="-1.50283">
        <ele>25.237284</ele>
        <time>2022-06-27T04:34:17.352Z</time>
      </trkpt>
      <trkpt lat="47.07972" lon="-1.50327">
        <ele>25.378734</ele>
        <time>2022-06-27T04:34:25.550Z</time>
      </trkpt>
      <trkpt lat="47.07932" lon="-1.504">
        <ele>25.65252</ele>
        <time>2022-06-27T04:34:39.614Z</time>
      </trkpt>
      <trkpt lat="47.07903" lon="-1.50479">
        <ele>25.252225</ele>
        <time>2022-06-27T04:34:52.504Z</time>
      </trkpt>
      <trkpt lat="47.07842" lon="-1.50569">
        <ele>24.462564</ele>
        <time>2022-06-27T04:35:10.393Z</time>
      </trkpt>
      <trkpt lat="47.07812" lon="-1.50622">
        <ele>24.076701</ele>
        <time>2022-06-27T04:35:20.161Z</time>
      </trkpt>
      <trkpt lat="47.07773" lon="-1.5074">
        <ele>24.136265</ele>
        <time>2022-06-27T04:35:39.602Z</time>
      </trkpt>
      <trkpt lat="47.07747" lon="-1.50806">
        <ele>24.171191</ele>
        <time>2022-06-27T04:35:52.766Z</time>
      </trkpt>
      <trkpt lat="47.07717" lon="-1.50865">
        <ele>24.410719</ele>
        <time>2022-06-27T04:36:06.851Z</time>
      </trkpt>
      <trkpt lat="47.07602" lon="-1.51069">
        <ele>26.877951</ele>
        <time>2022-06-27T04:37:02.786Z</time>
      </trkpt>
      <trkpt lat="47.07563" lon="-1.51175">
        <ele>27.54386</ele>
        <time>2022-06-27T04:37:26.033Z</time>
      </trkpt>
      <trkpt lat="47.07545" lon="-1.51266">
        <ele>28.063329</ele>
        <time>2022-06-27T04:37:42.535Z</time>
      </trkpt>
      <trkpt lat="47.07498" lon="-1.51436">
        <ele>28.440054</ele>
        <time>2022-06-27T04:38:12.896Z</time>
      </trkpt>
      <trkpt lat="47.07499" lon="-1.51453">
        <ele>28.464311</ele>
        <time>2022-06-27T04:38:15.657Z</time>
      </trkpt>
      <trkpt lat="47.07508" lon="-1.5146">
        <ele>28.4873</ele>
        <time>2022-06-27T04:38:18.217Z</time>
      </trkpt>
      <trkpt lat="47.07574" lon="-1.51466">
        <ele>28.622606</ele>
        <time>2022-06-27T04:38:33.890Z</time>
      </trkpt>
      <trkpt lat="47.07569" lon="-1.51489">
        <ele>28.652085</ele>
        <time>2022-06-27T04:38:40.108Z</time>
      </trkpt>
      <trkpt lat="47.07561" lon="-1.515">
        <ele>28.671526</ele>
        <time>2022-06-27T04:38:44.264Z</time>
      </trkpt>
      <trkpt lat="47.07502" lon="-1.51566">
        <ele>28.804468</ele>
        <time>2022-06-27T04:39:12.592Z</time>
      </trkpt>
      <trkpt lat="47.07428" lon="-1.51671">
        <ele>28.94491</ele>
        <time>2022-06-27T04:39:51.618Z</time>
      </trkpt>
      <trkpt lat="47.07408" lon="-1.51669">
        <ele>28.958978</ele>
        <time>2022-06-27T04:39:59.181Z</time>
      </trkpt>
      <trkpt lat="47.07372" lon="-1.5168">
        <ele>28.984744</ele>
        <time>2022-06-27T04:40:13.031Z</time>
      </trkpt>
      <trkpt lat="47.07227" lon="-1.5177">
        <ele>28.796706</ele>
        <time>2022-06-27T04:41:11.068Z</time>
      </trkpt>
      <trkpt lat="47.06965" lon="-1.51936">
        <ele>27.587377</ele>
        <time>2022-06-27T04:42:52.822Z</time>
      </trkpt>
      <trkpt lat="47.06955" lon="-1.51955">
        <ele>27.596739</ele>
        <time>2022-06-27T04:42:58.597Z</time>
      </trkpt>
      <trkpt lat="47.06942" lon="-1.51949">
        <ele>27.604761</ele>
        <time>2022-06-27T04:43:01.744Z</time>
      </trkpt>
      <trkpt lat="47.06934" lon="-1.51961">
        <ele>27.611811</ele>
        <time>2022-06-27T04:43:06.013Z</time>
      </trkpt>
      <trkpt lat="47.06766" lon="-1.52067">
        <ele>27.717766</ele>
        <time>2022-06-27T04:44:15.451Z</time>
      </trkpt>
      <trkpt lat="47.06741" lon="-1.52091">
        <ele>27.732236</ele>
        <time>2022-06-27T04:44:26.857Z</time>
      </trkpt>
      <trkpt lat="47.06732" lon="-1.52102">
        <ele>27.737993</ele>
        <time>2022-06-27T04:44:31.420Z</time>
      </trkpt>
      <trkpt lat="47.06746" lon="-1.52119">
        <ele>27.747057</ele>
        <time>2022-06-27T04:44:35.851Z</time>
      </trkpt>
      <trkpt lat="47.06757" lon="-1.52147">
        <ele>27.757899</ele>
        <time>2022-06-27T04:44:41.233Z</time>
      </trkpt>
      <trkpt lat="47.06811" lon="-1.52347">
        <ele>27.482529</ele>
        <time>2022-06-27T04:45:14.298Z</time>
      </trkpt>
      <trkpt lat="47.06828" lon="-1.5243">
        <ele>27.293292</ele>
        <time>2022-06-27T04:45:27.253Z</time>
      </trkpt>
      <trkpt lat="47.06844" lon="-1.52552">
        <ele>26.841129</ele>
        <time>2022-06-27T04:45:45.589Z</time>
      </trkpt>
      <trkpt lat="47.06874" lon="-1.52681">
        <ele>26.24491</ele>
        <time>2022-06-27T04:46:05.442Z</time>
      </trkpt>
      <trkpt lat="47.06872" lon="-1.52717">
        <ele>26.087949</ele>
        <time>2022-06-27T04:46:10.740Z</time>
      </trkpt>
      <trkpt lat="47.06843" lon="-1.52792">
        <ele>25.754378</ele>
        <time>2022-06-27T04:46:23.368Z</time>
      </trkpt>
      <trkpt lat="47.06841" lon="-1.52809">
        <ele>25.687539</ele>
        <time>2022-06-27T04:46:25.948Z</time>
      </trkpt>
      <trkpt lat="47.0683" lon="-1.52813">
        <ele>25.625552</ele>
        <time>2022-06-27T04:46:29.782Z</time>
      </trkpt>
      <trkpt lat="47.06811" lon="-1.52841">
        <ele>25.470672</ele>
        <time>2022-06-27T04:46:39.618Z</time>
      </trkpt>
      <trkpt lat="47.06701" lon="-1.5303">
        <ele>24.710703</ele>
        <time>2022-06-27T04:47:39.851Z</time>
      </trkpt>
      <trkpt lat="47.06684" lon="-1.53059">
        <ele>24.619822</ele>
        <time>2022-06-27T04:47:49.069Z</time>
      </trkpt>
      <trkpt lat="47.06496" lon="-1.53396">
        <ele>23.979481</ele>
        <time>2022-06-27T04:49:37.844Z</time>
      </trkpt>
      <trkpt lat="47.0648" lon="-1.53433">
        <ele>23.914536</ele>
        <time>2022-06-27T04:49:48.935Z</time>
      </trkpt>
      <trkpt lat="47.06459" lon="-1.5352">
        <ele>23.77815</ele>
        <time>2022-06-27T04:50:12.135Z</time>
      </trkpt>
      <trkpt lat="47.06341" lon="-1.53551">
        <ele>23.197225</ele>
        <time>2022-06-27T04:50:54.876Z</time>
      </trkpt>
      <trkpt lat="47.06369" lon="-1.53669">
        <ele>22.704119</ele>
        <time>2022-06-27T04:51:13.073Z</time>
      </trkpt>
      <trkpt lat="47.06368" lon="-1.53682">
        <ele>22.650076</ele>
        <time>2022-06-27T04:51:14.910Z</time>
      </trkpt>
      <trkpt lat="47.06374" lon="-1.53687">
        <ele>22.600275</ele>
        <time>2022-06-27T04:51:17.307Z</time>
      </trkpt>
      <trkpt lat="47.06396" lon="-1.53749">
        <ele>22.270569</ele>
        <time>2022-06-27T04:51:33.974Z</time>
      </trkpt>
      <trkpt lat="47.06431" lon="-1.53889">
        <ele>21.56772</ele>
        <time>2022-06-27T04:52:09.299Z</time>
      </trkpt>
      <trkpt lat="47.06452" lon="-1.53938">
        <ele>21.416629</ele>
        <time>2022-06-27T04:52:23.543Z</time>
      </trkpt>
      <trkpt lat="47.0647" lon="-1.53965">
        <ele>21.412258</ele>
        <time>2022-06-27T04:52:32.972Z</time>
      </trkpt>
      <trkpt lat="47.06515" lon="-1.54014">
        <ele>21.402774</ele>
        <time>2022-06-27T04:52:53.757Z</time>
      </trkpt>
      <trkpt lat="47.06528" lon="-1.54049">
        <ele>21.398169</ele>
        <time>2022-06-27T04:53:04.073Z</time>
      </trkpt>
      <trkpt lat="47.06536" lon="-1.54141">
        <ele>21.434059</ele>
        <time>2022-06-27T04:53:28.262Z</time>
      </trkpt>
      <trkpt lat="47.06547" lon="-1.54255">
        <ele>21.747263</ele>
        <time>2022-06-27T04:53:59.100Z</time>
      </trkpt>
      <trkpt lat="47.06567" lon="-1.54348">
        <ele>22.017139</ele>
        <time>2022-06-27T04:54:25.550Z</time>
      </trkpt>
      <trkpt lat="47.06583" lon="-1.54394">
        <ele>22.119787</ele>
        <time>2022-06-27T04:54:39.219Z</time>
      </trkpt>
      <trkpt lat="47.06648" lon="-1.54522">
        <ele>22.187616</ele>
        <time>2022-06-27T04:55:20.179Z</time>
      </trkpt>
      <trkpt lat="47.06784" lon="-1.54704">
        <ele>21.774303</ele>
        <time>2022-06-27T04:56:27.028Z</time>
      </trkpt>
      <trkpt lat="47.06795" lon="-1.54726">
        <ele>21.707492</ele>
        <time>2022-06-27T04:56:33.593Z</time>
      </trkpt>
      <trkpt lat="47.06777" lon="-1.54847">
        <ele>21.358668</ele>
        <time>2022-06-27T04:57:03.626Z</time>
      </trkpt>
      <trkpt lat="47.06744" lon="-1.54989">
        <ele>20.897356</ele>
        <time>2022-06-27T04:57:40.110Z</time>
      </trkpt>
      <trkpt lat="47.06704" lon="-1.55318">
        <ele>20.2438</ele>
        <time>2022-06-27T04:59:03.226Z</time>
      </trkpt>
      <trkpt lat="47.06646" lon="-1.55312">
        <ele>19.987703</ele>
        <time>2022-06-27T04:59:24.447Z</time>
      </trkpt>
      <trkpt lat="47.0657" lon="-1.55282">
        <ele>19.646761</ele>
        <time>2022-06-27T04:59:52.315Z</time>
      </trkpt>
      <trkpt lat="47.0657" lon="-1.55282">
        <ele>19.644502</ele>
        <time>2022-06-27T04:59:52.427Z</time>
      </trkpt>
      <trkpt lat="47.06432" lon="-1.5526">
        <ele>19.198405</ele>
        <time>2022-06-27T05:00:41.921Z</time>
      </trkpt>
      <trkpt lat="47.06429" lon="-1.55257">
        <ele>19.186439</ele>
        <time>2022-06-27T05:00:43.430Z</time>
      </trkpt>
      <trkpt lat="47.06425" lon="-1.552">
        <ele>19.071204</ele>
        <time>2022-06-27T05:00:57.504Z</time>
      </trkpt>
      <trkpt lat="47.06402" lon="-1.5512">
        <ele>19.063105</ele>
        <time>2022-06-27T05:01:19.806Z</time>
      </trkpt>
      <trkpt lat="47.06329" lon="-1.55167">
        <ele>19.204476</ele>
        <time>2022-06-27T05:01:50.371Z</time>
      </trkpt>
      <trkpt lat="47.0626" lon="-1.55262">
        <ele>19.331117</ele>
        <time>2022-06-27T05:02:26.708Z</time>
      </trkpt>
      <trkpt lat="47.06225" lon="-1.553">
        <ele>19.347542</ele>
        <time>2022-06-27T05:02:42.890Z</time>
      </trkpt>
      <trkpt lat="47.06211" lon="-1.55309">
        <ele>19.353329</ele>
        <time>2022-06-27T05:02:48.611Z</time>
      </trkpt>
      <trkpt lat="47.06204" lon="-1.55274">
        <ele>19.362709</ele>
        <time>2022-06-27T05:02:54.097Z</time>
      </trkpt>
      <trkpt lat="47.06145" lon="-1.55319">
        <ele>19.387822</ele>
        <time>2022-06-27T05:03:09.232Z</time>
      </trkpt>
      <trkpt lat="47.06043" lon="-1.55345">
        <ele>19.402103</ele>
        <time>2022-06-27T05:03:32.787Z</time>
      </trkpt>
      <trkpt lat="47.06029" lon="-1.55367">
        <ele>19.404914</ele>
        <time>2022-06-27T05:03:37.704Z</time>
      </trkpt>
      <trkpt lat="47.06015" lon="-1.55416">
        <ele>19.409857</ele>
        <time>2022-06-27T05:03:46.509Z</time>
      </trkpt>
      <trkpt lat="47.05963" lon="-1.5547">
        <ele>19.673918</ele>
        <time>2022-06-27T05:04:01.565Z</time>
      </trkpt>
      <trkpt lat="47.05928" lon="-1.5551">
        <ele>19.936837</ele>
        <time>2022-06-27T05:04:13.523Z</time>
      </trkpt>
      <trkpt lat="47.05915" lon="-1.55538">
        <ele>20.079761</ele>
        <time>2022-06-27T05:04:19.773Z</time>
      </trkpt>
      <trkpt lat="47.05917" lon="-1.55564">
        <ele>20.184485</ele>
        <time>2022-06-27T05:04:24.830Z</time>
      </trkpt>
      <trkpt lat="47.05945" lon="-1.55633">
        <ele>20.496483</ele>
        <time>2022-06-27T05:04:39.664Z</time>
      </trkpt>
      <trkpt lat="47.05968" lon="-1.55686">
        <ele>20.606072</ele>
        <time>2022-06-27T05:04:57.491Z</time>
      </trkpt>
      <trkpt lat="47.05979" lon="-1.55701">
        <ele>20.643145</ele>
        <time>2022-06-27T05:05:03.182Z</time>
      </trkpt>
      <trkpt lat="47.06003" lon="-1.5577">
        <ele>20.775958</ele>
        <time>2022-06-27T05:05:23.125Z</time>
      </trkpt>
      <trkpt lat="47.06001" lon="-1.55793">
        <ele>20.815827</ele>
        <time>2022-06-27T05:05:29.145Z</time>
      </trkpt>
      <trkpt lat="47.06016" lon="-1.55807">
        <ele>20.859656</ele>
        <time>2022-06-27T05:05:35.541Z</time>
      </trkpt>
      <trkpt lat="47.06025" lon="-1.55861">
        <ele>20.898293</ele>
        <time>2022-06-27T05:05:50.065Z</time>
      </trkpt>
      <trkpt lat="47.06037" lon="-1.55939">
        <ele>20.558937</ele>
        <time>2022-06-27T05:06:09.159Z</time>
      </trkpt>
      <trkpt lat="47.06051" lon="-1.56129">
        <ele>19.735497</ele>
        <time>2022-06-27T05:06:54.765Z</time>
      </trkpt>
      <trkpt lat="47.06043" lon="-1.56225">
        <ele>19.31305</ele>
        <time>2022-06-27T05:07:17.690Z</time>
      </trkpt>
      <trkpt lat="47.06045" lon="-1.56265">
        <ele>19.134744</ele>
        <time>2022-06-27T05:07:27.413Z</time>
      </trkpt>
      <trkpt lat="47.06013" lon="-1.56334">
        <ele>18.767124</ele>
        <time>2022-06-27T05:07:47.581Z</time>
      </trkpt>
      <trkpt lat="47.05997" lon="-1.56348">
        <ele>18.647904</ele>
        <time>2022-06-27T05:07:54.181Z</time>
      </trkpt>
      <trkpt lat="47.05996" lon="-1.56374">
        <ele>18.569007</ele>
        <time>2022-06-27T05:08:00.534Z</time>
      </trkpt>
      <trkpt lat="47.05982" lon="-1.56373">
        <ele>18.510184</ele>
        <time>2022-06-27T05:08:05.352Z</time>
      </trkpt>
      <trkpt lat="47.05962" lon="-1.56415">
        <ele>18.353953</ele>
        <time>2022-06-27T05:08:18.141Z</time>
      </trkpt>
      <trkpt lat="47.05888" lon="-1.56527">
        <ele>17.885331</ele>
        <time>2022-06-27T05:08:56.388Z</time>
      </trkpt>
      <trkpt lat="47.05882" lon="-1.56548">
        <ele>17.799701</ele>
        <time>2022-06-27T05:09:01.676Z</time>
      </trkpt>
      <trkpt lat="47.05869" lon="-1.56554">
        <ele>17.706562</ele>
        <time>2022-06-27T05:09:06.702Z</time>
      </trkpt>
      <trkpt lat="47.05785" lon="-1.56671">
        <ele>16.940863</ele>
        <time>2022-06-27T05:09:47.542Z</time>
      </trkpt>
      <trkpt lat="47.05785" lon="-1.56671">
        <ele>16.938183</ele>
        <time>2022-06-27T05:09:47.635Z</time>
      </trkpt>
      <trkpt lat="47.05773" lon="-1.5668">
        <ele>16.851661</ele>
        <time>2022-06-27T05:09:52.320Z</time>
      </trkpt>
      <trkpt lat="47.05762" lon="-1.56708">
        <ele>16.705784</ele>
        <time>2022-06-27T05:10:00.296Z</time>
      </trkpt>
      <trkpt lat="47.05732" lon="-1.56726">
        <ele>16.505548</ele>
        <time>2022-06-27T05:10:11.831Z</time>
      </trkpt>
      <trkpt lat="47.05719" lon="-1.56724">
        <ele>16.428294</ele>
        <time>2022-06-27T05:10:16.296Z</time>
      </trkpt>
      <trkpt lat="47.0571" lon="-1.5673">
        <ele>16.365867</ele>
        <time>2022-06-27T05:10:20.017Z</time>
      </trkpt>
      <trkpt lat="47.05697" lon="-1.56748">
        <ele>16.262977</ele>
        <time>2022-06-27T05:10:25.965Z</time>
      </trkpt>
      <trkpt lat="47.0562" lon="-1.56782">
        <ele>15.775839</ele>
        <time>2022-06-27T05:10:54.783Z</time>
      </trkpt>
      <trkpt lat="47.05646" lon="-1.56988">
        <ele>15.164635</ele>
        <time>2022-06-27T05:11:46.063Z</time>
      </trkpt>
      <trkpt lat="47.05635" lon="-1.56981">
        <ele>15.116583</ele>
        <time>2022-06-27T05:11:48.723Z</time>
      </trkpt>
      <trkpt lat="47.05478" lon="-1.57296">
        <ele>14.319431</ele>
        <time>2022-06-27T05:12:47.919Z</time>
      </trkpt>
      <trkpt lat="47.05403" lon="-1.57447">
        <ele>14.252504</ele>
        <time>2022-06-27T05:13:17.209Z</time>
      </trkpt>
      <trkpt lat="47.05308" lon="-1.57663">
        <ele>14.435768</ele>
        <time>2022-06-27T05:13:59.231Z</time>
      </trkpt>
      <trkpt lat="47.05184" lon="-1.57947">
        <ele>14.707864</ele>
        <time>2022-06-27T05:14:55.033Z</time>
      </trkpt>
      <trkpt lat="47.05151" lon="-1.58066">
        <ele>14.370119</ele>
        <time>2022-06-27T05:15:14.699Z</time>
      </trkpt>
      <trkpt lat="47.05081" lon="-1.58323">
        <ele>13.216213</ele>
        <time>2022-06-27T05:15:54.497Z</time>
      </trkpt>
      <trkpt lat="47.05077" lon="-1.58339">
        <ele>13.129416</ele>
        <time>2022-06-27T05:15:56.985Z</time>
      </trkpt>
      <trkpt lat="47.05147" lon="-1.58426">
        <ele>12.761394</ele>
        <time>2022-06-27T05:16:16.762Z</time>
      </trkpt>
      <trkpt lat="47.05157" lon="-1.58452">
        <ele>12.7613</ele>
        <time>2022-06-27T05:16:21.404Z</time>
      </trkpt>
      <trkpt lat="47.05163" lon="-1.58516">
        <ele>12.761094</ele>
        <time>2022-06-27T05:16:31.833Z</time>
      </trkpt>
      <trkpt lat="47.05173" lon="-1.58547">
        <ele>12.760986</ele>
        <time>2022-06-27T05:16:37.721Z</time>
      </trkpt>
      <trkpt lat="47.05185" lon="-1.58558">
        <ele>12.760919</ele>
        <time>2022-06-27T05:16:41.189Z</time>
      </trkpt>
      <trkpt lat="47.05229" lon="-1.58569">
        <ele>12.764962</ele>
        <time>2022-06-27T05:16:52.470Z</time>
      </trkpt>
      <trkpt lat="47.05233" lon="-1.58693">
        <ele>12.802671</ele>
        <time>2022-06-27T05:17:13.580Z</time>
      </trkpt>
      <trkpt lat="47.05344" lon="-1.58994">
        <ele>12.38228</ele>
        <time>2022-06-27T05:18:05.531Z</time>
      </trkpt>
      <trkpt lat="47.05362" lon="-1.5901">
        <ele>12.315778</ele>
        <time>2022-06-27T05:18:10.251Z</time>
      </trkpt>
      <trkpt lat="47.05376" lon="-1.59005">
        <ele>12.277357</ele>
        <time>2022-06-27T05:18:13.371Z</time>
      </trkpt>
      <trkpt lat="47.05425" lon="-1.58959">
        <ele>12.217002</ele>
        <time>2022-06-27T05:18:26.425Z</time>
      </trkpt>
      <trkpt lat="47.05426" lon="-1.58987">
        <ele>12.197551</ele>
        <time>2022-06-27T05:18:33.270Z</time>
      </trkpt>
      <trkpt lat="47.0539" lon="-1.59215">
        <ele>11.971066</ele>
        <time>2022-06-27T05:19:32.510Z</time>
      </trkpt>
      <trkpt lat="47.0538" lon="-1.59371">
        <ele>11.752085</ele>
        <time>2022-06-27T05:20:11.290Z</time>
      </trkpt>
      <trkpt lat="47.05372" lon="-1.594">
        <ele>11.696789</ele>
        <time>2022-06-27T05:20:18.925Z</time>
      </trkpt>
      <trkpt lat="47.05309" lon="-1.59577">
        <ele>11.191471</ele>
        <time>2022-06-27T05:21:07.886Z</time>
      </trkpt>
      <trkpt lat="47.05274" lon="-1.59719">
        <ele>10.828052</ele>
        <time>2022-06-27T05:21:44.946Z</time>
      </trkpt>
      <trkpt lat="47.05253" lon="-1.59783">
        <ele>10.663039</ele>
        <time>2022-06-27T05:22:02.352Z</time>
      </trkpt>
      <trkpt lat="47.05224" lon="-1.59876">
        <ele>10.421922</ele>
        <time>2022-06-27T05:22:27.713Z</time>
      </trkpt>
      <trkpt lat="47.05205" lon="-1.5997">
        <ele>10.175759</ele>
        <time>2022-06-27T05:22:51.957Z</time>
      </trkpt>
      <trkpt lat="47.05181" lon="-1.60104">
        <ele>9.825678</ele>
        <time>2022-06-27T05:23:25.843Z</time>
      </trkpt>
      <trkpt lat="47.051" lon="-1.60442">
        <ele>8.92925</ele>
        <time>2022-06-27T05:24:53.568Z</time>
      </trkpt>
      <trkpt lat="47.05068" lon="-1.60593">
        <ele>8.585419</ele>
        <time>2022-06-27T05:25:32.539Z</time>
      </trkpt>
      <trkpt lat="47.0506" lon="-1.6072">
        <ele>8.291457</ele>
        <time>2022-06-27T05:26:04.158Z</time>
      </trkpt>
      <trkpt lat="47.05064" lon="-1.60906">
        <ele>7.882368</ele>
        <time>2022-06-27T05:26:49.842Z</time>
      </trkpt>
      <trkpt lat="47.05033" lon="-1.61067">
        <ele>7.719518</ele>
        <time>2022-06-27T05:27:31.534Z</time>
      </trkpt>
      <trkpt lat="47.05007" lon="-1.61162">
        <ele>7.631021</ele>
        <time>2022-06-27T05:27:46.734Z</time>
      </trkpt>
      <trkpt lat="47.04982" lon="-1.6137">
        <ele>7.523923</ele>
        <time>2022-06-27T05:28:18.986Z</time>
      </trkpt>
      <trkpt lat="47.04948" lon="-1.61525">
        <ele>7.175291</ele>
        <time>2022-06-27T05:28:42.664Z</time>
      </trkpt>
      <trkpt lat="47.04882" lon="-1.61828">
        <ele>6.300989</ele>
        <time>2022-06-27T05:29:27.993Z</time>
      </trkpt>
      <trkpt lat="47.04881" lon="-1.6188">
        <ele>6.147887</ele>
        <time>2022-06-27T05:29:35.575Z</time>
      </trkpt>
      <trkpt lat="47.04898" lon="-1.62066">
        <ele>5.805223</ele>
        <time>2022-06-27T05:30:03.251Z</time>
      </trkpt>
      <trkpt lat="47.04903" lon="-1.62119">
        <ele>5.717049</ele>
        <time>2022-06-27T05:30:11.138Z</time>
      </trkpt>
      <trkpt lat="47.04748" lon="-1.62243">
        <ele>5.014865</ele>
        <time>2022-06-27T05:30:50.113Z</time>
      </trkpt>
      <trkpt lat="47.04665" lon="-1.62312">
        <ele>4.523258</ele>
        <time>2022-06-27T05:31:10.718Z</time>
      </trkpt>
      <trkpt lat="47.04664" lon="-1.62308">
        <ele>4.503708</ele>
        <time>2022-06-27T05:31:11.415Z</time>
      </trkpt>
      <trkpt lat="47.04635" lon="-1.62333">
        <ele>4.314172</ele>
        <time>2022-06-27T05:31:18.656Z</time>
      </trkpt>
      <trkpt lat="47.04601" lon="-1.62404">
        <ele>3.977986</ele>
        <time>2022-06-27T05:31:31.545Z</time>
      </trkpt>
      <trkpt lat="47.04589" lon="-1.62442">
        <ele>3.823964</ele>
        <time>2022-06-27T05:31:37.796Z</time>
      </trkpt>
      <trkpt lat="47.04567" lon="-1.62467">
        <ele>3.712751</ele>
        <time>2022-06-27T05:31:43.770Z</time>
      </trkpt>
      <trkpt lat="47.04549" lon="-1.62476">
        <ele>3.631322</ele>
        <time>2022-06-27T05:31:48.166Z</time>
      </trkpt>
      <trkpt lat="47.04523" lon="-1.62474">
        <ele>3.52573</ele>
        <time>2022-06-27T05:31:53.832Z</time>
      </trkpt>
      <trkpt lat="47.04505" lon="-1.62487">
        <ele>3.445206</ele>
        <time>2022-06-27T05:31:58.125Z</time>
      </trkpt>
      <trkpt lat="47.04498" lon="-1.62518">
        <ele>3.355043</ele>
        <time>2022-06-27T05:32:02.968Z</time>
      </trkpt>
      <trkpt lat="47.04501" lon="-1.62548">
        <ele>3.269624</ele>
        <time>2022-06-27T05:32:07.498Z</time>
      </trkpt>
      <trkpt lat="47.04482" lon="-1.62584">
        <ele>3.142388</ele>
        <time>2022-06-27T05:32:18.588Z</time>
      </trkpt>
      <trkpt lat="47.04464" lon="-1.62832">
        <ele>3.201628</ele>
        <time>2022-06-27T05:33:21.603Z</time>
      </trkpt>
      <trkpt lat="47.04455" lon="-1.62888">
        <ele>3.309695</ele>
        <time>2022-06-27T05:33:37.501Z</time>
      </trkpt>
      <trkpt lat="47.04437" lon="-1.62949">
        <ele>3.515736</ele>
        <time>2022-06-27T05:33:55.256Z</time>
      </trkpt>
      <trkpt lat="47.04429" lon="-1.63025">
        <ele>3.760016</ele>
        <time>2022-06-27T05:34:16.602Z</time>
      </trkpt>
      <trkpt lat="47.04425" lon="-1.63036">
        <ele>3.800122</ele>
        <time>2022-06-27T05:34:20.059Z</time>
      </trkpt>
      <trkpt lat="47.04406" lon="-1.6309">
        <ele>3.990101</ele>
        <time>2022-06-27T05:34:36.245Z</time>
      </trkpt>
      <trkpt lat="47.04397" lon="-1.63142">
        <ele>3.924825</ele>
        <time>2022-06-27T05:34:50.253Z</time>
      </trkpt>
      <trkpt lat="47.04394" lon="-1.6319">
        <ele>3.764265</ele>
        <time>2022-06-27T05:35:02.330Z</time>
      </trkpt>
      <trkpt lat="47.04394" lon="-1.6319">
        <ele>3.762763</ele>
        <time>2022-06-27T05:35:02.417Z</time>
      </trkpt>
      <trkpt lat="47.04366" lon="-1.63186">
        <ele>3.625408</ele>
        <time>2022-06-27T05:35:09.692Z</time>
      </trkpt>
      <trkpt lat="47.04363" lon="-1.63268">
        <ele>3.352193</ele>
        <time>2022-06-27T05:35:24.163Z</time>
      </trkpt>
      <trkpt lat="47.04361" lon="-1.63282">
        <ele>3.304601</ele>
        <time>2022-06-27T05:35:26.683Z</time>
      </trkpt>
      <trkpt lat="47.04348" lon="-1.63327">
        <ele>3.141549</ele>
        <time>2022-06-27T05:35:35.296Z</time>
      </trkpt>
      <trkpt lat="47.04335" lon="-1.63375">
        <ele>2.966725</ele>
        <time>2022-06-27T05:35:44.399Z</time>
      </trkpt>
      <trkpt lat="47.04317" lon="-1.6345">
        <ele>2.697593</ele>
        <time>2022-06-27T05:35:58.411Z</time>
      </trkpt>
      <trkpt lat="47.04324" lon="-1.6346">
        <ele>2.649071</ele>
        <time>2022-06-27T05:36:00.937Z</time>
      </trkpt>
      <trkpt lat="47.04308" lon="-1.63487">
        <ele>2.527964</ele>
        <time>2022-06-27T05:36:07.242Z</time>
      </trkpt>
      <trkpt lat="47.04308" lon="-1.63487">
        <ele>2.526544</ele>
        <time>2022-06-27T05:36:07.320Z</time>
      </trkpt>
      <trkpt lat="47.04308" lon="-1.63487">
        <ele>2.524531</ele>
        <time>2022-06-27T05:36:07.482Z</time>
      </trkpt>
      <trkpt lat="47.043" lon="-1.63517">
        <ele>2.416619</ele>
        <time>2022-06-27T05:36:15.300Z</time>
      </trkpt>
      <trkpt lat="47.04303" lon="-1.63622">
        <ele>2.463089</ele>
        <time>2022-06-27T05:36:42.088Z</time>
      </trkpt>
      <trkpt lat="47.04302" lon="-1.63682">
        <ele>2.645059</ele>
        <time>2022-06-27T05:36:58.292Z</time>
      </trkpt>
      <trkpt lat="47.04306" lon="-1.63719">
        <ele>2.758503</ele>
        <time>2022-06-27T05:37:08.717Z</time>
      </trkpt>
      <trkpt lat="47.04333" lon="-1.63881">
        <ele>3.15651</ele>
        <time>2022-06-27T05:37:54.682Z</time>
      </trkpt>
      <trkpt lat="47.04356" lon="-1.63974">
        <ele>3.29108</ele>
        <time>2022-06-27T05:38:20.612Z</time>
      </trkpt>
      <trkpt lat="47.04364" lon="-1.63997">
        <ele>3.325126</ele>
        <time>2022-06-27T05:38:26.987Z</time>
      </trkpt>
      <trkpt lat="47.04387" lon="-1.64043">
        <ele>3.402201</ele>
        <time>2022-06-27T05:38:41.313Z</time>
      </trkpt>
      <trkpt lat="47.04409" lon="-1.64128">
        <ele>3.282209</ele>
        <time>2022-06-27T05:39:03.813Z</time>
      </trkpt>
      <trkpt lat="47.04404" lon="-1.6426">
        <ele>3.015148</ele>
        <time>2022-06-27T05:39:36.044Z</time>
      </trkpt>
      <trkpt lat="47.04404" lon="-1.6426">
        <ele>3.014542</ele>
        <time>2022-06-27T05:39:36.101Z</time>
      </trkpt>
      <trkpt lat="47.04411" lon="-1.64264">
        <ele>2.990958</ele>
        <time>2022-06-27T05:39:39.021Z</time>
      </trkpt>
      <trkpt lat="47.04453" lon="-1.64255">
        <ele>2.906605</ele>
        <time>2022-06-27T05:39:54.403Z</time>
      </trkpt>
      <trkpt lat="47.04459" lon="-1.6426">
        <ele>2.914722</ele>
        <time>2022-06-27T05:39:56.886Z</time>
      </trkpt>
      <trkpt lat="47.04502" lon="-1.64343">
        <ele>3.001446</ele>
        <time>2022-06-27T05:40:23.362Z</time>
      </trkpt>
      <trkpt lat="47.04515" lon="-1.64389">
        <ele>3.042865</ele>
        <time>2022-06-27T05:40:36.069Z</time>
      </trkpt>
      <trkpt lat="47.04549" lon="-1.64455">
        <ele>3.112129</ele>
        <time>2022-06-27T05:40:58.199Z</time>
      </trkpt>
      <trkpt lat="47.04564" lon="-1.64507">
        <ele>3.143617</ele>
        <time>2022-06-27T05:41:13.127Z</time>
      </trkpt>
      <trkpt lat="47.04565" lon="-1.64523">
        <ele>3.152487</ele>
        <time>2022-06-27T05:41:17.432Z</time>
      </trkpt>
      <trkpt lat="47.04557" lon="-1.64552">
        <ele>3.16967</ele>
        <time>2022-06-27T05:41:25.231Z</time>
      </trkpt>
      <trkpt lat="47.04565" lon="-1.64567">
        <ele>3.180186</ele>
        <time>2022-06-27T05:41:30.141Z</time>
      </trkpt>
      <trkpt lat="47.0458" lon="-1.64565">
        <ele>3.19204</ele>
        <time>2022-06-27T05:41:35.483Z</time>
      </trkpt>
      <trkpt lat="47.04573" lon="-1.64607">
        <ele>3.215605</ele>
        <time>2022-06-27T05:41:46.412Z</time>
      </trkpt>
      <trkpt lat="47.0455" lon="-1.6465">
        <ele>3.245993</ele>
        <time>2022-06-27T05:42:00.270Z</time>
      </trkpt>
      <trkpt lat="47.04527" lon="-1.64691">
        <ele>3.248602</ele>
        <time>2022-06-27T05:42:13.489Z</time>
      </trkpt>
      <trkpt lat="47.04525" lon="-1.64694">
        <ele>3.246917</ele>
        <time>2022-06-27T05:42:14.537Z</time>
      </trkpt>
      <trkpt lat="47.04491" lon="-1.64741">
        <ele>3.219754</ele>
        <time>2022-06-27T05:42:31.744Z</time>
      </trkpt>
      <trkpt lat="47.04483" lon="-1.6475">
        <ele>3.213841</ele>
        <time>2022-06-27T05:42:35.651Z</time>
      </trkpt>
      <trkpt lat="47.04462" lon="-1.64773">
        <ele>3.198193</ele>
        <time>2022-06-27T05:42:45.608Z</time>
      </trkpt>
      <trkpt lat="47.04461" lon="-1.64771">
        <ele>3.19723</ele>
        <time>2022-06-27T05:42:46.222Z</time>
      </trkpt>
      <trkpt lat="47.0443" lon="-1.64808">
        <ele>3.173657</ele>
        <time>2022-06-27T05:43:00.925Z</time>
      </trkpt>
      <trkpt lat="47.04418" lon="-1.64813">
        <ele>3.166365</ele>
        <time>2022-06-27T05:43:05.420Z</time>
      </trkpt>
      <trkpt lat="47.04412" lon="-1.64816">
        <ele>3.162701</ele>
        <time>2022-06-27T05:43:07.633Z</time>
      </trkpt>
      <trkpt lat="47.04416" lon="-1.64822">
        <ele>3.159442</ele>
        <time>2022-06-27T05:43:08.864Z</time>
      </trkpt>
      <trkpt lat="47.04437" lon="-1.64854">
        <ele>3.14314</ele>
        <time>2022-06-27T05:43:15.606Z</time>
      </trkpt>
      <trkpt lat="47.04451" lon="-1.64864">
        <ele>3.135391</ele>
        <time>2022-06-27T05:43:19.009Z</time>
      </trkpt>
      <trkpt lat="47.04452" lon="-1.64873">
        <ele>3.132141</ele>
        <time>2022-06-27T05:43:20.471Z</time>
      </trkpt>
      <trkpt lat="47.04485" lon="-1.6492">
        <ele>3.108448</ele>
        <time>2022-06-27T05:43:31.053Z</time>
      </trkpt>
      <trkpt lat="47.04439" lon="-1.64902">
        <ele>3.083982</ele>
        <time>2022-06-27T05:43:44.979Z</time>
      </trkpt>
      <trkpt lat="47.04427" lon="-1.64894">
        <ele>3.077008</ele>
        <time>2022-06-27T05:43:49.092Z</time>
      </trkpt>
      <trkpt lat="47.04407" lon="-1.64899">
        <ele>3.066863</ele>
        <time>2022-06-27T05:43:55.103Z</time>
      </trkpt>
      <trkpt lat="47.04322" lon="-1.64973">
        <ele>3.333829</ele>
        <time>2022-06-27T05:44:23.943Z</time>
      </trkpt>
      <trkpt lat="47.04245" lon="-1.65031">
        <ele>3.603089</ele>
        <time>2022-06-27T05:44:51.432Z</time>
      </trkpt>
      <trkpt lat="47.04116" lon="-1.6512">
        <ele>4.615409</ele>
        <time>2022-06-27T05:45:39.224Z</time>
      </trkpt>
      <trkpt lat="47.03876" lon="-1.65283">
        <ele>6.034717</ele>
        <time>2022-06-27T05:47:04.373Z</time>
      </trkpt>
      <trkpt lat="47.03859" lon="-1.65302">
        <ele>6.085079</ele>
        <time>2022-06-27T05:47:10.474Z</time>
      </trkpt>
      <trkpt lat="47.03846" lon="-1.6533">
        <ele>6.14125</ele>
        <time>2022-06-27T05:47:17.370Z</time>
      </trkpt>
      <trkpt lat="47.03869" lon="-1.65356">
        <ele>6.20992</ele>
        <time>2022-06-27T05:47:23.966Z</time>
      </trkpt>
      <trkpt lat="47.03881" lon="-1.65388">
        <ele>6.271105</ele>
        <time>2022-06-27T05:47:29.816Z</time>
      </trkpt>
      <trkpt lat="47.03898" lon="-1.6545">
        <ele>6.389685</ele>
        <time>2022-06-27T05:47:40.446Z</time>
      </trkpt>
      <trkpt lat="47.04011" lon="-1.65851">
        <ele>7.50081</ele>
        <time>2022-06-27T05:48:55.587Z</time>
      </trkpt>
      <trkpt lat="47.04047" lon="-1.65978">
        <ele>7.580577</ele>
        <time>2022-06-27T05:49:18.680Z</time>
      </trkpt>
      <trkpt lat="47.04169" lon="-1.66451">
        <ele>5.881474</ele>
        <time>2022-06-27T05:50:33.500Z</time>
      </trkpt>
      <trkpt lat="47.04213" lon="-1.66623">
        <ele>5.220723</ele>
        <time>2022-06-27T05:50:59.851Z</time>
      </trkpt>
      <trkpt lat="47.04384" lon="-1.67283">
        <ele>6.120559</ele>
        <time>2022-06-27T05:52:55.364Z</time>
      </trkpt>
      <trkpt lat="47.0441" lon="-1.67382">
        <ele>6.585489</ele>
        <time>2022-06-27T05:53:15.904Z</time>
      </trkpt>
      <trkpt lat="47.04468" lon="-1.6761">
        <ele>8.004223</ele>
        <time>2022-06-27T05:54:03.504Z</time>
      </trkpt>
      <trkpt lat="47.04698" lon="-1.68496">
        <ele>9.371605</ele>
        <time>2022-06-27T05:56:40.768Z</time>
      </trkpt>
      <trkpt lat="47.0489" lon="-1.69234">
        <ele>7.095839</ele>
        <time>2022-06-27T05:58:38.402Z</time>
      </trkpt>
      <trkpt lat="47.04938" lon="-1.69412">
        <ele>6.481118</ele>
        <time>2022-06-27T05:59:06.601Z</time>
      </trkpt>
      <trkpt lat="47.04985" lon="-1.69593">
        <ele>6.080418</ele>
        <time>2022-06-27T05:59:36.225Z</time>
      </trkpt>
      <trkpt lat="47.05009" lon="-1.69653">
        <ele>5.960573</ele>
        <time>2022-06-27T05:59:46.982Z</time>
      </trkpt>
      <trkpt lat="47.05128" lon="-1.69804">
        <ele>5.661435</ele>
        <time>2022-06-27T06:00:22.464Z</time>
      </trkpt>
      <trkpt lat="47.05148" lon="-1.69848">
        <ele>5.796808</ele>
        <time>2022-06-27T06:00:30.739Z</time>
      </trkpt>
      <trkpt lat="47.05154" lon="-1.69871">
        <ele>5.86333</ele>
        <time>2022-06-27T06:00:34.591Z</time>
      </trkpt>
      <trkpt lat="47.05156" lon="-1.69909">
        <ele>5.966393</ele>
        <time>2022-06-27T06:00:40.604Z</time>
      </trkpt>
      <trkpt lat="47.05243" lon="-1.70149">
        <ele>7.456834</ele>
        <time>2022-06-27T06:01:30.725Z</time>
      </trkpt>
      <trkpt lat="47.05248" lon="-1.7016">
        <ele>7.568078</ele>
        <time>2022-06-27T06:01:33.348Z</time>
      </trkpt>
      <trkpt lat="47.05336" lon="-1.704">
        <ele>10.029842</ele>
        <time>2022-06-27T06:02:33.076Z</time>
      </trkpt>
      <trkpt lat="47.05384" lon="-1.70671">
        <ele>11.632827</ele>
        <time>2022-06-27T06:03:24.858Z</time>
      </trkpt>
      <trkpt lat="47.05391" lon="-1.70712">
        <ele>11.759848</ele>
        <time>2022-06-27T06:03:31.345Z</time>
      </trkpt>
      <trkpt lat="47.05416" lon="-1.70891">
        <ele>12.358128</ele>
        <time>2022-06-27T06:04:00.335Z</time>
      </trkpt>
      <trkpt lat="47.05395" lon="-1.71145">
        <ele>13.599598</ele>
        <time>2022-06-27T06:04:48.162Z</time>
      </trkpt>
      <trkpt lat="47.05391" lon="-1.71185">
        <ele>13.874439</ele>
        <time>2022-06-27T06:04:56.234Z</time>
      </trkpt>
      <trkpt lat="47.05389" lon="-1.71236">
        <ele>14.216006</ele>
        <time>2022-06-27T06:05:06.012Z</time>
      </trkpt>
      <trkpt lat="47.05392" lon="-1.71277">
        <ele>14.495151</ele>
        <time>2022-06-27T06:05:14.143Z</time>
      </trkpt>
      <trkpt lat="47.05407" lon="-1.71403">
        <ele>15.388891</ele>
        <time>2022-06-27T06:05:39.176Z</time>
      </trkpt>
      <trkpt lat="47.05407" lon="-1.7145">
        <ele>15.717272</ele>
        <time>2022-06-27T06:05:48.283Z</time>
      </trkpt>
      <trkpt lat="47.05395" lon="-1.71599">
        <ele>16.756454</ele>
        <time>2022-06-27T06:06:16.740Z</time>
      </trkpt>
      <trkpt lat="47.05381" lon="-1.71739">
        <ele>17.717171</ele>
        <time>2022-06-27T06:06:44.408Z</time>
      </trkpt>
      <trkpt lat="47.05382" lon="-1.71771">
        <ele>17.935848</ele>
        <time>2022-06-27T06:06:50.673Z</time>
      </trkpt>
      <trkpt lat="47.05384" lon="-1.71809">
        <ele>18.193283</ele>
        <time>2022-06-27T06:06:57.717Z</time>
      </trkpt>
      <trkpt lat="47.05448" lon="-1.72093">
        <ele>20.130782</ele>
        <time>2022-06-27T06:07:53.418Z</time>
      </trkpt>
      <trkpt lat="47.05485" lon="-1.72271">
        <ele>21.745685</ele>
        <time>2022-06-27T06:08:31.657Z</time>
      </trkpt>
      <trkpt lat="47.05519" lon="-1.72395">
        <ele>22.725664</ele>
        <time>2022-06-27T06:08:59.091Z</time>
      </trkpt>
      <trkpt lat="47.05552" lon="-1.72522">
        <ele>23.609548</ele>
        <time>2022-06-27T06:09:24.766Z</time>
      </trkpt>
      <trkpt lat="47.05554" lon="-1.72532">
        <ele>23.676279</ele>
        <time>2022-06-27T06:09:26.563Z</time>
      </trkpt>
      <trkpt lat="47.05578" lon="-1.72648">
        <ele>24.069173</ele>
        <time>2022-06-27T06:09:47.344Z</time>
      </trkpt>
      <trkpt lat="47.05554" lon="-1.72532">
        <ele>24.286997</ele>
        <time>2022-06-27T06:10:07.705Z</time>
      </trkpt>
      <trkpt lat="47.05546" lon="-1.7254">
        <ele>24.314045</ele>
        <time>2022-06-27T06:10:14.809Z</time>
      </trkpt>
      <trkpt lat="47.05552" lon="-1.72568">
        <ele>24.367039</ele>
        <time>2022-06-27T06:10:19.272Z</time>
      </trkpt>
      <trkpt lat="47.05552" lon="-1.72568">
        <ele>24.367218</ele>
        <time>2022-06-27T06:10:19.378Z</time>
      </trkpt>
      <trkpt lat="47.05549" lon="-1.7262">
        <ele>24.357629</ele>
        <time>2022-06-27T06:10:27.098Z</time>
      </trkpt>
      <trkpt lat="47.0553" lon="-1.72625">
        <ele>24.331031</ele>
        <time>2022-06-27T06:10:31.256Z</time>
      </trkpt>
      <trkpt lat="47.05549" lon="-1.7262">
        <ele>24.304434</ele>
        <time>2022-06-27T06:10:35.410Z</time>
      </trkpt>
      <trkpt lat="47.05552" lon="-1.72658">
        <ele>24.267098</ele>
        <time>2022-06-27T06:10:41.220Z</time>
      </trkpt>
      <trkpt lat="47.05561" lon="-1.72657">
        <ele>24.254928</ele>
        <time>2022-06-27T06:10:43.262Z</time>
      </trkpt>
      <trkpt lat="47.05578" lon="-1.72648">
        <ele>24.229901</ele>
        <time>2022-06-27T06:10:47.357Z</time>
      </trkpt>
      <trkpt lat="47.05554" lon="-1.72532">
        <ele>24.053362</ele>
        <time>2022-06-27T06:11:05.882Z</time>
      </trkpt>
      <trkpt lat="47.05552" lon="-1.72522">
        <ele>24.020865</ele>
        <time>2022-06-27T06:11:07.388Z</time>
      </trkpt>
      <trkpt lat="47.05596" lon="-1.72506">
        <ele>23.815886</ele>
        <time>2022-06-27T06:11:16.957Z</time>
      </trkpt>
      <trkpt lat="47.056" lon="-1.72505">
        <ele>23.793078</ele>
        <time>2022-06-27T06:11:18.013Z</time>
      </trkpt>
      <trkpt lat="47.05625" lon="-1.72496">
        <ele>23.675294</ele>
        <time>2022-06-27T06:11:23.645Z</time>
      </trkpt>
      <trkpt lat="47.05634" lon="-1.72493">
        <ele>23.631546</ele>
        <time>2022-06-27T06:11:25.726Z</time>
      </trkpt>
      <trkpt lat="47.05689" lon="-1.72468">
        <ele>23.367976</ele>
        <time>2022-06-27T06:11:38.451Z</time>
      </trkpt>
      <trkpt lat="47.05694" lon="-1.72431">
        <ele>23.162303</ele>
        <time>2022-06-27T06:11:44.084Z</time>
      </trkpt>
      <trkpt lat="47.05768" lon="-1.72463">
        <ele>22.290368</ele>
        <time>2022-06-27T06:12:00.408Z</time>
      </trkpt>
      <trkpt lat="47.05795" lon="-1.72489">
        <ele>21.927012</ele>
        <time>2022-06-27T06:12:06.941Z</time>
      </trkpt>
      <trkpt lat="47.05813" lon="-1.72492">
        <ele>21.726569</ele>
        <time>2022-06-27T06:12:10.533Z</time>
      </trkpt>
      <trkpt lat="47.05894" lon="-1.72481">
        <ele>20.324846</ele>
        <time>2022-06-27T06:12:26.346Z</time>
      </trkpt>
      <trkpt lat="47.06054" lon="-1.72437">
        <ele>16.669358</ele>
        <time>2022-06-27T06:12:56.663Z</time>
      </trkpt>
      <trkpt lat="47.06139" lon="-1.72396">
        <ele>14.837862</ele>
        <time>2022-06-27T06:13:13.895Z</time>
      </trkpt>
      <trkpt lat="47.06209" lon="-1.72362">
        <ele>13.381052</ele>
        <time>2022-06-27T06:13:28.230Z</time>
      </trkpt>
      <trkpt lat="47.06234" lon="-1.72365">
        <ele>12.974431</ele>
        <time>2022-06-27T06:13:33.260Z</time>
      </trkpt>
      <trkpt lat="47.06267" lon="-1.72381">
        <ele>12.408281</ele>
        <time>2022-06-27T06:13:40.229Z</time>
      </trkpt>
      <trkpt lat="47.063" lon="-1.72376">
        <ele>11.878962</ele>
        <time>2022-06-27T06:13:46.685Z</time>
      </trkpt>
      <trkpt lat="47.06371" lon="-1.72314">
        <ele>10.535975</ele>
        <time>2022-06-27T06:14:02.936Z</time>
      </trkpt>
      <trkpt lat="47.06395" lon="-1.72276">
        <ele>9.887775</ele>
        <time>2022-06-27T06:14:09.837Z</time>
      </trkpt>
      <trkpt lat="47.06444" lon="-1.72176">
        <ele>8.349732</ele>
        <time>2022-06-27T06:14:26.353Z</time>
      </trkpt>
      <trkpt lat="47.06456" lon="-1.7217">
        <ele>8.103268</ele>
        <time>2022-06-27T06:14:28.907Z</time>
      </trkpt>
      <trkpt lat="47.06491" lon="-1.72173">
        <ele>7.472754</ele>
        <time>2022-06-27T06:14:35.399Z</time>
      </trkpt>
      <trkpt lat="47.06506" lon="-1.72164">
        <ele>7.098788</ele>
        <time>2022-06-27T06:14:38.545Z</time>
      </trkpt>
      <trkpt lat="47.06543" lon="-1.72127">
        <ele>5.87659</ele>
        <time>2022-06-27T06:14:46.855Z</time>
      </trkpt>
      <trkpt lat="47.06604" lon="-1.72117">
        <ele>4.177529</ele>
        <time>2022-06-27T06:14:58.088Z</time>
      </trkpt>
      <trkpt lat="47.06633" lon="-1.72121">
        <ele>3.371254</ele>
        <time>2022-06-27T06:15:07.068Z</time>
      </trkpt>
      <trkpt lat="47.06659" lon="-1.72136">
        <ele>2.582754</ele>
        <time>2022-06-27T06:15:15.765Z</time>
      </trkpt>
      <trkpt lat="47.06717" lon="-1.72246">
        <ele>0.603798</ele>
        <time>2022-06-27T06:15:45.159Z</time>
      </trkpt>
      <trkpt lat="47.06737" lon="-1.72312">
        <ele>-0.381588</ele>
        <time>2022-06-27T06:16:00.884Z</time>
      </trkpt>
      <trkpt lat="47.07461" lon="-1.71532">
        <ele>-1.5754</ele>
        <time>2022-06-27T06:21:32.497Z</time>
      </trkpt>
      <trkpt lat="47.07466" lon="-1.71533">
        <ele>-1.568711</ele>
        <time>2022-06-27T06:21:34.405Z</time>
      </trkpt>
      <trkpt lat="47.07471" lon="-1.71543">
        <ele>-1.557593</ele>
        <time>2022-06-27T06:21:38.350Z</time>
      </trkpt>
      <trkpt lat="47.07618" lon="-1.71783">
        <ele>-0.801194</ele>
        <time>2022-06-27T06:23:04.972Z</time>
      </trkpt>
      <trkpt lat="47.07655" lon="-1.71832">
        <ele>-1.000695</ele>
        <time>2022-06-27T06:23:23.183Z</time>
      </trkpt>
      <trkpt lat="47.07661" lon="-1.71843">
        <ele>-1.040383</ele>
        <time>2022-06-27T06:23:26.857Z</time>
      </trkpt>
      <trkpt lat="47.07672" lon="-1.7185">
        <ele>-1.089115</ele>
        <time>2022-06-27T06:23:31.024Z</time>
      </trkpt>
      <trkpt lat="47.07734" lon="-1.71775">
        <ele>-1.41311</ele>
        <time>2022-06-27T06:23:59.321Z</time>
      </trkpt>
      <trkpt lat="47.07743" lon="-1.7177">
        <ele>-1.449888</ele>
        <time>2022-06-27T06:24:02.508Z</time>
      </trkpt>
      <trkpt lat="47.07956" lon="-1.7197">
        <ele>-2.087612</ele>
        <time>2022-06-27T06:25:33.023Z</time>
      </trkpt>
      <trkpt lat="47.07988" lon="-1.71987">
        <ele>-1.927635</ele>
        <time>2022-06-27T06:25:46.670Z</time>
      </trkpt>
      <trkpt lat="47.07989" lon="-1.71993">
        <ele>-1.907453</ele>
        <time>2022-06-27T06:25:48.503Z</time>
      </trkpt>
      <trkpt lat="47.07993" lon="-1.7202">
        <ele>-1.8163</ele>
        <time>2022-06-27T06:25:57.083Z</time>
      </trkpt>
      <trkpt lat="47.08069" lon="-1.72095">
        <ele>-1.417716</ele>
        <time>2022-06-27T06:26:35.084Z</time>
      </trkpt>
      <trkpt lat="47.0808" lon="-1.72101">
        <ele>-1.372854</ele>
        <time>2022-06-27T06:26:40.637Z</time>
      </trkpt>
      <trkpt lat="47.08093" lon="-1.72091">
        <ele>-1.320946</ele>
        <time>2022-06-27T06:26:46.415Z</time>
      </trkpt>
      <trkpt lat="47.08122" lon="-1.72124">
        <ele>-1.187576</ele>
        <time>2022-06-27T06:27:01.497Z</time>
      </trkpt>
      <trkpt lat="47.0829" lon="-1.72278">
        <ele>-1.126045</ele>
        <time>2022-06-27T06:28:13.379Z</time>
      </trkpt>
      <trkpt lat="47.08295" lon="-1.72288">
        <ele>-1.145479</ele>
        <time>2022-06-27T06:28:16.475Z</time>
      </trkpt>
      <trkpt lat="47.08296" lon="-1.7229">
        <ele>-1.149674</ele>
        <time>2022-06-27T06:28:17.163Z</time>
      </trkpt>
      <trkpt lat="47.08301" lon="-1.723">
        <ele>-1.167843</ele>
        <time>2022-06-27T06:28:20.199Z</time>
      </trkpt>
      <trkpt lat="47.08303" lon="-1.72304">
        <ele>-1.176481</ele>
        <time>2022-06-27T06:28:21.622Z</time>
      </trkpt>
      <trkpt lat="47.08569" lon="-1.72556">
        <ele>-1.129394</ele>
        <time>2022-06-27T06:30:17.039Z</time>
      </trkpt>
      <trkpt lat="47.08579" lon="-1.72573">
        <ele>-1.046643</ele>
        <time>2022-06-27T06:30:22.647Z</time>
      </trkpt>
      <trkpt lat="47.08842" lon="-1.73077">
        <ele>4.589864</ele>
        <time>2022-06-27T06:33:36.486Z</time>
      </trkpt>
      <trkpt lat="47.08901" lon="-1.73184">
        <ele>4.715251</ele>
        <time>2022-06-27T06:34:12.495Z</time>
      </trkpt>
      <trkpt lat="47.08998" lon="-1.73248">
        <ele>4.734469</ele>
        <time>2022-06-27T06:34:50.801Z</time>
      </trkpt>
      <trkpt lat="47.09042" lon="-1.7336">
        <ele>4.360267</ele>
        <time>2022-06-27T06:35:22.445Z</time>
      </trkpt>
      <trkpt lat="47.09072" lon="-1.73337">
        <ele>4.219815</ele>
        <time>2022-06-27T06:35:29.770Z</time>
      </trkpt>
      <trkpt lat="47.09359" lon="-1.73107">
        <ele>3.110413</ele>
        <time>2022-06-27T06:36:42.400Z</time>
      </trkpt>
      <trkpt lat="47.09378" lon="-1.73078">
        <ele>3.039484</ele>
        <time>2022-06-27T06:36:48.450Z</time>
      </trkpt>
      <trkpt lat="47.09387" lon="-1.73027">
        <ele>2.945136</ele>
        <time>2022-06-27T06:36:56.586Z</time>
      </trkpt>
      <trkpt lat="47.09396" lon="-1.72961">
        <ele>2.892611</ele>
        <time>2022-06-27T06:37:07.064Z</time>
      </trkpt>
      <trkpt lat="47.09428" lon="-1.72891">
        <ele>2.847597</ele>
        <time>2022-06-27T06:37:20.855Z</time>
      </trkpt>
      <trkpt lat="47.09516" lon="-1.72709">
        <ele>2.508731</ele>
        <time>2022-06-27T06:37:55.312Z</time>
      </trkpt>
      <trkpt lat="47.09529" lon="-1.72687">
        <ele>2.424779</ele>
        <time>2022-06-27T06:37:59.782Z</time>
      </trkpt>
      <trkpt lat="47.09542" lon="-1.7268">
        <ele>2.369759</ele>
        <time>2022-06-27T06:38:02.555Z</time>
      </trkpt>
      <trkpt lat="47.09575" lon="-1.72691">
        <ele>2.227728</ele>
        <time>2022-06-27T06:38:09.985Z</time>
      </trkpt>
      <trkpt lat="47.0961" lon="-1.72602">
        <ele>1.988715</ele>
        <time>2022-06-27T06:38:34.599Z</time>
      </trkpt>
      <trkpt lat="47.0961" lon="-1.72556">
        <ele>1.925043</ele>
        <time>2022-06-27T06:38:45.823Z</time>
      </trkpt>
      <trkpt lat="47.09633" lon="-1.72489">
        <ele>1.821423</ele>
        <time>2022-06-27T06:39:04.256Z</time>
      </trkpt>
      <trkpt lat="47.09635" lon="-1.72465">
        <ele>1.789375</ele>
        <time>2022-06-27T06:39:09.956Z</time>
      </trkpt>
      <trkpt lat="47.09626" lon="-1.7243">
        <ele>1.737809</ele>
        <time>2022-06-27T06:39:19.467Z</time>
      </trkpt>
      <trkpt lat="47.09664" lon="-1.72403">
        <ele>1.730948</ele>
        <time>2022-06-27T06:39:36.206Z</time>
      </trkpt>
      <trkpt lat="47.09726" lon="-1.72397">
        <ele>2.089356</ele>
        <time>2022-06-27T06:40:01.426Z</time>
      </trkpt>
      <trkpt lat="47.09759" lon="-1.7238">
        <ele>2.296625</ele>
        <time>2022-06-27T06:40:15.922Z</time>
      </trkpt>
      <trkpt lat="47.09822" lon="-1.72316">
        <ele>2.724537</ele>
        <time>2022-06-27T06:40:46.030Z</time>
      </trkpt>
      <trkpt lat="47.09812" lon="-1.72286">
        <ele>2.774428</ele>
        <time>2022-06-27T06:40:54.757Z</time>
      </trkpt>
      <trkpt lat="47.09853" lon="-1.7226">
        <ele>2.871291</ele>
        <time>2022-06-27T06:41:11.768Z</time>
      </trkpt>
      <trkpt lat="47.09949" lon="-1.72257">
        <ele>3.081817</ele>
        <time>2022-06-27T06:41:48.076Z</time>
      </trkpt>
      <trkpt lat="47.10052" lon="-1.72254">
        <ele>3.095548</ele>
        <time>2022-06-27T06:42:27.076Z</time>
      </trkpt>
      <trkpt lat="47.10105" lon="-1.72241">
        <ele>3.085853</ele>
        <time>2022-06-27T06:42:46.924Z</time>
      </trkpt>
      <trkpt lat="47.10245" lon="-1.72174">
        <ele>2.791296</ele>
        <time>2022-06-27T06:43:40.327Z</time>
      </trkpt>
      <trkpt lat="47.10253" lon="-1.72161">
        <ele>2.760032</ele>
        <time>2022-06-27T06:43:44.571Z</time>
      </trkpt>
      <trkpt lat="47.10261" lon="-1.72148">
        <ele>2.729337</ele>
        <time>2022-06-27T06:43:48.798Z</time>
      </trkpt>
      <trkpt lat="47.10331" lon="-1.72094">
        <ele>2.643006</ele>
        <time>2022-06-27T06:44:17.407Z</time>
      </trkpt>
      <trkpt lat="47.10433" lon="-1.72074">
        <ele>2.738623</ele>
        <time>2022-06-27T06:44:55.929Z</time>
      </trkpt>
      <trkpt lat="47.10512" lon="-1.72069">
        <ele>3.188043</ele>
        <time>2022-06-27T06:45:27.201Z</time>
      </trkpt>
      <trkpt lat="47.10524" lon="-1.72068">
        <ele>3.320312</ele>
        <time>2022-06-27T06:45:31.872Z</time>
      </trkpt>
      <trkpt lat="47.10536" lon="-1.72075">
        <ele>3.468989</ele>
        <time>2022-06-27T06:45:37.316Z</time>
      </trkpt>
      <trkpt lat="47.10545" lon="-1.721">
        <ele>3.682928</ele>
        <time>2022-06-27T06:45:45.259Z</time>
      </trkpt>
      <trkpt lat="47.10547" lon="-1.72137">
        <ele>3.968223</ele>
        <time>2022-06-27T06:45:56.245Z</time>
      </trkpt>
      <trkpt lat="47.10537" lon="-1.72203">
        <ele>4.490227</ele>
        <time>2022-06-27T06:46:16.724Z</time>
      </trkpt>
      <trkpt lat="47.10539" lon="-1.7222">
        <ele>4.624748</ele>
        <time>2022-06-27T06:46:21.925Z</time>
      </trkpt>
      <trkpt lat="47.10546" lon="-1.72233">
        <ele>4.746548</ele>
        <time>2022-06-27T06:46:27.321Z</time>
      </trkpt>
      <trkpt lat="47.10525" lon="-1.72263">
        <ele>5.196812</ele>
        <time>2022-06-27T06:46:36.723Z</time>
      </trkpt>
      <trkpt lat="47.10505" lon="-1.72282">
        <ele>5.580718</ele>
        <time>2022-06-27T06:46:44.205Z</time>
      </trkpt>
      <trkpt lat="47.10503" lon="-1.72321">
        <ele>6.008534</ele>
        <time>2022-06-27T06:46:56.464Z</time>
      </trkpt>
      <trkpt lat="47.10493" lon="-1.72359">
        <ele>6.451457</ele>
        <time>2022-06-27T06:47:05.227Z</time>
      </trkpt>
      <trkpt lat="47.10482" lon="-1.72452">
        <ele>7.484478</ele>
        <time>2022-06-27T06:47:25.189Z</time>
      </trkpt>
      <trkpt lat="47.10571" lon="-1.72543">
        <ele>8.503884</ele>
        <time>2022-06-27T06:47:56.729Z</time>
      </trkpt>
      <trkpt lat="47.10624" lon="-1.72599">
        <ele>9.055349</ele>
        <time>2022-06-27T06:48:13.350Z</time>
      </trkpt>
      <trkpt lat="47.10731" lon="-1.72761">
        <ele>9.674123</ele>
        <time>2022-06-27T06:48:51.293Z</time>
      </trkpt>
      <trkpt lat="47.10779" lon="-1.72811">
        <ele>9.90186</ele>
        <time>2022-06-27T06:49:06.071Z</time>
      </trkpt>
      <trkpt lat="47.10828" lon="-1.72853">
        <ele>10.226939</ele>
        <time>2022-06-27T06:49:20.501Z</time>
      </trkpt>
      <trkpt lat="47.10846" lon="-1.72867">
        <ele>10.347274</ele>
        <time>2022-06-27T06:49:26.287Z</time>
      </trkpt>
      <trkpt lat="47.10917" lon="-1.72958">
        <ele>10.867255</ele>
        <time>2022-06-27T06:49:51.254Z</time>
      </trkpt>
      <trkpt lat="47.10978" lon="-1.73046">
        <ele>10.988944</ele>
        <time>2022-06-27T06:50:13.140Z</time>
      </trkpt>
      <trkpt lat="47.11068" lon="-1.7317">
        <ele>10.8532</ele>
        <time>2022-06-27T06:50:40.829Z</time>
      </trkpt>
      <trkpt lat="47.11153" lon="-1.7333">
        <ele>9.735866</ele>
        <time>2022-06-27T06:51:09.970Z</time>
      </trkpt>
      <trkpt lat="47.1123" lon="-1.73396">
        <ele>8.729135</ele>
        <time>2022-06-27T06:51:27.964Z</time>
      </trkpt>
      <trkpt lat="47.11247" lon="-1.73407">
        <ele>8.505047</ele>
        <time>2022-06-27T06:51:31.800Z</time>
      </trkpt>
      <trkpt lat="47.1126" lon="-1.73407">
        <ele>8.359525</ele>
        <time>2022-06-27T06:51:34.349Z</time>
      </trkpt>
      <trkpt lat="47.11263" lon="-1.73457">
        <ele>7.95909</ele>
        <time>2022-06-27T06:51:40.971Z</time>
      </trkpt>
      <trkpt lat="47.11271" lon="-1.73547">
        <ele>7.301287</ele>
        <time>2022-06-27T06:51:53.176Z</time>
      </trkpt>
      <trkpt lat="47.11281" lon="-1.73556">
        <ele>7.194529</ele>
        <time>2022-06-27T06:51:55.563Z</time>
      </trkpt>
      <trkpt lat="47.11311" lon="-1.73617">
        <ele>6.725796</ele>
        <time>2022-06-27T06:52:05.848Z</time>
      </trkpt>
      <trkpt lat="47.11368" lon="-1.73733">
        <ele>5.802797</ele>
        <time>2022-06-27T06:52:25.674Z</time>
      </trkpt>
      <trkpt lat="47.11392" lon="-1.73801">
        <ele>5.164677</ele>
        <time>2022-06-27T06:52:35.878Z</time>
      </trkpt>
      <trkpt lat="47.11414" lon="-1.73875">
        <ele>4.491729</ele>
        <time>2022-06-27T06:52:46.587Z</time>
      </trkpt>
      <trkpt lat="47.11417" lon="-1.73882">
        <ele>4.427694</ele>
        <time>2022-06-27T06:52:47.563Z</time>
      </trkpt>
      <trkpt lat="47.11423" lon="-1.73902">
        <ele>4.248941</ele>
        <time>2022-06-27T06:52:50.318Z</time>
      </trkpt>
      <trkpt lat="47.11452" lon="-1.73969">
        <ele>3.658479</ele>
        <time>2022-06-27T06:53:00.826Z</time>
      </trkpt>
      <trkpt lat="47.11484" lon="-1.73994">
        <ele>3.478786</ele>
        <time>2022-06-27T06:53:07.776Z</time>
      </trkpt>
      <trkpt lat="47.11505" lon="-1.73998">
        <ele>3.370509</ele>
        <time>2022-06-27T06:53:11.990Z</time>
      </trkpt>
      <trkpt lat="47.11505" lon="-1.74012">
        <ele>3.323361</ele>
        <time>2022-06-27T06:53:14.036Z</time>
      </trkpt>
      <trkpt lat="47.11496" lon="-1.74035">
        <ele>3.231551</ele>
        <time>2022-06-27T06:53:17.758Z</time>
      </trkpt>
      <trkpt lat="47.11449" lon="-1.74114">
        <ele>2.873672</ele>
        <time>2022-06-27T06:53:33.673Z</time>
      </trkpt>
      <trkpt lat="47.11433" lon="-1.7416">
        <ele>3.36802</ele>
        <time>2022-06-27T06:53:43.137Z</time>
      </trkpt>
      <trkpt lat="47.11426" lon="-1.74243">
        <ele>4.820064</ele>
        <time>2022-06-27T06:54:02.595Z</time>
      </trkpt>
      <trkpt lat="47.11434" lon="-1.74318">
        <ele>6.143298</ele>
        <time>2022-06-27T06:54:22.913Z</time>
      </trkpt>
      <trkpt lat="47.11431" lon="-1.74346">
        <ele>6.630774</ele>
        <time>2022-06-27T06:54:31.182Z</time>
      </trkpt>
      <trkpt lat="47.11447" lon="-1.74351">
        <ele>7.057102</ele>
        <time>2022-06-27T06:54:38.227Z</time>
      </trkpt>
      <trkpt lat="47.11465" lon="-1.74349">
        <ele>7.564236</ele>
        <time>2022-06-27T06:54:48.544Z</time>
      </trkpt>
      <trkpt lat="47.11536" lon="-1.74366">
        <ele>9.937805</ele>
        <time>2022-06-27T06:55:27.873Z</time>
      </trkpt>
      <trkpt lat="47.11559" lon="-1.74369">
        <ele>10.695013</ele>
        <time>2022-06-27T06:55:40.615Z</time>
      </trkpt>
      <trkpt lat="47.11632" lon="-1.74398">
        <ele>13.186123</ele>
        <time>2022-06-27T06:56:20.430Z</time>
      </trkpt>
      <trkpt lat="47.11648" lon="-1.74409">
        <ele>13.611396</ele>
        <time>2022-06-27T06:56:28.920Z</time>
      </trkpt>
      <trkpt lat="47.11683" lon="-1.74453">
        <ele>14.572655</ele>
        <time>2022-06-27T06:56:52.294Z</time>
      </trkpt>
      <trkpt lat="47.11707" lon="-1.74469">
        <ele>15.115969</ele>
        <time>2022-06-27T06:57:04.044Z</time>
      </trkpt>
      <trkpt lat="47.11729" lon="-1.74495">
        <ele>15.692426</ele>
        <time>2022-06-27T06:57:16.531Z</time>
      </trkpt>
      <trkpt lat="47.11739" lon="-1.74598">
        <ele>17.14678</ele>
        <time>2022-06-27T06:57:39.051Z</time>
      </trkpt>
      <trkpt lat="47.11778" lon="-1.74693">
        <ele>18.62749</ele>
        <time>2022-06-27T06:58:04.302Z</time>
      </trkpt>
      <trkpt lat="47.11801" lon="-1.74722">
        <ele>19.225621</ele>
        <time>2022-06-27T06:58:14.689Z</time>
      </trkpt>
      <trkpt lat="47.11865" lon="-1.74785">
        <ele>20.707796</ele>
        <time>2022-06-27T06:58:40.192Z</time>
      </trkpt>
      <trkpt lat="47.11904" lon="-1.74815">
        <ele>21.318125</ele>
        <time>2022-06-27T06:58:54.026Z</time>
      </trkpt>
      <trkpt lat="47.11948" lon="-1.74838">
        <ele>21.960472</ele>
        <time>2022-06-27T06:59:08.023Z</time>
      </trkpt>
      <trkpt lat="47.12074" lon="-1.74864">
        <ele>23.507463</ele>
        <time>2022-06-27T06:59:44.365Z</time>
      </trkpt>
      <trkpt lat="47.12119" lon="-1.74876">
        <ele>23.930878</ele>
        <time>2022-06-27T06:59:57.199Z</time>
      </trkpt>
      <trkpt lat="47.12271" lon="-1.7501">
        <ele>25.107871</ele>
        <time>2022-06-27T07:00:45.723Z</time>
      </trkpt>
      <trkpt lat="47.1227" lon="-1.74992">
        <ele>25.157836</ele>
        <time>2022-06-27T07:00:48.936Z</time>
      </trkpt>
      <trkpt lat="47.12311" lon="-1.74986">
        <ele>25.323902</ele>
        <time>2022-06-27T07:00:58.854Z</time>
      </trkpt>
      <trkpt lat="47.1241" lon="-1.74993">
        <ele>24.893659</ele>
        <time>2022-06-27T07:01:20.756Z</time>
      </trkpt>
      <trkpt lat="47.12529" lon="-1.74985">
        <ele>23.75706</ele>
        <time>2022-06-27T07:01:44.971Z</time>
      </trkpt>
      <trkpt lat="47.12625" lon="-1.74992">
        <ele>22.200433</ele>
        <time>2022-06-27T07:02:04.263Z</time>
      </trkpt>
      <trkpt lat="47.12646" lon="-1.74985">
        <ele>21.862547</ele>
        <time>2022-06-27T07:02:08.372Z</time>
      </trkpt>
      <trkpt lat="47.12712" lon="-1.74939">
        <ele>20.66151</ele>
        <time>2022-06-27T07:02:22.487Z</time>
      </trkpt>
      <trkpt lat="47.12874" lon="-1.7487">
        <ele>17.446782</ele>
        <time>2022-06-27T07:02:55.086Z</time>
      </trkpt>
      <trkpt lat="47.12915" lon="-1.74855">
        <ele>16.860811</ele>
        <time>2022-06-27T07:03:03.371Z</time>
      </trkpt>
      <trkpt lat="47.1298" lon="-1.74843">
        <ele>15.963141</ele>
        <time>2022-06-27T07:03:16.414Z</time>
      </trkpt>
      <trkpt lat="47.12993" lon="-1.74664">
        <ele>14.388482</ele>
        <time>2022-06-27T07:03:58.824Z</time>
      </trkpt>
      <trkpt lat="47.12944" lon="-1.74615">
        <ele>13.711176</ele>
        <time>2022-06-27T07:04:18.403Z</time>
      </trkpt>
      <trkpt lat="47.12947" lon="-1.74603">
        <ele>13.614876</ele>
        <time>2022-06-27T07:04:21.392Z</time>
      </trkpt>
      <trkpt lat="47.12992" lon="-1.74642">
        <ele>13.014186</ele>
        <time>2022-06-27T07:04:31.552Z</time>
      </trkpt>
      <trkpt lat="47.13036" lon="-1.74679">
        <ele>12.897006</ele>
        <time>2022-06-27T07:04:42.078Z</time>
      </trkpt>
      <trkpt lat="47.13061" lon="-1.74699">
        <ele>12.891362</ele>
        <time>2022-06-27T07:04:48.305Z</time>
      </trkpt>
      <trkpt lat="47.13105" lon="-1.74733">
        <ele>12.881533</ele>
        <time>2022-06-27T07:04:59.329Z</time>
      </trkpt>
      <trkpt lat="47.13159" lon="-1.74788">
        <ele>12.883175</ele>
        <time>2022-06-27T07:05:15.153Z</time>
      </trkpt>
      <trkpt lat="47.13175" lon="-1.74805">
        <ele>12.940529</ele>
        <time>2022-06-27T07:05:20.792Z</time>
      </trkpt>
      <trkpt lat="47.13179" lon="-1.74808">
        <ele>12.951358</ele>
        <time>2022-06-27T07:05:21.824Z</time>
      </trkpt>
      <trkpt lat="47.13198" lon="-1.74815">
        <ele>13.006249</ele>
        <time>2022-06-27T07:05:27.387Z</time>
      </trkpt>
      <trkpt lat="47.13239" lon="-1.74817">
        <ele>13.121761</ele>
        <time>2022-06-27T07:05:38.836Z</time>
      </trkpt>
      <trkpt lat="47.13267" lon="-1.74809">
        <ele>13.203454</ele>
        <time>2022-06-27T07:05:46.331Z</time>
      </trkpt>
      <trkpt lat="47.13307" lon="-1.74797">
        <ele>13.315672</ele>
        <time>2022-06-27T07:05:55.186Z</time>
      </trkpt>
      <trkpt lat="47.13395" lon="-1.74793">
        <ele>12.021649</ele>
        <time>2022-06-27T07:06:12.029Z</time>
      </trkpt>
      <trkpt lat="47.13411" lon="-1.74777">
        <ele>11.618166</ele>
        <time>2022-06-27T07:06:15.645Z</time>
      </trkpt>
      <trkpt lat="47.13421" lon="-1.74764">
        <ele>11.368572</ele>
        <time>2022-06-27T07:06:17.893Z</time>
      </trkpt>
      <trkpt lat="47.13431" lon="-1.74761">
        <ele>11.15558</ele>
        <time>2022-06-27T07:06:19.781Z</time>
      </trkpt>
      <trkpt lat="47.13463" lon="-1.74734">
        <ele>10.408224</ele>
        <time>2022-06-27T07:06:26.340Z</time>
      </trkpt>
      <trkpt lat="47.13482" lon="-1.74702">
        <ele>9.82731</ele>
        <time>2022-06-27T07:06:31.357Z</time>
      </trkpt>
      <trkpt lat="47.13505" lon="-1.74646">
        <ele>9.19839</ele>
        <time>2022-06-27T07:06:38.952Z</time>
      </trkpt>
      <trkpt lat="47.13629" lon="-1.74523">
        <ele>7.556125</ele>
        <time>2022-06-27T07:07:08.411Z</time>
      </trkpt>
      <trkpt lat="47.13643" lon="-1.74509">
        <ele>7.929478</ele>
        <time>2022-06-27T07:07:13.168Z</time>
      </trkpt>
      <trkpt lat="47.13681" lon="-1.74467">
        <ele>9.003233</ele>
        <time>2022-06-27T07:07:28.143Z</time>
      </trkpt>
      <trkpt lat="47.13693" lon="-1.74452">
        <ele>9.364537</ele>
        <time>2022-06-27T07:07:33.437Z</time>
      </trkpt>
      <trkpt lat="47.13706" lon="-1.74433">
        <ele>9.770937</ele>
        <time>2022-06-27T07:07:40.194Z</time>
      </trkpt>
      <trkpt lat="47.13744" lon="-1.74349">
        <ele>11.321991</ele>
        <time>2022-06-27T07:08:08.354Z</time>
      </trkpt>
      <trkpt lat="47.138" lon="-1.74247">
        <ele>14.267597</ele>
        <time>2022-06-27T07:08:45.843Z</time>
      </trkpt>
      <trkpt lat="47.13839" lon="-1.74194">
        <ele>16.043005</ele>
        <time>2022-06-27T07:09:05.847Z</time>
      </trkpt>
      <trkpt lat="47.13889" lon="-1.74135">
        <ele>17.848239</ele>
        <time>2022-06-27T07:09:28.514Z</time>
      </trkpt>
      <trkpt lat="47.13917" lon="-1.74102">
        <ele>18.547095</ele>
        <time>2022-06-27T07:09:40.711Z</time>
      </trkpt>
      <trkpt lat="47.13947" lon="-1.74048">
        <ele>19.477814</ele>
        <time>2022-06-27T07:09:56.091Z</time>
      </trkpt>
      <trkpt lat="47.13983" lon="-1.74005">
        <ele>20.359368</ele>
        <time>2022-06-27T07:10:09.851Z</time>
      </trkpt>
      <trkpt lat="47.14" lon="-1.7399">
        <ele>20.759333</ele>
        <time>2022-06-27T07:10:15.831Z</time>
      </trkpt>
      <trkpt lat="47.14003" lon="-1.73987">
        <ele>20.827721</ele>
        <time>2022-06-27T07:10:16.817Z</time>
      </trkpt>
      <trkpt lat="47.1402" lon="-1.74015">
        <ele>21.059122</ele>
        <time>2022-06-27T07:10:24.424Z</time>
      </trkpt>
      <trkpt lat="47.1407" lon="-1.74105">
        <ele>21.716737</ele>
        <time>2022-06-27T07:10:56.846Z</time>
      </trkpt>
      <trkpt lat="47.14115" lon="-1.74163">
        <ele>22.215033</ele>
        <time>2022-06-27T07:11:21.179Z</time>
      </trkpt>
      <trkpt lat="47.14266" lon="-1.74064">
        <ele>23.209989</ele>
        <time>2022-06-27T07:12:26.547Z</time>
      </trkpt>
      <trkpt lat="47.14447" lon="-1.73919">
        <ele>24.722973</ele>
        <time>2022-06-27T07:13:51.059Z</time>
      </trkpt>
      <trkpt lat="47.14447" lon="-1.73919">
        <ele>24.722973</ele>
        <time>2022-06-27T07:13:51.268Z</time>
      </trkpt>
      <trkpt lat="47.14515" lon="-1.73901">
        <ele>24.833428</ele>
        <time>2022-06-27T07:14:17.671Z</time>
      </trkpt>
      <trkpt lat="47.14566" lon="-1.73861">
        <ele>24.897045</ele>
        <time>2022-06-27T07:14:39.994Z</time>
      </trkpt>
      <trkpt lat="47.1463" lon="-1.738">
        <ele>24.714155</ele>
        <time>2022-06-27T07:15:07.757Z</time>
      </trkpt>
      <trkpt lat="47.14642" lon="-1.73799">
        <ele>24.542713</ele>
        <time>2022-06-27T07:15:11.930Z</time>
      </trkpt>
      <trkpt lat="47.14684" lon="-1.73904">
        <ele>23.394045</ele>
        <time>2022-06-27T07:15:28.638Z</time>
      </trkpt>
      <trkpt lat="47.1473" lon="-1.73876">
        <ele>22.704052</ele>
        <time>2022-06-27T07:15:38.191Z</time>
      </trkpt>
      <trkpt lat="47.14762" lon="-1.73879">
        <ele>22.169101</ele>
        <time>2022-06-27T07:15:44.207Z</time>
      </trkpt>
      <trkpt lat="47.14856" lon="-1.7387">
        <ele>20.209769</ele>
        <time>2022-06-27T07:16:14.754Z</time>
      </trkpt>
      <trkpt lat="47.14918" lon="-1.73855">
        <ele>18.883736</ele>
        <time>2022-06-27T07:16:35.440Z</time>
      </trkpt>
      <trkpt lat="47.14945" lon="-1.73859">
        <ele>18.228413</ele>
        <time>2022-06-27T07:16:44.043Z</time>
      </trkpt>
      <trkpt lat="47.14949" lon="-1.74023">
        <ele>15.296284</ele>
        <time>2022-06-27T07:17:19.811Z</time>
      </trkpt>
      <trkpt lat="47.14952" lon="-1.74044">
        <ele>14.914987</ele>
        <time>2022-06-27T07:17:24.409Z</time>
      </trkpt>
      <trkpt lat="47.14957" lon="-1.74052">
        <ele>14.710695</ele>
        <time>2022-06-27T07:17:26.808Z</time>
      </trkpt>
      <trkpt lat="47.15125" lon="-1.74008">
        <ele>8.906398</ele>
        <time>2022-06-27T07:18:18.022Z</time>
      </trkpt>
      <trkpt lat="47.15146" lon="-1.74012">
        <ele>8.145378</ele>
        <time>2022-06-27T07:18:24.471Z</time>
      </trkpt>
      <trkpt lat="47.15208" lon="-1.7404">
        <ele>6.502354</ele>
        <time>2022-06-27T07:18:44.393Z</time>
      </trkpt>
      <trkpt lat="47.15331" lon="-1.74023">
        <ele>3.809025</ele>
        <time>2022-06-27T07:19:24.304Z</time>
      </trkpt>
      <trkpt lat="47.15354" lon="-1.7406">
        <ele>3.696414</ele>
        <time>2022-06-27T07:19:36.544Z</time>
      </trkpt>
      <trkpt lat="47.15385" lon="-1.74071">
        <ele>3.745136</ele>
        <time>2022-06-27T07:19:49.448Z</time>
      </trkpt>
      <trkpt lat="47.15393" lon="-1.7408">
        <ele>3.760133</ele>
        <time>2022-06-27T07:19:53.104Z</time>
      </trkpt>
      <trkpt lat="47.15416" lon="-1.74143">
        <ele>3.832804</ele>
        <time>2022-06-27T07:20:12.051Z</time>
      </trkpt>
      <trkpt lat="47.15449" lon="-1.74207">
        <ele>3.914693</ele>
        <time>2022-06-27T07:20:33.925Z</time>
      </trkpt>
      <trkpt lat="47.15463" lon="-1.74221">
        <ele>4.014986</ele>
        <time>2022-06-27T07:20:38.054Z</time>
      </trkpt>
      <trkpt lat="47.15473" lon="-1.74208">
        <ele>4.14341</ele>
        <time>2022-06-27T07:20:42.168Z</time>
      </trkpt>
      <trkpt lat="47.15475" lon="-1.7423">
        <ele>4.282583</ele>
        <time>2022-06-27T07:20:45.785Z</time>
      </trkpt>
      <trkpt lat="47.15521" lon="-1.7425">
        <ele>4.743139</ele>
        <time>2022-06-27T07:20:59.883Z</time>
      </trkpt>
      <trkpt lat="47.15581" lon="-1.74286">
        <ele>5.361465</ele>
        <time>2022-06-27T07:21:19.039Z</time>
      </trkpt>
      <trkpt lat="47.15681" lon="-1.74266">
        <ele>5.653642</ele>
        <time>2022-06-27T07:21:59.820Z</time>
      </trkpt>
      <trkpt lat="47.15701" lon="-1.74259">
        <ele>5.657222</ele>
        <time>2022-06-27T07:22:07.413Z</time>
      </trkpt>
      <trkpt lat="47.15747" lon="-1.74224">
        <ele>5.666174</ele>
        <time>2022-06-27T07:22:26.209Z</time>
      </trkpt>
      <trkpt lat="47.15773" lon="-1.74225">
        <ele>5.670708</ele>
        <time>2022-06-27T07:22:35.657Z</time>
      </trkpt>
      <trkpt lat="47.15817" lon="-1.74233">
        <ele>5.111871</ele>
        <time>2022-06-27T07:22:50.853Z</time>
      </trkpt>
      <trkpt lat="47.15846" lon="-1.74287">
        <ele>4.344113</ele>
        <time>2022-06-27T07:23:06.611Z</time>
      </trkpt>
      <trkpt lat="47.15865" lon="-1.74308">
        <ele>3.972741</ele>
        <time>2022-06-27T07:23:14.049Z</time>
      </trkpt>
      <trkpt lat="47.15909" lon="-1.74339">
        <ele>3.171551</ele>
        <time>2022-06-27T07:23:29.865Z</time>
      </trkpt>
      <trkpt lat="47.15995" lon="-1.74413">
        <ele>1.941455</ele>
        <time>2022-06-27T07:24:03.245Z</time>
      </trkpt>
      <trkpt lat="47.16069" lon="-1.74464">
        <ele>1.035983</ele>
        <time>2022-06-27T07:24:31.259Z</time>
      </trkpt>
      <trkpt lat="47.16108" lon="-1.74504">
        <ele>0.759338</ele>
        <time>2022-06-27T07:24:48.108Z</time>
      </trkpt>
      <trkpt lat="47.16208" lon="-1.74572">
        <ele>0.722935</ele>
        <time>2022-06-27T07:25:28.943Z</time>
      </trkpt>
      <trkpt lat="47.16261" lon="-1.74626">
        <ele>0.787772</ele>
        <time>2022-06-27T07:25:54.445Z</time>
      </trkpt>
      <trkpt lat="47.16301" lon="-1.74652">
        <ele>0.971643</ele>
        <time>2022-06-27T07:26:11.650Z</time>
      </trkpt>
      <trkpt lat="47.16405" lon="-1.7474">
        <ele>1.481852</ele>
        <time>2022-06-27T07:26:58.808Z</time>
      </trkpt>
      <trkpt lat="47.16419" lon="-1.74754">
        <ele>1.520907</ele>
        <time>2022-06-27T07:27:05.365Z</time>
      </trkpt>
      <trkpt lat="47.16438" lon="-1.74789">
        <ele>1.590474</ele>
        <time>2022-06-27T07:27:17.051Z</time>
      </trkpt>
      <trkpt lat="47.16484" lon="-1.74792">
        <ele>1.696359</ele>
        <time>2022-06-27T07:27:34.384Z</time>
      </trkpt>
      <trkpt lat="47.16555" lon="-1.74817">
        <ele>1.861886</ele>
        <time>2022-06-27T07:28:01.656Z</time>
      </trkpt>
      <trkpt lat="47.16566" lon="-1.74898">
        <ele>2.043297</ele>
        <time>2022-06-27T07:28:23.576Z</time>
      </trkpt>
      <trkpt lat="47.16561" lon="-1.74981">
        <ele>2.238912</ele>
        <time>2022-06-27T07:28:45.881Z</time>
      </trkpt>
      <trkpt lat="47.16565" lon="-1.75008">
        <ele>2.303318</ele>
        <time>2022-06-27T07:28:53.272Z</time>
      </trkpt>
      <trkpt lat="47.16593" lon="-1.74961">
        <ele>2.450216</ele>
        <time>2022-06-27T07:29:09.716Z</time>
      </trkpt>
      <trkpt lat="47.16642" lon="-1.74929">
        <ele>2.681567</ele>
        <time>2022-06-27T07:29:30.046Z</time>
      </trkpt>
      <trkpt lat="47.1664" lon="-1.74907">
        <ele>2.751727</ele>
        <time>2022-06-27T07:29:35.683Z</time>
      </trkpt>
      <trkpt lat="47.1663" lon="-1.74887">
        <ele>2.835296</ele>
        <time>2022-06-27T07:29:42.283Z</time>
      </trkpt>
      <trkpt lat="47.16626" lon="-1.74793">
        <ele>3.138679</ele>
        <time>2022-06-27T07:30:07.740Z</time>
      </trkpt>
      <trkpt lat="47.1666" lon="-1.74688">
        <ele>3.62463</ele>
        <time>2022-06-27T07:30:39.880Z</time>
      </trkpt>
      <trkpt lat="47.16671" lon="-1.74683">
        <ele>3.717873</ele>
        <time>2022-06-27T07:30:44.408Z</time>
      </trkpt>
      <trkpt lat="47.16688" lon="-1.7469">
        <ele>3.866445</ele>
        <time>2022-06-27T07:30:51.679Z</time>
      </trkpt>
      <trkpt lat="47.16684" lon="-1.74628">
        <ele>4.221059</ele>
        <time>2022-06-27T07:31:09.198Z</time>
      </trkpt>
      <trkpt lat="47.16684" lon="-1.74628">
        <ele>4.221626</ele>
        <time>2022-06-27T07:31:09.417Z</time>
      </trkpt>
      <trkpt lat="47.16687" lon="-1.74614">
        <ele>4.302937</ele>
        <time>2022-06-27T07:31:13.444Z</time>
      </trkpt>
      <trkpt lat="47.16711" lon="-1.74588">
        <ele>4.55441</ele>
        <time>2022-06-27T07:31:26.226Z</time>
      </trkpt>
      <trkpt lat="47.16748" lon="-1.74571">
        <ele>4.867731</ele>
        <time>2022-06-27T07:31:42.424Z</time>
      </trkpt>
      <trkpt lat="47.16848" lon="-1.74546">
        <ele>5.120099</ele>
        <time>2022-06-27T07:32:22.436Z</time>
      </trkpt>
      <trkpt lat="47.16865" lon="-1.74547">
        <ele>5.163212</ele>
        <time>2022-06-27T07:32:28.741Z</time>
      </trkpt>
      <trkpt lat="47.16879" lon="-1.74552">
        <ele>5.199071</ele>
        <time>2022-06-27T07:32:34.004Z</time>
      </trkpt>
      <trkpt lat="47.16914" lon="-1.74586">
        <ele>5.304195</ele>
        <time>2022-06-27T07:32:49.403Z</time>
      </trkpt>
      <trkpt lat="47.16928" lon="-1.74589">
        <ele>5.315123</ele>
        <time>2022-06-27T07:32:54.463Z</time>
      </trkpt>
      <trkpt lat="47.16963" lon="-1.7458">
        <ele>5.324893</ele>
        <time>2022-06-27T07:33:07.442Z</time>
      </trkpt>
      <trkpt lat="47.17008" lon="-1.74556">
        <ele>5.338175</ele>
        <time>2022-06-27T07:33:25.158Z</time>
      </trkpt>
      <trkpt lat="47.17052" lon="-1.74484">
        <ele>5.356286</ele>
        <time>2022-06-27T07:33:49.853Z</time>
      </trkpt>
      <trkpt lat="47.17093" lon="-1.74383">
        <ele>5.545867</ele>
        <time>2022-06-27T07:34:21.002Z</time>
      </trkpt>
      <trkpt lat="47.17029" lon="-1.7406">
        <ele>5.546856</ele>
        <time>2022-06-27T07:35:15.100Z</time>
      </trkpt>
      <trkpt lat="47.1686" lon="-1.74173">
        <ele>3.871858</ele>
        <time>2022-06-27T07:36:18.220Z</time>
      </trkpt>
      <trkpt lat="47.16843" lon="-1.7418">
        <ele>3.65784</ele>
        <time>2022-06-27T07:36:23.973Z</time>
      </trkpt>
      <trkpt lat="47.16815" lon="-1.74177">
        <ele>3.303692</ele>
        <time>2022-06-27T07:36:33.514Z</time>
      </trkpt>
      <trkpt lat="47.16769" lon="-1.74192">
        <ele>2.760449</ele>
        <time>2022-06-27T07:36:49.453Z</time>
      </trkpt>
      <trkpt lat="47.16753" lon="-1.74192">
        <ele>2.581492</ele>
        <time>2022-06-27T07:36:55.050Z</time>
      </trkpt>
      <trkpt lat="47.16733" lon="-1.74178">
        <ele>2.345041</ele>
        <time>2022-06-27T07:37:02.451Z</time>
      </trkpt>
      <trkpt lat="47.16709" lon="-1.74137">
        <ele>1.93958</ele>
        <time>2022-06-27T07:37:15.179Z</time>
      </trkpt>
      <trkpt lat="47.16643" lon="-1.74054">
        <ele>1.091461</ele>
        <time>2022-06-27T07:37:44.775Z</time>
      </trkpt>
      <trkpt lat="47.16578" lon="-1.73951">
        <ele>1.013532</ele>
        <time>2022-06-27T07:38:19.937Z</time>
      </trkpt>
      <trkpt lat="47.16578" lon="-1.73951">
        <ele>1.013346</ele>
        <time>2022-06-27T07:38:19.987Z</time>
      </trkpt>
      <trkpt lat="47.16556" lon="-1.73898">
        <ele>0.978655</ele>
        <time>2022-06-27T07:38:35.872Z</time>
      </trkpt>
      <trkpt lat="47.16556" lon="-1.73858">
        <ele>0.956731</ele>
        <time>2022-06-27T07:38:47.113Z</time>
      </trkpt>
      <trkpt lat="47.16581" lon="-1.73791">
        <ele>1.375609</ele>
        <time>2022-06-27T07:39:07.571Z</time>
      </trkpt>
      <trkpt lat="47.16595" lon="-1.73669">
        <ele>2.133774</ele>
        <time>2022-06-27T07:39:44.214Z</time>
      </trkpt>
      <trkpt lat="47.16656" lon="-1.73451">
        <ele>3.52642</ele>
        <time>2022-06-27T07:40:50.222Z</time>
      </trkpt>
      <trkpt lat="47.16656" lon="-1.7339">
        <ele>3.879612</ele>
        <time>2022-06-27T07:41:07.022Z</time>
      </trkpt>
      <trkpt lat="47.16643" lon="-1.73372">
        <ele>4.032848</ele>
        <time>2022-06-27T07:41:14.398Z</time>
      </trkpt>
      <trkpt lat="47.16621" lon="-1.73319">
        <ele>4.654706</ele>
        <time>2022-06-27T07:41:32.059Z</time>
      </trkpt>
      <trkpt lat="47.16621" lon="-1.7324">
        <ele>5.515461</ele>
        <time>2022-06-27T07:41:54.861Z</time>
      </trkpt>
      <trkpt lat="47.16635" lon="-1.73165">
        <ele>6.370635</ele>
        <time>2022-06-27T07:42:19.089Z</time>
      </trkpt>
      <trkpt lat="47.16618" lon="-1.73061">
        <ele>8.000394</ele>
        <time>2022-06-27T07:42:55.020Z</time>
      </trkpt>
      <trkpt lat="47.16587" lon="-1.72977">
        <ele>9.996499</ele>
        <time>2022-06-27T07:43:29.749Z</time>
      </trkpt>
      <trkpt lat="47.16557" lon="-1.72947">
        <ele>11.101949</ele>
        <time>2022-06-27T07:43:49.262Z</time>
      </trkpt>
      <trkpt lat="47.16523" lon="-1.72929">
        <ele>12.202636</ele>
        <time>2022-06-27T07:44:08.696Z</time>
      </trkpt>
      <trkpt lat="47.16469" lon="-1.72936">
        <ele>13.708591</ele>
        <time>2022-06-27T07:44:37.432Z</time>
      </trkpt>
      <trkpt lat="47.16364" lon="-1.72908">
        <ele>16.659039</ele>
        <time>2022-06-27T07:45:32.110Z</time>
      </trkpt>
      <trkpt lat="47.163" lon="-1.72915">
        <ele>18.057612</ele>
        <time>2022-06-27T07:46:01.894Z</time>
      </trkpt>
      <trkpt lat="47.16217" lon="-1.72935">
        <ele>19.540783</ele>
        <time>2022-06-27T07:46:41.413Z</time>
      </trkpt>
      <trkpt lat="47.16142" lon="-1.72933">
        <ele>20.66803</ele>
        <time>2022-06-27T07:47:14.410Z</time>
      </trkpt>
      <trkpt lat="47.1613" lon="-1.72927">
        <ele>20.73256</ele>
        <time>2022-06-27T07:47:20.149Z</time>
      </trkpt>
      <trkpt lat="47.16127" lon="-1.7284">
        <ele>21.045547</ele>
        <time>2022-06-27T07:47:44.143Z</time>
      </trkpt>
      <trkpt lat="47.16125" lon="-1.72789">
        <ele>21.22774</ele>
        <time>2022-06-27T07:47:57.580Z</time>
      </trkpt>
      <trkpt lat="47.16115" lon="-1.72732">
        <ele>21.438979</ele>
        <time>2022-06-27T07:48:12.830Z</time>
      </trkpt>
      <trkpt lat="47.1612" lon="-1.72719">
        <ele>21.491588</ele>
        <time>2022-06-27T07:48:16.944Z</time>
      </trkpt>
      <trkpt lat="47.16141" lon="-1.727">
        <ele>21.394504</ele>
        <time>2022-06-27T07:48:26.011Z</time>
      </trkpt>
      <trkpt lat="47.16293" lon="-1.72664">
        <ele>20.086153</ele>
        <time>2022-06-27T07:49:19.150Z</time>
      </trkpt>
      <trkpt lat="47.16332" lon="-1.72649">
        <ele>19.391904</ele>
        <time>2022-06-27T07:49:32.598Z</time>
      </trkpt>
      <trkpt lat="47.16372" lon="-1.72619">
        <ele>18.489695</ele>
        <time>2022-06-27T07:49:47.416Z</time>
      </trkpt>
      <trkpt lat="47.16387" lon="-1.72597">
        <ele>18.068431</ele>
        <time>2022-06-27T07:49:54.200Z</time>
      </trkpt>
      <trkpt lat="47.1641" lon="-1.72536">
        <ele>17.10821</ele>
        <time>2022-06-27T07:50:09.481Z</time>
      </trkpt>
      <trkpt lat="47.16453" lon="-1.72462">
        <ele>15.896314</ele>
        <time>2022-06-27T07:50:30.580Z</time>
      </trkpt>
      <trkpt lat="47.16487" lon="-1.72419">
        <ele>15.160428</ele>
        <time>2022-06-27T07:50:44.881Z</time>
      </trkpt>
      <trkpt lat="47.16544" lon="-1.72375">
        <ele>14.100808</ele>
        <time>2022-06-27T07:51:06.176Z</time>
      </trkpt>
      <trkpt lat="47.16576" lon="-1.72362">
        <ele>13.547385</ele>
        <time>2022-06-27T07:51:17.683Z</time>
      </trkpt>
      <trkpt lat="47.16611" lon="-1.72323">
        <ele>13.766027</ele>
        <time>2022-06-27T07:51:33.498Z</time>
      </trkpt>
      <trkpt lat="47.16636" lon="-1.72281">
        <ele>14.098992</ele>
        <time>2022-06-27T07:51:48.626Z</time>
      </trkpt>
      <trkpt lat="47.16678" lon="-1.72232">
        <ele>14.570688</ele>
        <time>2022-06-27T07:52:12.236Z</time>
      </trkpt>
      <trkpt lat="47.16756" lon="-1.72162">
        <ele>15.472899</ele>
        <time>2022-06-27T07:52:42.347Z</time>
      </trkpt>
      <trkpt lat="47.16777" lon="-1.72115">
        <ele>15.90391</ele>
        <time>2022-06-27T07:52:54.457Z</time>
      </trkpt>
      <trkpt lat="47.1678" lon="-1.72111">
        <ele>15.940177</ele>
        <time>2022-06-27T07:52:55.474Z</time>
      </trkpt>
      <trkpt lat="47.16789" lon="-1.72104">
        <ele>16.060484</ele>
        <time>2022-06-27T07:52:58.661Z</time>
      </trkpt>
      <trkpt lat="47.16786" lon="-1.72041">
        <ele>16.54124</ele>
        <time>2022-06-27T07:53:10.822Z</time>
      </trkpt>
      <trkpt lat="47.16784" lon="-1.72009">
        <ele>16.786213</ele>
        <time>2022-06-27T07:53:16.753Z</time>
      </trkpt>
      <trkpt lat="47.1677" lon="-1.7201">
        <ele>16.948552</ele>
        <time>2022-06-27T07:53:20.074Z</time>
      </trkpt>
      <trkpt lat="47.16725" lon="-1.71874">
        <ele>16.535536</ele>
        <time>2022-06-27T07:53:42.419Z</time>
      </trkpt>
      <trkpt lat="47.16716" lon="-1.71838">
        <ele>16.395299</ele>
        <time>2022-06-27T07:53:47.828Z</time>
      </trkpt>
      <trkpt lat="47.16699" lon="-1.71645">
        <ele>16.440434</ele>
        <time>2022-06-27T07:54:16.001Z</time>
      </trkpt>
      <trkpt lat="47.16715" lon="-1.71477">
        <ele>17.119118</ele>
        <time>2022-06-27T07:54:49.987Z</time>
      </trkpt>
      <trkpt lat="47.16717" lon="-1.71435">
        <ele>17.622618</ele>
        <time>2022-06-27T07:54:58.934Z</time>
      </trkpt>
      <trkpt lat="47.16713" lon="-1.71411">
        <ele>17.92301</ele>
        <time>2022-06-27T07:55:04.891Z</time>
      </trkpt>
      <trkpt lat="47.16695" lon="-1.71328">
        <ele>18.976688</ele>
        <time>2022-06-27T07:55:24.460Z</time>
      </trkpt>
      <trkpt lat="47.16699" lon="-1.71273">
        <ele>19.63401</ele>
        <time>2022-06-27T07:55:36.752Z</time>
      </trkpt>
      <trkpt lat="47.16713" lon="-1.71202">
        <ele>20.382467</ele>
        <time>2022-06-27T07:55:53.304Z</time>
      </trkpt>
      <trkpt lat="47.16794" lon="-1.70978">
        <ele>22.233868</ele>
        <time>2022-06-27T07:56:41.333Z</time>
      </trkpt>
      <trkpt lat="47.16814" lon="-1.70894">
        <ele>22.684083</ele>
        <time>2022-06-27T07:56:57.640Z</time>
      </trkpt>
      <trkpt lat="47.16821" lon="-1.70846">
        <ele>22.927324</ele>
        <time>2022-06-27T07:57:06.901Z</time>
      </trkpt>
      <trkpt lat="47.16815" lon="-1.70815">
        <ele>23.087151</ele>
        <time>2022-06-27T07:57:12.789Z</time>
      </trkpt>
      <trkpt lat="47.16778" lon="-1.70707">
        <ele>23.468049</ele>
        <time>2022-06-27T07:57:34.063Z</time>
      </trkpt>
      <trkpt lat="47.16755" lon="-1.70681">
        <ele>23.475592</ele>
        <time>2022-06-27T07:57:41.056Z</time>
      </trkpt>
      <trkpt lat="47.16737" lon="-1.70664">
        <ele>23.481229</ele>
        <time>2022-06-27T07:57:46.297Z</time>
      </trkpt>
      <trkpt lat="47.16735" lon="-1.70658">
        <ele>23.482461</ele>
        <time>2022-06-27T07:57:47.277Z</time>
      </trkpt>
      <trkpt lat="47.16779" lon="-1.7043">
        <ele>23.506571</ele>
        <time>2022-06-27T07:58:23.231Z</time>
      </trkpt>
      <trkpt lat="47.16792" lon="-1.70416">
        <ele>23.506497</ele>
        <time>2022-06-27T07:58:26.835Z</time>
      </trkpt>
      <trkpt lat="47.16808" lon="-1.70415">
        <ele>23.506423</ele>
        <time>2022-06-27T07:58:30.561Z</time>
      </trkpt>
      <trkpt lat="47.16856" lon="-1.70464">
        <ele>23.506158</ele>
        <time>2022-06-27T07:58:44.174Z</time>
      </trkpt>
      <trkpt lat="47.16869" lon="-1.70465">
        <ele>23.506099</ele>
        <time>2022-06-27T07:58:47.342Z</time>
      </trkpt>
      <trkpt lat="47.16991" lon="-1.70345">
        <ele>24.957364</ele>
        <time>2022-06-27T07:59:29.582Z</time>
      </trkpt>
      <trkpt lat="47.17081" lon="-1.70253">
        <ele>25.945115</ele>
        <time>2022-06-27T08:00:01.766Z</time>
      </trkpt>
      <trkpt lat="47.17034" lon="-1.70149">
        <ele>26.643809</ele>
        <time>2022-06-27T08:00:36.544Z</time>
      </trkpt>
      <trkpt lat="47.16995" lon="-1.70041">
        <ele>26.903674</ele>
        <time>2022-06-27T08:01:08.217Z</time>
      </trkpt>
      <trkpt lat="47.16994" lon="-1.70034">
        <ele>26.907637</ele>
        <time>2022-06-27T08:01:10.143Z</time>
      </trkpt>
      <trkpt lat="47.17021" lon="-1.70007">
        <ele>26.933457</ele>
        <time>2022-06-27T08:01:22.071Z</time>
      </trkpt>
      <trkpt lat="47.16998" lon="-1.69941">
        <ele>26.973373</ele>
        <time>2022-06-27T08:01:40.567Z</time>
      </trkpt>
      <trkpt lat="47.17053" lon="-1.69919">
        <ele>27.051011</ele>
        <time>2022-06-27T08:02:01.449Z</time>
      </trkpt>
      <trkpt lat="47.17116" lon="-1.69871">
        <ele>27.214852</ele>
        <time>2022-06-27T08:02:28.891Z</time>
      </trkpt>
      <trkpt lat="47.17186" lon="-1.69818">
        <ele>27.395145</ele>
        <time>2022-06-27T08:02:58.951Z</time>
      </trkpt>
      <trkpt lat="47.172" lon="-1.69855">
        <ele>27.494012</ele>
        <time>2022-06-27T08:03:06.184Z</time>
      </trkpt>
      <trkpt lat="47.17267" lon="-1.7">
        <ele>27.956533</ele>
        <time>2022-06-27T08:03:52.805Z</time>
      </trkpt>
      <trkpt lat="47.17289" lon="-1.69997">
        <ele>28.041034</ele>
        <time>2022-06-27T08:03:58.480Z</time>
      </trkpt>
      <trkpt lat="47.17301" lon="-1.70004">
        <ele>28.092204</ele>
        <time>2022-06-27T08:04:01.701Z</time>
      </trkpt>
      <trkpt lat="47.17312" lon="-1.70022">
        <ele>28.151936</ele>
        <time>2022-06-27T08:04:05.882Z</time>
      </trkpt>
      <trkpt lat="47.17519" lon="-1.69813">
        <ele>28.793817</ele>
        <time>2022-06-27T08:05:08.190Z</time>
      </trkpt>
      <trkpt lat="47.17545" lon="-1.69975">
        <ele>28.799428</ele>
        <time>2022-06-27T08:05:33.162Z</time>
      </trkpt>
      <trkpt lat="47.17581" lon="-1.70136">
        <ele>28.355317</ele>
        <time>2022-06-27T08:05:57.528Z</time>
      </trkpt>
      <trkpt lat="47.17593" lon="-1.70213">
        <ele>28.160777</ele>
        <time>2022-06-27T08:06:08.689Z</time>
      </trkpt>
      <trkpt lat="47.17594" lon="-1.70256">
        <ele>28.112838</ele>
        <time>2022-06-27T08:06:14.908Z</time>
      </trkpt>
      <trkpt lat="47.17588" lon="-1.70296">
        <ele>28.066967</ele>
        <time>2022-06-27T08:06:20.931Z</time>
      </trkpt>
      <trkpt lat="47.17566" lon="-1.70363">
        <ele>27.984747</ele>
        <time>2022-06-27T08:06:31.744Z</time>
      </trkpt>
      <trkpt lat="47.1758" lon="-1.70392">
        <ele>27.944734</ele>
        <time>2022-06-27T08:06:37.076Z</time>
      </trkpt>
      <trkpt lat="47.17599" lon="-1.70381">
        <ele>27.911812</ele>
        <time>2022-06-27T08:06:41.528Z</time>
      </trkpt>
      <trkpt lat="47.17608" lon="-1.70385">
        <ele>27.895776</ele>
        <time>2022-06-27T08:06:43.764Z</time>
      </trkpt>
      <trkpt lat="47.1762" lon="-1.70411">
        <ele>27.915786</ele>
        <time>2022-06-27T08:06:48.711Z</time>
      </trkpt>
      <trkpt lat="47.17616" lon="-1.70432">
        <ele>27.978865</ele>
        <time>2022-06-27T08:06:52.202Z</time>
      </trkpt>
      <trkpt lat="47.17606" lon="-1.70444">
        <ele>28.032615</ele>
        <time>2022-06-27T08:06:55.235Z</time>
      </trkpt>
      <trkpt lat="47.17585" lon="-1.70442">
        <ele>28.119593</ele>
        <time>2022-06-27T08:07:00.293Z</time>
      </trkpt>
      <trkpt lat="47.17576" lon="-1.70422">
        <ele>28.18775</ele>
        <time>2022-06-27T08:07:04.364Z</time>
      </trkpt>
      <trkpt lat="47.1758" lon="-1.70392">
        <ele>28.275511</ele>
        <time>2022-06-27T08:07:09.676Z</time>
      </trkpt>
      <trkpt lat="47.17599" lon="-1.70381">
        <ele>28.360386</ele>
        <time>2022-06-27T08:07:14.923Z</time>
      </trkpt>
      <trkpt lat="47.17608" lon="-1.70385">
        <ele>28.401727</ele>
        <time>2022-06-27T08:07:17.466Z</time>
      </trkpt>
      <trkpt lat="47.17647" lon="-1.70353">
        <ele>28.586498</ele>
        <time>2022-06-27T08:07:28.493Z</time>
      </trkpt>
      <trkpt lat="47.17655" lon="-1.70341">
        <ele>28.634517</ele>
        <time>2022-06-27T08:07:31.118Z</time>
      </trkpt>
      <trkpt lat="47.17691" lon="-1.70298">
        <ele>28.73318</ele>
        <time>2022-06-27T08:07:42.323Z</time>
      </trkpt>
      <trkpt lat="47.17713" lon="-1.7026">
        <ele>28.803285</ele>
        <time>2022-06-27T08:07:50.300Z</time>
      </trkpt>
      <trkpt lat="47.17712" lon="-1.70246">
        <ele>28.823967</ele>
        <time>2022-06-27T08:07:52.724Z</time>
      </trkpt>
      <trkpt lat="47.17721" lon="-1.70229">
        <ele>28.854533</ele>
        <time>2022-06-27T08:07:55.931Z</time>
      </trkpt>
      <trkpt lat="47.1773" lon="-1.70226">
        <ele>28.872853</ele>
        <time>2022-06-27T08:07:58.150Z</time>
      </trkpt>
      <trkpt lat="47.17744" lon="-1.70236">
        <ele>28.905709</ele>
        <time>2022-06-27T08:08:01.903Z</time>
      </trkpt>
      <trkpt lat="47.17745" lon="-1.7024">
        <ele>28.912479</ele>
        <time>2022-06-27T08:08:02.641Z</time>
      </trkpt>
      <trkpt lat="47.17753" lon="-1.70241">
        <ele>28.928896</ele>
        <time>2022-06-27T08:08:04.317Z</time>
      </trkpt>
      <trkpt lat="47.17774" lon="-1.70275">
        <ele>28.994764</ele>
        <time>2022-06-27T08:08:11.858Z</time>
      </trkpt>
      <trkpt lat="47.17786" lon="-1.70306">
        <ele>28.962819</ele>
        <time>2022-06-27T08:08:17.497Z</time>
      </trkpt>
      <trkpt lat="47.17799" lon="-1.70529">
        <ele>28.492902</ele>
        <time>2022-06-27T08:08:50.648Z</time>
      </trkpt>
      <trkpt lat="47.17853" lon="-1.70705">
        <ele>28.545744</ele>
        <time>2022-06-27T08:09:20.737Z</time>
      </trkpt>
      <trkpt lat="47.1786" lon="-1.70686">
        <ele>28.556506</ele>
        <time>2022-06-27T08:09:24.608Z</time>
      </trkpt>
      <trkpt lat="47.17858" lon="-1.70675">
        <ele>28.562728</ele>
        <time>2022-06-27T08:09:26.570Z</time>
      </trkpt>
      <trkpt lat="47.17845" lon="-1.70656">
        <ele>28.57633</ele>
        <time>2022-06-27T08:09:30.899Z</time>
      </trkpt>
      <trkpt lat="47.17823" lon="-1.7059">
        <ele>28.691571</ele>
        <time>2022-06-27T08:09:44.176Z</time>
      </trkpt>
      <trkpt lat="47.17823" lon="-1.70562">
        <ele>28.755292</ele>
        <time>2022-06-27T08:09:48.897Z</time>
      </trkpt>
      <trkpt lat="47.17933" lon="-1.70517">
        <ele>29.138456</ele>
        <time>2022-06-27T08:10:17.818Z</time>
      </trkpt>
      <trkpt lat="47.18016" lon="-1.70482">
        <ele>28.955441</ele>
        <time>2022-06-27T08:10:49.436Z</time>
      </trkpt>
      <trkpt lat="47.18032" lon="-1.70445">
        <ele>28.852961</ele>
        <time>2022-06-27T08:11:00.056Z</time>
      </trkpt>
      <trkpt lat="47.1804" lon="-1.70304">
        <ele>28.430472</ele>
        <time>2022-06-27T08:11:33.998Z</time>
      </trkpt>
      <trkpt lat="47.18055" lon="-1.70295">
        <ele>28.273953</ele>
        <time>2022-06-27T08:11:40.013Z</time>
      </trkpt>
      <trkpt lat="47.18134" lon="-1.70307">
        <ele>27.532601</ele>
        <time>2022-06-27T08:12:07.583Z</time>
      </trkpt>
      <trkpt lat="47.18159" lon="-1.703">
        <ele>27.297311</ele>
        <time>2022-06-27T08:12:16.401Z</time>
      </trkpt>
      <trkpt lat="47.18248" lon="-1.70211">
        <ele>25.881438</ele>
        <time>2022-06-27T08:12:52.732Z</time>
      </trkpt>
      <trkpt lat="47.18348" lon="-1.70234">
        <ele>24.268842</ele>
        <time>2022-06-27T08:13:12.484Z</time>
      </trkpt>
      <trkpt lat="47.18391" lon="-1.7029">
        <ele>23.572668</ele>
        <time>2022-06-27T08:13:23.825Z</time>
      </trkpt>
      <trkpt lat="47.18492" lon="-1.70321">
        <ele>22.457356</ele>
        <time>2022-06-27T08:13:44.685Z</time>
      </trkpt>
      <trkpt lat="47.1852" lon="-1.70308">
        <ele>22.134416</ele>
        <time>2022-06-27T08:13:51.103Z</time>
      </trkpt>
      <trkpt lat="47.18525" lon="-1.70319">
        <ele>22.117796</ele>
        <time>2022-06-27T08:13:53.084Z</time>
      </trkpt>
      <trkpt lat="47.18533" lon="-1.70323">
        <ele>22.183548</ele>
        <time>2022-06-27T08:13:55.225Z</time>
      </trkpt>
      <trkpt lat="47.1854" lon="-1.70349">
        <ele>22.323657</ele>
        <time>2022-06-27T08:14:02.552Z</time>
      </trkpt>
      <trkpt lat="47.18571" lon="-1.70331">
        <ele>22.570906</ele>
        <time>2022-06-27T08:14:16.216Z</time>
      </trkpt>
      <trkpt lat="47.18574" lon="-1.70332">
        <ele>22.590813</ele>
        <time>2022-06-27T08:14:17.281Z</time>
      </trkpt>
      <trkpt lat="47.18654" lon="-1.7029">
        <ele>23.211054</ele>
        <time>2022-06-27T08:14:54.364Z</time>
      </trkpt>
      <trkpt lat="47.18759" lon="-1.70269">
        <ele>23.433054</ele>
        <time>2022-06-27T08:15:38.745Z</time>
      </trkpt>
      <trkpt lat="47.18787" lon="-1.70254">
        <ele>23.445687</ele>
        <time>2022-06-27T08:15:50.042Z</time>
      </trkpt>
      <trkpt lat="47.18822" lon="-1.7022">
        <ele>23.463091</ele>
        <time>2022-06-27T08:16:04.567Z</time>
      </trkpt>
      <trkpt lat="47.18929" lon="-1.70192">
        <ele>22.763704</ele>
        <time>2022-06-27T08:16:41.426Z</time>
      </trkpt>
      <trkpt lat="47.18955" lon="-1.70183">
        <ele>22.534606</ele>
        <time>2022-06-27T08:16:46.651Z</time>
      </trkpt>
      <trkpt lat="47.18938" lon="-1.70114">
        <ele>22.100305</ele>
        <time>2022-06-27T08:16:57.177Z</time>
      </trkpt>
      <trkpt lat="47.18912" lon="-1.70016">
        <ele>22.249704</ele>
        <time>2022-06-27T08:17:14.435Z</time>
      </trkpt>
      <trkpt lat="47.18876" lon="-1.69894">
        <ele>22.893609</ele>
        <time>2022-06-27T08:17:40.092Z</time>
      </trkpt>
      <trkpt lat="47.18862" lon="-1.69861">
        <ele>23.078668</ele>
        <time>2022-06-27T08:17:47.804Z</time>
      </trkpt>
      <trkpt lat="47.18909" lon="-1.69816">
        <ele>23.372852</ele>
        <time>2022-06-27T08:18:10.870Z</time>
      </trkpt>
      <trkpt lat="47.18943" lon="-1.69784">
        <ele>23.557335</ele>
        <time>2022-06-27T08:18:27.380Z</time>
      </trkpt>
      <trkpt lat="47.18956" lon="-1.69768">
        <ele>23.635056</ele>
        <time>2022-06-27T08:18:34.124Z</time>
      </trkpt>
      <trkpt lat="47.19022" lon="-1.69693">
        <ele>24.010234</ele>
        <time>2022-06-27T08:19:05.230Z</time>
      </trkpt>
      <trkpt lat="47.19032" lon="-1.69682">
        <ele>24.023895</ele>
        <time>2022-06-27T08:19:09.980Z</time>
      </trkpt>
      <trkpt lat="47.19028" lon="-1.69661">
        <ele>24.039988</ele>
        <time>2022-06-27T08:19:15.426Z</time>
      </trkpt>
      <trkpt lat="47.19013" lon="-1.69643">
        <ele>24.060458</ele>
        <time>2022-06-27T08:19:22.463Z</time>
      </trkpt>
      <trkpt lat="47.19013" lon="-1.69631">
        <ele>24.068984</ele>
        <time>2022-06-27T08:19:25.433Z</time>
      </trkpt>
      <trkpt lat="47.19034" lon="-1.69607">
        <ele>24.096488</ele>
        <time>2022-06-27T08:19:35.201Z</time>
      </trkpt>
      <trkpt lat="47.19034" lon="-1.69607">
        <ele>24.096796</ele>
        <time>2022-06-27T08:19:35.376Z</time>
      </trkpt>
      <trkpt lat="47.19041" lon="-1.69588">
        <ele>24.112297</ele>
        <time>2022-06-27T08:19:40.902Z</time>
      </trkpt>
      <trkpt lat="47.19017" lon="-1.69597">
        <ele>24.137835</ele>
        <time>2022-06-27T08:19:50.116Z</time>
      </trkpt>
      <trkpt lat="47.1899" lon="-1.69589">
        <ele>24.167674</ele>
        <time>2022-06-27T08:20:01.150Z</time>
      </trkpt>
      <trkpt lat="47.18975" lon="-1.69575">
        <ele>24.185905</ele>
        <time>2022-06-27T08:20:07.930Z</time>
      </trkpt>
      <trkpt lat="47.18949" lon="-1.69567">
        <ele>24.103454</ele>
        <time>2022-06-27T08:20:17.831Z</time>
      </trkpt>
      <trkpt lat="47.1892" lon="-1.69569">
        <ele>23.903657</ele>
        <time>2022-06-27T08:20:28.566Z</time>
      </trkpt>
      <trkpt lat="47.18897" lon="-1.69546">
        <ele>23.710792</ele>
        <time>2022-06-27T08:20:38.690Z</time>
      </trkpt>
      <trkpt lat="47.18882" lon="-1.69548">
        <ele>23.607233</ele>
        <time>2022-06-27T08:20:43.779Z</time>
      </trkpt>
      <trkpt lat="47.18875" lon="-1.69542">
        <ele>23.552003</ele>
        <time>2022-06-27T08:20:46.576Z</time>
      </trkpt>
      <trkpt lat="47.18844" lon="-1.69517">
        <ele>23.305899</ele>
        <time>2022-06-27T08:20:58.653Z</time>
      </trkpt>
      <trkpt lat="47.18817" lon="-1.69466">
        <ele>23.002149</ele>
        <time>2022-06-27T08:21:13.490Z</time>
      </trkpt>
      <trkpt lat="47.18799" lon="-1.69393">
        <ele>22.741614</ele>
        <time>2022-06-27T08:21:31.367Z</time>
      </trkpt>
      <trkpt lat="47.18804" lon="-1.69375">
        <ele>22.676727</ele>
        <time>2022-06-27T08:21:36.149Z</time>
      </trkpt>
      <trkpt lat="47.18818" lon="-1.69323">
        <ele>22.500544</ele>
        <time>2022-06-27T08:21:49.411Z</time>
      </trkpt>
      <trkpt lat="47.18843" lon="-1.69308">
        <ele>22.377551</ele>
        <time>2022-06-27T08:21:58.999Z</time>
      </trkpt>
      <trkpt lat="47.18866" lon="-1.69295">
        <ele>22.263687</ele>
        <time>2022-06-27T08:22:08.055Z</time>
      </trkpt>
      <trkpt lat="47.1887" lon="-1.69293">
        <ele>22.243077</ele>
        <time>2022-06-27T08:22:09.662Z</time>
      </trkpt>
      <trkpt lat="47.18909" lon="-1.69271">
        <ele>22.479729</ele>
        <time>2022-06-27T08:22:25.937Z</time>
      </trkpt>
      <trkpt lat="47.18935" lon="-1.69257">
        <ele>23.122701</ele>
        <time>2022-06-27T08:22:34.018Z</time>
      </trkpt>
      <trkpt lat="47.1895" lon="-1.69256">
        <ele>23.457594</ele>
        <time>2022-06-27T08:22:38.750Z</time>
      </trkpt>
      <trkpt lat="47.18954" lon="-1.69242">
        <ele>23.71371</ele>
        <time>2022-06-27T08:22:42.778Z</time>
      </trkpt>
      <trkpt lat="47.18981" lon="-1.6922">
        <ele>24.430334</ele>
        <time>2022-06-27T08:22:54.169Z</time>
      </trkpt>
      <trkpt lat="47.1899" lon="-1.69249">
        <ele>24.944594</ele>
        <time>2022-06-27T08:23:02.438Z</time>
      </trkpt>
      <trkpt lat="47.18998" lon="-1.69274">
        <ele>25.369114</ele>
        <time>2022-06-27T08:23:09.828Z</time>
      </trkpt>
      <trkpt lat="47.19061" lon="-1.69239">
        <ele>26.892113</ele>
        <time>2022-06-27T08:23:36.841Z</time>
      </trkpt>
      <trkpt lat="47.19114" lon="-1.69211">
        <ele>28.106886</ele>
        <time>2022-06-27T08:23:57.515Z</time>
      </trkpt>
      <trkpt lat="47.19138" lon="-1.69189">
        <ele>28.725969</ele>
        <time>2022-06-27T08:24:07.608Z</time>
      </trkpt>
      <trkpt lat="47.19165" lon="-1.69162">
        <ele>29.42093</ele>
        <time>2022-06-27T08:24:18.633Z</time>
      </trkpt>
      <trkpt lat="47.19179" lon="-1.69147">
        <ele>29.801128</ele>
        <time>2022-06-27T08:24:24.162Z</time>
      </trkpt>
      <trkpt lat="47.19244" lon="-1.69096">
        <ele>29.522178</ele>
        <time>2022-06-27T08:24:41.288Z</time>
      </trkpt>
      <trkpt lat="47.19246" lon="-1.69087">
        <ele>29.441176</ele>
        <time>2022-06-27T08:24:42.547Z</time>
      </trkpt>
      <trkpt lat="47.19302" lon="-1.69044">
        <ele>28.634381</ele>
        <time>2022-06-27T08:24:55.389Z</time>
      </trkpt>
      <trkpt lat="47.19334" lon="-1.6902">
        <ele>28.183402</ele>
        <time>2022-06-27T08:25:02.109Z</time>
      </trkpt>
      <trkpt lat="47.19342" lon="-1.69027">
        <ele>28.076617</ele>
        <time>2022-06-27T08:25:03.590Z</time>
      </trkpt>
      <trkpt lat="47.19388" lon="-1.6919">
        <ele>25.126987</ele>
        <time>2022-06-27T08:25:25.269Z</time>
      </trkpt>
      <trkpt lat="47.19416" lon="-1.69295">
        <ele>23.151275</ele>
        <time>2022-06-27T08:25:39.936Z</time>
      </trkpt>
      <trkpt lat="47.19409" lon="-1.69321">
        <ele>22.68776</ele>
        <time>2022-06-27T08:25:43.777Z</time>
      </trkpt>
      <trkpt lat="47.19384" lon="-1.69374">
        <ele>21.632411</ele>
        <time>2022-06-27T08:25:52.260Z</time>
      </trkpt>
      <trkpt lat="47.19367" lon="-1.69393">
        <ele>21.108358</ele>
        <time>2022-06-27T08:25:56.257Z</time>
      </trkpt>
      <trkpt lat="47.19301" lon="-1.69429">
        <ele>19.399542</ele>
        <time>2022-06-27T08:26:09.091Z</time>
      </trkpt>
      <trkpt lat="47.19282" lon="-1.69449">
        <ele>18.800473</ele>
        <time>2022-06-27T08:26:13.293Z</time>
      </trkpt>
      <trkpt lat="47.19286" lon="-1.6946">
        <ele>18.511597</ele>
        <time>2022-06-27T08:26:15.051Z</time>
      </trkpt>
      <trkpt lat="47.19292" lon="-1.69464">
        <ele>18.307315</ele>
        <time>2022-06-27T08:26:16.235Z</time>
      </trkpt>
      <trkpt lat="47.19326" lon="-1.69481">
        <ele>17.117176</ele>
        <time>2022-06-27T08:26:23.450Z</time>
      </trkpt>
      <trkpt lat="47.19331" lon="-1.69486">
        <ele>16.902082</ele>
        <time>2022-06-27T08:26:24.797Z</time>
      </trkpt>
      <trkpt lat="47.1934" lon="-1.69494">
        <ele>16.563133</ele>
        <time>2022-06-27T08:26:26.815Z</time>
      </trkpt>
      <trkpt lat="47.19343" lon="-1.69487">
        <ele>16.364904</ele>
        <time>2022-06-27T08:26:27.873Z</time>
      </trkpt>
      <trkpt lat="47.19391" lon="-1.6948">
        <ele>14.769986</ele>
        <time>2022-06-27T08:26:36.781Z</time>
      </trkpt>
      <trkpt lat="47.19391" lon="-1.6948">
        <ele>14.769986</ele>
        <time>2022-06-27T08:26:36.791Z</time>
      </trkpt>
      <trkpt lat="47.19408" lon="-1.69468">
        <ele>14.131716</ele>
        <time>2022-06-27T08:26:40.376Z</time>
      </trkpt>
      <trkpt lat="47.19424" lon="-1.69444">
        <ele>13.38359</ele>
        <time>2022-06-27T08:26:45.395Z</time>
      </trkpt>
      <trkpt lat="47.19445" lon="-1.6939">
        <ele>12.533265</ele>
        <time>2022-06-27T08:26:55.408Z</time>
      </trkpt>
      <trkpt lat="47.19457" lon="-1.69393">
        <ele>12.354036</ele>
        <time>2022-06-27T08:26:57.681Z</time>
      </trkpt>
      <trkpt lat="47.1948" lon="-1.69403">
        <ele>12.00018</ele>
        <time>2022-06-27T08:27:02.743Z</time>
      </trkpt>
      <trkpt lat="47.19503" lon="-1.69434">
        <ele>11.558418</ele>
        <time>2022-06-27T08:27:09.095Z</time>
      </trkpt>
      <trkpt lat="47.19559" lon="-1.69576">
        <ele>10.63738</ele>
        <time>2022-06-27T08:27:32.895Z</time>
      </trkpt>
      <trkpt lat="47.19599" lon="-1.69667">
        <ele>11.34496</ele>
        <time>2022-06-27T08:27:53.127Z</time>
      </trkpt>
      <trkpt lat="47.19629" lon="-1.69735">
        <ele>11.867301</ele>
        <time>2022-06-27T08:28:10.985Z</time>
      </trkpt>
      <trkpt lat="47.19644" lon="-1.69788">
        <ele>12.48737</ele>
        <time>2022-06-27T08:28:23.728Z</time>
      </trkpt>
      <trkpt lat="47.19666" lon="-1.69798">
        <ele>13.047015</ele>
        <time>2022-06-27T08:28:31.424Z</time>
      </trkpt>
      <trkpt lat="47.19683" lon="-1.69821">
        <ele>13.606678</ele>
        <time>2022-06-27T08:28:39.258Z</time>
      </trkpt>
      <trkpt lat="47.19674" lon="-1.69889">
        <ele>14.731745</ele>
        <time>2022-06-27T08:28:57.101Z</time>
      </trkpt>
      <trkpt lat="47.19679" lon="-1.69927">
        <ele>15.375819</ele>
        <time>2022-06-27T08:29:06.771Z</time>
      </trkpt>
      <trkpt lat="47.19685" lon="-1.69964">
        <ele>15.994126</ele>
        <time>2022-06-27T08:29:17.404Z</time>
      </trkpt>
      <trkpt lat="47.19689" lon="-1.70052">
        <ele>17.146556</ele>
        <time>2022-06-27T08:29:47.304Z</time>
      </trkpt>
      <trkpt lat="47.19679" lon="-1.70136">
        <ele>18.161157</ele>
        <time>2022-06-27T08:30:14.696Z</time>
      </trkpt>
      <trkpt lat="47.19671" lon="-1.70169">
        <ele>18.579974</ele>
        <time>2022-06-27T08:30:25.581Z</time>
      </trkpt>
      <trkpt lat="47.1967" lon="-1.70195">
        <ele>18.883581</ele>
        <time>2022-06-27T08:30:32.549Z</time>
      </trkpt>
      <trkpt lat="47.19681" lon="-1.70238">
        <ele>19.436023</ele>
        <time>2022-06-27T08:30:45.752Z</time>
      </trkpt>
      <trkpt lat="47.19678" lon="-1.70288">
        <ele>19.656732</ele>
        <time>2022-06-27T08:30:59.486Z</time>
      </trkpt>
      <trkpt lat="47.19708" lon="-1.70411">
        <ele>20.03114</ele>
        <time>2022-06-27T08:31:34.472Z</time>
      </trkpt>
      <trkpt lat="47.19712" lon="-1.70461">
        <ele>20.175803</ele>
        <time>2022-06-27T08:31:47.229Z</time>
      </trkpt>
      <trkpt lat="47.19707" lon="-1.70499">
        <ele>20.28407</ele>
        <time>2022-06-27T08:31:56.867Z</time>
      </trkpt>
      <trkpt lat="47.19719" lon="-1.70538">
        <ele>20.536666</ele>
        <time>2022-06-27T08:32:07.791Z</time>
      </trkpt>
      <trkpt lat="47.19764" lon="-1.70779">
        <ele>22.305208</ele>
        <time>2022-06-27T08:33:18.277Z</time>
      </trkpt>
      <trkpt lat="47.19769" lon="-1.70857">
        <ele>23.529703</ele>
        <time>2022-06-27T08:33:45.969Z</time>
      </trkpt>
      <trkpt lat="47.19765" lon="-1.70884">
        <ele>23.961563</ele>
        <time>2022-06-27T08:33:55.876Z</time>
      </trkpt>
      <trkpt lat="47.19755" lon="-1.70912">
        <ele>24.4417</ele>
        <time>2022-06-27T08:34:06.485Z</time>
      </trkpt>
      <trkpt lat="47.19744" lon="-1.70925">
        <ele>24.768965</ele>
        <time>2022-06-27T08:34:13.794Z</time>
      </trkpt>
      <trkpt lat="47.19716" lon="-1.70947">
        <ele>25.494097</ele>
        <time>2022-06-27T08:34:29.418Z</time>
      </trkpt>
      <trkpt lat="47.19693" lon="-1.7095">
        <ele>26.035437</ele>
        <time>2022-06-27T08:34:40.862Z</time>
      </trkpt>
      <trkpt lat="47.19644" lon="-1.70984">
        <ele>25.906718</ele>
        <time>2022-06-27T08:35:06.327Z</time>
      </trkpt>
      <trkpt lat="47.19567" lon="-1.71026">
        <ele>25.681778</ele>
        <time>2022-06-27T08:35:35.993Z</time>
      </trkpt>
      <trkpt lat="47.19504" lon="-1.71056">
        <ele>24.983182</ele>
        <time>2022-06-27T08:35:47.990Z</time>
      </trkpt>
      <trkpt lat="47.19489" lon="-1.7109">
        <ele>24.247904</ele>
        <time>2022-06-27T08:35:52.790Z</time>
      </trkpt>
      <trkpt lat="47.19482" lon="-1.71161">
        <ele>22.914826</ele>
        <time>2022-06-27T08:36:01.634Z</time>
      </trkpt>
      <trkpt lat="47.195" lon="-1.71232">
        <ele>21.519228</ele>
        <time>2022-06-27T08:36:11.157Z</time>
      </trkpt>
      <trkpt lat="47.19512" lon="-1.71266">
        <ele>20.813056</ele>
        <time>2022-06-27T08:36:15.919Z</time>
      </trkpt>
      <trkpt lat="47.19598" lon="-1.71385">
        <ele>18.22214</ele>
        <time>2022-06-27T08:36:38.685Z</time>
      </trkpt>
      <trkpt lat="47.1959" lon="-1.71394">
        <ele>18.004549</ele>
        <time>2022-06-27T08:36:40.459Z</time>
      </trkpt>
      <trkpt lat="47.19507" lon="-1.71437">
        <ele>15.968617</ele>
        <time>2022-06-27T08:36:56.497Z</time>
      </trkpt>
      <trkpt lat="47.19562" lon="-1.71674">
        <ele>11.829436</ele>
        <time>2022-06-27T08:37:26.102Z</time>
      </trkpt>
      <trkpt lat="47.19612" lon="-1.71981">
        <ele>9.717585</ele>
        <time>2022-06-27T08:38:08.155Z</time>
      </trkpt>
      <trkpt lat="47.19617" lon="-1.71988">
        <ele>9.741182</ele>
        <time>2022-06-27T08:38:09.839Z</time>
      </trkpt>
      <trkpt lat="47.19647" lon="-1.71972">
        <ele>9.852564</ele>
        <time>2022-06-27T08:38:18.752Z</time>
      </trkpt>
      <trkpt lat="47.19644" lon="-1.71935">
        <ele>9.942064</ele>
        <time>2022-06-27T08:38:25.624Z</time>
      </trkpt>
      <trkpt lat="47.19655" lon="-1.71935">
        <ele>9.981654</ele>
        <time>2022-06-27T08:38:28.840Z</time>
      </trkpt>
      <trkpt lat="47.19668" lon="-1.71942">
        <ele>10.031721</ele>
        <time>2022-06-27T08:38:34.662Z</time>
      </trkpt>
      <trkpt lat="47.19685" lon="-1.7195">
        <ele>10.092959</ele>
        <time>2022-06-27T08:38:42.371Z</time>
      </trkpt>
      <trkpt lat="47.19706" lon="-1.71963">
        <ele>10.248964</ele>
        <time>2022-06-27T08:38:51.742Z</time>
      </trkpt>
      <trkpt lat="47.19718" lon="-1.71968">
        <ele>10.425095</ele>
        <time>2022-06-27T08:38:57.353Z</time>
      </trkpt>
      <trkpt lat="47.19715" lon="-1.71982">
        <ele>10.56819</ele>
        <time>2022-06-27T08:39:00.060Z</time>
      </trkpt>
      <trkpt lat="47.19715" lon="-1.71985">
        <ele>10.597085</ele>
        <time>2022-06-27T08:39:00.637Z</time>
      </trkpt>
      <trkpt lat="47.19714" lon="-1.71989">
        <ele>10.644951</ele>
        <time>2022-06-27T08:39:01.583Z</time>
      </trkpt>
      <trkpt lat="47.19711" lon="-1.72135">
        <ele>12.054559</ele>
        <time>2022-06-27T08:39:37.249Z</time>
      </trkpt>
      <trkpt lat="47.19715" lon="-1.72204">
        <ele>12.712335</ele>
        <time>2022-06-27T08:39:50.674Z</time>
      </trkpt>
      <trkpt lat="47.19717" lon="-1.72247">
        <ele>12.673414</ele>
        <time>2022-06-27T08:39:58.258Z</time>
      </trkpt>
      <trkpt lat="47.19725" lon="-1.72261">
        <ele>12.657018</ele>
        <time>2022-06-27T08:40:01.138Z</time>
      </trkpt>
      <trkpt lat="47.1979" lon="-1.72259">
        <ele>12.571682</ele>
        <time>2022-06-27T08:40:16.773Z</time>
      </trkpt>
      <trkpt lat="47.19893" lon="-1.72248">
        <ele>12.29849</ele>
        <time>2022-06-27T08:40:46.230Z</time>
      </trkpt>
      <trkpt lat="47.19898" lon="-1.72236">
        <ele>12.244648</ele>
        <time>2022-06-27T08:40:48.685Z</time>
      </trkpt>
      <trkpt lat="47.19898" lon="-1.72211">
        <ele>12.146511</ele>
        <time>2022-06-27T08:40:53.139Z</time>
      </trkpt>
      <trkpt lat="47.19908" lon="-1.72212">
        <ele>12.091872</ele>
        <time>2022-06-27T08:40:56.491Z</time>
      </trkpt>
      <trkpt lat="47.19918" lon="-1.72241">
        <ele>11.965947</ele>
        <time>2022-06-27T08:41:03.607Z</time>
      </trkpt>
      <trkpt lat="47.19936" lon="-1.72258">
        <ele>11.846391</ele>
        <time>2022-06-27T08:41:10.625Z</time>
      </trkpt>
      <trkpt lat="47.19935" lon="-1.72294">
        <ele>11.70976</ele>
        <time>2022-06-27T08:41:19.249Z</time>
      </trkpt>
      <trkpt lat="47.19944" lon="-1.72348">
        <ele>11.493577</ele>
        <time>2022-06-27T08:41:33.953Z</time>
      </trkpt>
      <trkpt lat="47.19962" lon="-1.72366">
        <ele>11.621449</ele>
        <time>2022-06-27T08:41:43.500Z</time>
      </trkpt>
      <trkpt lat="47.19971" lon="-1.72386">
        <ele>11.781106</ele>
        <time>2022-06-27T08:41:49.826Z</time>
      </trkpt>
      <trkpt lat="47.19962" lon="-1.72436">
        <ele>12.14209</ele>
        <time>2022-06-27T08:42:05.032Z</time>
      </trkpt>
      <trkpt lat="47.19956" lon="-1.72437">
        <ele>12.201336</ele>
        <time>2022-06-27T08:42:06.641Z</time>
      </trkpt>
      <trkpt lat="47.19945" lon="-1.72448">
        <ele>12.344894</ele>
        <time>2022-06-27T08:42:10.623Z</time>
      </trkpt>
      <trkpt lat="47.19945" lon="-1.72449">
        <ele>12.347811</ele>
        <time>2022-06-27T08:42:11.033Z</time>
      </trkpt>
      <trkpt lat="47.19893" lon="-1.72455">
        <ele>12.877301</ele>
        <time>2022-06-27T08:42:25.597Z</time>
      </trkpt>
      <trkpt lat="47.19883" lon="-1.72466">
        <ele>13.004816</ele>
        <time>2022-06-27T08:42:29.129Z</time>
      </trkpt>
      <trkpt lat="47.19872" lon="-1.72464">
        <ele>13.119602</ele>
        <time>2022-06-27T08:42:33.128Z</time>
      </trkpt>
      <trkpt lat="47.19845" lon="-1.72484">
        <ele>13.299851</ele>
        <time>2022-06-27T08:42:41.660Z</time>
      </trkpt>
      <trkpt lat="47.19803" lon="-1.72515">
        <ele>13.318333</ele>
        <time>2022-06-27T08:43:02.590Z</time>
      </trkpt>
      <trkpt lat="47.1974" lon="-1.72583">
        <ele>13.348661</ele>
        <time>2022-06-27T08:43:30.569Z</time>
      </trkpt>
      <trkpt lat="47.19656" lon="-1.72656">
        <ele>12.778349</ele>
        <time>2022-06-27T08:44:04.357Z</time>
      </trkpt>
      <trkpt lat="47.19649" lon="-1.72685">
        <ele>12.552276</ele>
        <time>2022-06-27T08:44:11.637Z</time>
      </trkpt>
      <trkpt lat="47.19649" lon="-1.72707">
        <ele>12.396204</ele>
        <time>2022-06-27T08:44:16.712Z</time>
      </trkpt>
      <trkpt lat="47.19641" lon="-1.72717">
        <ele>12.288598</ele>
        <time>2022-06-27T08:44:20.019Z</time>
      </trkpt>
      <trkpt lat="47.19607" lon="-1.72738">
        <ele>11.893778</ele>
        <time>2022-06-27T08:44:32.395Z</time>
      </trkpt>
      <trkpt lat="47.19607" lon="-1.72738">
        <ele>11.889307</ele>
        <time>2022-06-27T08:44:32.571Z</time>
      </trkpt>
      <trkpt lat="47.19544" lon="-1.72794">
        <ele>11.722221</ele>
        <time>2022-06-27T08:44:58.083Z</time>
      </trkpt>
      <trkpt lat="47.19539" lon="-1.72812">
        <ele>11.827019</ele>
        <time>2022-06-27T08:45:02.727Z</time>
      </trkpt>
      <trkpt lat="47.19545" lon="-1.72854">
        <ele>12.063932</ele>
        <time>2022-06-27T08:45:14.380Z</time>
      </trkpt>
      <trkpt lat="47.19549" lon="-1.72868">
        <ele>12.1418</ele>
        <time>2022-06-27T08:45:18.258Z</time>
      </trkpt>
      <trkpt lat="47.19551" lon="-1.72873">
        <ele>12.176401</ele>
        <time>2022-06-27T08:45:19.932Z</time>
      </trkpt>
      <trkpt lat="47.19563" lon="-1.72925">
        <ele>12.46965</ele>
        <time>2022-06-27T08:45:35.833Z</time>
      </trkpt>
      <trkpt lat="47.19563" lon="-1.72925">
        <ele>12.47247</ele>
        <time>2022-06-27T08:45:36.325Z</time>
      </trkpt>
      <trkpt lat="47.19551" lon="-1.7301">
        <ele>13.051069</ele>
        <time>2022-06-27T08:46:03.870Z</time>
      </trkpt>
      <trkpt lat="47.19637" lon="-1.73074">
        <ele>15.426599</ele>
        <time>2022-06-27T08:46:53.711Z</time>
      </trkpt>
      <trkpt lat="47.19669" lon="-1.73097">
        <ele>16.296989</ele>
        <time>2022-06-27T08:47:11.568Z</time>
      </trkpt>
      <trkpt lat="47.19726" lon="-1.73187">
        <ele>17.515517</ele>
        <time>2022-06-27T08:47:52.229Z</time>
      </trkpt>
      <trkpt lat="47.19771" lon="-1.73074">
        <ele>17.928705</ele>
        <time>2022-06-27T08:48:28.443Z</time>
      </trkpt>
      <trkpt lat="47.19872" lon="-1.73022">
        <ele>16.825476</ele>
        <time>2022-06-27T08:49:03.959Z</time>
      </trkpt>
      <trkpt lat="47.19875" lon="-1.73029">
        <ele>16.695129</ele>
        <time>2022-06-27T08:49:05.796Z</time>
      </trkpt>
      <trkpt lat="47.20018" lon="-1.72968">
        <ele>13.667415</ele>
        <time>2022-06-27T08:50:53.720Z</time>
      </trkpt>
      <trkpt lat="47.20022" lon="-1.72961">
        <ele>13.586007</ele>
        <time>2022-06-27T08:50:57.991Z</time>
      </trkpt>
      <trkpt lat="47.20036" lon="-1.72975">
        <ele>13.368366</ele>
        <time>2022-06-27T08:51:01.748Z</time>
      </trkpt>
      <trkpt lat="47.20042" lon="-1.72991">
        <ele>13.216383</ele>
        <time>2022-06-27T08:51:04.267Z</time>
      </trkpt>
      <trkpt lat="47.20068" lon="-1.73207">
        <ele>11.99216</ele>
        <time>2022-06-27T08:51:39.100Z</time>
      </trkpt>
      <trkpt lat="47.20064" lon="-1.7328">
        <ele>12.235567</ele>
        <time>2022-06-27T08:51:53.189Z</time>
      </trkpt>
      <trkpt lat="47.20068" lon="-1.73332">
        <ele>12.409114</ele>
        <time>2022-06-27T08:52:02.782Z</time>
      </trkpt>
      <trkpt lat="47.20068" lon="-1.73332">
        <ele>12.410849</ele>
        <time>2022-06-27T08:52:02.901Z</time>
      </trkpt>
      <trkpt lat="47.20065" lon="-1.73372">
        <ele>12.545506</ele>
        <time>2022-06-27T08:52:11.045Z</time>
      </trkpt>
      <trkpt lat="47.20071" lon="-1.73404">
        <ele>12.654425</ele>
        <time>2022-06-27T08:52:18.131Z</time>
      </trkpt>
      <trkpt lat="47.20078" lon="-1.73533">
        <ele>13.74581</ele>
        <time>2022-06-27T08:52:44.588Z</time>
      </trkpt>
      <trkpt lat="47.20068" lon="-1.73549">
        <ele>13.936508</ele>
        <time>2022-06-27T08:52:50.147Z</time>
      </trkpt>
      <trkpt lat="47.20045" lon="-1.73571">
        <ele>14.299685</ele>
        <time>2022-06-27T08:52:59.830Z</time>
      </trkpt>
      <trkpt lat="47.20048" lon="-1.73645">
        <ele>14.953276</ele>
        <time>2022-06-27T08:53:14.662Z</time>
      </trkpt>
      <trkpt lat="47.20037" lon="-1.73771">
        <ele>16.055902</ele>
        <time>2022-06-27T08:53:42.890Z</time>
      </trkpt>
      <trkpt lat="47.20023" lon="-1.73833">
        <ele>16.622984</ele>
        <time>2022-06-27T08:53:56.540Z</time>
      </trkpt>
      <trkpt lat="47.20015" lon="-1.73854">
        <ele>16.834818</ele>
        <time>2022-06-27T08:54:01.024Z</time>
      </trkpt>
      <trkpt lat="47.20007" lon="-1.73859">
        <ele>16.943749</ele>
        <time>2022-06-27T08:54:03.787Z</time>
      </trkpt>
      <trkpt lat="47.20003" lon="-1.73901">
        <ele>17.310153</ele>
        <time>2022-06-27T08:54:10.969Z</time>
      </trkpt>
      <trkpt lat="47.19989" lon="-1.73934">
        <ele>17.180396</ele>
        <time>2022-06-27T08:54:17.444Z</time>
      </trkpt>
      <trkpt lat="47.19963" lon="-1.73966">
        <ele>16.983512</ele>
        <time>2022-06-27T08:54:25.220Z</time>
      </trkpt>
      <trkpt lat="47.19964" lon="-1.73976">
        <ele>16.941302</ele>
        <time>2022-06-27T08:54:26.722Z</time>
      </trkpt>
      <trkpt lat="47.19964" lon="-1.73978">
        <ele>16.933156</ele>
        <time>2022-06-27T08:54:27.035Z</time>
      </trkpt>
      <trkpt lat="47.19959" lon="-1.73982">
        <ele>16.901571</ele>
        <time>2022-06-27T08:54:28.492Z</time>
      </trkpt>
      <trkpt lat="47.19988" lon="-1.74225">
        <ele>15.753778</ele>
        <time>2022-06-27T08:55:02.910Z</time>
      </trkpt>
      <trkpt lat="47.19994" lon="-1.74245">
        <ele>15.622404</ele>
        <time>2022-06-27T08:55:05.839Z</time>
      </trkpt>
      <trkpt lat="47.19991" lon="-1.74282">
        <ele>15.399862</ele>
        <time>2022-06-27T08:55:14.590Z</time>
      </trkpt>
      <trkpt lat="47.19973" lon="-1.74347">
        <ele>14.976895</ele>
        <time>2022-06-27T08:55:31.387Z</time>
      </trkpt>
      <trkpt lat="47.1997" lon="-1.74382">
        <ele>14.768554</ele>
        <time>2022-06-27T08:55:40.328Z</time>
      </trkpt>
      <trkpt lat="47.19977" lon="-1.74537">
        <ele>13.886837</ele>
        <time>2022-06-27T08:56:18.673Z</time>
      </trkpt>
      <trkpt lat="47.19965" lon="-1.74568">
        <ele>13.687517</ele>
        <time>2022-06-27T08:56:26.817Z</time>
      </trkpt>
      <trkpt lat="47.1995" lon="-1.74585">
        <ele>13.53611</ele>
        <time>2022-06-27T08:56:33.130Z</time>
      </trkpt>
      <trkpt lat="47.19941" lon="-1.74606">
        <ele>13.392966</ele>
        <time>2022-06-27T08:56:38.898Z</time>
      </trkpt>
      <trkpt lat="47.19941" lon="-1.74606">
        <ele>13.390712</ele>
        <time>2022-06-27T08:56:38.970Z</time>
      </trkpt>
      <trkpt lat="47.19941" lon="-1.74623">
        <ele>13.297685</ele>
        <time>2022-06-27T08:56:42.921Z</time>
      </trkpt>
      <trkpt lat="47.19948" lon="-1.74637">
        <ele>13.156878</ele>
        <time>2022-06-27T08:56:46.786Z</time>
      </trkpt>
      <trkpt lat="47.19977" lon="-1.74649">
        <ele>12.428501</ele>
        <time>2022-06-27T08:56:56.598Z</time>
      </trkpt>
      <trkpt lat="47.19984" lon="-1.74659">
        <ele>12.186397</ele>
        <time>2022-06-27T08:56:59.690Z</time>
      </trkpt>
      <trkpt lat="47.19993" lon="-1.74698">
        <ele>11.4902</ele>
        <time>2022-06-27T08:57:08.669Z</time>
      </trkpt>
      <trkpt lat="47.2001" lon="-1.74734">
        <ele>10.764247</ele>
        <time>2022-06-27T08:57:14.025Z</time>
      </trkpt>
      <trkpt lat="47.20039" lon="-1.74853">
        <ele>8.71719</ele>
        <time>2022-06-27T08:57:29.543Z</time>
      </trkpt>
      <trkpt lat="47.20054" lon="-1.74864">
        <ele>8.545323</ele>
        <time>2022-06-27T08:57:32.603Z</time>
      </trkpt>
      <trkpt lat="47.201" lon="-1.74914">
        <ele>7.955727</ele>
        <time>2022-06-27T08:57:44.008Z</time>
      </trkpt>
      <trkpt lat="47.20111" lon="-1.74907">
        <ele>7.835425</ele>
        <time>2022-06-27T08:57:46.210Z</time>
      </trkpt>
      <trkpt lat="47.20147" lon="-1.74927">
        <ele>7.439189</ele>
        <time>2022-06-27T08:57:54.085Z</time>
      </trkpt>
      <trkpt lat="47.20155" lon="-1.74961">
        <ele>7.187116</ele>
        <time>2022-06-27T08:57:59.522Z</time>
      </trkpt>
      <trkpt lat="47.20171" lon="-1.75042">
        <ele>7.233917</ele>
        <time>2022-06-27T08:58:13.924Z</time>
      </trkpt>
      <trkpt lat="47.20182" lon="-1.751">
        <ele>7.643644</ele>
        <time>2022-06-27T08:58:25.869Z</time>
      </trkpt>
      <trkpt lat="47.20184" lon="-1.75107">
        <ele>7.691803</ele>
        <time>2022-06-27T08:58:27.307Z</time>
      </trkpt>
      <trkpt lat="47.202" lon="-1.75167">
        <ele>8.131792</ele>
        <time>2022-06-27T08:58:40.436Z</time>
      </trkpt>
      <trkpt lat="47.20214" lon="-1.75215">
        <ele>8.480766</ele>
        <time>2022-06-27T08:58:50.173Z</time>
      </trkpt>
      <trkpt lat="47.20223" lon="-1.75248">
        <ele>8.71243</ele>
        <time>2022-06-27T08:58:56.639Z</time>
      </trkpt>
      <trkpt lat="47.20231" lon="-1.75276">
        <ele>8.71243</ele>
        <time>2022-06-27T08:59:01.986Z</time>
      </trkpt>
      <trkpt lat="47.20262" lon="-1.75394">
        <ele>8.71243</ele>
        <time>2022-06-27T08:59:23.265Z</time>
      </trkpt>
      <trkpt lat="47.20272" lon="-1.75431">
        <ele>8.71243</ele>
        <time>2022-06-27T08:59:29.241Z</time>
      </trkpt>
      <trkpt lat="47.20277" lon="-1.75447">
        <ele>8.71243</ele>
        <time>2022-06-27T08:59:31.737Z</time>
      </trkpt>
    </trkseg>
  </trk>
</gpx>